<?xml version='1.0' encoding='UTF-8'?><gpx version="1.1" creator="JPX - https://github.com/jenetics/jpx" xmlns="http://www.topografix.com/GPX/1/1"><trk><trkseg><trkpt lat="45.5083622" lon="11.0918637"><ele>559.0</ele><time>2026-04-08T07:11:57.603Z</time></trkpt><trkpt lat="45.507778" lon="11.0929382"><ele>554.0</ele><time>2026-04-08T07:12:05.243Z</time></trkpt><trkpt lat="45.5067586" lon="11.0935535"><ele>528.0</ele><time>2026-04-08T07:12:18.259Z</time></trkpt><trkpt lat="45.5026817" lon="11.093255"><ele>528.0</ele><time>2026-04-08T07:12:55.79Z</time></trkpt><trkpt lat="45.5026083" lon="11.0932017"><ele>528.0</ele><time>2026-04-08T07:12:56.79Z</time></trkpt><trkpt lat="45.502535" lon="11.0931633"><ele>528.0</ele><time>2026-04-08T07:12:57.79Z</time></trkpt><trkpt lat="45.5015517" lon="11.09329"><ele>528.1666666666666</ele><time>2026-04-08T07:13:07.791Z</time></trkpt><trkpt lat="45.5014867" lon="11.0933667"><ele>528.3333333333334</ele><time>2026-04-08T07:13:08.79Z</time></trkpt><trkpt lat="45.5014267" lon="11.0934667"><ele>528.5</ele><time>2026-04-08T07:13:09.79Z</time></trkpt><trkpt lat="45.50134" lon="11.0935383"><ele>528.6666666666667</ele><time>2026-04-08T07:13:10.79Z</time></trkpt><trkpt lat="45.5012683" lon="11.0936083"><ele>528.8333333333334</ele><time>2026-04-08T07:13:11.791Z</time></trkpt><trkpt lat="45.5012083" lon="11.0936767"><ele>529.0</ele><time>2026-04-08T07:13:12.791Z</time></trkpt><trkpt lat="45.50118" lon="11.0937767"><ele>528.25</ele><time>2026-04-08T07:13:13.79Z</time></trkpt><trkpt lat="45.5011217" lon="11.09389"><ele>527.5</ele><time>2026-04-08T07:13:14.79Z</time></trkpt><trkpt lat="45.5010583" lon="11.0940483"><ele>526.75</ele><time>2026-04-08T07:13:15.791Z</time></trkpt><trkpt lat="45.5009967" lon="11.0941983"><ele>526.0</ele><time>2026-04-08T07:13:16.79Z</time></trkpt><trkpt lat="45.5009567" lon="11.0943517"><ele>526.0</ele><time>2026-04-08T07:13:17.791Z</time></trkpt><trkpt lat="45.50094" lon="11.0945067"><ele>526.0</ele><time>2026-04-08T07:13:18.79Z</time></trkpt><trkpt lat="45.5009383" lon="11.09466"><ele>526.0</ele><time>2026-04-08T07:13:19.79Z</time></trkpt><trkpt lat="45.500945" lon="11.0948133"><ele>526.0</ele><time>2026-04-08T07:13:20.791Z</time></trkpt><trkpt lat="45.5009483" lon="11.09496"><ele>526.0</ele><time>2026-04-08T07:13:21.791Z</time></trkpt><trkpt lat="45.5009417" lon="11.0950967"><ele>526.6666666666667</ele><time>2026-04-08T07:13:22.79Z</time></trkpt><trkpt lat="45.5009233" lon="11.0952183"><ele>527.3333333333334</ele><time>2026-04-08T07:13:23.79Z</time></trkpt><trkpt lat="45.5009233" lon="11.0953483"><ele>528.0</ele><time>2026-04-08T07:13:24.79Z</time></trkpt><trkpt lat="45.5009383" lon="11.0954733"><ele>528.6666666666666</ele><time>2026-04-08T07:13:25.79Z</time></trkpt><trkpt lat="45.50097" lon="11.0955783"><ele>529.3333333333333</ele><time>2026-04-08T07:13:26.791Z</time></trkpt><trkpt lat="45.501025" lon="11.0956317"><ele>530.0</ele><time>2026-04-08T07:13:27.79Z</time></trkpt><trkpt lat="45.5011" lon="11.0956933"><ele>531.5</ele><time>2026-04-08T07:13:28.79Z</time></trkpt><trkpt lat="45.5012017" lon="11.095765"><ele>533.0</ele><time>2026-04-08T07:13:29.791Z</time></trkpt><trkpt lat="45.501305" lon="11.0958467"><ele>534.5</ele><time>2026-04-08T07:13:30.79Z</time></trkpt><trkpt lat="45.50141" lon="11.095965"><ele>536.0</ele><time>2026-04-08T07:13:31.79Z</time></trkpt><trkpt lat="45.5015017" lon="11.0960867"><ele>538.0</ele><time>2026-04-08T07:13:32.791Z</time></trkpt><trkpt lat="45.5015917" lon="11.09618"><ele>540.0</ele><time>2026-04-08T07:13:33.79Z</time></trkpt><trkpt lat="45.5016967" lon="11.0962533"><ele>542.0</ele><time>2026-04-08T07:13:34.79Z</time></trkpt><trkpt lat="45.5018033" lon="11.0963183"><ele>544.0</ele><time>2026-04-08T07:13:35.79Z</time></trkpt><trkpt lat="45.501925" lon="11.096375"><ele>544.0</ele><time>2026-04-08T07:13:36.791Z</time></trkpt><trkpt lat="45.5020467" lon="11.0964417"><ele>544.0</ele><time>2026-04-08T07:13:37.791Z</time></trkpt><trkpt lat="45.502135" lon="11.096515"><ele>544.0</ele><time>2026-04-08T07:13:38.791Z</time></trkpt><trkpt lat="45.5021933" lon="11.0965783"><ele>544.0</ele><time>2026-04-08T07:13:39.791Z</time></trkpt><trkpt lat="45.50224" lon="11.096645"><ele>544.0</ele><time>2026-04-08T07:13:40.791Z</time></trkpt><trkpt lat="45.502295" lon="11.0967667"><ele>543.75</ele><time>2026-04-08T07:13:42.79Z</time></trkpt><trkpt lat="45.5022267" lon="11.0969417"><ele>543.5</ele><time>2026-04-08T07:13:44.79Z</time></trkpt><trkpt lat="45.50215" lon="11.0970717"><ele>543.25</ele><time>2026-04-08T07:13:45.79Z</time></trkpt><trkpt lat="45.50205" lon="11.0972267"><ele>543.0</ele><time>2026-04-08T07:13:46.791Z</time></trkpt><trkpt lat="45.50196" lon="11.0973717"><ele>545.0</ele><time>2026-04-08T07:13:47.79Z</time></trkpt><trkpt lat="45.50186" lon="11.0975367"><ele>547.0</ele><time>2026-04-08T07:13:48.791Z</time></trkpt><trkpt lat="45.5017733" lon="11.0976967"><ele>549.0</ele><time>2026-04-08T07:13:49.791Z</time></trkpt><trkpt lat="45.50171" lon="11.09785"><ele>551.0</ele><time>2026-04-08T07:13:50.791Z</time></trkpt><trkpt lat="45.501675" lon="11.0980367"><ele>551.0</ele><time>2026-04-08T07:13:51.79Z</time></trkpt><trkpt lat="45.5016267" lon="11.0982133"><ele>551.0</ele><time>2026-04-08T07:13:52.791Z</time></trkpt><trkpt lat="45.5015633" lon="11.0983833"><ele>551.0</ele><time>2026-04-08T07:13:53.79Z</time></trkpt><trkpt lat="45.5014983" lon="11.09855"><ele>551.0</ele><time>2026-04-08T07:13:54.791Z</time></trkpt><trkpt lat="45.5014033" lon="11.0987183"><ele>550.0</ele><time>2026-04-08T07:13:55.79Z</time></trkpt><trkpt lat="45.501315" lon="11.0988917"><ele>549.0</ele><time>2026-04-08T07:13:56.79Z</time></trkpt><trkpt lat="45.501225" lon="11.0990667"><ele>548.0</ele><time>2026-04-08T07:13:57.791Z</time></trkpt><trkpt lat="45.5011283" lon="11.0992517"><ele>550.6666666666666</ele><time>2026-04-08T07:13:58.791Z</time></trkpt><trkpt lat="45.5010383" lon="11.0994467"><ele>553.3333333333334</ele><time>2026-04-08T07:13:59.791Z</time></trkpt><trkpt lat="45.5009533" lon="11.09963"><ele>556.0</ele><time>2026-04-08T07:14:00.791Z</time></trkpt><trkpt lat="45.500875" lon="11.0998067"><ele>557.0</ele><time>2026-04-08T07:14:01.791Z</time></trkpt><trkpt lat="45.50081" lon="11.0999717"><ele>558.0</ele><time>2026-04-08T07:14:02.791Z</time></trkpt><trkpt lat="45.50074" lon="11.100155"><ele>559.0</ele><time>2026-04-08T07:14:03.79Z</time></trkpt><trkpt lat="45.50067" lon="11.1003517"><ele>560.0</ele><time>2026-04-08T07:14:04.79Z</time></trkpt><trkpt lat="45.5005933" lon="11.100545"><ele>560.0</ele><time>2026-04-08T07:14:05.791Z</time></trkpt><trkpt lat="45.5005167" lon="11.100735"><ele>560.0</ele><time>2026-04-08T07:14:06.791Z</time></trkpt><trkpt lat="45.5004517" lon="11.1009067"><ele>560.0</ele><time>2026-04-08T07:14:07.791Z</time></trkpt><trkpt lat="45.50039" lon="11.1010683"><ele>560.0</ele><time>2026-04-08T07:14:08.791Z</time></trkpt><trkpt lat="45.5003483" lon="11.101205"><ele>558.8</ele><time>2026-04-08T07:14:09.79Z</time></trkpt><trkpt lat="45.500315" lon="11.1013"><ele>557.6</ele><time>2026-04-08T07:14:10.79Z</time></trkpt><trkpt lat="45.5002517" lon="11.1013967"><ele>556.4</ele><time>2026-04-08T07:14:12.79Z</time></trkpt><trkpt lat="45.5001133" lon="11.101315"><ele>555.2</ele><time>2026-04-08T07:14:14.79Z</time></trkpt><trkpt lat="45.500005" lon="11.1012317"><ele>554.0</ele><time>2026-04-08T07:14:15.79Z</time></trkpt><trkpt lat="45.499895" lon="11.10114"><ele>554.0</ele><time>2026-04-08T07:14:16.791Z</time></trkpt><trkpt lat="45.4998" lon="11.10105"><ele>554.0</ele><time>2026-04-08T07:14:17.79Z</time></trkpt><trkpt lat="45.4997167" lon="11.1009817"><ele>554.0</ele><time>2026-04-08T07:14:18.791Z</time></trkpt><trkpt lat="45.499645" lon="11.1009333"><ele>554.0</ele><time>2026-04-08T07:14:19.791Z</time></trkpt><trkpt lat="45.4994983" lon="11.1009017"><ele>554.0</ele><time>2026-04-08T07:14:21.791Z</time></trkpt><trkpt lat="45.4993967" lon="11.1008967"><ele>552.75</ele><time>2026-04-08T07:14:22.791Z</time></trkpt><trkpt lat="45.4992683" lon="11.10089"><ele>551.5</ele><time>2026-04-08T07:14:23.791Z</time></trkpt><trkpt lat="45.499155" lon="11.1008733"><ele>550.25</ele><time>2026-04-08T07:14:24.791Z</time></trkpt><trkpt lat="45.4990317" lon="11.1008633"><ele>549.0</ele><time>2026-04-08T07:14:25.79Z</time></trkpt><trkpt lat="45.4989117" lon="11.1008217"><ele>549.0</ele><time>2026-04-08T07:14:26.79Z</time></trkpt><trkpt lat="45.4988117" lon="11.1007717"><ele>549.0</ele><time>2026-04-08T07:14:27.791Z</time></trkpt><trkpt lat="45.4986217" lon="11.1006517"><ele>549.0</ele><time>2026-04-08T07:14:29.79Z</time></trkpt><trkpt lat="45.4985333" lon="11.1005933"><ele>549.0</ele><time>2026-04-08T07:14:30.791Z</time></trkpt><trkpt lat="45.49845" lon="11.1005633"><ele>549.0</ele><time>2026-04-08T07:14:31.79Z</time></trkpt><trkpt lat="45.4983617" lon="11.10056"><ele>549.0</ele><time>2026-04-08T07:14:32.791Z</time></trkpt><trkpt lat="45.4982617" lon="11.1005767"><ele>549.0</ele><time>2026-04-08T07:14:33.791Z</time></trkpt><trkpt lat="45.4981533" lon="11.1006217"><ele>549.0</ele><time>2026-04-08T07:14:34.791Z</time></trkpt><trkpt lat="45.49805" lon="11.1006633"><ele>549.0</ele><time>2026-04-08T07:14:35.791Z</time></trkpt><trkpt lat="45.4979417" lon="11.1006967"><ele>547.6666666666666</ele><time>2026-04-08T07:14:36.791Z</time></trkpt><trkpt lat="45.4978233" lon="11.1007433"><ele>546.3333333333334</ele><time>2026-04-08T07:14:37.79Z</time></trkpt><trkpt lat="45.4977283" lon="11.100785"><ele>545.0</ele><time>2026-04-08T07:14:38.791Z</time></trkpt><trkpt lat="45.497655" lon="11.100835"><ele>543.6666666666667</ele><time>2026-04-08T07:14:39.79Z</time></trkpt><trkpt lat="45.4976" lon="11.1008917"><ele>542.3333333333334</ele><time>2026-04-08T07:14:40.79Z</time></trkpt><trkpt lat="45.49756" lon="11.1009767"><ele>541.0</ele><time>2026-04-08T07:14:41.79Z</time></trkpt><trkpt lat="45.4975283" lon="11.10106"><ele>541.0</ele><time>2026-04-08T07:14:42.791Z</time></trkpt><trkpt lat="45.4974583" lon="11.10119"><ele>541.0</ele><time>2026-04-08T07:14:44.791Z</time></trkpt><trkpt lat="45.4973517" lon="11.1012733"><ele>541.0</ele><time>2026-04-08T07:14:46.79Z</time></trkpt><trkpt lat="45.4972283" lon="11.1013117"><ele>541.0</ele><time>2026-04-08T07:14:48.79Z</time></trkpt><trkpt lat="45.4971567" lon="11.1013133"><ele>541.0</ele><time>2026-04-08T07:14:49.79Z</time></trkpt><trkpt lat="45.4970733" lon="11.1012917"><ele>537.6</ele><time>2026-04-08T07:14:50.79Z</time></trkpt><trkpt lat="45.4969833" lon="11.1012633"><ele>534.2</ele><time>2026-04-08T07:14:51.791Z</time></trkpt><trkpt lat="45.496885" lon="11.1012467"><ele>530.8</ele><time>2026-04-08T07:14:52.791Z</time></trkpt><trkpt lat="45.4968017" lon="11.1012417"><ele>527.4</ele><time>2026-04-08T07:14:53.79Z</time></trkpt><trkpt lat="45.4967267" lon="11.1012517"><ele>524.0</ele><time>2026-04-08T07:14:54.79Z</time></trkpt><trkpt lat="45.4966283" lon="11.10133"><ele>524.0</ele><time>2026-04-08T07:14:56.79Z</time></trkpt><trkpt lat="45.496595" lon="11.10144"><ele>524.0</ele><time>2026-04-08T07:14:57.791Z</time></trkpt><trkpt lat="45.4965533" lon="11.1015533"><ele>524.0</ele><time>2026-04-08T07:14:58.791Z</time></trkpt><trkpt lat="45.496495" lon="11.1016533"><ele>524.0</ele><time>2026-04-08T07:14:59.79Z</time></trkpt><trkpt lat="45.496425" lon="11.1017433"><ele>524.0</ele><time>2026-04-08T07:15:00.791Z</time></trkpt><trkpt lat="45.496335" lon="11.101825"><ele>519.0</ele><time>2026-04-08T07:15:01.79Z</time></trkpt><trkpt lat="45.496215" lon="11.1019183"><ele>514.0</ele><time>2026-04-08T07:15:02.791Z</time></trkpt><trkpt lat="45.4961217" lon="11.1020083"><ele>509.0</ele><time>2026-04-08T07:15:03.79Z</time></trkpt><trkpt lat="45.4960283" lon="11.1020883"><ele>504.0</ele><time>2026-04-08T07:15:04.79Z</time></trkpt><trkpt lat="45.4959517" lon="11.1021683"><ele>504.0</ele><time>2026-04-08T07:15:05.791Z</time></trkpt><trkpt lat="45.4958583" lon="11.10223"><ele>504.0</ele><time>2026-04-08T07:15:06.791Z</time></trkpt><trkpt lat="45.4957733" lon="11.102275"><ele>504.0</ele><time>2026-04-08T07:15:07.79Z</time></trkpt><trkpt lat="45.4956983" lon="11.1023167"><ele>504.0</ele><time>2026-04-08T07:15:08.79Z</time></trkpt><trkpt lat="45.4956333" lon="11.10236"><ele>504.0</ele><time>2026-04-08T07:15:09.79Z</time></trkpt><trkpt lat="45.4955733" lon="11.1024133"><ele>504.0</ele><time>2026-04-08T07:15:10.79Z</time></trkpt><trkpt lat="45.49553" lon="11.1024833"><ele>505.6</ele><time>2026-04-08T07:15:11.791Z</time></trkpt><trkpt lat="45.4954867" lon="11.102595"><ele>507.2</ele><time>2026-04-08T07:15:12.79Z</time></trkpt><trkpt lat="45.4954417" lon="11.10274"><ele>508.80000000000007</ele><time>2026-04-08T07:15:13.791Z</time></trkpt><trkpt lat="45.495405" lon="11.1028767"><ele>510.40000000000003</ele><time>2026-04-08T07:15:14.79Z</time></trkpt><trkpt lat="45.4953783" lon="11.1029933"><ele>512.0</ele><time>2026-04-08T07:15:15.791Z</time></trkpt><trkpt lat="45.4953617" lon="11.103105"><ele>511.16666666666663</ele><time>2026-04-08T07:15:16.791Z</time></trkpt><trkpt lat="45.4953617" lon="11.1032267"><ele>510.3333333333333</ele><time>2026-04-08T07:15:17.79Z</time></trkpt><trkpt lat="45.4953817" lon="11.1033567"><ele>509.5</ele><time>2026-04-08T07:15:18.791Z</time></trkpt><trkpt lat="45.4954083" lon="11.103475"><ele>508.66666666666663</ele><time>2026-04-08T07:15:19.79Z</time></trkpt><trkpt lat="45.4954233" lon="11.1035867"><ele>507.8333333333333</ele><time>2026-04-08T07:15:20.79Z</time></trkpt><trkpt lat="45.495425" lon="11.1036783"><ele>507.0</ele><time>2026-04-08T07:15:21.79Z</time></trkpt><trkpt lat="45.4953733" lon="11.1038317"><ele>503.20000000000005</ele><time>2026-04-08T07:15:23.79Z</time></trkpt><trkpt lat="45.4953" lon="11.10389"><ele>499.40000000000003</ele><time>2026-04-08T07:15:24.791Z</time></trkpt><trkpt lat="45.4952217" lon="11.1039767"><ele>495.59999999999997</ele><time>2026-04-08T07:15:25.79Z</time></trkpt><trkpt lat="45.4951267" lon="11.10409"><ele>491.79999999999995</ele><time>2026-04-08T07:15:26.791Z</time></trkpt><trkpt lat="45.4950267" lon="11.10423"><ele>488.0</ele><time>2026-04-08T07:15:27.791Z</time></trkpt><trkpt lat="45.4949617" lon="11.1043533"><ele>488.0</ele><time>2026-04-08T07:15:28.79Z</time></trkpt><trkpt lat="45.4948733" lon="11.1044617"><ele>488.0</ele><time>2026-04-08T07:15:29.791Z</time></trkpt><trkpt lat="45.4947767" lon="11.10456"><ele>488.0</ele><time>2026-04-08T07:15:30.79Z</time></trkpt><trkpt lat="45.4946633" lon="11.1046467"><ele>488.0</ele><time>2026-04-08T07:15:31.79Z</time></trkpt><trkpt lat="45.4945533" lon="11.1047167"><ele>483.0</ele><time>2026-04-08T07:15:32.79Z</time></trkpt><trkpt lat="45.4944383" lon="11.1047783"><ele>478.0</ele><time>2026-04-08T07:15:33.791Z</time></trkpt><trkpt lat="45.4943167" lon="11.1048283"><ele>473.0</ele><time>2026-04-08T07:15:34.791Z</time></trkpt><trkpt lat="45.494195" lon="11.1048767"><ele>468.0</ele><time>2026-04-08T07:15:35.789Z</time></trkpt><trkpt lat="45.4940733" lon="11.10493"><ele>468.0</ele><time>2026-04-08T07:15:36.789Z</time></trkpt><trkpt lat="45.4939567" lon="11.1049983"><ele>467.99999999999994</ele><time>2026-04-08T07:15:37.79Z</time></trkpt><trkpt lat="45.4938617" lon="11.1050667"><ele>467.99999999999994</ele><time>2026-04-08T07:15:38.79Z</time></trkpt><trkpt lat="45.493775" lon="11.105115"><ele>468.0</ele><time>2026-04-08T07:15:39.789Z</time></trkpt><trkpt lat="45.4936933" lon="11.1051517"><ele>468.0</ele><time>2026-04-08T07:15:40.79Z</time></trkpt><trkpt lat="45.4935983" lon="11.105165"><ele>464.5</ele><time>2026-04-08T07:15:41.79Z</time></trkpt><trkpt lat="45.4934883" lon="11.1051767"><ele>461.0</ele><time>2026-04-08T07:15:42.79Z</time></trkpt><trkpt lat="45.4933633" lon="11.1052"><ele>457.5</ele><time>2026-04-08T07:15:43.789Z</time></trkpt><trkpt lat="45.4932517" lon="11.1052183"><ele>454.0</ele><time>2026-04-08T07:15:44.79Z</time></trkpt><trkpt lat="45.4931517" lon="11.1052533"><ele>454.00000000000006</ele><time>2026-04-08T07:15:45.789Z</time></trkpt><trkpt lat="45.4930733" lon="11.1053067"><ele>454.0</ele><time>2026-04-08T07:15:46.789Z</time></trkpt><trkpt lat="45.4930033" lon="11.1053617"><ele>454.0</ele><time>2026-04-08T07:15:47.79Z</time></trkpt><trkpt lat="45.49293" lon="11.1054083"><ele>454.0</ele><time>2026-04-08T07:15:48.79Z</time></trkpt><trkpt lat="45.49287" lon="11.1054433"><ele>454.00000000000006</ele><time>2026-04-08T07:15:49.79Z</time></trkpt><trkpt lat="45.4927933" lon="11.10549"><ele>454.0</ele><time>2026-04-08T07:15:51.789Z</time></trkpt><trkpt lat="45.4927183" lon="11.105595"><ele>452.00000000000006</ele><time>2026-04-08T07:15:53.79Z</time></trkpt><trkpt lat="45.492665" lon="11.1056783"><ele>450.0</ele><time>2026-04-08T07:15:54.79Z</time></trkpt><trkpt lat="45.49263" lon="11.10577"><ele>448.0</ele><time>2026-04-08T07:15:55.79Z</time></trkpt><trkpt lat="45.4925733" lon="11.1058917"><ele>446.0</ele><time>2026-04-08T07:15:57.789Z</time></trkpt><trkpt lat="45.4925133" lon="11.1059783"><ele>444.00000000000006</ele><time>2026-04-08T07:16:00.79Z</time></trkpt><trkpt lat="45.4924383" lon="11.106055"><ele>442.0</ele><time>2026-04-08T07:16:03.789Z</time></trkpt><trkpt lat="45.4923217" lon="11.1061383"><ele>442.0</ele><time>2026-04-08T07:16:05.789Z</time></trkpt><trkpt lat="45.4922233" lon="11.1061733"><ele>442.00000000000006</ele><time>2026-04-08T07:16:06.79Z</time></trkpt><trkpt lat="45.4921117" lon="11.106185"><ele>442.00000000000006</ele><time>2026-04-08T07:16:07.79Z</time></trkpt><trkpt lat="45.4920233" lon="11.106175"><ele>442.0</ele><time>2026-04-08T07:16:08.79Z</time></trkpt><trkpt lat="45.49194" lon="11.1061617"><ele>442.0</ele><time>2026-04-08T07:16:09.79Z</time></trkpt><trkpt lat="45.491875" lon="11.106105"><ele>441.33333333333337</ele><time>2026-04-08T07:16:10.79Z</time></trkpt><trkpt lat="45.491815" lon="11.106055"><ele>440.6666666666667</ele><time>2026-04-08T07:16:11.79Z</time></trkpt><trkpt lat="45.4917617" lon="11.1059933"><ele>440.0</ele><time>2026-04-08T07:16:12.789Z</time></trkpt><trkpt lat="45.4917067" lon="11.1059333"><ele>439.33333333333337</ele><time>2026-04-08T07:16:13.79Z</time></trkpt><trkpt lat="45.4916417" lon="11.1058733"><ele>438.6666666666667</ele><time>2026-04-08T07:16:14.79Z</time></trkpt><trkpt lat="45.4915267" lon="11.105825"><ele>438.0</ele><time>2026-04-08T07:16:16.789Z</time></trkpt><trkpt lat="45.4914567" lon="11.1058067"><ele>438.0</ele><time>2026-04-08T07:16:17.789Z</time></trkpt><trkpt lat="45.4913933" lon="11.105775"><ele>438.0</ele><time>2026-04-08T07:16:18.79Z</time></trkpt><trkpt lat="45.49133" lon="11.105735"><ele>438.0</ele><time>2026-04-08T07:16:19.789Z</time></trkpt><trkpt lat="45.4912633" lon="11.1057"><ele>438.0</ele><time>2026-04-08T07:16:20.79Z</time></trkpt><trkpt lat="45.4911983" lon="11.1056467"><ele>438.0</ele><time>2026-04-08T07:16:21.79Z</time></trkpt><trkpt lat="45.4911417" lon="11.1055867"><ele>438.0</ele><time>2026-04-08T07:16:22.789Z</time></trkpt><trkpt lat="45.4910717" lon="11.10553"><ele>438.0</ele><time>2026-04-08T07:16:23.789Z</time></trkpt><trkpt lat="45.491005" lon="11.1054733"><ele>435.79999999999995</ele><time>2026-04-08T07:16:24.789Z</time></trkpt><trkpt lat="45.4909133" lon="11.1054283"><ele>433.59999999999997</ele><time>2026-04-08T07:16:25.789Z</time></trkpt><trkpt lat="45.4908217" lon="11.1053983"><ele>431.40000000000003</ele><time>2026-04-08T07:16:26.789Z</time></trkpt><trkpt lat="45.4907167" lon="11.105365"><ele>429.20000000000005</ele><time>2026-04-08T07:16:27.79Z</time></trkpt><trkpt lat="45.490615" lon="11.105345"><ele>427.0</ele><time>2026-04-08T07:16:28.79Z</time></trkpt><trkpt lat="45.49052" lon="11.1053333"><ele>427.00000000000006</ele><time>2026-04-08T07:16:29.79Z</time></trkpt><trkpt lat="45.490435" lon="11.105335"><ele>427.0</ele><time>2026-04-08T07:16:30.79Z</time></trkpt><trkpt lat="45.4903517" lon="11.1053467"><ele>427.0</ele><time>2026-04-08T07:16:31.79Z</time></trkpt><trkpt lat="45.4902617" lon="11.1053717"><ele>427.0</ele><time>2026-04-08T07:16:32.79Z</time></trkpt><trkpt lat="45.4901783" lon="11.105415"><ele>427.00000000000006</ele><time>2026-04-08T07:16:33.79Z</time></trkpt><trkpt lat="45.4901017" lon="11.1054717"><ele>427.0</ele><time>2026-04-08T07:16:34.789Z</time></trkpt><trkpt lat="45.4900333" lon="11.105535"><ele>426.6</ele><time>2026-04-08T07:16:35.789Z</time></trkpt><trkpt lat="45.489975" lon="11.1056067"><ele>426.20000000000005</ele><time>2026-04-08T07:16:36.79Z</time></trkpt><trkpt lat="45.4899083" lon="11.1056633"><ele>425.8</ele><time>2026-04-08T07:16:37.79Z</time></trkpt><trkpt lat="45.4898117" lon="11.1057167"><ele>425.4</ele><time>2026-04-08T07:16:38.79Z</time></trkpt><trkpt lat="45.4897" lon="11.1057867"><ele>425.0</ele><time>2026-04-08T07:16:39.79Z</time></trkpt><trkpt lat="45.4895917" lon="11.10586"><ele>424.25</ele><time>2026-04-08T07:16:40.79Z</time></trkpt><trkpt lat="45.489485" lon="11.1059517"><ele>423.5</ele><time>2026-04-08T07:16:41.789Z</time></trkpt><trkpt lat="45.489375" lon="11.1060583"><ele>422.75</ele><time>2026-04-08T07:16:42.789Z</time></trkpt><trkpt lat="45.4892583" lon="11.1061517"><ele>422.0</ele><time>2026-04-08T07:16:43.789Z</time></trkpt><trkpt lat="45.4891433" lon="11.1062367"><ele>422.0</ele><time>2026-04-08T07:16:44.79Z</time></trkpt><trkpt lat="45.4890333" lon="11.1063117"><ele>422.0</ele><time>2026-04-08T07:16:45.789Z</time></trkpt><trkpt lat="45.4889267" lon="11.1063833"><ele>422.0</ele><time>2026-04-08T07:16:46.789Z</time></trkpt><trkpt lat="45.4888267" lon="11.106445"><ele>422.0</ele><time>2026-04-08T07:16:47.789Z</time></trkpt><trkpt lat="45.4887433" lon="11.1064817"><ele>422.0</ele><time>2026-04-08T07:16:48.79Z</time></trkpt><trkpt lat="45.48866" lon="11.10652"><ele>420.0</ele><time>2026-04-08T07:16:49.789Z</time></trkpt><trkpt lat="45.4885783" lon="11.1065783"><ele>418.0</ele><time>2026-04-08T07:16:50.79Z</time></trkpt><trkpt lat="45.4884983" lon="11.10665"><ele>416.0</ele><time>2026-04-08T07:16:51.789Z</time></trkpt><trkpt lat="45.488405" lon="11.1067333"><ele>414.0</ele><time>2026-04-08T07:16:52.789Z</time></trkpt><trkpt lat="45.4883133" lon="11.10682"><ele>412.0</ele><time>2026-04-08T07:16:53.789Z</time></trkpt><trkpt lat="45.4882283" lon="11.1069"><ele>412.00000000000006</ele><time>2026-04-08T07:16:54.79Z</time></trkpt><trkpt lat="45.488155" lon="11.1069733"><ele>412.0</ele><time>2026-04-08T07:16:55.79Z</time></trkpt><trkpt lat="45.4880933" lon="11.10704"><ele>412.0</ele><time>2026-04-08T07:16:56.79Z</time></trkpt><trkpt lat="45.4880433" lon="11.107095"><ele>412.0</ele><time>2026-04-08T07:16:57.789Z</time></trkpt><trkpt lat="45.4879417" lon="11.10718"><ele>412.00000000000006</ele><time>2026-04-08T07:16:59.789Z</time></trkpt><trkpt lat="45.487875" lon="11.1072017"><ele>412.0</ele><time>2026-04-08T07:17:00.79Z</time></trkpt><trkpt lat="45.4878067" lon="11.10722"><ele>409.1666666666667</ele><time>2026-04-08T07:17:01.79Z</time></trkpt><trkpt lat="45.48773" lon="11.107225"><ele>406.33333333333337</ele><time>2026-04-08T07:17:02.789Z</time></trkpt><trkpt lat="45.4876633" lon="11.1072417"><ele>403.5</ele><time>2026-04-08T07:17:03.789Z</time></trkpt><trkpt lat="45.4876083" lon="11.107295"><ele>400.66666666666663</ele><time>2026-04-08T07:17:04.789Z</time></trkpt><trkpt lat="45.4875167" lon="11.107405"><ele>397.8333333333333</ele><time>2026-04-08T07:17:06.79Z</time></trkpt><trkpt lat="45.4874583" lon="11.10745"><ele>395.0</ele><time>2026-04-08T07:17:07.789Z</time></trkpt><trkpt lat="45.4873517" lon="11.1075283"><ele>394.99999999999994</ele><time>2026-04-08T07:17:09.789Z</time></trkpt><trkpt lat="45.4872617" lon="11.1076417"><ele>395.0</ele><time>2026-04-08T07:17:11.789Z</time></trkpt><trkpt lat="45.4872167" lon="11.107725"><ele>395.0</ele><time>2026-04-08T07:17:12.789Z</time></trkpt><trkpt lat="45.4871717" lon="11.1078033"><ele>395.0</ele><time>2026-04-08T07:17:13.789Z</time></trkpt><trkpt lat="45.4871217" lon="11.107895"><ele>394.99999999999994</ele><time>2026-04-08T07:17:14.789Z</time></trkpt><trkpt lat="45.487075" lon="11.1079867"><ele>395.0</ele><time>2026-04-08T07:17:15.789Z</time></trkpt><trkpt lat="45.4870467" lon="11.1080983"><ele>390.49999999999994</ele><time>2026-04-08T07:17:16.789Z</time></trkpt><trkpt lat="45.4870217" lon="11.1082033"><ele>386.0</ele><time>2026-04-08T07:17:17.79Z</time></trkpt><trkpt lat="45.4869883" lon="11.108345"><ele>381.5</ele><time>2026-04-08T07:17:18.79Z</time></trkpt><trkpt lat="45.4869767" lon="11.1084433"><ele>377.0</ele><time>2026-04-08T07:17:19.79Z</time></trkpt><trkpt lat="45.4869817" lon="11.108545"><ele>372.5</ele><time>2026-04-08T07:17:20.79Z</time></trkpt><trkpt lat="45.4869617" lon="11.1086983"><ele>368.0</ele><time>2026-04-08T07:17:22.79Z</time></trkpt><trkpt lat="45.4869067" lon="11.1087933"><ele>368.0</ele><time>2026-04-08T07:17:24.79Z</time></trkpt><trkpt lat="45.4868217" lon="11.1088517"><ele>368.0</ele><time>2026-04-08T07:17:26.79Z</time></trkpt><trkpt lat="45.4867" lon="11.1088383"><ele>368.0</ele><time>2026-04-08T07:17:28.79Z</time></trkpt><trkpt lat="45.4865883" lon="11.10882"><ele>368.0</ele><time>2026-04-08T07:17:30.79Z</time></trkpt><trkpt lat="45.486525" lon="11.1088167"><ele>368.0</ele><time>2026-04-08T07:17:31.79Z</time></trkpt><trkpt lat="45.48645" lon="11.108805"><ele>368.0</ele><time>2026-04-08T07:17:32.789Z</time></trkpt><trkpt lat="45.4863283" lon="11.1087767"><ele>368.0</ele><time>2026-04-08T07:17:34.789Z</time></trkpt><trkpt lat="45.48626" lon="11.10874"><ele>368.0</ele><time>2026-04-08T07:17:35.79Z</time></trkpt><trkpt lat="45.4861783" lon="11.108695"><ele>368.0</ele><time>2026-04-08T07:17:36.789Z</time></trkpt><trkpt lat="45.48607" lon="11.1086467"><ele>368.0</ele><time>2026-04-08T07:17:37.79Z</time></trkpt><trkpt lat="45.4859583" lon="11.1086017"><ele>362.75</ele><time>2026-04-08T07:17:38.79Z</time></trkpt><trkpt lat="45.4858517" lon="11.108575"><ele>357.5</ele><time>2026-04-08T07:17:39.789Z</time></trkpt><trkpt lat="45.485735" lon="11.10854"><ele>352.25</ele><time>2026-04-08T07:17:40.79Z</time></trkpt><trkpt lat="45.48562" lon="11.1085083"><ele>347.0</ele><time>2026-04-08T07:17:41.79Z</time></trkpt><trkpt lat="45.4855133" lon="11.108475"><ele>344.0</ele><time>2026-04-08T07:17:42.789Z</time></trkpt><trkpt lat="45.4853883" lon="11.1084517"><ele>341.0</ele><time>2026-04-08T07:17:43.79Z</time></trkpt><trkpt lat="45.48528" lon="11.1084333"><ele>338.0</ele><time>2026-04-08T07:17:44.789Z</time></trkpt><trkpt lat="45.485175" lon="11.1084233"><ele>335.0</ele><time>2026-04-08T07:17:45.789Z</time></trkpt><trkpt lat="45.48509" lon="11.1084333"><ele>332.0</ele><time>2026-04-08T07:17:46.789Z</time></trkpt><trkpt lat="45.485015" lon="11.1084617"><ele>332.0</ele><time>2026-04-08T07:17:47.79Z</time></trkpt><trkpt lat="45.48494" lon="11.108505"><ele>332.0</ele><time>2026-04-08T07:17:48.789Z</time></trkpt><trkpt lat="45.4848717" lon="11.1085667"><ele>332.0</ele><time>2026-04-08T07:17:49.79Z</time></trkpt><trkpt lat="45.48481" lon="11.1086183"><ele>332.0</ele><time>2026-04-08T07:17:50.79Z</time></trkpt><trkpt lat="45.484755" lon="11.108675"><ele>332.0</ele><time>2026-04-08T07:17:51.789Z</time></trkpt><trkpt lat="45.4847083" lon="11.10875"><ele>332.0</ele><time>2026-04-08T07:17:52.789Z</time></trkpt><trkpt lat="45.48468" lon="11.108845"><ele>332.0</ele><time>2026-04-08T07:17:53.79Z</time></trkpt><trkpt lat="45.484665" lon="11.1089433"><ele>332.0</ele><time>2026-04-08T07:17:54.789Z</time></trkpt><trkpt lat="45.4846667" lon="11.1090367"><ele>332.0</ele><time>2026-04-08T07:17:55.789Z</time></trkpt><trkpt lat="45.4846333" lon="11.1091833"><ele>332.0</ele><time>2026-04-08T07:17:57.789Z</time></trkpt><trkpt lat="45.484565" lon="11.1092783"><ele>332.0</ele><time>2026-04-08T07:17:59.79Z</time></trkpt><trkpt lat="45.4844383" lon="11.1093267"><ele>332.0</ele><time>2026-04-08T07:18:01.79Z</time></trkpt><trkpt lat="45.4843467" lon="11.1093417"><ele>330.20000000000005</ele><time>2026-04-08T07:18:02.789Z</time></trkpt><trkpt lat="45.4842433" lon="11.1093517"><ele>328.4</ele><time>2026-04-08T07:18:03.79Z</time></trkpt><trkpt lat="45.4841467" lon="11.1093817"><ele>326.6</ele><time>2026-04-08T07:18:04.79Z</time></trkpt><trkpt lat="45.4840583" lon="11.1094333"><ele>324.79999999999995</ele><time>2026-04-08T07:18:05.789Z</time></trkpt><trkpt lat="45.4839633" lon="11.1095017"><ele>323.0</ele><time>2026-04-08T07:18:06.79Z</time></trkpt><trkpt lat="45.4838733" lon="11.1095517"><ele>323.0</ele><time>2026-04-08T07:18:07.789Z</time></trkpt><trkpt lat="45.4837917" lon="11.1095983"><ele>323.0</ele><time>2026-04-08T07:18:08.79Z</time></trkpt><trkpt lat="45.4837183" lon="11.10963"><ele>323.0</ele><time>2026-04-08T07:18:09.789Z</time></trkpt><trkpt lat="45.4836067" lon="11.1096767"><ele>323.0</ele><time>2026-04-08T07:18:11.79Z</time></trkpt><trkpt lat="45.4834967" lon="11.1097683"><ele>323.0</ele><time>2026-04-08T07:18:13.79Z</time></trkpt><trkpt lat="45.4834333" lon="11.1098383"><ele>319.2</ele><time>2026-04-08T07:18:14.789Z</time></trkpt><trkpt lat="45.48337" lon="11.1099233"><ele>315.4</ele><time>2026-04-08T07:18:15.789Z</time></trkpt><trkpt lat="45.4833" lon="11.11"><ele>311.59999999999997</ele><time>2026-04-08T07:18:16.789Z</time></trkpt><trkpt lat="45.4832317" lon="11.110075"><ele>307.79999999999995</ele><time>2026-04-08T07:18:17.789Z</time></trkpt><trkpt lat="45.4831533" lon="11.11015"><ele>304.0</ele><time>2026-04-08T07:18:18.79Z</time></trkpt><trkpt lat="45.4830733" lon="11.11022"><ele>304.0</ele><time>2026-04-08T07:18:19.789Z</time></trkpt><trkpt lat="45.4829917" lon="11.1102917"><ele>304.0</ele><time>2026-04-08T07:18:20.789Z</time></trkpt><trkpt lat="45.4828967" lon="11.110385"><ele>304.0</ele><time>2026-04-08T07:18:21.789Z</time></trkpt><trkpt lat="45.4828183" lon="11.1104733"><ele>304.0</ele><time>2026-04-08T07:18:22.79Z</time></trkpt><trkpt lat="45.4827483" lon="11.11055"><ele>304.0</ele><time>2026-04-08T07:18:23.789Z</time></trkpt><trkpt lat="45.482675" lon="11.1106183"><ele>303.8</ele><time>2026-04-08T07:18:24.789Z</time></trkpt><trkpt lat="45.482585" lon="11.11069"><ele>303.59999999999997</ele><time>2026-04-08T07:18:25.789Z</time></trkpt><trkpt lat="45.4825" lon="11.1107517"><ele>303.4</ele><time>2026-04-08T07:18:26.789Z</time></trkpt><trkpt lat="45.4823983" lon="11.1108083"><ele>303.2</ele><time>2026-04-08T07:18:27.789Z</time></trkpt><trkpt lat="45.4823117" lon="11.11085"><ele>303.0</ele><time>2026-04-08T07:18:28.79Z</time></trkpt><trkpt lat="45.4822317" lon="11.110865"><ele>300.3333333333333</ele><time>2026-04-08T07:18:29.79Z</time></trkpt><trkpt lat="45.4821483" lon="11.1108717"><ele>297.6666666666667</ele><time>2026-04-08T07:18:30.79Z</time></trkpt><trkpt lat="45.4820617" lon="11.1108833"><ele>295.0</ele><time>2026-04-08T07:18:31.789Z</time></trkpt><trkpt lat="45.4819717" lon="11.1109083"><ele>292.33333333333337</ele><time>2026-04-08T07:18:32.79Z</time></trkpt><trkpt lat="45.4818883" lon="11.11094"><ele>289.6666666666667</ele><time>2026-04-08T07:18:33.789Z</time></trkpt><trkpt lat="45.481815" lon="11.1109717"><ele>287.0</ele><time>2026-04-08T07:18:34.79Z</time></trkpt><trkpt lat="45.4817417" lon="11.1110033"><ele>286.83333333333337</ele><time>2026-04-08T07:18:35.79Z</time></trkpt><trkpt lat="45.4816717" lon="11.1110283"><ele>286.6666666666667</ele><time>2026-04-08T07:18:36.79Z</time></trkpt><trkpt lat="45.4815933" lon="11.1110783"><ele>286.5</ele><time>2026-04-08T07:18:37.79Z</time></trkpt><trkpt lat="45.4815167" lon="11.1111283"><ele>286.3333333333333</ele><time>2026-04-08T07:18:38.79Z</time></trkpt><trkpt lat="45.4814533" lon="11.1112183"><ele>286.16666666666663</ele><time>2026-04-08T07:18:39.79Z</time></trkpt><trkpt lat="45.4813867" lon="11.1113267"><ele>286.0</ele><time>2026-04-08T07:18:40.79Z</time></trkpt><trkpt lat="45.4813183" lon="11.11146"><ele>282.0</ele><time>2026-04-08T07:18:41.789Z</time></trkpt><trkpt lat="45.4812583" lon="11.111605"><ele>278.0</ele><time>2026-04-08T07:18:42.79Z</time></trkpt><trkpt lat="45.4812183" lon="11.1117417"><ele>274.0</ele><time>2026-04-08T07:18:43.789Z</time></trkpt><trkpt lat="45.48119" lon="11.1118683"><ele>270.0</ele><time>2026-04-08T07:18:44.79Z</time></trkpt><trkpt lat="45.4811767" lon="11.112"><ele>266.0</ele><time>2026-04-08T07:18:45.789Z</time></trkpt><trkpt lat="45.48117" lon="11.11215"><ele>266.0</ele><time>2026-04-08T07:18:46.79Z</time></trkpt><trkpt lat="45.4811567" lon="11.1123283"><ele>266.0</ele><time>2026-04-08T07:18:47.789Z</time></trkpt><trkpt lat="45.481135" lon="11.1125017"><ele>266.0</ele><time>2026-04-08T07:18:48.789Z</time></trkpt><trkpt lat="45.4810967" lon="11.1126667"><ele>266.0</ele><time>2026-04-08T07:18:49.789Z</time></trkpt><trkpt lat="45.481055" lon="11.1128367"><ele>263.6</ele><time>2026-04-08T07:18:50.79Z</time></trkpt><trkpt lat="45.4810233" lon="11.113005"><ele>261.20000000000005</ele><time>2026-04-08T07:18:51.789Z</time></trkpt><trkpt lat="45.4810067" lon="11.1131417"><ele>258.79999999999995</ele><time>2026-04-08T07:18:52.789Z</time></trkpt><trkpt lat="45.481" lon="11.11326"><ele>256.4</ele><time>2026-04-08T07:18:53.789Z</time></trkpt><trkpt lat="45.4810117" lon="11.1133767"><ele>254.0</ele><time>2026-04-08T07:18:54.79Z</time></trkpt><trkpt lat="45.4810367" lon="11.1135"><ele>253.00000000000003</ele><time>2026-04-08T07:18:55.789Z</time></trkpt><trkpt lat="45.4810667" lon="11.1136217"><ele>252.0</ele><time>2026-04-08T07:18:56.79Z</time></trkpt><trkpt lat="45.4811" lon="11.1137267"><ele>251.0</ele><time>2026-04-08T07:18:57.789Z</time></trkpt><trkpt lat="45.4811367" lon="11.1138083"><ele>250.0</ele><time>2026-04-08T07:18:58.789Z</time></trkpt><trkpt lat="45.4812383" lon="11.1138833"><ele>249.00000000000003</ele><time>2026-04-08T07:19:00.79Z</time></trkpt><trkpt lat="45.4813183" lon="11.1138767"><ele>248.0</ele><time>2026-04-08T07:19:01.79Z</time></trkpt><trkpt lat="45.4814217" lon="11.113875"><ele>248.0</ele><time>2026-04-08T07:19:02.79Z</time></trkpt><trkpt lat="45.4815217" lon="11.113895"><ele>248.0</ele><time>2026-04-08T07:19:03.789Z</time></trkpt><trkpt lat="45.481625" lon="11.1139217"><ele>248.0</ele><time>2026-04-08T07:19:04.79Z</time></trkpt><trkpt lat="45.4817117" lon="11.1139283"><ele>248.0</ele><time>2026-04-08T07:19:05.789Z</time></trkpt><trkpt lat="45.4818017" lon="11.1139317"><ele>248.0</ele><time>2026-04-08T07:19:06.789Z</time></trkpt><trkpt lat="45.481895" lon="11.1138917"><ele>248.0</ele><time>2026-04-08T07:19:07.789Z</time></trkpt><trkpt lat="45.4819883" lon="11.1138267"><ele>248.0</ele><time>2026-04-08T07:19:08.789Z</time></trkpt><trkpt lat="45.48208" lon="11.1137333"><ele>248.0</ele><time>2026-04-08T07:19:09.79Z</time></trkpt><trkpt lat="45.4821667" lon="11.1136383"><ele>248.0</ele><time>2026-04-08T07:19:10.79Z</time></trkpt><trkpt lat="45.48224" lon="11.1135567"><ele>248.0</ele><time>2026-04-08T07:19:11.789Z</time></trkpt><trkpt lat="45.482305" lon="11.113485"><ele>245.4</ele><time>2026-04-08T07:19:12.79Z</time></trkpt><trkpt lat="45.48236" lon="11.1134267"><ele>242.8</ele><time>2026-04-08T07:19:13.789Z</time></trkpt><trkpt lat="45.482445" lon="11.1133183"><ele>240.2</ele><time>2026-04-08T07:19:15.79Z</time></trkpt><trkpt lat="45.4825433" lon="11.1132633"><ele>237.6</ele><time>2026-04-08T07:19:17.79Z</time></trkpt><trkpt lat="45.4826733" lon="11.1133067"><ele>235.0</ele><time>2026-04-08T07:19:19.79Z</time></trkpt><trkpt lat="45.4827483" lon="11.11334"><ele>235.0</ele><time>2026-04-08T07:19:20.79Z</time></trkpt><trkpt lat="45.4828167" lon="11.113365"><ele>235.0</ele><time>2026-04-08T07:19:21.79Z</time></trkpt><trkpt lat="45.48288" lon="11.1133633"><ele>235.0</ele><time>2026-04-08T07:19:22.789Z</time></trkpt><trkpt lat="45.483" lon="11.113315"><ele>235.0</ele><time>2026-04-08T07:19:24.79Z</time></trkpt><trkpt lat="45.483095" lon="11.11333"><ele>235.0</ele><time>2026-04-08T07:19:26.789Z</time></trkpt><trkpt lat="45.4831383" lon="11.11346"><ele>235.0</ele><time>2026-04-08T07:19:28.79Z</time></trkpt><trkpt lat="45.4831333" lon="11.1136117"><ele>235.0</ele><time>2026-04-08T07:19:30.79Z</time></trkpt><trkpt lat="45.483055" lon="11.1137183"><ele>235.0</ele><time>2026-04-08T07:19:32.789Z</time></trkpt><trkpt lat="45.4829467" lon="11.1137883"><ele>235.0</ele><time>2026-04-08T07:19:33.789Z</time></trkpt><trkpt lat="45.4828367" lon="11.11386"><ele>235.0</ele><time>2026-04-08T07:19:34.79Z</time></trkpt><trkpt lat="45.4827317" lon="11.1139533"><ele>235.0</ele><time>2026-04-08T07:19:35.789Z</time></trkpt><trkpt lat="45.4826317" lon="11.11406"><ele>235.0</ele><time>2026-04-08T07:19:36.789Z</time></trkpt><trkpt lat="45.4825367" lon="11.11418"><ele>235.0</ele><time>2026-04-08T07:19:37.79Z</time></trkpt><trkpt lat="45.482455" lon="11.1143"><ele>231.75</ele><time>2026-04-08T07:19:38.79Z</time></trkpt><trkpt lat="45.48237" lon="11.114415"><ele>228.5</ele><time>2026-04-08T07:19:39.79Z</time></trkpt><trkpt lat="45.4822833" lon="11.1145283"><ele>225.25</ele><time>2026-04-08T07:19:40.789Z</time></trkpt><trkpt lat="45.4822017" lon="11.1146467"><ele>222.0</ele><time>2026-04-08T07:19:41.789Z</time></trkpt><trkpt lat="45.48211" lon="11.1147667"><ele>224.2</ele><time>2026-04-08T07:19:42.79Z</time></trkpt><trkpt lat="45.4820333" lon="11.114895"><ele>226.39999999999998</ele><time>2026-04-08T07:19:43.79Z</time></trkpt><trkpt lat="45.481975" lon="11.11501"><ele>228.60000000000002</ele><time>2026-04-08T07:19:44.79Z</time></trkpt><trkpt lat="45.4819017" lon="11.1151267"><ele>230.8</ele><time>2026-04-08T07:19:45.79Z</time></trkpt><trkpt lat="45.48183" lon="11.11523"><ele>233.0</ele><time>2026-04-08T07:19:46.789Z</time></trkpt><trkpt lat="45.4817633" lon="11.115325"><ele>229.00000000000003</ele><time>2026-04-08T07:19:47.79Z</time></trkpt><trkpt lat="45.48171" lon="11.1154017"><ele>225.0</ele><time>2026-04-08T07:19:48.789Z</time></trkpt><trkpt lat="45.48166" lon="11.1154667"><ele>221.0</ele><time>2026-04-08T07:19:49.79Z</time></trkpt><trkpt lat="45.4816033" lon="11.11553"><ele>217.0</ele><time>2026-04-08T07:19:50.79Z</time></trkpt><trkpt lat="45.4815283" lon="11.115585"><ele>213.00000000000003</ele><time>2026-04-08T07:19:51.789Z</time></trkpt><trkpt lat="45.4814433" lon="11.1156433"><ele>209.0</ele><time>2026-04-08T07:19:52.79Z</time></trkpt><trkpt lat="45.48134" lon="11.1156933"><ele>205.2</ele><time>2026-04-08T07:19:53.789Z</time></trkpt><trkpt lat="45.481225" lon="11.11574"><ele>201.39999999999998</ele><time>2026-04-08T07:19:54.79Z</time></trkpt><trkpt lat="45.4811167" lon="11.1157967"><ele>197.6</ele><time>2026-04-08T07:19:55.79Z</time></trkpt><trkpt lat="45.4810233" lon="11.1158367"><ele>193.8</ele><time>2026-04-08T07:19:56.789Z</time></trkpt><trkpt lat="45.4809417" lon="11.115865"><ele>190.0</ele><time>2026-04-08T07:19:57.789Z</time></trkpt><trkpt lat="45.4808667" lon="11.115885"><ele>190.0</ele><time>2026-04-08T07:19:58.79Z</time></trkpt><trkpt lat="45.480785" lon="11.1159283"><ele>190.0</ele><time>2026-04-08T07:19:59.79Z</time></trkpt><trkpt lat="45.4807133" lon="11.1159767"><ele>190.0</ele><time>2026-04-08T07:20:00.788Z</time></trkpt><trkpt lat="45.480645" lon="11.1160533"><ele>190.0</ele><time>2026-04-08T07:20:01.789Z</time></trkpt><trkpt lat="45.48056" lon="11.116155"><ele>190.0</ele><time>2026-04-08T07:20:02.789Z</time></trkpt><trkpt lat="45.4804683" lon="11.1162817"><ele>189.0</ele><time>2026-04-08T07:20:03.789Z</time></trkpt><trkpt lat="45.4803633" lon="11.116415"><ele>188.0</ele><time>2026-04-08T07:20:04.788Z</time></trkpt><trkpt lat="45.4802617" lon="11.116535"><ele>187.0</ele><time>2026-04-08T07:20:05.789Z</time></trkpt><trkpt lat="45.4801833" lon="11.1166283"><ele>186.0</ele><time>2026-04-08T07:20:06.789Z</time></trkpt><trkpt lat="45.480105" lon="11.1167383"><ele>183.0</ele><time>2026-04-08T07:20:07.788Z</time></trkpt><trkpt lat="45.4800283" lon="11.1168567"><ele>180.0</ele><time>2026-04-08T07:20:08.789Z</time></trkpt><trkpt lat="45.47994" lon="11.116995"><ele>177.0</ele><time>2026-04-08T07:20:09.789Z</time></trkpt><trkpt lat="45.4798483" lon="11.1171367"><ele>174.0</ele><time>2026-04-08T07:20:10.788Z</time></trkpt><trkpt lat="45.47976" lon="11.11727"><ele>174.0</ele><time>2026-04-08T07:20:11.789Z</time></trkpt><trkpt lat="45.47968" lon="11.1173983"><ele>174.0</ele><time>2026-04-08T07:20:12.788Z</time></trkpt><trkpt lat="45.4796083" lon="11.11752"><ele>174.0</ele><time>2026-04-08T07:20:13.788Z</time></trkpt><trkpt lat="45.47956" lon="11.11761"><ele>174.0</ele><time>2026-04-08T07:20:14.789Z</time></trkpt><trkpt lat="45.4795083" lon="11.1176617"><ele>174.0</ele><time>2026-04-08T07:20:15.788Z</time></trkpt><trkpt lat="45.4793733" lon="11.117705"><ele>171.0</ele><time>2026-04-08T07:20:17.789Z</time></trkpt><trkpt lat="45.4792767" lon="11.1177433"><ele>168.0</ele><time>2026-04-08T07:20:18.789Z</time></trkpt><trkpt lat="45.4791633" lon="11.1178183"><ele>165.0</ele><time>2026-04-08T07:20:19.789Z</time></trkpt><trkpt lat="45.479055" lon="11.117905"><ele>162.0</ele><time>2026-04-08T07:20:20.788Z</time></trkpt><trkpt lat="45.4789467" lon="11.1180017"><ele>162.0</ele><time>2026-04-08T07:20:21.789Z</time></trkpt><trkpt lat="45.4788483" lon="11.118105"><ele>162.0</ele><time>2026-04-08T07:20:22.788Z</time></trkpt><trkpt lat="45.4787533" lon="11.1182183"><ele>162.0</ele><time>2026-04-08T07:20:23.788Z</time></trkpt><trkpt lat="45.4786733" lon="11.1183533"><ele>162.0</ele><time>2026-04-08T07:20:24.789Z</time></trkpt><trkpt lat="45.4786267" lon="11.1185033"><ele>164.0</ele><time>2026-04-08T07:20:25.788Z</time></trkpt><trkpt lat="45.4786017" lon="11.118655"><ele>166.0</ele><time>2026-04-08T07:20:26.788Z</time></trkpt><trkpt lat="45.4785917" lon="11.1188217"><ele>168.0</ele><time>2026-04-08T07:20:27.789Z</time></trkpt><trkpt lat="45.478605" lon="11.1189883"><ele>170.0</ele><time>2026-04-08T07:20:28.788Z</time></trkpt><trkpt lat="45.478625" lon="11.1191433"><ele>170.6</ele><time>2026-04-08T07:20:29.788Z</time></trkpt><trkpt lat="45.4786667" lon="11.1192883"><ele>171.2</ele><time>2026-04-08T07:20:30.789Z</time></trkpt><trkpt lat="45.4787067" lon="11.1194383"><ele>171.8</ele><time>2026-04-08T07:20:31.789Z</time></trkpt><trkpt lat="45.478755" lon="11.1195833"><ele>172.4</ele><time>2026-04-08T07:20:32.788Z</time></trkpt><trkpt lat="45.4788017" lon="11.119725"><ele>173.0</ele><time>2026-04-08T07:20:33.788Z</time></trkpt><trkpt lat="45.4788467" lon="11.1198733"><ele>168.8</ele><time>2026-04-08T07:20:34.788Z</time></trkpt><trkpt lat="45.4788883" lon="11.12002"><ele>164.60000000000002</ele><time>2026-04-08T07:20:35.789Z</time></trkpt><trkpt lat="45.478925" lon="11.1201717"><ele>160.39999999999998</ele><time>2026-04-08T07:20:36.788Z</time></trkpt><trkpt lat="45.4789533" lon="11.1203217"><ele>156.2</ele><time>2026-04-08T07:20:37.788Z</time></trkpt><trkpt lat="45.4789733" lon="11.1204767"><ele>152.0</ele><time>2026-04-08T07:20:38.788Z</time></trkpt><trkpt lat="45.47899" lon="11.12062"><ele>150.4</ele><time>2026-04-08T07:20:39.789Z</time></trkpt><trkpt lat="45.4789917" lon="11.120775"><ele>148.79999999999998</ele><time>2026-04-08T07:20:40.788Z</time></trkpt><trkpt lat="45.4789917" lon="11.1209233"><ele>147.2</ele><time>2026-04-08T07:20:41.789Z</time></trkpt><trkpt lat="45.4789917" lon="11.1210767"><ele>145.6</ele><time>2026-04-08T07:20:42.788Z</time></trkpt><trkpt lat="45.4789883" lon="11.121235"><ele>144.0</ele><time>2026-04-08T07:20:43.789Z</time></trkpt><trkpt lat="45.4789867" lon="11.121395"><ele>144.0</ele><time>2026-04-08T07:20:44.788Z</time></trkpt><trkpt lat="45.4789933" lon="11.1215583"><ele>144.0</ele><time>2026-04-08T07:20:45.789Z</time></trkpt><trkpt lat="45.479" lon="11.1217183"><ele>144.0</ele><time>2026-04-08T07:20:46.789Z</time></trkpt><trkpt lat="45.479" lon="11.12188"><ele>144.0</ele><time>2026-04-08T07:20:47.788Z</time></trkpt><trkpt lat="45.479" lon="11.1220483"><ele>143.25</ele><time>2026-04-08T07:20:48.789Z</time></trkpt><trkpt lat="45.4789983" lon="11.1222083"><ele>142.5</ele><time>2026-04-08T07:20:49.789Z</time></trkpt><trkpt lat="45.4789983" lon="11.1223767"><ele>141.75</ele><time>2026-04-08T07:20:50.789Z</time></trkpt><trkpt lat="45.4790067" lon="11.1225467"><ele>141.0</ele><time>2026-04-08T07:20:51.788Z</time></trkpt><trkpt lat="45.4790233" lon="11.12272"><ele>141.0</ele><time>2026-04-08T07:20:52.789Z</time></trkpt><trkpt lat="45.4790333" lon="11.1228767"><ele>141.0</ele><time>2026-04-08T07:20:53.789Z</time></trkpt><trkpt lat="45.479045" lon="11.123025"><ele>141.0</ele><time>2026-04-08T07:20:54.788Z</time></trkpt><trkpt lat="45.4790583" lon="11.1231533"><ele>141.0</ele><time>2026-04-08T07:20:55.789Z</time></trkpt><trkpt lat="45.4790817" lon="11.1232633"><ele>141.0</ele><time>2026-04-08T07:20:56.788Z</time></trkpt><trkpt lat="45.4791267" lon="11.1233417"><ele>140.8</ele><time>2026-04-08T07:20:57.789Z</time></trkpt><trkpt lat="45.4791783" lon="11.1234067"><ele>140.6</ele><time>2026-04-08T07:20:58.789Z</time></trkpt><trkpt lat="45.47924" lon="11.1234483"><ele>140.4</ele><time>2026-04-08T07:20:59.789Z</time></trkpt><trkpt lat="45.479345" lon="11.1234283"><ele>140.2</ele><time>2026-04-08T07:21:00.789Z</time></trkpt><trkpt lat="45.4794633" lon="11.1234067"><ele>140.0</ele><time>2026-04-08T07:21:01.789Z</time></trkpt><trkpt lat="45.4795967" lon="11.1233683"><ele>138.4</ele><time>2026-04-08T07:21:02.789Z</time></trkpt><trkpt lat="45.47972" lon="11.123335"><ele>136.8</ele><time>2026-04-08T07:21:03.789Z</time></trkpt><trkpt lat="45.47982" lon="11.1233017"><ele>135.2</ele><time>2026-04-08T07:21:04.788Z</time></trkpt><trkpt lat="45.47989" lon="11.1232717"><ele>133.6</ele><time>2026-04-08T07:21:05.789Z</time></trkpt><trkpt lat="45.4799517" lon="11.12324"><ele>132.0</ele><time>2026-04-08T07:21:06.788Z</time></trkpt><trkpt lat="45.4800433" lon="11.123245"><ele>132.0</ele><time>2026-04-08T07:21:08.789Z</time></trkpt><trkpt lat="45.4801467" lon="11.123385"><ele>132.0</ele><time>2026-04-08T07:21:10.788Z</time></trkpt><trkpt lat="45.4802333" lon="11.1235167"><ele>132.0</ele><time>2026-04-08T07:21:11.789Z</time></trkpt><trkpt lat="45.480335" lon="11.1236633"><ele>132.0</ele><time>2026-04-08T07:21:12.788Z</time></trkpt><trkpt lat="45.4804267" lon="11.1238067"><ele>131.79999999999998</ele><time>2026-04-08T07:21:13.789Z</time></trkpt><trkpt lat="45.4805167" lon="11.1239383"><ele>131.6</ele><time>2026-04-08T07:21:14.789Z</time></trkpt><trkpt lat="45.4805983" lon="11.12406"><ele>131.39999999999998</ele><time>2026-04-08T07:21:15.788Z</time></trkpt><trkpt lat="45.480655" lon="11.1241583"><ele>131.2</ele><time>2026-04-08T07:21:16.788Z</time></trkpt><trkpt lat="45.4807117" lon="11.1242483"><ele>131.0</ele><time>2026-04-08T07:21:17.789Z</time></trkpt><trkpt lat="45.480765" lon="11.1243433"><ele>131.0</ele><time>2026-04-08T07:21:18.789Z</time></trkpt><trkpt lat="45.4808217" lon="11.124435"><ele>131.0</ele><time>2026-04-08T07:21:19.788Z</time></trkpt><trkpt lat="45.4808767" lon="11.124525"><ele>131.0</ele><time>2026-04-08T07:21:20.788Z</time></trkpt><trkpt lat="45.48093" lon="11.1246133"><ele>131.0</ele><time>2026-04-08T07:21:21.789Z</time></trkpt><trkpt lat="45.4809817" lon="11.1247033"><ele>131.0</ele><time>2026-04-08T07:21:22.788Z</time></trkpt><trkpt lat="45.4810367" lon="11.1247883"><ele>131.0</ele><time>2026-04-08T07:21:23.789Z</time></trkpt><trkpt lat="45.481085" lon="11.1248683"><ele>131.4</ele><time>2026-04-08T07:21:24.788Z</time></trkpt><trkpt lat="45.4811267" lon="11.1249483"><ele>131.8</ele><time>2026-04-08T07:21:25.788Z</time></trkpt><trkpt lat="45.4812183" lon="11.1250933"><ele>132.20000000000002</ele><time>2026-04-08T07:21:27.789Z</time></trkpt><trkpt lat="45.481275" lon="11.125185"><ele>132.6</ele><time>2026-04-08T07:21:28.789Z</time></trkpt><trkpt lat="45.4813433" lon="11.125295"><ele>133.0</ele><time>2026-04-08T07:21:29.789Z</time></trkpt><trkpt lat="45.4814067" lon="11.12542"><ele>133.0</ele><time>2026-04-08T07:21:30.789Z</time></trkpt><trkpt lat="45.48147" lon="11.1255433"><ele>133.0</ele><time>2026-04-08T07:21:31.789Z</time></trkpt><trkpt lat="45.481525" lon="11.1256717"><ele>133.0</ele><time>2026-04-08T07:21:32.788Z</time></trkpt><trkpt lat="45.481575" lon="11.1258067"><ele>133.0</ele><time>2026-04-08T07:21:33.788Z</time></trkpt><trkpt lat="45.4816133" lon="11.1259467"><ele>133.0</ele><time>2026-04-08T07:21:34.788Z</time></trkpt><trkpt lat="45.48166" lon="11.1260817"><ele>132.0</ele><time>2026-04-08T07:21:35.789Z</time></trkpt><trkpt lat="45.4817" lon="11.1262167"><ele>131.0</ele><time>2026-04-08T07:21:36.789Z</time></trkpt><trkpt lat="45.48174" lon="11.1263533"><ele>130.0</ele><time>2026-04-08T07:21:37.789Z</time></trkpt><trkpt lat="45.481785" lon="11.1264867"><ele>129.0</ele><time>2026-04-08T07:21:38.789Z</time></trkpt><trkpt lat="45.4818233" lon="11.12661"><ele>128.0</ele><time>2026-04-08T07:21:39.789Z</time></trkpt><trkpt lat="45.4818633" lon="11.1267183"><ele>127.66666666666666</ele><time>2026-04-08T07:21:40.789Z</time></trkpt><trkpt lat="45.4818983" lon="11.1268133"><ele>127.33333333333333</ele><time>2026-04-08T07:21:41.788Z</time></trkpt><trkpt lat="45.48195" lon="11.1269467"><ele>127.0</ele><time>2026-04-08T07:21:43.788Z</time></trkpt><trkpt lat="45.4819883" lon="11.1270367"><ele>126.66666666666666</ele><time>2026-04-08T07:21:46.789Z</time></trkpt><trkpt lat="45.4820767" lon="11.1270917"><ele>126.33333333333333</ele><time>2026-04-08T07:21:49.789Z</time></trkpt><trkpt lat="45.4821417" lon="11.1270983"><ele>126.0</ele><time>2026-04-08T07:21:50.789Z</time></trkpt><trkpt lat="45.4822217" lon="11.1270917"><ele>126.0</ele><time>2026-04-08T07:21:51.788Z</time></trkpt><trkpt lat="45.482305" lon="11.1270983"><ele>126.0</ele><time>2026-04-08T07:21:52.788Z</time></trkpt><trkpt lat="45.48239" lon="11.1270983"><ele>126.0</ele><time>2026-04-08T07:21:53.789Z</time></trkpt><trkpt lat="45.482475" lon="11.127085"><ele>126.0</ele><time>2026-04-08T07:21:54.788Z</time></trkpt><trkpt lat="45.4825583" lon="11.1270883"><ele>126.0</ele><time>2026-04-08T07:21:55.788Z</time></trkpt><trkpt lat="45.482665" lon="11.127125"><ele>126.0</ele><time>2026-04-08T07:21:56.788Z</time></trkpt><trkpt lat="45.4827683" lon="11.12714"><ele>126.0</ele><time>2026-04-08T07:21:57.788Z</time></trkpt><trkpt lat="45.482855" lon="11.12715"><ele>126.0</ele><time>2026-04-08T07:21:58.788Z</time></trkpt><trkpt lat="45.4829267" lon="11.127155"><ele>126.0</ele><time>2026-04-08T07:21:59.789Z</time></trkpt><trkpt lat="45.4829967" lon="11.1271383"><ele>126.0</ele><time>2026-04-08T07:22:00.789Z</time></trkpt><trkpt lat="45.4830683" lon="11.1270983"><ele>126.0</ele><time>2026-04-08T07:22:01.789Z</time></trkpt><trkpt lat="45.4831433" lon="11.1269967"><ele>126.0</ele><time>2026-04-08T07:22:03.788Z</time></trkpt><trkpt lat="45.4831567" lon="11.1268617"><ele>126.5</ele><time>2026-04-08T07:22:05.789Z</time></trkpt><trkpt lat="45.4831483" lon="11.12676"><ele>127.0</ele><time>2026-04-08T07:22:07.788Z</time></trkpt><trkpt lat="45.4832033" lon="11.126695"><ele>127.5</ele><time>2026-04-08T07:22:10.789Z</time></trkpt><trkpt lat="45.48318" lon="11.12683"><ele>128.0</ele><time>2026-04-08T07:30:59.787Z</time></trkpt><trkpt lat="45.4831367" lon="11.1269283"><ele>128.5</ele><time>2026-04-08T07:31:00.787Z</time></trkpt><trkpt lat="45.4831067" lon="11.1270183"><ele>129.0</ele><time>2026-04-08T07:31:01.787Z</time></trkpt><trkpt lat="45.4830867" lon="11.127115"><ele>129.0</ele><time>2026-04-08T07:31:03.788Z</time></trkpt><trkpt lat="45.48318" lon="11.1272"><ele>129.0</ele><time>2026-04-08T07:31:16.788Z</time></trkpt><trkpt lat="45.4832567" lon="11.12723"><ele>129.0</ele><time>2026-04-08T07:31:17.787Z</time></trkpt><trkpt lat="45.4833717" lon="11.12727"><ele>129.0</ele><time>2026-04-08T07:31:18.787Z</time></trkpt><trkpt lat="45.4835133" lon="11.1273367"><ele>129.0</ele><time>2026-04-08T07:31:19.788Z</time></trkpt><trkpt lat="45.4836567" lon="11.127385"><ele>129.0</ele><time>2026-04-08T07:31:20.787Z</time></trkpt><trkpt lat="45.48378" lon="11.1274467"><ele>129.0</ele><time>2026-04-08T07:31:21.787Z</time></trkpt><trkpt lat="45.4838883" lon="11.1274983"><ele>129.0</ele><time>2026-04-08T07:31:22.787Z</time></trkpt><trkpt lat="45.4839933" lon="11.1275483"><ele>127.5</ele><time>2026-04-08T07:31:23.788Z</time></trkpt><trkpt lat="45.4840983" lon="11.127585"><ele>126.0</ele><time>2026-04-08T07:31:24.787Z</time></trkpt><trkpt lat="45.4842067" lon="11.1276217"><ele>124.5</ele><time>2026-04-08T07:31:25.788Z</time></trkpt><trkpt lat="45.4843133" lon="11.12766"><ele>123.0</ele><time>2026-04-08T07:31:26.788Z</time></trkpt><trkpt lat="45.48443" lon="11.127705"><ele>123.0</ele><time>2026-04-08T07:31:27.787Z</time></trkpt><trkpt lat="45.48456" lon="11.1277383"><ele>123.0</ele><time>2026-04-08T07:31:28.788Z</time></trkpt><trkpt lat="45.4846833" lon="11.12779"><ele>123.0</ele><time>2026-04-08T07:31:29.788Z</time></trkpt><trkpt lat="45.484805" lon="11.1278367"><ele>123.0</ele><time>2026-04-08T07:31:30.787Z</time></trkpt><trkpt lat="45.484925" lon="11.1278883"><ele>123.25</ele><time>2026-04-08T07:31:31.788Z</time></trkpt><trkpt lat="45.485045" lon="11.1279467"><ele>123.5</ele><time>2026-04-08T07:31:32.787Z</time></trkpt><trkpt lat="45.485175" lon="11.1280033"><ele>123.75</ele><time>2026-04-08T07:31:33.788Z</time></trkpt><trkpt lat="45.4853017" lon="11.12804"><ele>124.0</ele><time>2026-04-08T07:31:34.788Z</time></trkpt><trkpt lat="45.4854233" lon="11.1280517"><ele>123.75</ele><time>2026-04-08T07:31:35.787Z</time></trkpt><trkpt lat="45.4855483" lon="11.1280467"><ele>123.5</ele><time>2026-04-08T07:31:36.787Z</time></trkpt><trkpt lat="45.4856733" lon="11.128025"><ele>123.25</ele><time>2026-04-08T07:31:37.787Z</time></trkpt><trkpt lat="45.4858" lon="11.1279883"><ele>123.0</ele><time>2026-04-08T07:31:38.788Z</time></trkpt><trkpt lat="45.4859283" lon="11.127945"><ele>123.0</ele><time>2026-04-08T07:31:39.788Z</time></trkpt><trkpt lat="45.4860583" lon="11.127895"><ele>123.0</ele><time>2026-04-08T07:31:40.787Z</time></trkpt><trkpt lat="45.4861883" lon="11.1278483"><ele>123.0</ele><time>2026-04-08T07:31:41.788Z</time></trkpt><trkpt lat="45.4863217" lon="11.1278033"><ele>123.0</ele><time>2026-04-08T07:31:42.787Z</time></trkpt><trkpt lat="45.4864433" lon="11.127735"><ele>123.25</ele><time>2026-04-08T07:31:43.787Z</time></trkpt><trkpt lat="45.4865517" lon="11.1276383"><ele>123.5</ele><time>2026-04-08T07:31:44.787Z</time></trkpt><trkpt lat="45.486655" lon="11.1275167"><ele>123.75</ele><time>2026-04-08T07:31:45.787Z</time></trkpt><trkpt lat="45.4867433" lon="11.12738"><ele>124.0</ele><time>2026-04-08T07:31:46.788Z</time></trkpt><trkpt lat="45.4868283" lon="11.12724"><ele>125.25</ele><time>2026-04-08T07:31:47.787Z</time></trkpt><trkpt lat="45.4869083" lon="11.1271067"><ele>126.5</ele><time>2026-04-08T07:31:48.788Z</time></trkpt><trkpt lat="45.4870017" lon="11.1269867"><ele>127.75</ele><time>2026-04-08T07:31:49.787Z</time></trkpt><trkpt lat="45.4871133" lon="11.1268967"><ele>129.0</ele><time>2026-04-08T07:31:50.787Z</time></trkpt><trkpt lat="45.4872383" lon="11.12685"><ele>129.0</ele><time>2026-04-08T07:31:51.788Z</time></trkpt><trkpt lat="45.4873583" lon="11.126825"><ele>129.0</ele><time>2026-04-08T07:31:52.788Z</time></trkpt><trkpt lat="45.4874817" lon="11.12683"><ele>129.0</ele><time>2026-04-08T07:31:53.787Z</time></trkpt><trkpt lat="45.4876133" lon="11.12685"><ele>129.0</ele><time>2026-04-08T07:31:54.788Z</time></trkpt><trkpt lat="45.4877467" lon="11.12688"><ele>129.0</ele><time>2026-04-08T07:31:55.788Z</time></trkpt><trkpt lat="45.4878833" lon="11.126905"><ele>129.0</ele><time>2026-04-08T07:31:56.787Z</time></trkpt><trkpt lat="45.4880183" lon="11.1269333"><ele>129.0</ele><time>2026-04-08T07:31:57.788Z</time></trkpt><trkpt lat="45.4881567" lon="11.126965"><ele>129.0</ele><time>2026-04-08T07:31:58.788Z</time></trkpt><trkpt lat="45.4882867" lon="11.126995"><ele>129.25</ele><time>2026-04-08T07:31:59.787Z</time></trkpt><trkpt lat="45.4884167" lon="11.127015"><ele>129.5</ele><time>2026-04-08T07:32:00.788Z</time></trkpt><trkpt lat="45.488545" lon="11.1270417"><ele>129.75</ele><time>2026-04-08T07:32:01.788Z</time></trkpt><trkpt lat="45.4886717" lon="11.1270633"><ele>130.0</ele><time>2026-04-08T07:32:02.787Z</time></trkpt><trkpt lat="45.4888067" lon="11.12709"><ele>130.5</ele><time>2026-04-08T07:32:03.787Z</time></trkpt><trkpt lat="45.4889317" lon="11.1271083"><ele>131.0</ele><time>2026-04-08T07:32:04.787Z</time></trkpt><trkpt lat="45.4890583" lon="11.12707"><ele>131.5</ele><time>2026-04-08T07:32:05.787Z</time></trkpt><trkpt lat="45.4891833" lon="11.1270017"><ele>132.0</ele><time>2026-04-08T07:32:06.788Z</time></trkpt><trkpt lat="45.4892883" lon="11.1268717"><ele>132.0</ele><time>2026-04-08T07:32:07.788Z</time></trkpt><trkpt lat="45.4893867" lon="11.126735"><ele>132.0</ele><time>2026-04-08T07:32:08.787Z</time></trkpt><trkpt lat="45.4894833" lon="11.1266033"><ele>132.0</ele><time>2026-04-08T07:32:09.788Z</time></trkpt><trkpt lat="45.48958" lon="11.126495"><ele>132.0</ele><time>2026-04-08T07:32:10.788Z</time></trkpt><trkpt lat="45.4896917" lon="11.12641"><ele>135.5</ele><time>2026-04-08T07:32:11.787Z</time></trkpt><trkpt lat="45.48981" lon="11.126355"><ele>139.0</ele><time>2026-04-08T07:32:12.787Z</time></trkpt><trkpt lat="45.4899367" lon="11.1263183"><ele>142.5</ele><time>2026-04-08T07:32:13.788Z</time></trkpt><trkpt lat="45.4900633" lon="11.126295"><ele>146.0</ele><time>2026-04-08T07:32:14.787Z</time></trkpt><trkpt lat="45.4902017" lon="11.12627"><ele>146.0</ele><time>2026-04-08T07:32:15.787Z</time></trkpt><trkpt lat="45.4903367" lon="11.1262367"><ele>146.0</ele><time>2026-04-08T07:32:16.788Z</time></trkpt><trkpt lat="45.4904733" lon="11.1261983"><ele>146.0</ele><time>2026-04-08T07:32:17.788Z</time></trkpt><trkpt lat="45.490605" lon="11.1261633"><ele>146.0</ele><time>2026-04-08T07:32:18.787Z</time></trkpt><trkpt lat="45.490735" lon="11.1261317"><ele>146.0</ele><time>2026-04-08T07:32:19.788Z</time></trkpt><trkpt lat="45.4908633" lon="11.126095"><ele>146.0</ele><time>2026-04-08T07:32:20.787Z</time></trkpt><trkpt lat="45.4909967" lon="11.1260517"><ele>146.0</ele><time>2026-04-08T07:32:21.787Z</time></trkpt><trkpt lat="45.49113" lon="11.1260083"><ele>146.0</ele><time>2026-04-08T07:32:22.787Z</time></trkpt><trkpt lat="45.4912667" lon="11.1259583"><ele>146.0</ele><time>2026-04-08T07:32:23.788Z</time></trkpt><trkpt lat="45.4914017" lon="11.125905"><ele>146.0</ele><time>2026-04-08T07:32:24.786Z</time></trkpt><trkpt lat="45.4915417" lon="11.125865"><ele>146.0</ele><time>2026-04-08T07:32:25.787Z</time></trkpt><trkpt lat="45.4916817" lon="11.1258383"><ele>146.0</ele><time>2026-04-08T07:32:26.786Z</time></trkpt><trkpt lat="45.4918133" lon="11.1258283"><ele>146.0</ele><time>2026-04-08T07:32:27.786Z</time></trkpt><trkpt lat="45.4919567" lon="11.1258233"><ele>146.0</ele><time>2026-04-08T07:32:28.787Z</time></trkpt><trkpt lat="45.4920933" lon="11.1258183"><ele>146.0</ele><time>2026-04-08T07:32:29.787Z</time></trkpt><trkpt lat="45.4922267" lon="11.1258067"><ele>146.0</ele><time>2026-04-08T07:32:30.786Z</time></trkpt><trkpt lat="45.4923667" lon="11.12579"><ele>145.75</ele><time>2026-04-08T07:32:31.787Z</time></trkpt><trkpt lat="45.4925067" lon="11.1257817"><ele>145.5</ele><time>2026-04-08T07:32:32.786Z</time></trkpt><trkpt lat="45.4926333" lon="11.125785"><ele>145.25</ele><time>2026-04-08T07:32:33.787Z</time></trkpt><trkpt lat="45.4927533" lon="11.1258067"><ele>145.0</ele><time>2026-04-08T07:32:34.787Z</time></trkpt><trkpt lat="45.4928617" lon="11.1258683"><ele>145.8</ele><time>2026-04-08T07:32:35.786Z</time></trkpt><trkpt lat="45.492965" lon="11.12594"><ele>146.6</ele><time>2026-04-08T07:32:36.787Z</time></trkpt><trkpt lat="45.493045" lon="11.1260317"><ele>147.4</ele><time>2026-04-08T07:32:37.787Z</time></trkpt><trkpt lat="45.4931083" lon="11.12613"><ele>148.2</ele><time>2026-04-08T07:32:38.787Z</time></trkpt><trkpt lat="45.4931583" lon="11.126205"><ele>149.0</ele><time>2026-04-08T07:32:39.787Z</time></trkpt><trkpt lat="45.4932583" lon="11.1262467"><ele>149.0</ele><time>2026-04-08T07:32:41.787Z</time></trkpt><trkpt lat="45.4933217" lon="11.126185"><ele>149.0</ele><time>2026-04-08T07:32:42.786Z</time></trkpt><trkpt lat="45.49341" lon="11.1261017"><ele>149.0</ele><time>2026-04-08T07:32:43.787Z</time></trkpt><trkpt lat="45.49348" lon="11.126015"><ele>149.0</ele><time>2026-04-08T07:32:44.786Z</time></trkpt><trkpt lat="45.49354" lon="11.12594"><ele>149.0</ele><time>2026-04-08T07:32:45.786Z</time></trkpt><trkpt lat="45.493605" lon="11.1258567"><ele>149.0</ele><time>2026-04-08T07:32:46.786Z</time></trkpt><trkpt lat="45.4936667" lon="11.1258033"><ele>149.0</ele><time>2026-04-08T07:32:47.786Z</time></trkpt><trkpt lat="45.4937317" lon="11.1257467"><ele>149.0</ele><time>2026-04-08T07:32:48.786Z</time></trkpt><trkpt lat="45.4937983" lon="11.1256817"><ele>149.0</ele><time>2026-04-08T07:32:49.787Z</time></trkpt><trkpt lat="45.49386" lon="11.1255967"><ele>149.0</ele><time>2026-04-08T07:32:50.786Z</time></trkpt><trkpt lat="45.4939267" lon="11.12549"><ele>149.0</ele><time>2026-04-08T07:32:51.787Z</time></trkpt><trkpt lat="45.4939867" lon="11.125395"><ele>149.0</ele><time>2026-04-08T07:32:52.786Z</time></trkpt><trkpt lat="45.4940567" lon="11.125295"><ele>153.4</ele><time>2026-04-08T07:32:53.787Z</time></trkpt><trkpt lat="45.4941417" lon="11.12518"><ele>157.8</ele><time>2026-04-08T07:32:54.787Z</time></trkpt><trkpt lat="45.494225" lon="11.1250667"><ele>162.20000000000002</ele><time>2026-04-08T07:32:55.787Z</time></trkpt><trkpt lat="45.494295" lon="11.1249683"><ele>166.60000000000002</ele><time>2026-04-08T07:32:56.787Z</time></trkpt><trkpt lat="45.4943533" lon="11.124875"><ele>171.0</ele><time>2026-04-08T07:32:57.786Z</time></trkpt><trkpt lat="45.4944067" lon="11.1247983"><ele>171.0</ele><time>2026-04-08T07:32:58.786Z</time></trkpt><trkpt lat="45.4944717" lon="11.12475"><ele>171.0</ele><time>2026-04-08T07:33:00.787Z</time></trkpt><trkpt lat="45.494475" lon="11.1248667"><ele>171.0</ele><time>2026-04-08T07:33:04.787Z</time></trkpt><trkpt lat="45.4944533" lon="11.1249867"><ele>171.0</ele><time>2026-04-08T07:33:05.787Z</time></trkpt><trkpt lat="45.4944433" lon="11.1250917"><ele>171.0</ele><time>2026-04-08T07:33:06.787Z</time></trkpt><trkpt lat="45.494435" lon="11.1252017"><ele>171.0</ele><time>2026-04-08T07:33:07.786Z</time></trkpt><trkpt lat="45.4944233" lon="11.1253133"><ele>171.0</ele><time>2026-04-08T07:33:08.786Z</time></trkpt><trkpt lat="45.494415" lon="11.1254333"><ele>171.0</ele><time>2026-04-08T07:33:09.787Z</time></trkpt><trkpt lat="45.4944133" lon="11.125545"><ele>171.0</ele><time>2026-04-08T07:33:10.786Z</time></trkpt><trkpt lat="45.4943883" lon="11.1256617"><ele>171.0</ele><time>2026-04-08T07:33:11.787Z</time></trkpt><trkpt lat="45.494375" lon="11.12575"><ele>171.0</ele><time>2026-04-08T07:33:12.787Z</time></trkpt><trkpt lat="45.494395" lon="11.1258517"><ele>171.0</ele><time>2026-04-08T07:33:14.787Z</time></trkpt><trkpt lat="45.4944867" lon="11.1258283"><ele>171.0</ele><time>2026-04-08T07:33:16.787Z</time></trkpt><trkpt lat="45.49455" lon="11.1257967"><ele>171.0</ele><time>2026-04-08T07:33:17.787Z</time></trkpt><trkpt lat="45.4946233" lon="11.1257433"><ele>171.0</ele><time>2026-04-08T07:33:18.787Z</time></trkpt><trkpt lat="45.4947" lon="11.125675"><ele>171.0</ele><time>2026-04-08T07:33:19.786Z</time></trkpt><trkpt lat="45.4947467" lon="11.1256117"><ele>171.0</ele><time>2026-04-08T07:33:20.786Z</time></trkpt><trkpt lat="45.4948283" lon="11.125515"><ele>171.0</ele><time>2026-04-08T07:33:22.786Z</time></trkpt><trkpt lat="45.4949233" lon="11.1255217"><ele>176.0</ele><time>2026-04-08T07:33:24.787Z</time></trkpt><trkpt lat="45.4950367" lon="11.1256033"><ele>181.0</ele><time>2026-04-08T07:33:26.787Z</time></trkpt><trkpt lat="45.4951233" lon="11.1256283"><ele>186.0</ele><time>2026-04-08T07:33:27.787Z</time></trkpt><trkpt lat="45.4952133" lon="11.125625"><ele>191.0</ele><time>2026-04-08T07:33:28.787Z</time></trkpt><trkpt lat="45.4953183" lon="11.1256017"><ele>196.0</ele><time>2026-04-08T07:33:29.787Z</time></trkpt><trkpt lat="45.4954317" lon="11.12555"><ele>199.8</ele><time>2026-04-08T07:33:30.786Z</time></trkpt><trkpt lat="45.49554" lon="11.1254983"><ele>203.60000000000002</ele><time>2026-04-08T07:33:31.787Z</time></trkpt><trkpt lat="45.4956417" lon="11.125445"><ele>207.4</ele><time>2026-04-08T07:33:32.787Z</time></trkpt><trkpt lat="45.49573" lon="11.1253833"><ele>211.2</ele><time>2026-04-08T07:33:33.786Z</time></trkpt><trkpt lat="45.4958117" lon="11.1253383"><ele>215.0</ele><time>2026-04-08T07:33:34.787Z</time></trkpt><trkpt lat="45.495895" lon="11.1253117"><ele>215.0</ele><time>2026-04-08T07:33:35.787Z</time></trkpt><trkpt lat="45.4959817" lon="11.1253117"><ele>215.0</ele><time>2026-04-08T07:33:36.786Z</time></trkpt><trkpt lat="45.496095" lon="11.12533"><ele>215.0</ele><time>2026-04-08T07:33:37.786Z</time></trkpt><trkpt lat="45.496205" lon="11.1253383"><ele>215.0</ele><time>2026-04-08T07:33:38.786Z</time></trkpt><trkpt lat="45.496305" lon="11.125345"><ele>215.0</ele><time>2026-04-08T07:33:39.787Z</time></trkpt><trkpt lat="45.4963833" lon="11.1253483"><ele>216.66666666666669</ele><time>2026-04-08T07:33:40.787Z</time></trkpt><trkpt lat="45.4964667" lon="11.12534"><ele>218.33333333333334</ele><time>2026-04-08T07:33:41.787Z</time></trkpt><trkpt lat="45.4965567" lon="11.1253217"><ele>220.0</ele><time>2026-04-08T07:33:42.786Z</time></trkpt><trkpt lat="45.4966417" lon="11.1253033"><ele>221.66666666666669</ele><time>2026-04-08T07:33:43.787Z</time></trkpt><trkpt lat="45.49673" lon="11.1252867"><ele>223.33333333333334</ele><time>2026-04-08T07:33:44.786Z</time></trkpt><trkpt lat="45.496815" lon="11.1252733"><ele>225.0</ele><time>2026-04-08T07:33:45.787Z</time></trkpt><trkpt lat="45.4969067" lon="11.1252683"><ele>225.0</ele><time>2026-04-08T07:33:46.787Z</time></trkpt><trkpt lat="45.4969983" lon="11.1252667"><ele>225.0</ele><time>2026-04-08T07:33:47.786Z</time></trkpt><trkpt lat="45.497105" lon="11.1252683"><ele>225.0</ele><time>2026-04-08T07:33:48.787Z</time></trkpt><trkpt lat="45.4972017" lon="11.1252767"><ele>225.0</ele><time>2026-04-08T07:33:49.787Z</time></trkpt><trkpt lat="45.4972983" lon="11.1252883"><ele>225.0</ele><time>2026-04-08T07:33:50.787Z</time></trkpt><trkpt lat="45.4973983" lon="11.1253083"><ele>226.5</ele><time>2026-04-08T07:33:51.786Z</time></trkpt><trkpt lat="45.4974933" lon="11.1253217"><ele>228.0</ele><time>2026-04-08T07:33:52.787Z</time></trkpt><trkpt lat="45.4975883" lon="11.1253183"><ele>229.5</ele><time>2026-04-08T07:33:53.787Z</time></trkpt><trkpt lat="45.49768" lon="11.1252983"><ele>231.0</ele><time>2026-04-08T07:33:54.786Z</time></trkpt><trkpt lat="45.4977583" lon="11.1252533"><ele>232.5</ele><time>2026-04-08T07:33:55.786Z</time></trkpt><trkpt lat="45.4978167" lon="11.125205"><ele>234.0</ele><time>2026-04-08T07:33:56.787Z</time></trkpt><trkpt lat="45.497935" lon="11.12512"><ele>234.39999999999998</ele><time>2026-04-08T07:33:58.787Z</time></trkpt><trkpt lat="45.4980183" lon="11.1250833"><ele>234.79999999999998</ele><time>2026-04-08T07:33:59.787Z</time></trkpt><trkpt lat="45.4981233" lon="11.12503"><ele>235.20000000000002</ele><time>2026-04-08T07:34:00.787Z</time></trkpt><trkpt lat="45.4982267" lon="11.1249433"><ele>235.60000000000002</ele><time>2026-04-08T07:34:01.786Z</time></trkpt><trkpt lat="45.49832" lon="11.1248517"><ele>236.0</ele><time>2026-04-08T07:34:02.787Z</time></trkpt><trkpt lat="45.4983983" lon="11.1247533"><ele>237.0</ele><time>2026-04-08T07:34:03.786Z</time></trkpt><trkpt lat="45.4984767" lon="11.1246467"><ele>238.00000000000003</ele><time>2026-04-08T07:34:04.786Z</time></trkpt><trkpt lat="45.4985483" lon="11.12455"><ele>239.00000000000003</ele><time>2026-04-08T07:34:05.787Z</time></trkpt><trkpt lat="45.4986367" lon="11.1244567"><ele>240.0</ele><time>2026-04-08T07:34:06.786Z</time></trkpt><trkpt lat="45.4987267" lon="11.1243717"><ele>241.0</ele><time>2026-04-08T07:34:07.787Z</time></trkpt><trkpt lat="45.4988017" lon="11.1243167"><ele>241.0</ele><time>2026-04-08T07:34:08.787Z</time></trkpt><trkpt lat="45.4988817" lon="11.12427"><ele>241.00000000000003</ele><time>2026-04-08T07:34:09.786Z</time></trkpt><trkpt lat="45.4989717" lon="11.1242217"><ele>241.00000000000003</ele><time>2026-04-08T07:34:10.787Z</time></trkpt><trkpt lat="45.49907" lon="11.1241717"><ele>241.0</ele><time>2026-04-08T07:34:11.787Z</time></trkpt><trkpt lat="45.4991667" lon="11.124115"><ele>241.0</ele><time>2026-04-08T07:34:12.787Z</time></trkpt><trkpt lat="45.4992617" lon="11.1240517"><ele>242.4</ele><time>2026-04-08T07:34:13.786Z</time></trkpt><trkpt lat="45.4993467" lon="11.1239833"><ele>243.8</ele><time>2026-04-08T07:34:14.787Z</time></trkpt><trkpt lat="45.4994467" lon="11.12393"><ele>245.20000000000002</ele><time>2026-04-08T07:34:15.787Z</time></trkpt><trkpt lat="45.4995417" lon="11.1238667"><ele>246.60000000000002</ele><time>2026-04-08T07:34:16.787Z</time></trkpt><trkpt lat="45.4996433" lon="11.1237967"><ele>248.0</ele><time>2026-04-08T07:34:17.787Z</time></trkpt><trkpt lat="45.4997467" lon="11.1237183"><ele>248.0</ele><time>2026-04-08T07:34:18.787Z</time></trkpt><trkpt lat="45.49983" lon="11.1236533"><ele>248.0</ele><time>2026-04-08T07:34:19.787Z</time></trkpt><trkpt lat="45.499905" lon="11.1235867"><ele>248.0</ele><time>2026-04-08T07:34:20.786Z</time></trkpt><trkpt lat="45.4999733" lon="11.1235133"><ele>248.0</ele><time>2026-04-08T07:34:21.786Z</time></trkpt><trkpt lat="45.500045" lon="11.1234283"><ele>248.0</ele><time>2026-04-08T07:34:22.786Z</time></trkpt><trkpt lat="45.5001133" lon="11.1233333"><ele>250.60000000000002</ele><time>2026-04-08T07:34:23.787Z</time></trkpt><trkpt lat="45.50019" lon="11.1232217"><ele>253.20000000000002</ele><time>2026-04-08T07:34:24.787Z</time></trkpt><trkpt lat="45.500275" lon="11.123125"><ele>255.8</ele><time>2026-04-08T07:34:25.787Z</time></trkpt><trkpt lat="45.5003533" lon="11.1230517"><ele>258.40000000000003</ele><time>2026-04-08T07:34:26.787Z</time></trkpt><trkpt lat="45.50044" lon="11.1230067"><ele>261.0</ele><time>2026-04-08T07:34:27.786Z</time></trkpt><trkpt lat="45.500535" lon="11.122975"><ele>261.8</ele><time>2026-04-08T07:34:28.787Z</time></trkpt><trkpt lat="45.5006417" lon="11.1229633"><ele>262.6</ele><time>2026-04-08T07:34:29.787Z</time></trkpt><trkpt lat="45.5007583" lon="11.1229467"><ele>263.4</ele><time>2026-04-08T07:34:30.787Z</time></trkpt><trkpt lat="45.5008683" lon="11.1229183"><ele>264.2</ele><time>2026-04-08T07:34:31.787Z</time></trkpt><trkpt lat="45.5009517" lon="11.1228633"><ele>265.0</ele><time>2026-04-08T07:34:32.786Z</time></trkpt><trkpt lat="45.501025" lon="11.1227883"><ele>265.0</ele><time>2026-04-08T07:34:33.786Z</time></trkpt><trkpt lat="45.50108" lon="11.1227067"><ele>265.0</ele><time>2026-04-08T07:34:34.787Z</time></trkpt><trkpt lat="45.5011433" lon="11.12262"><ele>265.0</ele><time>2026-04-08T07:34:35.787Z</time></trkpt><trkpt lat="45.5012" lon="11.1225517"><ele>265.0</ele><time>2026-04-08T07:34:36.787Z</time></trkpt><trkpt lat="45.5013017" lon="11.1225533"><ele>265.0</ele><time>2026-04-08T07:34:38.786Z</time></trkpt><trkpt lat="45.50137" lon="11.1226067"><ele>265.0</ele><time>2026-04-08T07:34:39.787Z</time></trkpt><trkpt lat="45.5014333" lon="11.1226717"><ele>266.2</ele><time>2026-04-08T07:34:40.786Z</time></trkpt><trkpt lat="45.5015133" lon="11.122745"><ele>267.4</ele><time>2026-04-08T07:34:42.787Z</time></trkpt><trkpt lat="45.5015883" lon="11.1226783"><ele>268.6</ele><time>2026-04-08T07:34:45.787Z</time></trkpt><trkpt lat="45.5016333" lon="11.1224967"><ele>269.8</ele><time>2026-04-08T07:34:47.786Z</time></trkpt><trkpt lat="45.501655" lon="11.1223733"><ele>271.0</ele><time>2026-04-08T07:34:48.787Z</time></trkpt><trkpt lat="45.5016667" lon="11.1222117"><ele>273.25</ele><time>2026-04-08T07:34:49.786Z</time></trkpt><trkpt lat="45.501665" lon="11.1220317"><ele>275.5</ele><time>2026-04-08T07:34:50.787Z</time></trkpt><trkpt lat="45.5016633" lon="11.1218583"><ele>277.75</ele><time>2026-04-08T07:34:51.786Z</time></trkpt><trkpt lat="45.5016717" lon="11.12168"><ele>280.0</ele><time>2026-04-08T07:34:52.786Z</time></trkpt><trkpt lat="45.501685" lon="11.1215"><ele>282.75</ele><time>2026-04-08T07:34:53.787Z</time></trkpt><trkpt lat="45.5016933" lon="11.12132"><ele>285.5</ele><time>2026-04-08T07:34:54.786Z</time></trkpt><trkpt lat="45.5017067" lon="11.12115"><ele>288.25</ele><time>2026-04-08T07:34:55.786Z</time></trkpt><trkpt lat="45.50171" lon="11.1209833"><ele>291.0</ele><time>2026-04-08T07:34:56.786Z</time></trkpt><trkpt lat="45.50169" lon="11.1208167"><ele>294.0</ele><time>2026-04-08T07:34:57.787Z</time></trkpt><trkpt lat="45.5016583" lon="11.12063"><ele>297.0</ele><time>2026-04-08T07:34:58.787Z</time></trkpt><trkpt lat="45.501615" lon="11.120415"><ele>300.0</ele><time>2026-04-08T07:34:59.786Z</time></trkpt><trkpt lat="45.5015683" lon="11.1201917"><ele>300.0</ele><time>2026-04-08T07:35:00.787Z</time></trkpt><trkpt lat="45.5015367" lon="11.1200033"><ele>300.0</ele><time>2026-04-08T07:35:01.787Z</time></trkpt><trkpt lat="45.5015083" lon="11.1198233"><ele>300.0</ele><time>2026-04-08T07:35:02.787Z</time></trkpt><trkpt lat="45.5014983" lon="11.1196633"><ele>300.0</ele><time>2026-04-08T07:35:03.787Z</time></trkpt><trkpt lat="45.5015033" lon="11.1195467"><ele>302.6</ele><time>2026-04-08T07:35:04.786Z</time></trkpt><trkpt lat="45.50153" lon="11.1194"><ele>305.2</ele><time>2026-04-08T07:35:06.787Z</time></trkpt><trkpt lat="45.5016067" lon="11.1193717"><ele>307.8</ele><time>2026-04-08T07:35:08.787Z</time></trkpt><trkpt lat="45.5016983" lon="11.119395"><ele>310.4</ele><time>2026-04-08T07:35:09.786Z</time></trkpt><trkpt lat="45.501805" lon="11.11942"><ele>313.0</ele><time>2026-04-08T07:35:10.787Z</time></trkpt><trkpt lat="45.5019017" lon="11.119435"><ele>313.0</ele><time>2026-04-08T07:35:11.787Z</time></trkpt><trkpt lat="45.5019867" lon="11.1194167"><ele>313.0</ele><time>2026-04-08T07:35:12.787Z</time></trkpt><trkpt lat="45.5020633" lon="11.1194067"><ele>313.0</ele><time>2026-04-08T07:35:13.786Z</time></trkpt><trkpt lat="45.50214" lon="11.1194183"><ele>313.0</ele><time>2026-04-08T07:35:14.786Z</time></trkpt><trkpt lat="45.502205" lon="11.1194817"><ele>313.0</ele><time>2026-04-08T07:35:15.787Z</time></trkpt><trkpt lat="45.5022717" lon="11.11958"><ele>313.0</ele><time>2026-04-08T07:35:16.786Z</time></trkpt><trkpt lat="45.5022983" lon="11.11971"><ele>314.0</ele><time>2026-04-08T07:35:17.787Z</time></trkpt><trkpt lat="45.50232" lon="11.1198383"><ele>315.0</ele><time>2026-04-08T07:35:18.786Z</time></trkpt><trkpt lat="45.502355" lon="11.1199517"><ele>316.0</ele><time>2026-04-08T07:35:19.786Z</time></trkpt><trkpt lat="45.5024183" lon="11.1200667"><ele>317.0</ele><time>2026-04-08T07:35:20.787Z</time></trkpt><trkpt lat="45.5024933" lon="11.1201817"><ele>318.0</ele><time>2026-04-08T07:35:21.787Z</time></trkpt><trkpt lat="45.5025733" lon="11.120285"><ele>314.75</ele><time>2026-04-08T07:35:22.787Z</time></trkpt><trkpt lat="45.5026467" lon="11.1203917"><ele>311.5</ele><time>2026-04-08T07:35:23.786Z</time></trkpt><trkpt lat="45.50273" lon="11.1204983"><ele>308.25</ele><time>2026-04-08T07:35:24.787Z</time></trkpt><trkpt lat="45.502815" lon="11.1206067"><ele>305.0</ele><time>2026-04-08T07:35:25.787Z</time></trkpt><trkpt lat="45.5029033" lon="11.1207233"><ele>305.5</ele><time>2026-04-08T07:35:26.786Z</time></trkpt><trkpt lat="45.5029867" lon="11.1208517"><ele>306.0</ele><time>2026-04-08T07:35:27.787Z</time></trkpt><trkpt lat="45.5030667" lon="11.1209767"><ele>306.5</ele><time>2026-04-08T07:35:28.787Z</time></trkpt><trkpt lat="45.5031417" lon="11.1211"><ele>307.0</ele><time>2026-04-08T07:35:29.786Z</time></trkpt><trkpt lat="45.5032167" lon="11.12123"><ele>307.0</ele><time>2026-04-08T07:35:30.786Z</time></trkpt><trkpt lat="45.50329" lon="11.121355"><ele>307.0</ele><time>2026-04-08T07:35:31.787Z</time></trkpt><trkpt lat="45.5033633" lon="11.1214733"><ele>307.0</ele><time>2026-04-08T07:35:32.787Z</time></trkpt><trkpt lat="45.5034417" lon="11.1215883"><ele>307.0</ele><time>2026-04-08T07:35:33.787Z</time></trkpt><trkpt lat="45.5035167" lon="11.1216967"><ele>307.0</ele><time>2026-04-08T07:35:34.786Z</time></trkpt><trkpt lat="45.5035883" lon="11.1217933"><ele>304.8</ele><time>2026-04-08T07:35:35.786Z</time></trkpt><trkpt lat="45.50366" lon="11.121895"><ele>302.6</ele><time>2026-04-08T07:35:36.786Z</time></trkpt><trkpt lat="45.5037383" lon="11.1219933"><ele>300.40000000000003</ele><time>2026-04-08T07:35:37.787Z</time></trkpt><trkpt lat="45.50382" lon="11.122075"><ele>298.2</ele><time>2026-04-08T07:35:38.787Z</time></trkpt><trkpt lat="45.5039033" lon="11.1221683"><ele>296.0</ele><time>2026-04-08T07:35:39.787Z</time></trkpt><trkpt lat="45.5039883" lon="11.12225"><ele>296.0</ele><time>2026-04-08T07:35:40.787Z</time></trkpt><trkpt lat="45.5040783" lon="11.122325"><ele>296.0</ele><time>2026-04-08T07:35:41.786Z</time></trkpt><trkpt lat="45.5041667" lon="11.1223917"><ele>296.0</ele><time>2026-04-08T07:35:42.786Z</time></trkpt><trkpt lat="45.5042533" lon="11.122435"><ele>296.0</ele><time>2026-04-08T07:35:43.787Z</time></trkpt><trkpt lat="45.5043317" lon="11.1224617"><ele>296.0</ele><time>2026-04-08T07:35:44.786Z</time></trkpt><trkpt lat="45.504395" lon="11.1224633"><ele>296.0</ele><time>2026-04-08T07:35:45.787Z</time></trkpt><trkpt lat="45.5044567" lon="11.12243"><ele>296.0</ele><time>2026-04-08T07:35:46.786Z</time></trkpt><trkpt lat="45.5045083" lon="11.1223717"><ele>296.0</ele><time>2026-04-08T07:35:47.787Z</time></trkpt><trkpt lat="45.5045483" lon="11.122285"><ele>296.0</ele><time>2026-04-08T07:35:48.786Z</time></trkpt><trkpt lat="45.5045817" lon="11.12216"><ele>296.0</ele><time>2026-04-08T07:35:49.786Z</time></trkpt><trkpt lat="45.5046" lon="11.1220117"><ele>296.0</ele><time>2026-04-08T07:35:50.787Z</time></trkpt><trkpt lat="45.5046067" lon="11.1218783"><ele>296.0</ele><time>2026-04-08T07:35:51.786Z</time></trkpt><trkpt lat="45.5046167" lon="11.1217667"><ele>294.33333333333337</ele><time>2026-04-08T07:35:52.786Z</time></trkpt><trkpt lat="45.50466" lon="11.121675"><ele>292.6666666666667</ele><time>2026-04-08T07:35:54.787Z</time></trkpt><trkpt lat="45.5047233" lon="11.1218017"><ele>291.0</ele><time>2026-04-08T07:35:58.787Z</time></trkpt><trkpt lat="45.5047567" lon="11.1218817"><ele>289.3333333333333</ele><time>2026-04-08T07:35:59.786Z</time></trkpt><trkpt lat="45.5048067" lon="11.121995"><ele>287.66666666666663</ele><time>2026-04-08T07:36:00.787Z</time></trkpt><trkpt lat="45.5048833" lon="11.1220933"><ele>286.0</ele><time>2026-04-08T07:36:01.786Z</time></trkpt><trkpt lat="45.5049767" lon="11.1221883"><ele>286.0</ele><time>2026-04-08T07:36:02.787Z</time></trkpt><trkpt lat="45.505075" lon="11.122245"><ele>286.0</ele><time>2026-04-08T07:36:03.786Z</time></trkpt><trkpt lat="45.5051767" lon="11.12227"><ele>286.0</ele><time>2026-04-08T07:36:04.787Z</time></trkpt><trkpt lat="45.5052833" lon="11.122255"><ele>286.0</ele><time>2026-04-08T07:36:05.786Z</time></trkpt><trkpt lat="45.5053983" lon="11.1222367"><ele>286.0</ele><time>2026-04-08T07:36:06.787Z</time></trkpt><trkpt lat="45.5055033" lon="11.1222267"><ele>286.5</ele><time>2026-04-08T07:36:07.787Z</time></trkpt><trkpt lat="45.5055867" lon="11.1222067"><ele>287.0</ele><time>2026-04-08T07:36:08.786Z</time></trkpt><trkpt lat="45.505665" lon="11.1221867"><ele>287.5</ele><time>2026-04-08T07:36:09.787Z</time></trkpt><trkpt lat="45.5057517" lon="11.1221567"><ele>288.0</ele><time>2026-04-08T07:36:10.787Z</time></trkpt><trkpt lat="45.505845" lon="11.122125"><ele>288.5</ele><time>2026-04-08T07:36:11.787Z</time></trkpt><trkpt lat="45.5059233" lon="11.1220967"><ele>289.0</ele><time>2026-04-08T07:36:12.786Z</time></trkpt><trkpt lat="45.505995" lon="11.1220733"><ele>289.0</ele><time>2026-04-08T07:36:13.786Z</time></trkpt><trkpt lat="45.5060917" lon="11.1220683"><ele>289.0</ele><time>2026-04-08T07:36:15.787Z</time></trkpt><trkpt lat="45.5061633" lon="11.122175"><ele>289.0</ele><time>2026-04-08T07:36:17.787Z</time></trkpt><trkpt lat="45.5062" lon="11.122265"><ele>289.0</ele><time>2026-04-08T07:36:18.786Z</time></trkpt><trkpt lat="45.50624" lon="11.1224"><ele>289.0</ele><time>2026-04-08T07:36:19.787Z</time></trkpt><trkpt lat="45.5062917" lon="11.1225583"><ele>290.4</ele><time>2026-04-08T07:36:20.787Z</time></trkpt><trkpt lat="45.506355" lon="11.1227117"><ele>291.79999999999995</ele><time>2026-04-08T07:36:21.787Z</time></trkpt><trkpt lat="45.5064067" lon="11.1228417"><ele>293.20000000000005</ele><time>2026-04-08T07:36:22.787Z</time></trkpt><trkpt lat="45.50645" lon="11.1229467"><ele>294.6</ele><time>2026-04-08T07:36:23.787Z</time></trkpt><trkpt lat="45.50649" lon="11.12303"><ele>296.0</ele><time>2026-04-08T07:36:24.787Z</time></trkpt><trkpt lat="45.506595" lon="11.1231117"><ele>296.0</ele><time>2026-04-08T07:36:26.786Z</time></trkpt><trkpt lat="45.506665" lon="11.123135"><ele>296.0</ele><time>2026-04-08T07:36:27.787Z</time></trkpt><trkpt lat="45.5067417" lon="11.123145"><ele>296.0</ele><time>2026-04-08T07:36:28.786Z</time></trkpt><trkpt lat="45.5068183" lon="11.1231483"><ele>296.0</ele><time>2026-04-08T07:36:29.787Z</time></trkpt><trkpt lat="45.506905" lon="11.12313"><ele>296.0</ele><time>2026-04-08T07:36:30.787Z</time></trkpt><trkpt lat="45.5069933" lon="11.1230967"><ele>296.0</ele><time>2026-04-08T07:36:31.787Z</time></trkpt><trkpt lat="45.5070783" lon="11.123035"><ele>296.2</ele><time>2026-04-08T07:36:32.786Z</time></trkpt><trkpt lat="45.5071367" lon="11.1229567"><ele>296.40000000000003</ele><time>2026-04-08T07:36:33.787Z</time></trkpt><trkpt lat="45.5071817" lon="11.1228467"><ele>296.6</ele><time>2026-04-08T07:36:34.786Z</time></trkpt><trkpt lat="45.5072233" lon="11.1227217"><ele>296.8</ele><time>2026-04-08T07:36:35.787Z</time></trkpt><trkpt lat="45.5072517" lon="11.1225767"><ele>297.0</ele><time>2026-04-08T07:36:36.787Z</time></trkpt><trkpt lat="45.5072683" lon="11.1224433"><ele>298.5</ele><time>2026-04-08T07:36:37.787Z</time></trkpt><trkpt lat="45.5072867" lon="11.1223283"><ele>300.0</ele><time>2026-04-08T07:36:38.787Z</time></trkpt><trkpt lat="45.50727" lon="11.1222333"><ele>301.5</ele><time>2026-04-08T07:36:40.787Z</time></trkpt><trkpt lat="45.5071633" lon="11.1222767"><ele>303.0</ele><time>2026-04-08T07:36:43.787Z</time></trkpt><trkpt lat="45.5070867" lon="11.1223167"><ele>304.5</ele><time>2026-04-08T07:36:44.786Z</time></trkpt><trkpt lat="45.5070167" lon="11.1223167"><ele>306.0</ele><time>2026-04-08T07:36:45.786Z</time></trkpt><trkpt lat="45.5069483" lon="11.1222683"><ele>306.0</ele><time>2026-04-08T07:36:46.786Z</time></trkpt><trkpt lat="45.506885" lon="11.1221767"><ele>306.0</ele><time>2026-04-08T07:36:47.786Z</time></trkpt><trkpt lat="45.50684" lon="11.1220583"><ele>306.0</ele><time>2026-04-08T07:36:48.785Z</time></trkpt><trkpt lat="45.50681" lon="11.1219133"><ele>306.0</ele><time>2026-04-08T07:36:49.785Z</time></trkpt><trkpt lat="45.5068033" lon="11.1217483"><ele>306.0</ele><time>2026-04-08T07:36:50.786Z</time></trkpt><trkpt lat="45.5068017" lon="11.121605"><ele>307.1666666666667</ele><time>2026-04-08T07:36:51.786Z</time></trkpt><trkpt lat="45.506815" lon="11.1214617"><ele>308.3333333333333</ele><time>2026-04-08T07:36:52.786Z</time></trkpt><trkpt lat="45.5068467" lon="11.1213267"><ele>309.5</ele><time>2026-04-08T07:36:53.785Z</time></trkpt><trkpt lat="45.50689" lon="11.1212083"><ele>310.66666666666663</ele><time>2026-04-08T07:36:54.786Z</time></trkpt><trkpt lat="45.5069217" lon="11.121105"><ele>311.8333333333333</ele><time>2026-04-08T07:36:55.786Z</time></trkpt><trkpt lat="45.5069667" lon="11.1210333"><ele>313.0</ele><time>2026-04-08T07:36:56.786Z</time></trkpt><trkpt lat="45.5070117" lon="11.1209517"><ele>313.0</ele><time>2026-04-08T07:36:57.785Z</time></trkpt><trkpt lat="45.507055" lon="11.1208617"><ele>313.0</ele><time>2026-04-08T07:36:58.786Z</time></trkpt><trkpt lat="45.5071133" lon="11.12077"><ele>313.0</ele><time>2026-04-08T07:36:59.785Z</time></trkpt><trkpt lat="45.5071817" lon="11.12068"><ele>313.0</ele><time>2026-04-08T07:37:00.786Z</time></trkpt><trkpt lat="45.50726" lon="11.1205967"><ele>313.0</ele><time>2026-04-08T07:37:01.785Z</time></trkpt><trkpt lat="45.5073417" lon="11.1205017"><ele>318.2</ele><time>2026-04-08T07:37:02.786Z</time></trkpt><trkpt lat="45.5074183" lon="11.1204017"><ele>323.4</ele><time>2026-04-08T07:37:03.786Z</time></trkpt><trkpt lat="45.50748" lon="11.1202917"><ele>328.59999999999997</ele><time>2026-04-08T07:37:04.785Z</time></trkpt><trkpt lat="45.5075367" lon="11.1201833"><ele>333.8</ele><time>2026-04-08T07:37:05.786Z</time></trkpt><trkpt lat="45.507595" lon="11.120065"><ele>339.0</ele><time>2026-04-08T07:37:06.786Z</time></trkpt><trkpt lat="45.5076433" lon="11.1199467"><ele>339.25</ele><time>2026-04-08T07:37:07.785Z</time></trkpt><trkpt lat="45.50769" lon="11.1198017"><ele>339.5</ele><time>2026-04-08T07:37:08.785Z</time></trkpt><trkpt lat="45.5077417" lon="11.1196467"><ele>339.75</ele><time>2026-04-08T07:37:09.786Z</time></trkpt><trkpt lat="45.5078017" lon="11.1194583"><ele>340.0</ele><time>2026-04-08T07:37:10.785Z</time></trkpt><trkpt lat="45.5078617" lon="11.11927"><ele>343.0</ele><time>2026-04-08T07:37:11.785Z</time></trkpt><trkpt lat="45.5079217" lon="11.1190633"><ele>346.0</ele><time>2026-04-08T07:37:12.785Z</time></trkpt><trkpt lat="45.5079933" lon="11.1188517"><ele>349.0</ele><time>2026-04-08T07:37:13.785Z</time></trkpt><trkpt lat="45.5080517" lon="11.1186783"><ele>349.0</ele><time>2026-04-08T07:37:14.786Z</time></trkpt><trkpt lat="45.5081233" lon="11.11852"><ele>349.0</ele><time>2026-04-08T07:37:15.786Z</time></trkpt><trkpt lat="45.5081933" lon="11.1183933"><ele>349.0</ele><time>2026-04-08T07:37:16.786Z</time></trkpt><trkpt lat="45.5082667" lon="11.11828"><ele>349.0</ele><time>2026-04-08T07:37:17.786Z</time></trkpt><trkpt lat="45.50834" lon="11.1181533"><ele>349.16666666666663</ele><time>2026-04-08T07:37:18.786Z</time></trkpt><trkpt lat="45.5083983" lon="11.1180283"><ele>349.3333333333333</ele><time>2026-04-08T07:37:19.785Z</time></trkpt><trkpt lat="45.5084367" lon="11.11791"><ele>349.5</ele><time>2026-04-08T07:37:20.786Z</time></trkpt><trkpt lat="45.5084667" lon="11.1178067"><ele>349.6666666666667</ele><time>2026-04-08T07:37:21.785Z</time></trkpt><trkpt lat="45.5084867" lon="11.1177017"><ele>349.83333333333337</ele><time>2026-04-08T07:37:22.786Z</time></trkpt><trkpt lat="45.5084883" lon="11.1175833"><ele>350.0</ele><time>2026-04-08T07:37:23.786Z</time></trkpt><trkpt lat="45.508485" lon="11.11748"><ele>351.6666666666667</ele><time>2026-04-08T07:37:24.785Z</time></trkpt><trkpt lat="45.508475" lon="11.11738"><ele>353.33333333333337</ele><time>2026-04-08T07:37:25.786Z</time></trkpt><trkpt lat="45.5084783" lon="11.1172667"><ele>355.0</ele><time>2026-04-08T07:37:26.786Z</time></trkpt><trkpt lat="45.508485" lon="11.1171483"><ele>356.6666666666667</ele><time>2026-04-08T07:37:27.785Z</time></trkpt><trkpt lat="45.5084883" lon="11.1170217"><ele>358.3333333333333</ele><time>2026-04-08T07:37:28.785Z</time></trkpt><trkpt lat="45.5084917" lon="11.1169"><ele>360.0</ele><time>2026-04-08T07:37:29.786Z</time></trkpt><trkpt lat="45.50849" lon="11.1167917"><ele>360.0</ele><time>2026-04-08T07:37:30.786Z</time></trkpt><trkpt lat="45.508475" lon="11.11668"><ele>360.0</ele><time>2026-04-08T07:37:31.785Z</time></trkpt><trkpt lat="45.5084517" lon="11.1165667"><ele>360.0</ele><time>2026-04-08T07:37:32.786Z</time></trkpt><trkpt lat="45.5084317" lon="11.11648"><ele>360.0</ele><time>2026-04-08T07:37:33.785Z</time></trkpt><trkpt lat="45.50844" lon="11.11639"><ele>360.0</ele><time>2026-04-08T07:37:35.785Z</time></trkpt><trkpt lat="45.50852" lon="11.11631"><ele>360.0</ele><time>2026-04-08T07:37:37.786Z</time></trkpt><trkpt lat="45.5085817" lon="11.116245"><ele>363.4</ele><time>2026-04-08T07:37:38.786Z</time></trkpt><trkpt lat="45.5086233" lon="11.1161733"><ele>366.8</ele><time>2026-04-08T07:37:39.786Z</time></trkpt><trkpt lat="45.50865" lon="11.1160417"><ele>370.20000000000005</ele><time>2026-04-08T07:37:41.785Z</time></trkpt><trkpt lat="45.5086183" lon="11.115865"><ele>373.6</ele><time>2026-04-08T07:37:43.786Z</time></trkpt><trkpt lat="45.508585" lon="11.1157583"><ele>377.0</ele><time>2026-04-08T07:37:44.785Z</time></trkpt><trkpt lat="45.5085283" lon="11.1156533"><ele>378.8</ele><time>2026-04-08T07:37:45.785Z</time></trkpt><trkpt lat="45.508475" lon="11.1155467"><ele>380.6</ele><time>2026-04-08T07:37:46.785Z</time></trkpt><trkpt lat="45.508415" lon="11.115445"><ele>382.40000000000003</ele><time>2026-04-08T07:37:47.785Z</time></trkpt><trkpt lat="45.5083483" lon="11.1153317"><ele>384.20000000000005</ele><time>2026-04-08T07:37:48.786Z</time></trkpt><trkpt lat="45.5082883" lon="11.1152067"><ele>386.0</ele><time>2026-04-08T07:37:49.786Z</time></trkpt><trkpt lat="45.5082283" lon="11.11508"><ele>386.0</ele><time>2026-04-08T07:37:50.785Z</time></trkpt><trkpt lat="45.5081717" lon="11.114945"><ele>386.0</ele><time>2026-04-08T07:37:51.786Z</time></trkpt><trkpt lat="45.5081283" lon="11.1148017"><ele>386.0</ele><time>2026-04-08T07:37:52.785Z</time></trkpt><trkpt lat="45.5080867" lon="11.11466"><ele>386.0</ele><time>2026-04-08T07:37:53.785Z</time></trkpt><trkpt lat="45.50805" lon="11.1145317"><ele>386.0</ele><time>2026-04-08T07:37:54.785Z</time></trkpt><trkpt lat="45.5080083" lon="11.11442"><ele>386.16666666666663</ele><time>2026-04-08T07:37:55.786Z</time></trkpt><trkpt lat="45.507965" lon="11.114325"><ele>386.3333333333333</ele><time>2026-04-08T07:37:56.785Z</time></trkpt><trkpt lat="45.5079083" lon="11.1142683"><ele>386.5</ele><time>2026-04-08T07:37:57.785Z</time></trkpt><trkpt lat="45.5078383" lon="11.1142433"><ele>386.66666666666663</ele><time>2026-04-08T07:37:58.786Z</time></trkpt><trkpt lat="45.50775" lon="11.1142017"><ele>386.8333333333333</ele><time>2026-04-08T07:37:59.785Z</time></trkpt><trkpt lat="45.5076833" lon="11.11413"><ele>387.0</ele><time>2026-04-08T07:38:00.786Z</time></trkpt><trkpt lat="45.507625" lon="11.1140517"><ele>390.1666666666667</ele><time>2026-04-08T07:38:01.785Z</time></trkpt><trkpt lat="45.5076" lon="11.1139517"><ele>393.33333333333337</ele><time>2026-04-08T07:38:02.786Z</time></trkpt><trkpt lat="45.5075933" lon="11.1138383"><ele>396.5</ele><time>2026-04-08T07:38:03.785Z</time></trkpt><trkpt lat="45.507585" lon="11.1137183"><ele>399.6666666666667</ele><time>2026-04-08T07:38:04.786Z</time></trkpt><trkpt lat="45.50757" lon="11.1135967"><ele>402.83333333333337</ele><time>2026-04-08T07:38:05.785Z</time></trkpt><trkpt lat="45.50754" lon="11.1134817"><ele>406.0</ele><time>2026-04-08T07:38:06.786Z</time></trkpt><trkpt lat="45.5075017" lon="11.1133833"><ele>406.00000000000006</ele><time>2026-04-08T07:38:07.785Z</time></trkpt><trkpt lat="45.507475" lon="11.1132733"><ele>406.0</ele><time>2026-04-08T07:38:08.786Z</time></trkpt><trkpt lat="45.507445" lon="11.11318"><ele>406.0</ele><time>2026-04-08T07:38:09.786Z</time></trkpt><trkpt lat="45.5074083" lon="11.1130983"><ele>406.0</ele><time>2026-04-08T07:38:10.785Z</time></trkpt><trkpt lat="45.507295" lon="11.1130017"><ele>406.00000000000006</ele><time>2026-04-08T07:38:12.786Z</time></trkpt><trkpt lat="45.5072417" lon="11.11293"><ele>406.0</ele><time>2026-04-08T07:38:13.785Z</time></trkpt><trkpt lat="45.5071667" lon="11.112845"><ele>407.83333333333337</ele><time>2026-04-08T07:38:15.785Z</time></trkpt><trkpt lat="45.507095" lon="11.1128383"><ele>409.6666666666667</ele><time>2026-04-08T07:38:18.786Z</time></trkpt><trkpt lat="45.5070367" lon="11.1127567"><ele>411.5</ele><time>2026-04-08T07:38:21.785Z</time></trkpt><trkpt lat="45.5069833" lon="11.112625"><ele>413.33333333333337</ele><time>2026-04-08T07:38:23.786Z</time></trkpt><trkpt lat="45.5069483" lon="11.1125283"><ele>415.1666666666667</ele><time>2026-04-08T07:38:24.786Z</time></trkpt><trkpt lat="45.506905" lon="11.1124267"><ele>417.0</ele><time>2026-04-08T07:38:25.785Z</time></trkpt><trkpt lat="45.506865" lon="11.1123317"><ele>420.2857142857143</ele><time>2026-04-08T07:38:26.785Z</time></trkpt><trkpt lat="45.506835" lon="11.112245"><ele>423.57142857142856</ele><time>2026-04-08T07:38:27.785Z</time></trkpt><trkpt lat="45.5068217" lon="11.1121317"><ele>426.85714285714283</ele><time>2026-04-08T07:38:29.786Z</time></trkpt><trkpt lat="45.5068833" lon="11.1120417"><ele>430.1428571428571</ele><time>2026-04-08T07:38:32.786Z</time></trkpt><trkpt lat="45.50689" lon="11.1119467"><ele>433.42857142857144</ele><time>2026-04-08T07:38:38.786Z</time></trkpt><trkpt lat="45.5069117" lon="11.1118467"><ele>436.71428571428567</ele><time>2026-04-08T07:38:40.786Z</time></trkpt><trkpt lat="45.506905" lon="11.1117517"><ele>440.0</ele><time>2026-04-08T07:38:41.786Z</time></trkpt><trkpt lat="45.5068783" lon="11.11161"><ele>443.75</ele><time>2026-04-08T07:38:42.786Z</time></trkpt><trkpt lat="45.50685" lon="11.1114317"><ele>447.5</ele><time>2026-04-08T07:38:43.786Z</time></trkpt><trkpt lat="45.506815" lon="11.111245"><ele>451.25</ele><time>2026-04-08T07:38:44.785Z</time></trkpt><trkpt lat="45.5067933" lon="11.1111067"><ele>455.0</ele><time>2026-04-08T07:38:45.785Z</time></trkpt><trkpt lat="45.5067867" lon="11.1109683"><ele>455.0</ele><time>2026-04-08T07:38:47.786Z</time></trkpt><trkpt lat="45.50687" lon="11.11092"><ele>455.0</ele><time>2026-04-08T07:39:37.785Z</time></trkpt><trkpt lat="45.5070033" lon="11.1108133"><ele>455.0</ele><time>2026-04-08T07:39:39.786Z</time></trkpt><trkpt lat="45.5070833" lon="11.11075"><ele>455.0</ele><time>2026-04-08T07:39:40.786Z</time></trkpt><trkpt lat="45.5071517" lon="11.11069"><ele>455.0</ele><time>2026-04-08T07:39:41.785Z</time></trkpt><trkpt lat="45.507205" lon="11.110625"><ele>453.49999999999994</ele><time>2026-04-08T07:39:42.786Z</time></trkpt><trkpt lat="45.50727" lon="11.11048"><ele>452.0</ele><time>2026-04-08T07:39:44.785Z</time></trkpt><trkpt lat="45.5072983" lon="11.1103817"><ele>450.5</ele><time>2026-04-08T07:39:45.786Z</time></trkpt><trkpt lat="45.5073083" lon="11.1102733"><ele>449.0</ele><time>2026-04-08T07:39:46.785Z</time></trkpt><trkpt lat="45.5073" lon="11.1101433"><ele>447.49999999999994</ele><time>2026-04-08T07:39:47.786Z</time></trkpt><trkpt lat="45.5072883" lon="11.1100217"><ele>446.0</ele><time>2026-04-08T07:39:48.785Z</time></trkpt><trkpt lat="45.5072821" lon="11.1099281"><ele>446.3333333333333</ele><time>2026-04-08T07:39:49.785Z</time></trkpt><trkpt lat="45.5072496" lon="11.109833"><ele>446.66666666666663</ele><time>2026-04-08T07:39:50.786Z</time></trkpt><trkpt lat="45.5072078" lon="11.1097265"><ele>447.0</ele><time>2026-04-08T07:39:51.785Z</time></trkpt><trkpt lat="45.5071586" lon="11.1096194"><ele>447.33333333333337</ele><time>2026-04-08T07:39:52.786Z</time></trkpt><trkpt lat="45.507103" lon="11.1095097"><ele>447.6666666666667</ele><time>2026-04-08T07:39:53.785Z</time></trkpt><trkpt lat="45.5070388" lon="11.1093971"><ele>448.0</ele><time>2026-04-08T07:39:54.786Z</time></trkpt><trkpt lat="45.5069673" lon="11.1092826"><ele>451.79999999999995</ele><time>2026-04-08T07:39:55.785Z</time></trkpt><trkpt lat="45.5068961" lon="11.1091712"><ele>455.59999999999997</ele><time>2026-04-08T07:39:56.785Z</time></trkpt><trkpt lat="45.5068272" lon="11.1090601"><ele>459.40000000000003</ele><time>2026-04-08T07:39:57.785Z</time></trkpt><trkpt lat="45.5067576" lon="11.1089458"><ele>463.20000000000005</ele><time>2026-04-08T07:39:58.786Z</time></trkpt><trkpt lat="45.5066995" lon="11.108835"><ele>467.0</ele><time>2026-04-08T07:39:59.785Z</time></trkpt><trkpt lat="45.5066579" lon="11.1087273"><ele>468.66666666666663</ele><time>2026-04-08T07:40:00.786Z</time></trkpt><trkpt lat="45.5066262" lon="11.1086215"><ele>470.3333333333333</ele><time>2026-04-08T07:40:01.785Z</time></trkpt><trkpt lat="45.506602" lon="11.1085064"><ele>472.0</ele><time>2026-04-08T07:40:02.786Z</time></trkpt><trkpt lat="45.5065764" lon="11.1083853"><ele>473.66666666666663</ele><time>2026-04-08T07:40:03.785Z</time></trkpt><trkpt lat="45.5065491" lon="11.1082704"><ele>475.3333333333333</ele><time>2026-04-08T07:40:04.785Z</time></trkpt><trkpt lat="45.506523" lon="11.1081501"><ele>477.0</ele><time>2026-04-08T07:40:05.786Z</time></trkpt><trkpt lat="45.5064955" lon="11.1080115"><ele>479.6666666666667</ele><time>2026-04-08T07:40:06.786Z</time></trkpt><trkpt lat="45.5064574" lon="11.1078846"><ele>482.33333333333337</ele><time>2026-04-08T07:40:07.785Z</time></trkpt><trkpt lat="45.5064157" lon="11.1078005"><ele>485.0</ele><time>2026-04-08T07:40:08.785Z</time></trkpt><trkpt lat="45.5063002" lon="11.1077245"><ele>487.6666666666667</ele><time>2026-04-08T07:40:10.786Z</time></trkpt><trkpt lat="45.5062315" lon="11.1077139"><ele>490.33333333333337</ele><time>2026-04-08T07:40:11.786Z</time></trkpt><trkpt lat="45.5061562" lon="11.1077229"><ele>493.0</ele><time>2026-04-08T07:40:12.785Z</time></trkpt><trkpt lat="45.5060809" lon="11.1077133"><ele>493.6666666666667</ele><time>2026-04-08T07:40:13.784Z</time></trkpt><trkpt lat="45.5060115" lon="11.1076883"><ele>494.33333333333337</ele><time>2026-04-08T07:40:14.784Z</time></trkpt><trkpt lat="45.5059495" lon="11.1076547"><ele>495.0</ele><time>2026-04-08T07:40:15.784Z</time></trkpt><trkpt lat="45.5058442" lon="11.1075454"><ele>495.66666666666663</ele><time>2026-04-08T07:40:17.785Z</time></trkpt><trkpt lat="45.5057873" lon="11.1074723"><ele>496.3333333333333</ele><time>2026-04-08T07:40:18.785Z</time></trkpt><trkpt lat="45.505729" lon="11.1073925"><ele>497.0</ele><time>2026-04-08T07:40:19.785Z</time></trkpt><trkpt lat="45.5056658" lon="11.1073128"><ele>499.16666666666663</ele><time>2026-04-08T07:40:20.785Z</time></trkpt><trkpt lat="45.5055855" lon="11.1072378"><ele>501.3333333333333</ele><time>2026-04-08T07:40:21.784Z</time></trkpt><trkpt lat="45.5055133" lon="11.1071663"><ele>503.5</ele><time>2026-04-08T07:40:22.784Z</time></trkpt><trkpt lat="45.5054519" lon="11.1070979"><ele>505.66666666666663</ele><time>2026-04-08T07:40:23.784Z</time></trkpt><trkpt lat="45.505406" lon="11.1070253"><ele>507.8333333333333</ele><time>2026-04-08T07:40:24.784Z</time></trkpt><trkpt lat="45.5053643" lon="11.1069466"><ele>510.0</ele><time>2026-04-08T07:40:25.785Z</time></trkpt><trkpt lat="45.5053327" lon="11.1068649"><ele>510.0</ele><time>2026-04-08T07:40:26.784Z</time></trkpt><trkpt lat="45.5053074" lon="11.1067787"><ele>510.0</ele><time>2026-04-08T07:40:27.785Z</time></trkpt><trkpt lat="45.5052966" lon="11.1066848"><ele>510.0</ele><time>2026-04-08T07:40:28.784Z</time></trkpt><trkpt lat="45.5052822" lon="11.1065185"><ele>510.0</ele><time>2026-04-08T07:40:30.785Z</time></trkpt><trkpt lat="45.5053281" lon="11.1063931"><ele>510.0</ele><time>2026-04-08T07:40:32.785Z</time></trkpt><trkpt lat="45.5054131" lon="11.1064055"><ele>510.0</ele><time>2026-04-08T07:40:34.785Z</time></trkpt><trkpt lat="45.5055263" lon="11.1063766"><ele>512.2</ele><time>2026-04-08T07:40:36.785Z</time></trkpt><trkpt lat="45.5056414" lon="11.1063639"><ele>514.4</ele><time>2026-04-08T07:40:38.784Z</time></trkpt><trkpt lat="45.5057438" lon="11.1063954"><ele>516.6</ele><time>2026-04-08T07:40:40.784Z</time></trkpt><trkpt lat="45.5057882" lon="11.1064753"><ele>518.8</ele><time>2026-04-08T07:40:43.784Z</time></trkpt><trkpt lat="45.5058523" lon="11.1065396"><ele>521.0</ele><time>2026-04-08T07:40:45.785Z</time></trkpt><trkpt lat="45.5059351" lon="11.1065871"><ele>521.2</ele><time>2026-04-08T07:40:47.784Z</time></trkpt><trkpt lat="45.5060112" lon="11.1065561"><ele>521.4000000000001</ele><time>2026-04-08T07:40:49.785Z</time></trkpt><trkpt lat="45.5061098" lon="11.1064591"><ele>521.6</ele><time>2026-04-08T07:40:51.784Z</time></trkpt><trkpt lat="45.5061841" lon="11.1063812"><ele>521.8000000000001</ele><time>2026-04-08T07:40:52.784Z</time></trkpt><trkpt lat="45.50625" lon="11.1063131"><ele>522.0</ele><time>2026-04-08T07:40:53.784Z</time></trkpt><trkpt lat="45.5063159" lon="11.1062223"><ele>522.0</ele><time>2026-04-08T07:40:54.785Z</time></trkpt><trkpt lat="45.506359" lon="11.1061527"><ele>522.0</ele><time>2026-04-08T07:40:55.785Z</time></trkpt><trkpt lat="45.5064073" lon="11.1060099"><ele>522.0</ele><time>2026-04-08T07:40:57.784Z</time></trkpt><trkpt lat="45.5064357" lon="11.1059296"><ele>522.0</ele><time>2026-04-08T07:40:58.785Z</time></trkpt><trkpt lat="45.5064606" lon="11.1057591"><ele>522.0</ele><time>2026-04-08T07:41:00.784Z</time></trkpt><trkpt lat="45.5064815" lon="11.1055902"><ele>521.8000000000001</ele><time>2026-04-08T07:41:02.784Z</time></trkpt><trkpt lat="45.5064843" lon="11.1054938"><ele>521.6</ele><time>2026-04-08T07:41:03.784Z</time></trkpt><trkpt lat="45.5064897" lon="11.105317"><ele>521.4000000000001</ele><time>2026-04-08T07:41:05.785Z</time></trkpt><trkpt lat="45.5065114" lon="11.1051665"><ele>521.2</ele><time>2026-04-08T07:41:07.784Z</time></trkpt><trkpt lat="45.506526" lon="11.105058"><ele>521.0</ele><time>2026-04-08T07:41:09.784Z</time></trkpt><trkpt lat="45.5065473" lon="11.1049472"><ele>520.0</ele><time>2026-04-08T07:41:13.785Z</time></trkpt><trkpt lat="45.506607" lon="11.1048499"><ele>519.0</ele><time>2026-04-08T07:41:16.784Z</time></trkpt><trkpt lat="45.5066733" lon="11.10476"><ele>518.0</ele><time>2026-04-08T07:41:18.784Z</time></trkpt><trkpt lat="45.5067017" lon="11.1046617"><ele>517.0</ele><time>2026-04-08T07:41:20.785Z</time></trkpt><trkpt lat="45.5066933" lon="11.104565"><ele>516.0</ele><time>2026-04-08T07:41:23.784Z</time></trkpt><trkpt lat="45.5066933" lon="11.1044717"><ele>515.0</ele><time>2026-04-08T07:41:25.784Z</time></trkpt><trkpt lat="45.5066717" lon="11.1043783"><ele>515.0</ele><time>2026-04-08T07:41:27.784Z</time></trkpt><trkpt lat="45.506685" lon="11.1042517"><ele>515.0</ele><time>2026-04-08T07:41:29.784Z</time></trkpt><trkpt lat="45.5066983" lon="11.1041067"><ele>515.0</ele><time>2026-04-08T07:41:31.784Z</time></trkpt><trkpt lat="45.5066933" lon="11.1039683"><ele>515.0</ele><time>2026-04-08T07:41:33.784Z</time></trkpt><trkpt lat="45.5066833" lon="11.1038717"><ele>515.0</ele><time>2026-04-08T07:41:36.785Z</time></trkpt><trkpt lat="45.506655" lon="11.10374"><ele>515.5</ele><time>2026-04-08T07:41:46.784Z</time></trkpt><trkpt lat="45.50659" lon="11.1036233"><ele>516.0</ele><time>2026-04-08T07:41:48.785Z</time></trkpt><trkpt lat="45.5065083" lon="11.1035183"><ele>516.5</ele><time>2026-04-08T07:41:50.785Z</time></trkpt><trkpt lat="45.50646" lon="11.10346"><ele>517.0</ele><time>2026-04-08T07:41:51.784Z</time></trkpt><trkpt lat="45.5063917" lon="11.1035017"><ele>517.5</ele><time>2026-04-08T07:41:54.784Z</time></trkpt><trkpt lat="45.506315" lon="11.10352"><ele>518.0</ele><time>2026-04-08T07:41:57.785Z</time></trkpt><trkpt lat="45.5062517" lon="11.103515"><ele>521.3333333333333</ele><time>2026-04-08T07:41:59.784Z</time></trkpt><trkpt lat="45.506175" lon="11.1034667"><ele>524.6666666666666</ele><time>2026-04-08T07:42:02.785Z</time></trkpt><trkpt lat="45.5061633" lon="11.103365"><ele>528.0</ele><time>2026-04-08T07:42:04.785Z</time></trkpt><trkpt lat="45.5061867" lon="11.1032083"><ele>531.3333333333334</ele><time>2026-04-08T07:42:06.785Z</time></trkpt><trkpt lat="45.506215" lon="11.1030967"><ele>534.6666666666667</ele><time>2026-04-08T07:42:08.784Z</time></trkpt><trkpt lat="45.506245" lon="11.1029767"><ele>538.0</ele><time>2026-04-08T07:42:10.785Z</time></trkpt><trkpt lat="45.5062533" lon="11.1028567"><ele>538.0</ele><time>2026-04-08T07:42:12.785Z</time></trkpt><trkpt lat="45.5062767" lon="11.1027367"><ele>538.0</ele><time>2026-04-08T07:42:15.785Z</time></trkpt><trkpt lat="45.506285" lon="11.1026217"><ele>538.0</ele><time>2026-04-08T07:42:23.785Z</time></trkpt><trkpt lat="45.5063267" lon="11.1025133"><ele>538.0</ele><time>2026-04-08T07:42:25.785Z</time></trkpt><trkpt lat="45.5063933" lon="11.10236"><ele>538.0</ele><time>2026-04-08T07:42:27.785Z</time></trkpt><trkpt lat="45.5064433" lon="11.1022"><ele>541.1666666666667</ele><time>2026-04-08T07:42:29.784Z</time></trkpt><trkpt lat="45.50648" lon="11.1021267"><ele>544.3333333333334</ele><time>2026-04-08T07:42:30.785Z</time></trkpt><trkpt lat="45.506525" lon="11.1019983"><ele>547.5</ele><time>2026-04-08T07:42:32.784Z</time></trkpt><trkpt lat="45.5064883" lon="11.1018983"><ele>550.6666666666666</ele><time>2026-04-08T07:42:36.784Z</time></trkpt><trkpt lat="45.50641" lon="11.1018583"><ele>553.8333333333333</ele><time>2026-04-08T07:42:39.785Z</time></trkpt><trkpt lat="45.506355" lon="11.1018133"><ele>557.0</ele><time>2026-04-08T07:42:42.784Z</time></trkpt><trkpt lat="45.5062867" lon="11.1017467"><ele>562.5</ele><time>2026-04-08T07:42:46.785Z</time></trkpt><trkpt lat="45.5062217" lon="11.10173"><ele>568.0</ele><time>2026-04-08T07:42:55.785Z</time></trkpt><trkpt lat="45.506145" lon="11.1016983"><ele>573.5</ele><time>2026-04-08T07:42:59.784Z</time></trkpt><trkpt lat="45.5060833" lon="11.1016667"><ele>579.0</ele><time>2026-04-08T07:43:01.784Z</time></trkpt><trkpt lat="45.5059833" lon="11.1016"><ele>584.5</ele><time>2026-04-08T07:43:04.785Z</time></trkpt><trkpt lat="45.5059" lon="11.1015733"><ele>590.0</ele><time>2026-04-08T07:43:07.784Z</time></trkpt><trkpt lat="45.5057917" lon="11.10139"><ele>591.5</ele><time>2026-04-08T07:44:03.783Z</time></trkpt><trkpt lat="45.5057783" lon="11.1012567"><ele>593.0</ele><time>2026-04-08T07:44:05.783Z</time></trkpt><trkpt lat="45.505775" lon="11.1011583"><ele>594.5</ele><time>2026-04-08T07:44:06.783Z</time></trkpt><trkpt lat="45.5057583" lon="11.101055"><ele>596.0</ele><time>2026-04-08T07:44:07.783Z</time></trkpt><trkpt lat="45.505745" lon="11.100945"><ele>597.5</ele><time>2026-04-08T07:44:08.783Z</time></trkpt><trkpt lat="45.5057167" lon="11.10085"><ele>599.0</ele><time>2026-04-08T07:44:09.783Z</time></trkpt><trkpt lat="45.5056867" lon="11.1007583"><ele>600.4</ele><time>2026-04-08T07:44:10.784Z</time></trkpt><trkpt lat="45.505655" lon="11.1005883"><ele>601.8</ele><time>2026-04-08T07:44:12.783Z</time></trkpt><trkpt lat="45.5056867" lon="11.10043"><ele>603.2</ele><time>2026-04-08T07:44:14.783Z</time></trkpt><trkpt lat="45.5057483" lon="11.1003533"><ele>604.6</ele><time>2026-04-08T07:44:15.783Z</time></trkpt><trkpt lat="45.5057883" lon="11.1002717"><ele>606.0</ele><time>2026-04-08T07:44:16.784Z</time></trkpt><trkpt lat="45.5058633" lon="11.1001167"><ele>606.0</ele><time>2026-04-08T07:44:18.783Z</time></trkpt><trkpt lat="45.5058983" lon="11.1000383"><ele>606.0</ele><time>2026-04-08T07:44:19.784Z</time></trkpt><trkpt lat="45.505965" lon="11.0999117"><ele>606.0</ele><time>2026-04-08T07:44:21.783Z</time></trkpt><trkpt lat="45.50603" lon="11.0997983"><ele>606.0</ele><time>2026-04-08T07:44:23.783Z</time></trkpt><trkpt lat="45.506095" lon="11.099675"><ele>606.0</ele><time>2026-04-08T07:44:25.783Z</time></trkpt><trkpt lat="45.5061383" lon="11.0995817"><ele>606.1666666666666</ele><time>2026-04-08T07:44:27.783Z</time></trkpt><trkpt lat="45.50618" lon="11.0994617"><ele>606.3333333333334</ele><time>2026-04-08T07:44:29.784Z</time></trkpt><trkpt lat="45.5062383" lon="11.0993617"><ele>606.5</ele><time>2026-04-08T07:44:31.784Z</time></trkpt><trkpt lat="45.506305" lon="11.0992967"><ele>606.6666666666667</ele><time>2026-04-08T07:44:33.783Z</time></trkpt><trkpt lat="45.50638" lon="11.0992283"><ele>606.8333333333334</ele><time>2026-04-08T07:44:35.784Z</time></trkpt><trkpt lat="45.5064483" lon="11.099155"><ele>607.0</ele><time>2026-04-08T07:44:37.784Z</time></trkpt><trkpt lat="45.5065533" lon="11.0990833"><ele>607.0</ele><time>2026-04-08T07:44:39.784Z</time></trkpt><trkpt lat="45.5066383" lon="11.09904"><ele>607.0</ele><time>2026-04-08T07:44:41.784Z</time></trkpt><trkpt lat="45.5067233" lon="11.0989967"><ele>607.0</ele><time>2026-04-08T07:44:43.784Z</time></trkpt><trkpt lat="45.506805" lon="11.09895"><ele>607.0</ele><time>2026-04-08T07:44:45.783Z</time></trkpt><trkpt lat="45.506905" lon="11.098915"><ele>607.0</ele><time>2026-04-08T07:44:47.784Z</time></trkpt><trkpt lat="45.5070033" lon="11.0988533"><ele>607.0</ele><time>2026-04-08T07:44:49.784Z</time></trkpt><trkpt lat="45.5070717" lon="11.0987983"><ele>607.0</ele><time>2026-04-08T07:44:50.784Z</time></trkpt><trkpt lat="45.50716" lon="11.0987317"><ele>607.0</ele><time>2026-04-08T07:44:51.784Z</time></trkpt><trkpt lat="45.5072633" lon="11.0986267"><ele>607.0</ele><time>2026-04-08T07:44:52.784Z</time></trkpt><trkpt lat="45.5073483" lon="11.098535"><ele>607.0</ele><time>2026-04-08T07:44:53.784Z</time></trkpt><trkpt lat="45.5074317" lon="11.0984383"><ele>607.8000000000001</ele><time>2026-04-08T07:44:54.783Z</time></trkpt><trkpt lat="45.5075133" lon="11.0983217"><ele>608.6</ele><time>2026-04-08T07:44:55.783Z</time></trkpt><trkpt lat="45.5075833" lon="11.0982267"><ele>609.4000000000001</ele><time>2026-04-08T07:44:56.784Z</time></trkpt><trkpt lat="45.50765" lon="11.098135"><ele>610.2</ele><time>2026-04-08T07:44:57.783Z</time></trkpt><trkpt lat="45.5077167" lon="11.09804"><ele>611.0</ele><time>2026-04-08T07:44:58.783Z</time></trkpt><trkpt lat="45.5077817" lon="11.097935"><ele>611.0</ele><time>2026-04-08T07:44:59.784Z</time></trkpt><trkpt lat="45.5078433" lon="11.097825"><ele>611.0</ele><time>2026-04-08T07:45:00.784Z</time></trkpt><trkpt lat="45.5079083" lon="11.0977333"><ele>611.0</ele><time>2026-04-08T07:45:01.783Z</time></trkpt><trkpt lat="45.5079817" lon="11.09762"><ele>611.0</ele><time>2026-04-08T07:45:02.783Z</time></trkpt><trkpt lat="45.5080517" lon="11.0974933"><ele>611.0</ele><time>2026-04-08T07:45:03.784Z</time></trkpt><trkpt lat="45.50812" lon="11.097365"><ele>612.6</ele><time>2026-04-08T07:45:04.784Z</time></trkpt><trkpt lat="45.5081717" lon="11.0972333"><ele>614.2</ele><time>2026-04-08T07:45:05.783Z</time></trkpt><trkpt lat="45.5082583" lon="11.0971467"><ele>615.8</ele><time>2026-04-08T07:45:06.783Z</time></trkpt><trkpt lat="45.5083033" lon="11.0970667"><ele>617.4</ele><time>2026-04-08T07:45:07.783Z</time></trkpt><trkpt lat="45.5083633" lon="11.0970067"><ele>619.0</ele><time>2026-04-08T07:45:08.784Z</time></trkpt><trkpt lat="45.508465" lon="11.096955"><ele>619.0</ele><time>2026-04-08T07:45:10.784Z</time></trkpt><trkpt lat="45.5085917" lon="11.0969667"><ele>619.0</ele><time>2026-04-08T07:47:27.783Z</time></trkpt><trkpt lat="45.5086517" lon="11.0969333"><ele>619.0</ele><time>2026-04-08T07:47:29.783Z</time></trkpt><trkpt lat="45.508735" lon="11.096915"><ele>619.0</ele><time>2026-04-08T07:47:31.782Z</time></trkpt><trkpt lat="45.508865" lon="11.09693"><ele>619.0</ele><time>2026-04-08T07:47:33.783Z</time></trkpt><trkpt lat="45.5089283" lon="11.0969367"><ele>620.0</ele><time>2026-04-08T07:47:34.783Z</time></trkpt><trkpt lat="45.5089983" lon="11.09693"><ele>621.0</ele><time>2026-04-08T07:47:35.782Z</time></trkpt><trkpt lat="45.5091117" lon="11.0969583"><ele>622.0</ele><time>2026-04-08T07:47:36.782Z</time></trkpt><trkpt lat="45.509195" lon="11.0969683"><ele>623.0</ele><time>2026-04-08T07:47:37.783Z</time></trkpt><trkpt lat="45.50928" lon="11.0969883"><ele>624.0</ele><time>2026-04-08T07:47:38.782Z</time></trkpt><trkpt lat="45.509445" lon="11.0970583"><ele>624.0</ele><time>2026-04-08T07:47:39.783Z</time></trkpt><trkpt lat="45.5095217" lon="11.0971117"><ele>624.0</ele><time>2026-04-08T07:47:40.783Z</time></trkpt><trkpt lat="45.5096067" lon="11.0971567"><ele>624.0</ele><time>2026-04-08T07:47:41.783Z</time></trkpt><trkpt lat="45.50971" lon="11.0972083"><ele>624.0</ele><time>2026-04-08T07:47:42.783Z</time></trkpt><trkpt lat="45.50984" lon="11.09727"><ele>624.0</ele><time>2026-04-08T07:47:43.782Z</time></trkpt><trkpt lat="45.5099417" lon="11.0973233"><ele>624.0</ele><time>2026-04-08T07:47:44.782Z</time></trkpt><trkpt lat="45.5100267" lon="11.0973467"><ele>624.0</ele><time>2026-04-08T07:47:45.782Z</time></trkpt><trkpt lat="45.5101283" lon="11.09738"><ele>624.0</ele><time>2026-04-08T07:47:46.783Z</time></trkpt><trkpt lat="45.5102167" lon="11.0973933"><ele>624.0</ele><time>2026-04-08T07:47:47.782Z</time></trkpt><trkpt lat="45.5102933" lon="11.0974017"><ele>624.0</ele><time>2026-04-08T07:47:48.782Z</time></trkpt><trkpt lat="45.510375" lon="11.0974233"><ele>624.0</ele><time>2026-04-08T07:47:49.783Z</time></trkpt><trkpt lat="45.5104567" lon="11.0974367"><ele>621.0</ele><time>2026-04-08T07:47:50.783Z</time></trkpt><trkpt lat="45.5105267" lon="11.0974433"><ele>618.0</ele><time>2026-04-08T07:47:51.782Z</time></trkpt><trkpt lat="45.5106033" lon="11.097445"><ele>615.0</ele><time>2026-04-08T07:47:52.782Z</time></trkpt><trkpt lat="45.5106833" lon="11.09744"><ele>612.0</ele><time>2026-04-08T07:47:53.783Z</time></trkpt><trkpt lat="45.51078" lon="11.0974433"><ele>609.0</ele><time>2026-04-08T07:47:54.783Z</time></trkpt><trkpt lat="45.5108533" lon="11.097455"><ele>606.0</ele><time>2026-04-08T07:47:55.782Z</time></trkpt><trkpt lat="45.5109333" lon="11.0974817"><ele>606.0</ele><time>2026-04-08T07:47:56.783Z</time></trkpt><trkpt lat="45.5110067" lon="11.0975067"><ele>606.0</ele><time>2026-04-08T07:47:57.782Z</time></trkpt><trkpt lat="45.5110617" lon="11.0975533"><ele>606.0</ele><time>2026-04-08T07:47:58.783Z</time></trkpt><trkpt lat="45.5111117" lon="11.0976167"><ele>606.0</ele><time>2026-04-08T07:47:59.783Z</time></trkpt><trkpt lat="45.5111567" lon="11.0976933"><ele>606.0</ele><time>2026-04-08T07:48:00.783Z</time></trkpt><trkpt lat="45.5112067" lon="11.0977733"><ele>606.0</ele><time>2026-04-08T07:48:01.782Z</time></trkpt><trkpt lat="45.5112617" lon="11.0978383"><ele>606.0</ele><time>2026-04-08T07:48:02.782Z</time></trkpt><trkpt lat="45.511385" lon="11.0978533"><ele>608.2</ele><time>2026-04-08T07:48:04.782Z</time></trkpt><trkpt lat="45.5114633" lon="11.0978883"><ele>610.4000000000001</ele><time>2026-04-08T07:48:05.782Z</time></trkpt><trkpt lat="45.51155" lon="11.09795"><ele>612.6</ele><time>2026-04-08T07:48:06.783Z</time></trkpt><trkpt lat="45.511635" lon="11.0980183"><ele>614.8000000000001</ele><time>2026-04-08T07:48:07.782Z</time></trkpt><trkpt lat="45.5117483" lon="11.0980933"><ele>617.0</ele><time>2026-04-08T07:48:08.783Z</time></trkpt><trkpt lat="45.51185" lon="11.0981533"><ele>617.0</ele><time>2026-04-08T07:48:09.783Z</time></trkpt><trkpt lat="45.511925" lon="11.09823"><ele>617.0</ele><time>2026-04-08T07:48:10.782Z</time></trkpt><trkpt lat="45.51201" lon="11.09828"><ele>617.0</ele><time>2026-04-08T07:48:11.782Z</time></trkpt><trkpt lat="45.512085" lon="11.0983017"><ele>617.0</ele><time>2026-04-08T07:48:12.782Z</time></trkpt><trkpt lat="45.51215" lon="11.0983167"><ele>617.0</ele><time>2026-04-08T07:48:13.782Z</time></trkpt><trkpt lat="45.5122183" lon="11.0983567"><ele>617.0</ele><time>2026-04-08T07:48:14.783Z</time></trkpt><trkpt lat="45.5123117" lon="11.09846"><ele>614.1666666666666</ele><time>2026-04-08T07:48:16.783Z</time></trkpt><trkpt lat="45.5123617" lon="11.0985167"><ele>611.3333333333333</ele><time>2026-04-08T07:48:17.782Z</time></trkpt><trkpt lat="45.5124467" lon="11.09858"><ele>608.5</ele><time>2026-04-08T07:48:19.782Z</time></trkpt><trkpt lat="45.5125067" lon="11.0986317"><ele>605.6666666666666</ele><time>2026-04-08T07:48:20.783Z</time></trkpt><trkpt lat="45.5125683" lon="11.0986817"><ele>602.8333333333334</ele><time>2026-04-08T07:48:21.783Z</time></trkpt><trkpt lat="45.5126167" lon="11.0987867"><ele>600.0</ele><time>2026-04-08T07:48:23.782Z</time></trkpt><trkpt lat="45.5126417" lon="11.0988883"><ele>600.0</ele><time>2026-04-08T07:48:25.782Z</time></trkpt><trkpt lat="45.5126883" lon="11.0989933"><ele>600.0</ele><time>2026-04-08T07:48:27.783Z</time></trkpt><trkpt lat="45.5127333" lon="11.0991017"><ele>600.0</ele><time>2026-04-08T07:48:29.783Z</time></trkpt><trkpt lat="45.512785" lon="11.099225"><ele>600.0</ele><time>2026-04-08T07:48:31.782Z</time></trkpt><trkpt lat="45.5128733" lon="11.09935"><ele>600.0</ele><time>2026-04-08T07:48:33.783Z</time></trkpt><trkpt lat="45.512915" lon="11.0994333"><ele>595.6</ele><time>2026-04-08T07:48:34.782Z</time></trkpt><trkpt lat="45.5129533" lon="11.09952"><ele>591.2</ele><time>2026-04-08T07:48:35.782Z</time></trkpt><trkpt lat="45.5130017" lon="11.0995917"><ele>586.8</ele><time>2026-04-08T07:48:36.783Z</time></trkpt><trkpt lat="45.51305" lon="11.0997483"><ele>582.4</ele><time>2026-04-08T07:48:38.782Z</time></trkpt><trkpt lat="45.51309" lon="11.0999017"><ele>578.0</ele><time>2026-04-08T07:48:40.783Z</time></trkpt><trkpt lat="45.5130983" lon="11.1000283"><ele>574.5</ele><time>2026-04-08T07:48:42.782Z</time></trkpt><trkpt lat="45.5131383" lon="11.100125"><ele>571.0</ele><time>2026-04-08T07:48:44.783Z</time></trkpt><trkpt lat="45.513135" lon="11.100245"><ele>567.5</ele><time>2026-04-08T07:48:47.782Z</time></trkpt><trkpt lat="45.5131667" lon="11.1003583"><ele>564.0</ele><time>2026-04-08T07:48:49.782Z</time></trkpt><trkpt lat="45.5131867" lon="11.100455"><ele>560.5</ele><time>2026-04-08T07:48:51.783Z</time></trkpt><trkpt lat="45.5132717" lon="11.1004383"><ele>557.0</ele><time>2026-04-08T07:48:53.783Z</time></trkpt><trkpt lat="45.513335" lon="11.1003617"><ele>557.0</ele><time>2026-04-08T07:48:54.783Z</time></trkpt><trkpt lat="45.5133933" lon="11.1003033"><ele>557.0</ele><time>2026-04-08T07:48:55.782Z</time></trkpt><trkpt lat="45.5134633" lon="11.1002583"><ele>557.0</ele><time>2026-04-08T07:48:56.783Z</time></trkpt><trkpt lat="45.513525" lon="11.100195"><ele>557.0</ele><time>2026-04-08T07:48:57.782Z</time></trkpt><trkpt lat="45.51357" lon="11.1001"><ele>557.0</ele><time>2026-04-08T07:48:59.782Z</time></trkpt><trkpt lat="45.5136167" lon="11.10002"><ele>557.0</ele><time>2026-04-08T07:49:00.783Z</time></trkpt><trkpt lat="45.513655" lon="11.0999233"><ele>559.8000000000001</ele><time>2026-04-08T07:49:01.782Z</time></trkpt><trkpt lat="45.513715" lon="11.0998233"><ele>562.6</ele><time>2026-04-08T07:49:02.783Z</time></trkpt><trkpt lat="45.5137733" lon="11.09972"><ele>565.4000000000001</ele><time>2026-04-08T07:49:03.783Z</time></trkpt><trkpt lat="45.51383" lon="11.0996217"><ele>568.2</ele><time>2026-04-08T07:49:04.783Z</time></trkpt><trkpt lat="45.5138933" lon="11.0995183"><ele>571.0</ele><time>2026-04-08T07:49:05.783Z</time></trkpt><trkpt lat="45.513945" lon="11.0994283"><ele>571.0</ele><time>2026-04-08T07:49:06.783Z</time></trkpt><trkpt lat="45.514005" lon="11.0993533"><ele>571.0</ele><time>2026-04-08T07:49:07.782Z</time></trkpt><trkpt lat="45.5140667" lon="11.0992733"><ele>571.0</ele><time>2026-04-08T07:49:08.782Z</time></trkpt><trkpt lat="45.5141433" lon="11.0992083"><ele>571.0</ele><time>2026-04-08T07:49:09.783Z</time></trkpt><trkpt lat="45.5142683" lon="11.0991767"><ele>571.0</ele><time>2026-04-08T07:49:10.782Z</time></trkpt><trkpt lat="45.51433" lon="11.09912"><ele>570.8333333333334</ele><time>2026-04-08T07:49:11.782Z</time></trkpt><trkpt lat="45.5143917" lon="11.0990617"><ele>570.6666666666667</ele><time>2026-04-08T07:49:12.783Z</time></trkpt><trkpt lat="45.51446" lon="11.0989983"><ele>570.5</ele><time>2026-04-08T07:49:13.783Z</time></trkpt><trkpt lat="45.514525" lon="11.0989883"><ele>570.3333333333334</ele><time>2026-04-08T07:49:14.783Z</time></trkpt><trkpt lat="45.5145917" lon="11.0989817"><ele>570.1666666666666</ele><time>2026-04-08T07:49:15.782Z</time></trkpt><trkpt lat="45.51471" lon="11.0989933"><ele>570.0</ele><time>2026-04-08T07:49:17.783Z</time></trkpt><trkpt lat="45.51479" lon="11.0990433"><ele>570.0</ele><time>2026-04-08T07:49:19.783Z</time></trkpt><trkpt lat="45.5148517" lon="11.0991033"><ele>570.0</ele><time>2026-04-08T07:49:20.783Z</time></trkpt><trkpt lat="45.5149667" lon="11.099185"><ele>570.0</ele><time>2026-04-08T07:49:22.782Z</time></trkpt><trkpt lat="45.51503" lon="11.0992133"><ele>570.0</ele><time>2026-04-08T07:49:23.783Z</time></trkpt><trkpt lat="45.5151233" lon="11.0992033"><ele>570.0</ele><time>2026-04-08T07:49:25.783Z</time></trkpt><trkpt lat="45.5151683" lon="11.09911"><ele>570.0</ele><time>2026-04-08T07:49:26.783Z</time></trkpt><trkpt lat="45.515205" lon="11.09901"><ele>570.0</ele><time>2026-04-08T07:49:27.782Z</time></trkpt><trkpt lat="45.51525" lon="11.098895"><ele>570.0</ele><time>2026-04-08T07:49:28.782Z</time></trkpt><trkpt lat="45.5152683" lon="11.09877"><ele>570.0</ele><time>2026-04-08T07:49:29.783Z</time></trkpt><trkpt lat="45.515265" lon="11.09866"><ele>570.0</ele><time>2026-04-08T07:49:30.783Z</time></trkpt><trkpt lat="45.5153017" lon="11.098565"><ele>570.0</ele><time>2026-04-08T07:49:31.783Z</time></trkpt><trkpt lat="45.5153283" lon="11.0984833"><ele>570.0</ele><time>2026-04-08T07:49:32.782Z</time></trkpt><trkpt lat="45.515385" lon="11.0983383"><ele>568.2</ele><time>2026-04-08T07:49:34.782Z</time></trkpt><trkpt lat="45.5154633" lon="11.0981683"><ele>566.4</ele><time>2026-04-08T07:49:36.782Z</time></trkpt><trkpt lat="45.5154983" lon="11.0980717"><ele>564.6</ele><time>2026-04-08T07:49:37.783Z</time></trkpt><trkpt lat="45.5155667" lon="11.0979733"><ele>562.8</ele><time>2026-04-08T07:49:38.782Z</time></trkpt><trkpt lat="45.5155817" lon="11.09785"><ele>561.0</ele><time>2026-04-08T07:49:39.782Z</time></trkpt><trkpt lat="45.5156233" lon="11.0977567"><ele>561.0</ele><time>2026-04-08T07:49:40.783Z</time></trkpt><trkpt lat="45.5156683" lon="11.0976533"><ele>561.0</ele><time>2026-04-08T07:49:41.782Z</time></trkpt><trkpt lat="45.5157433" lon="11.09762"><ele>561.0</ele><time>2026-04-08T07:49:43.783Z</time></trkpt><trkpt lat="45.5158233" lon="11.0976667"><ele>561.0</ele><time>2026-04-08T07:49:45.782Z</time></trkpt><trkpt lat="45.5158833" lon="11.097735"><ele>561.0</ele><time>2026-04-08T07:49:46.783Z</time></trkpt><trkpt lat="45.5159433" lon="11.0978533"><ele>561.0</ele><time>2026-04-08T07:49:47.783Z</time></trkpt><trkpt lat="45.5160933" lon="11.0980833"><ele>561.0</ele><time>2026-04-08T07:49:48.783Z</time></trkpt><trkpt lat="45.516115" lon="11.0981967"><ele>561.0</ele><time>2026-04-08T07:49:49.783Z</time></trkpt><trkpt lat="45.5161917" lon="11.098355"><ele>561.0</ele><time>2026-04-08T07:49:50.782Z</time></trkpt><trkpt lat="45.5162417" lon="11.0984717"><ele>561.0</ele><time>2026-04-08T07:49:51.782Z</time></trkpt><trkpt lat="45.5163267" lon="11.0985717"><ele>561.0</ele><time>2026-04-08T07:49:52.783Z</time></trkpt><trkpt lat="45.516395" lon="11.0986683"><ele>558.6</ele><time>2026-04-08T07:49:53.783Z</time></trkpt><trkpt lat="45.5164933" lon="11.0987733"><ele>556.2</ele><time>2026-04-08T07:49:54.783Z</time></trkpt><trkpt lat="45.5165683" lon="11.098865"><ele>553.8</ele><time>2026-04-08T07:49:55.782Z</time></trkpt><trkpt lat="45.516675" lon="11.0989767"><ele>551.4</ele><time>2026-04-08T07:49:56.782Z</time></trkpt><trkpt lat="45.5167383" lon="11.0990467"><ele>549.0</ele><time>2026-04-08T07:49:57.783Z</time></trkpt><trkpt lat="45.5168117" lon="11.09909"><ele>545.2</ele><time>2026-04-08T07:49:58.782Z</time></trkpt><trkpt lat="45.5168817" lon="11.0991517"><ele>541.4</ele><time>2026-04-08T07:50:00.783Z</time></trkpt><trkpt lat="45.5169" lon="11.099275"><ele>537.6</ele><time>2026-04-08T07:50:05.781Z</time></trkpt><trkpt lat="45.5169467" lon="11.099425"><ele>533.8</ele><time>2026-04-08T07:50:07.782Z</time></trkpt><trkpt lat="45.51698" lon="11.0995483"><ele>530.0</ele><time>2026-04-08T07:50:08.782Z</time></trkpt><trkpt lat="45.517025" lon="11.0996783"><ele>528.3333333333333</ele><time>2026-04-08T07:50:09.782Z</time></trkpt><trkpt lat="45.5170717" lon="11.099805"><ele>526.6666666666666</ele><time>2026-04-08T07:50:10.781Z</time></trkpt><trkpt lat="45.5171067" lon="11.0999533"><ele>525.0</ele><time>2026-04-08T07:50:12.782Z</time></trkpt><trkpt lat="45.517035" lon="11.100035"><ele>523.3333333333334</ele><time>2026-04-08T07:50:14.782Z</time></trkpt><trkpt lat="45.5169717" lon="11.1000883"><ele>521.6666666666667</ele><time>2026-04-08T07:50:15.782Z</time></trkpt><trkpt lat="45.5169167" lon="11.10015"><ele>520.0</ele><time>2026-04-08T07:50:16.781Z</time></trkpt><trkpt lat="45.51687" lon="11.1002317"><ele>519.1666666666667</ele><time>2026-04-08T07:50:17.781Z</time></trkpt><trkpt lat="45.5168367" lon="11.100315"><ele>518.3333333333334</ele><time>2026-04-08T07:50:18.782Z</time></trkpt><trkpt lat="45.5168167" lon="11.1004183"><ele>517.5</ele><time>2026-04-08T07:50:19.782Z</time></trkpt><trkpt lat="45.5168067" lon="11.1005317"><ele>516.6666666666666</ele><time>2026-04-08T07:50:20.782Z</time></trkpt><trkpt lat="45.51682" lon="11.10063"><ele>515.8333333333333</ele><time>2026-04-08T07:50:21.781Z</time></trkpt><trkpt lat="45.51689" lon="11.10073"><ele>515.0</ele><time>2026-04-08T07:50:23.782Z</time></trkpt><trkpt lat="45.516965" lon="11.1007683"><ele>511.99999999999994</ele><time>2026-04-08T07:50:25.781Z</time></trkpt><trkpt lat="45.516945" lon="11.10087"><ele>509.0</ele><time>2026-04-08T07:50:28.781Z</time></trkpt><trkpt lat="45.516855" lon="11.100915"><ele>506.0</ele><time>2026-04-08T07:50:30.782Z</time></trkpt><trkpt lat="45.516935" lon="11.100945"><ele>503.0</ele><time>2026-04-08T07:50:34.781Z</time></trkpt><trkpt lat="45.5170217" lon="11.1009167"><ele>499.99999999999994</ele><time>2026-04-08T07:50:35.782Z</time></trkpt><trkpt lat="45.5171133" lon="11.1008833"><ele>497.0</ele><time>2026-04-08T07:50:36.781Z</time></trkpt><trkpt lat="45.517205" lon="11.1008633"><ele>496.99999999999994</ele><time>2026-04-08T07:50:37.782Z</time></trkpt><trkpt lat="45.5172917" lon="11.10086"><ele>497.0</ele><time>2026-04-08T07:50:38.781Z</time></trkpt><trkpt lat="45.517375" lon="11.1008717"><ele>497.0</ele><time>2026-04-08T07:50:39.781Z</time></trkpt><trkpt lat="45.5174417" lon="11.100905"><ele>497.0</ele><time>2026-04-08T07:50:40.781Z</time></trkpt><trkpt lat="45.5174483" lon="11.1010267"><ele>496.99999999999994</ele><time>2026-04-08T07:50:42.782Z</time></trkpt><trkpt lat="45.5174417" lon="11.1011167"><ele>497.0</ele><time>2026-04-08T07:50:43.781Z</time></trkpt><trkpt lat="45.5173983" lon="11.1012333"><ele>497.0</ele><time>2026-04-08T07:50:44.782Z</time></trkpt><trkpt lat="45.5173667" lon="11.101355"><ele>497.00000000000006</ele><time>2026-04-08T07:50:45.782Z</time></trkpt><trkpt lat="45.5173433" lon="11.1014833"><ele>497.00000000000006</ele><time>2026-04-08T07:50:46.782Z</time></trkpt><trkpt lat="45.51734" lon="11.1016433"><ele>497.0</ele><time>2026-04-08T07:50:47.782Z</time></trkpt><trkpt lat="45.51736" lon="11.1017717"><ele>497.0</ele><time>2026-04-08T07:50:48.781Z</time></trkpt><trkpt lat="45.5173833" lon="11.101875"><ele>493.6</ele><time>2026-04-08T07:50:49.782Z</time></trkpt><trkpt lat="45.51743" lon="11.1019817"><ele>490.20000000000005</ele><time>2026-04-08T07:50:50.781Z</time></trkpt><trkpt lat="45.5174967" lon="11.1020883"><ele>486.8</ele><time>2026-04-08T07:50:51.782Z</time></trkpt><trkpt lat="45.5175533" lon="11.1021717"><ele>483.4</ele><time>2026-04-08T07:50:52.782Z</time></trkpt><trkpt lat="45.5175683" lon="11.1023383"><ele>480.0</ele><time>2026-04-08T07:50:54.782Z</time></trkpt><trkpt lat="45.517535" lon="11.1024433"><ele>477.8333333333333</ele><time>2026-04-08T07:50:55.781Z</time></trkpt><trkpt lat="45.517515" lon="11.10255"><ele>475.66666666666663</ele><time>2026-04-08T07:50:56.782Z</time></trkpt><trkpt lat="45.51752" lon="11.1026567"><ele>473.5</ele><time>2026-04-08T07:50:57.781Z</time></trkpt><trkpt lat="45.5175367" lon="11.102765"><ele>471.3333333333333</ele><time>2026-04-08T07:50:58.782Z</time></trkpt><trkpt lat="45.5175717" lon="11.1028817"><ele>469.16666666666663</ele><time>2026-04-08T07:50:59.782Z</time></trkpt><trkpt lat="45.5176283" lon="11.1030117"><ele>467.0</ele><time>2026-04-08T07:51:00.782Z</time></trkpt><trkpt lat="45.51768" lon="11.1031333"><ele>467.0</ele><time>2026-04-08T07:51:01.781Z</time></trkpt><trkpt lat="45.5177467" lon="11.1032467"><ele>467.00000000000006</ele><time>2026-04-08T07:51:02.782Z</time></trkpt><trkpt lat="45.5178117" lon="11.10336"><ele>467.00000000000006</ele><time>2026-04-08T07:51:03.782Z</time></trkpt><trkpt lat="45.5178833" lon="11.10348"><ele>467.0</ele><time>2026-04-08T07:51:04.781Z</time></trkpt><trkpt lat="45.5179517" lon="11.103595"><ele>467.0</ele><time>2026-04-08T07:51:05.782Z</time></trkpt><trkpt lat="45.5180267" lon="11.1037033"><ele>468.0</ele><time>2026-04-08T07:51:06.782Z</time></trkpt><trkpt lat="45.518095" lon="11.1038167"><ele>469.00000000000006</ele><time>2026-04-08T07:51:07.782Z</time></trkpt><trkpt lat="45.51816" lon="11.1039267"><ele>470.00000000000006</ele><time>2026-04-08T07:51:08.782Z</time></trkpt><trkpt lat="45.5182233" lon="11.1040367"><ele>471.0</ele><time>2026-04-08T07:51:09.782Z</time></trkpt><trkpt lat="45.51828" lon="11.1041583"><ele>472.0</ele><time>2026-04-08T07:51:10.782Z</time></trkpt><trkpt lat="45.5183183" lon="11.1042767"><ele>472.0</ele><time>2026-04-08T07:51:11.782Z</time></trkpt><trkpt lat="45.5183517" lon="11.1043967"><ele>472.00000000000006</ele><time>2026-04-08T07:51:12.781Z</time></trkpt><trkpt lat="45.51839" lon="11.1045083"><ele>472.00000000000006</ele><time>2026-04-08T07:51:13.782Z</time></trkpt><trkpt lat="45.5184317" lon="11.1046183"><ele>472.0</ele><time>2026-04-08T07:51:14.782Z</time></trkpt><trkpt lat="45.5184683" lon="11.1047433"><ele>472.0</ele><time>2026-04-08T07:51:15.781Z</time></trkpt><trkpt lat="45.5185" lon="11.104865"><ele>470.6</ele><time>2026-04-08T07:51:16.782Z</time></trkpt><trkpt lat="45.5185317" lon="11.1050033"><ele>469.20000000000005</ele><time>2026-04-08T07:51:17.782Z</time></trkpt><trkpt lat="45.5185667" lon="11.10515"><ele>467.8</ele><time>2026-04-08T07:51:18.782Z</time></trkpt><trkpt lat="45.5186017" lon="11.10528"><ele>466.4</ele><time>2026-04-08T07:51:19.782Z</time></trkpt><trkpt lat="45.5186317" lon="11.105415"><ele>465.0</ele><time>2026-04-08T07:51:20.781Z</time></trkpt><trkpt lat="45.5186617" lon="11.1055583"><ele>465.0</ele><time>2026-04-08T07:51:21.782Z</time></trkpt><trkpt lat="45.518685" lon="11.1056967"><ele>465.0</ele><time>2026-04-08T07:51:22.782Z</time></trkpt><trkpt lat="45.518705" lon="11.1058333"><ele>465.0</ele><time>2026-04-08T07:51:23.781Z</time></trkpt><trkpt lat="45.5187283" lon="11.1059433"><ele>465.0</ele><time>2026-04-08T07:51:24.782Z</time></trkpt><trkpt lat="45.5187617" lon="11.1060617"><ele>465.0</ele><time>2026-04-08T07:51:26.782Z</time></trkpt><trkpt lat="45.5188767" lon="11.1060583"><ele>468.0</ele><time>2026-04-08T07:51:29.782Z</time></trkpt><trkpt lat="45.5190083" lon="11.105985"><ele>471.0</ele><time>2026-04-08T07:51:31.782Z</time></trkpt><trkpt lat="45.5191017" lon="11.1059633"><ele>474.0</ele><time>2026-04-08T07:51:32.781Z</time></trkpt><trkpt lat="45.5192217" lon="11.105985"><ele>477.0</ele><time>2026-04-08T07:51:33.782Z</time></trkpt><trkpt lat="45.5193483" lon="11.1059867"><ele>477.0</ele><time>2026-04-08T07:51:34.781Z</time></trkpt><trkpt lat="45.5194833" lon="11.1059717"><ele>477.0</ele><time>2026-04-08T07:51:35.781Z</time></trkpt><trkpt lat="45.5196" lon="11.1059517"><ele>477.0</ele><time>2026-04-08T07:51:36.781Z</time></trkpt><trkpt lat="45.5197067" lon="11.1059267"><ele>477.0</ele><time>2026-04-08T07:51:37.782Z</time></trkpt><trkpt lat="45.5198183" lon="11.1059033"><ele>477.0</ele><time>2026-04-08T07:51:38.782Z</time></trkpt><trkpt lat="45.5199217" lon="11.1058783"><ele>477.00000000000006</ele><time>2026-04-08T07:51:39.782Z</time></trkpt><trkpt lat="45.5200283" lon="11.1058517"><ele>477.00000000000006</ele><time>2026-04-08T07:51:40.781Z</time></trkpt><trkpt lat="45.5201317" lon="11.1058317"><ele>477.0</ele><time>2026-04-08T07:51:41.782Z</time></trkpt><trkpt lat="45.520235" lon="11.1058083"><ele>477.0</ele><time>2026-04-08T07:51:42.781Z</time></trkpt><trkpt lat="45.52035" lon="11.1057867"><ele>477.40000000000003</ele><time>2026-04-08T07:51:43.782Z</time></trkpt><trkpt lat="45.5204633" lon="11.1057683"><ele>477.80000000000007</ele><time>2026-04-08T07:51:44.781Z</time></trkpt><trkpt lat="45.5205733" lon="11.1057567"><ele>478.2</ele><time>2026-04-08T07:51:45.782Z</time></trkpt><trkpt lat="45.5206833" lon="11.105745"><ele>478.6</ele><time>2026-04-08T07:51:46.782Z</time></trkpt><trkpt lat="45.5207967" lon="11.1057483"><ele>479.0</ele><time>2026-04-08T07:51:47.782Z</time></trkpt><trkpt lat="45.5209083" lon="11.105775"><ele>479.0</ele><time>2026-04-08T07:51:48.782Z</time></trkpt><trkpt lat="45.5210217" lon="11.1058183"><ele>479.0</ele><time>2026-04-08T07:51:49.781Z</time></trkpt><trkpt lat="45.52113" lon="11.10588"><ele>479.0</ele><time>2026-04-08T07:51:50.782Z</time></trkpt><trkpt lat="45.5212367" lon="11.1059533"><ele>479.0</ele><time>2026-04-08T07:51:51.781Z</time></trkpt><trkpt lat="45.52134" lon="11.1060217"><ele>480.4</ele><time>2026-04-08T07:51:52.781Z</time></trkpt><trkpt lat="45.521445" lon="11.1060717"><ele>481.79999999999995</ele><time>2026-04-08T07:51:53.782Z</time></trkpt><trkpt lat="45.5215517" lon="11.1061017"><ele>483.20000000000005</ele><time>2026-04-08T07:51:54.781Z</time></trkpt><trkpt lat="45.52165" lon="11.1060983"><ele>484.6</ele><time>2026-04-08T07:51:55.781Z</time></trkpt><trkpt lat="45.5217533" lon="11.1060633"><ele>486.0</ele><time>2026-04-08T07:51:56.781Z</time></trkpt><trkpt lat="45.52185" lon="11.1060117"><ele>486.0</ele><time>2026-04-08T07:51:57.782Z</time></trkpt><trkpt lat="45.5219617" lon="11.105945"><ele>486.0</ele><time>2026-04-08T07:51:58.782Z</time></trkpt><trkpt lat="45.5220717" lon="11.1058867"><ele>486.0</ele><time>2026-04-08T07:51:59.781Z</time></trkpt><trkpt lat="45.5221883" lon="11.1058317"><ele>486.0</ele><time>2026-04-08T07:52:00.782Z</time></trkpt><trkpt lat="45.5223017" lon="11.105785"><ele>491.5</ele><time>2026-04-08T07:52:01.781Z</time></trkpt><trkpt lat="45.52242" lon="11.105745"><ele>497.0</ele><time>2026-04-08T07:52:02.781Z</time></trkpt><trkpt lat="45.5225333" lon="11.1057083"><ele>502.5</ele><time>2026-04-08T07:52:03.781Z</time></trkpt><trkpt lat="45.522645" lon="11.1056933"><ele>508.0</ele><time>2026-04-08T07:52:04.781Z</time></trkpt><trkpt lat="45.5227567" lon="11.1056867"><ele>508.0</ele><time>2026-04-08T07:52:05.782Z</time></trkpt><trkpt lat="45.5228733" lon="11.1056683"><ele>508.0</ele><time>2026-04-08T07:52:06.782Z</time></trkpt><trkpt lat="45.5229917" lon="11.105655"><ele>508.0</ele><time>2026-04-08T07:52:07.781Z</time></trkpt><trkpt lat="45.5231067" lon="11.10564"><ele>508.0</ele><time>2026-04-08T07:52:08.781Z</time></trkpt><trkpt lat="45.5232067" lon="11.105635"><ele>506.59999999999997</ele><time>2026-04-08T07:52:09.782Z</time></trkpt><trkpt lat="45.52329" lon="11.1056783"><ele>505.19999999999993</ele><time>2026-04-08T07:52:10.781Z</time></trkpt><trkpt lat="45.5233733" lon="11.1057467"><ele>503.8</ele><time>2026-04-08T07:52:11.781Z</time></trkpt><trkpt lat="45.5234567" lon="11.1058633"><ele>502.4</ele><time>2026-04-08T07:52:12.782Z</time></trkpt><trkpt lat="45.5235217" lon="11.1059633"><ele>501.0</ele><time>2026-04-08T07:52:13.782Z</time></trkpt><trkpt lat="45.5235683" lon="11.1060483"><ele>501.0</ele><time>2026-04-08T07:52:14.782Z</time></trkpt><trkpt lat="45.523615" lon="11.1061283"><ele>501.0</ele><time>2026-04-08T07:52:15.782Z</time></trkpt><trkpt lat="45.52367" lon="11.106175"><ele>501.0</ele><time>2026-04-08T07:52:16.782Z</time></trkpt><trkpt lat="45.5237383" lon="11.1062133"><ele>501.0</ele><time>2026-04-08T07:52:17.781Z</time></trkpt><trkpt lat="45.52382" lon="11.1062467"><ele>501.0</ele><time>2026-04-08T07:52:18.782Z</time></trkpt><trkpt lat="45.52393" lon="11.106275"><ele>501.0</ele><time>2026-04-08T07:52:19.781Z</time></trkpt><trkpt lat="45.52406" lon="11.1063067"><ele>503.0</ele><time>2026-04-08T07:52:20.781Z</time></trkpt><trkpt lat="45.52418" lon="11.106325"><ele>505.0</ele><time>2026-04-08T07:52:21.782Z</time></trkpt><trkpt lat="45.524305" lon="11.106355"><ele>507.0</ele><time>2026-04-08T07:52:22.781Z</time></trkpt><trkpt lat="45.524425" lon="11.1063883"><ele>509.0</ele><time>2026-04-08T07:52:23.781Z</time></trkpt><trkpt lat="45.52455" lon="11.1064033"><ele>508.79999999999995</ele><time>2026-04-08T07:52:24.781Z</time></trkpt><trkpt lat="45.5246567" lon="11.1064217"><ele>508.59999999999997</ele><time>2026-04-08T07:52:25.781Z</time></trkpt><trkpt lat="45.52476" lon="11.1064533"><ele>508.4</ele><time>2026-04-08T07:52:26.781Z</time></trkpt><trkpt lat="45.52485" lon="11.1065167"><ele>508.2</ele><time>2026-04-08T07:52:27.782Z</time></trkpt><trkpt lat="45.5249417" lon="11.1066017"><ele>508.0</ele><time>2026-04-08T07:52:28.782Z</time></trkpt><trkpt lat="45.52504" lon="11.1066933"><ele>506.0</ele><time>2026-04-08T07:52:29.781Z</time></trkpt><trkpt lat="45.52514" lon="11.106765"><ele>503.99999999999994</ele><time>2026-04-08T07:52:30.781Z</time></trkpt><trkpt lat="45.5252383" lon="11.1068083"><ele>501.99999999999994</ele><time>2026-04-08T07:52:31.781Z</time></trkpt><trkpt lat="45.5253283" lon="11.1068317"><ele>500.0</ele><time>2026-04-08T07:52:32.781Z</time></trkpt><trkpt lat="45.52539" lon="11.1068783"><ele>498.0</ele><time>2026-04-08T07:52:33.782Z</time></trkpt><trkpt lat="45.5254333" lon="11.10705"><ele>496.79999999999995</ele><time>2026-04-08T07:52:35.781Z</time></trkpt><trkpt lat="45.5254233" lon="11.1071817"><ele>495.59999999999997</ele><time>2026-04-08T07:52:36.782Z</time></trkpt><trkpt lat="45.5254117" lon="11.107345"><ele>494.40000000000003</ele><time>2026-04-08T07:52:37.782Z</time></trkpt><trkpt lat="45.5253983" lon="11.1075"><ele>493.20000000000005</ele><time>2026-04-08T07:52:38.781Z</time></trkpt><trkpt lat="45.5253833" lon="11.107675"><ele>492.0</ele><time>2026-04-08T07:52:39.782Z</time></trkpt><trkpt lat="45.5253667" lon="11.1078517"><ele>490.75</ele><time>2026-04-08T07:52:40.781Z</time></trkpt><trkpt lat="45.5253433" lon="11.10804"><ele>489.5</ele><time>2026-04-08T07:52:41.782Z</time></trkpt><trkpt lat="45.5253117" lon="11.1082317"><ele>488.25</ele><time>2026-04-08T07:52:42.781Z</time></trkpt><trkpt lat="45.5252783" lon="11.1084"><ele>487.0</ele><time>2026-04-08T07:52:43.782Z</time></trkpt><trkpt lat="45.5252483" lon="11.108545"><ele>485.20000000000005</ele><time>2026-04-08T07:52:44.781Z</time></trkpt><trkpt lat="45.52523" lon="11.1086533"><ele>483.40000000000003</ele><time>2026-04-08T07:52:45.782Z</time></trkpt><trkpt lat="45.52524" lon="11.1088033"><ele>481.59999999999997</ele><time>2026-04-08T07:52:47.781Z</time></trkpt><trkpt lat="45.5253333" lon="11.1089433"><ele>479.79999999999995</ele><time>2026-04-08T07:52:49.782Z</time></trkpt><trkpt lat="45.5253833" lon="11.1090467"><ele>478.0</ele><time>2026-04-08T07:52:50.782Z</time></trkpt><trkpt lat="45.5254333" lon="11.109155"><ele>474.79999999999995</ele><time>2026-04-08T07:52:51.781Z</time></trkpt><trkpt lat="45.525505" lon="11.1092683"><ele>471.59999999999997</ele><time>2026-04-08T07:52:52.781Z</time></trkpt><trkpt lat="45.5255833" lon="11.1093733"><ele>468.40000000000003</ele><time>2026-04-08T07:52:53.782Z</time></trkpt><trkpt lat="45.52567" lon="11.1094867"><ele>465.20000000000005</ele><time>2026-04-08T07:52:54.781Z</time></trkpt><trkpt lat="45.5257517" lon="11.1095967"><ele>462.0</ele><time>2026-04-08T07:52:55.781Z</time></trkpt><trkpt lat="45.5258267" lon="11.1096983"><ele>462.0</ele><time>2026-04-08T07:52:56.782Z</time></trkpt><trkpt lat="45.5259" lon="11.109785"><ele>462.0</ele><time>2026-04-08T07:52:57.781Z</time></trkpt><trkpt lat="45.5259733" lon="11.1098517"><ele>462.0</ele><time>2026-04-08T07:52:58.782Z</time></trkpt><trkpt lat="45.5260483" lon="11.1098967"><ele>462.0</ele><time>2026-04-08T07:52:59.781Z</time></trkpt><trkpt lat="45.5261117" lon="11.109935"><ele>462.0</ele><time>2026-04-08T07:53:00.782Z</time></trkpt><trkpt lat="45.526205" lon="11.1100317"><ele>462.0</ele><time>2026-04-08T07:53:02.781Z</time></trkpt><trkpt lat="45.5262233" lon="11.11012"><ele>457.40000000000003</ele><time>2026-04-08T07:53:03.781Z</time></trkpt><trkpt lat="45.5262383" lon="11.11025"><ele>452.80000000000007</ele><time>2026-04-08T07:53:05.781Z</time></trkpt><trkpt lat="45.526315" lon="11.110295"><ele>448.2</ele><time>2026-04-08T07:53:07.782Z</time></trkpt><trkpt lat="45.5264217" lon="11.110275"><ele>443.6</ele><time>2026-04-08T07:53:09.781Z</time></trkpt><trkpt lat="45.52651" lon="11.1101967"><ele>439.0</ele><time>2026-04-08T07:53:11.782Z</time></trkpt><trkpt lat="45.5265567" lon="11.1101017"><ele>439.00000000000006</ele><time>2026-04-08T07:53:12.782Z</time></trkpt><trkpt lat="45.52661" lon="11.109915"><ele>439.0</ele><time>2026-04-08T07:53:13.782Z</time></trkpt><trkpt lat="45.5266583" lon="11.109825"><ele>439.0</ele><time>2026-04-08T07:53:14.782Z</time></trkpt><trkpt lat="45.5266933" lon="11.1097333"><ele>439.0</ele><time>2026-04-08T07:53:15.781Z</time></trkpt><trkpt lat="45.526725" lon="11.1096333"><ele>439.00000000000006</ele><time>2026-04-08T07:53:16.782Z</time></trkpt><trkpt lat="45.52674" lon="11.1095367"><ele>439.0</ele><time>2026-04-08T07:53:17.782Z</time></trkpt><trkpt lat="45.5267333" lon="11.1094433"><ele>439.1666666666667</ele><time>2026-04-08T07:53:18.782Z</time></trkpt><trkpt lat="45.5267167" lon="11.109355"><ele>439.33333333333337</ele><time>2026-04-08T07:53:19.782Z</time></trkpt><trkpt lat="45.526695" lon="11.1092033"><ele>439.5</ele><time>2026-04-08T07:53:21.782Z</time></trkpt><trkpt lat="45.5267483" lon="11.10913"><ele>439.66666666666663</ele><time>2026-04-08T07:53:24.781Z</time></trkpt><trkpt lat="45.526865" lon="11.1091483"><ele>439.8333333333333</ele><time>2026-04-08T07:53:26.78Z</time></trkpt><trkpt lat="45.5269417" lon="11.10917"><ele>440.0</ele><time>2026-04-08T07:53:27.78Z</time></trkpt><trkpt lat="45.5270667" lon="11.1092467"><ele>437.4</ele><time>2026-04-08T07:53:29.78Z</time></trkpt><trkpt lat="45.5271433" lon="11.10936"><ele>434.8</ele><time>2026-04-08T07:53:31.781Z</time></trkpt><trkpt lat="45.5271917" lon="11.1095233"><ele>432.20000000000005</ele><time>2026-04-08T07:53:33.78Z</time></trkpt><trkpt lat="45.5272317" lon="11.1096667"><ele>429.6</ele><time>2026-04-08T07:53:35.781Z</time></trkpt><trkpt lat="45.5272433" lon="11.1097867"><ele>427.0</ele><time>2026-04-08T07:53:37.78Z</time></trkpt><trkpt lat="45.5272833" lon="11.109905"><ele>425.00000000000006</ele><time>2026-04-08T07:53:39.78Z</time></trkpt><trkpt lat="45.5273217" lon="11.10998"><ele>423.0</ele><time>2026-04-08T07:53:41.781Z</time></trkpt><trkpt lat="45.527365" lon="11.1100883"><ele>421.0</ele><time>2026-04-08T07:53:44.78Z</time></trkpt><trkpt lat="45.5273783" lon="11.1101883"><ele>419.0</ele><time>2026-04-08T07:53:48.781Z</time></trkpt><trkpt lat="45.5274167" lon="11.1103117"><ele>417.00000000000006</ele><time>2026-04-08T07:53:51.781Z</time></trkpt><trkpt lat="45.5274683" lon="11.1104183"><ele>415.0</ele><time>2026-04-08T07:53:53.78Z</time></trkpt><trkpt lat="45.5275683" lon="11.110535"><ele>415.0</ele><time>2026-04-08T07:53:55.781Z</time></trkpt><trkpt lat="45.5276317" lon="11.1105817"><ele>415.0</ele><time>2026-04-08T07:53:56.781Z</time></trkpt><trkpt lat="45.527705" lon="11.1106683"><ele>415.0</ele><time>2026-04-08T07:53:58.781Z</time></trkpt><trkpt lat="45.5277833" lon="11.1107667"><ele>415.0</ele><time>2026-04-08T07:54:00.781Z</time></trkpt><trkpt lat="45.5278033" lon="11.1105917"><ele>415.0</ele><time>2026-04-08T07:54:10.781Z</time></trkpt><trkpt lat="45.52779" lon="11.1104983"><ele>415.0</ele><time>2026-04-08T07:54:11.78Z</time></trkpt><trkpt lat="45.5277717" lon="11.110365"><ele>415.0</ele><time>2026-04-08T07:54:13.781Z</time></trkpt><trkpt lat="45.527855" lon="11.11031"><ele>415.0</ele><time>2026-04-08T07:54:17.78Z</time></trkpt><trkpt lat="45.5279717" lon="11.1103067"><ele>415.0</ele><time>2026-04-08T07:54:19.781Z</time></trkpt><trkpt lat="45.52806" lon="11.11031"><ele>415.0</ele><time>2026-04-08T07:54:20.781Z</time></trkpt><trkpt lat="45.5281383" lon="11.1102867"><ele>413.6666666666667</ele><time>2026-04-08T07:54:21.78Z</time></trkpt><trkpt lat="45.5282117" lon="11.1102567"><ele>412.33333333333337</ele><time>2026-04-08T07:54:22.781Z</time></trkpt><trkpt lat="45.5282783" lon="11.1102133"><ele>411.0</ele><time>2026-04-08T07:54:23.78Z</time></trkpt><trkpt lat="45.5283467" lon="11.11015"><ele>409.66666666666663</ele><time>2026-04-08T07:54:24.78Z</time></trkpt><trkpt lat="45.5284017" lon="11.1101"><ele>408.3333333333333</ele><time>2026-04-08T07:54:25.781Z</time></trkpt><trkpt lat="45.5284867" lon="11.1100533"><ele>407.0</ele><time>2026-04-08T07:54:26.78Z</time></trkpt><trkpt lat="45.52857" lon="11.11002"><ele>406.99999999999994</ele><time>2026-04-08T07:54:27.78Z</time></trkpt><trkpt lat="45.5286617" lon="11.109935"><ele>407.0</ele><time>2026-04-08T07:54:29.78Z</time></trkpt><trkpt lat="45.528725" lon="11.1098983"><ele>407.0</ele><time>2026-04-08T07:54:30.781Z</time></trkpt><trkpt lat="45.5287867" lon="11.10986"><ele>407.0</ele><time>2026-04-08T07:54:31.781Z</time></trkpt><trkpt lat="45.52885" lon="11.1097933"><ele>406.99999999999994</ele><time>2026-04-08T07:54:32.78Z</time></trkpt><trkpt lat="45.5288967" lon="11.1097117"><ele>407.0</ele><time>2026-04-08T07:54:33.78Z</time></trkpt><trkpt lat="45.5289283" lon="11.1096167"><ele>407.3333333333333</ele><time>2026-04-08T07:54:34.78Z</time></trkpt><trkpt lat="45.5289617" lon="11.1095267"><ele>407.66666666666663</ele><time>2026-04-08T07:54:35.781Z</time></trkpt><trkpt lat="45.5290183" lon="11.1094417"><ele>408.0</ele><time>2026-04-08T07:54:36.781Z</time></trkpt><trkpt lat="45.5290567" lon="11.10934"><ele>408.33333333333337</ele><time>2026-04-08T07:54:37.781Z</time></trkpt><trkpt lat="45.5290933" lon="11.1092283"><ele>408.6666666666667</ele><time>2026-04-08T07:54:38.781Z</time></trkpt><trkpt lat="45.52913" lon="11.109115"><ele>409.0</ele><time>2026-04-08T07:54:39.78Z</time></trkpt><trkpt lat="45.5291583" lon="11.1090133"><ele>410.83333333333337</ele><time>2026-04-08T07:54:40.78Z</time></trkpt><trkpt lat="45.529185" lon="11.108925"><ele>412.6666666666667</ele><time>2026-04-08T07:54:41.781Z</time></trkpt><trkpt lat="45.5292383" lon="11.10875"><ele>414.5</ele><time>2026-04-08T07:54:43.781Z</time></trkpt><trkpt lat="45.529255" lon="11.1086533"><ele>416.33333333333337</ele><time>2026-04-08T07:54:44.781Z</time></trkpt><trkpt lat="45.5292767" lon="11.10856"><ele>418.1666666666667</ele><time>2026-04-08T07:54:45.78Z</time></trkpt><trkpt lat="45.5293017" lon="11.108465"><ele>420.0</ele><time>2026-04-08T07:54:46.781Z</time></trkpt><trkpt lat="45.5293067" lon="11.10836"><ele>420.0</ele><time>2026-04-08T07:54:47.781Z</time></trkpt><trkpt lat="45.529325" lon="11.1082717"><ele>420.0</ele><time>2026-04-08T07:54:48.78Z</time></trkpt><trkpt lat="45.5292733" lon="11.1081417"><ele>420.0</ele><time>2026-04-08T07:54:50.781Z</time></trkpt><trkpt lat="45.5292767" lon="11.108045"><ele>420.0</ele><time>2026-04-08T07:54:51.78Z</time></trkpt><trkpt lat="45.5292767" lon="11.1078783"><ele>420.0</ele><time>2026-04-08T07:54:53.78Z</time></trkpt><trkpt lat="45.5292967" lon="11.107745"><ele>420.0</ele><time>2026-04-08T07:54:55.78Z</time></trkpt><trkpt lat="45.5293683" lon="11.107855"><ele>418.33333333333337</ele><time>2026-04-08T07:54:57.781Z</time></trkpt><trkpt lat="45.5294817" lon="11.1079917"><ele>416.6666666666667</ele><time>2026-04-08T07:54:58.78Z</time></trkpt><trkpt lat="45.52967" lon="11.1082033"><ele>415.0</ele><time>2026-04-08T07:54:59.781Z</time></trkpt><trkpt lat="45.5298033" lon="11.108345"><ele>415.0</ele><time>2026-04-08T07:55:00.78Z</time></trkpt><trkpt lat="45.5299183" lon="11.1084583"><ele>415.0</ele><time>2026-04-08T07:55:01.781Z</time></trkpt><trkpt lat="45.530025" lon="11.1085617"><ele>415.0</ele><time>2026-04-08T07:55:02.78Z</time></trkpt><trkpt lat="45.530125" lon="11.1086417"><ele>415.0</ele><time>2026-04-08T07:55:03.781Z</time></trkpt><trkpt lat="45.5302183" lon="11.1087083"><ele>415.0</ele><time>2026-04-08T07:55:04.78Z</time></trkpt><trkpt lat="45.530325" lon="11.1087867"><ele>415.0</ele><time>2026-04-08T07:55:05.781Z</time></trkpt><trkpt lat="45.5304283" lon="11.1088083"><ele>415.0</ele><time>2026-04-08T07:55:06.781Z</time></trkpt><trkpt lat="45.5305267" lon="11.108815"><ele>415.0</ele><time>2026-04-08T07:55:07.781Z</time></trkpt><trkpt lat="45.530615" lon="11.10886"><ele>415.0</ele><time>2026-04-08T07:55:08.781Z</time></trkpt><trkpt lat="45.5306883" lon="11.1088733"><ele>415.8</ele><time>2026-04-08T07:55:09.78Z</time></trkpt><trkpt lat="45.5307717" lon="11.1088633"><ele>416.6</ele><time>2026-04-08T07:55:10.78Z</time></trkpt><trkpt lat="45.53086" lon="11.10882"><ele>417.4</ele><time>2026-04-08T07:55:11.781Z</time></trkpt><trkpt lat="45.530955" lon="11.1087683"><ele>418.2</ele><time>2026-04-08T07:55:12.781Z</time></trkpt><trkpt lat="45.53107" lon="11.1086733"><ele>419.0</ele><time>2026-04-08T07:55:13.78Z</time></trkpt><trkpt lat="45.5311633" lon="11.1086183"><ele>418.66666666666663</ele><time>2026-04-08T07:55:14.781Z</time></trkpt><trkpt lat="45.5312317" lon="11.10855"><ele>418.3333333333333</ele><time>2026-04-08T07:55:15.781Z</time></trkpt><trkpt lat="45.5313033" lon="11.1084633"><ele>418.0</ele><time>2026-04-08T07:55:16.78Z</time></trkpt><trkpt lat="45.531345" lon="11.10837"><ele>417.66666666666663</ele><time>2026-04-08T07:55:17.78Z</time></trkpt><trkpt lat="45.5313917" lon="11.1082833"><ele>417.3333333333333</ele><time>2026-04-08T07:55:18.78Z</time></trkpt><trkpt lat="45.5314467" lon="11.1081967"><ele>417.0</ele><time>2026-04-08T07:55:19.781Z</time></trkpt><trkpt lat="45.5315017" lon="11.1081167"><ele>419.1666666666667</ele><time>2026-04-08T07:55:20.781Z</time></trkpt><trkpt lat="45.5315483" lon="11.10805"><ele>421.33333333333337</ele><time>2026-04-08T07:55:21.78Z</time></trkpt><trkpt lat="45.5315883" lon="11.1079783"><ele>423.5</ele><time>2026-04-08T07:55:24.781Z</time></trkpt><trkpt lat="45.5316533" lon="11.1080333"><ele>425.6666666666667</ele><time>2026-04-08T07:55:29.781Z</time></trkpt><trkpt lat="45.531735" lon="11.1080217"><ele>427.83333333333337</ele><time>2026-04-08T07:55:31.78Z</time></trkpt><trkpt lat="45.531815" lon="11.1079983"><ele>430.0</ele><time>2026-04-08T07:55:33.78Z</time></trkpt><trkpt lat="45.531895" lon="11.1080217"><ele>430.0</ele><time>2026-04-08T07:55:35.781Z</time></trkpt><trkpt lat="45.5320233" lon="11.1080383"><ele>430.0</ele><time>2026-04-08T07:55:37.78Z</time></trkpt><trkpt lat="45.5321083" lon="11.1080617"><ele>430.0</ele><time>2026-04-08T07:55:38.78Z</time></trkpt><trkpt lat="45.5321983" lon="11.10808"><ele>430.0</ele><time>2026-04-08T07:55:39.781Z</time></trkpt><trkpt lat="45.5322917" lon="11.1080983"><ele>430.0</ele><time>2026-04-08T07:55:40.781Z</time></trkpt><trkpt lat="45.53237" lon="11.1081033"><ele>431.6</ele><time>2026-04-08T07:55:41.78Z</time></trkpt><trkpt lat="45.5324733" lon="11.1080517"><ele>433.2</ele><time>2026-04-08T07:55:42.78Z</time></trkpt><trkpt lat="45.53255" lon="11.1080183"><ele>434.79999999999995</ele><time>2026-04-08T07:55:43.781Z</time></trkpt><trkpt lat="45.5326567" lon="11.1079367"><ele>436.4</ele><time>2026-04-08T07:55:44.78Z</time></trkpt><trkpt lat="45.5327483" lon="11.1079"><ele>438.0</ele><time>2026-04-08T07:55:45.781Z</time></trkpt><trkpt lat="45.5328567" lon="11.1078533"><ele>437.0</ele><time>2026-04-08T07:55:46.78Z</time></trkpt><trkpt lat="45.5329417" lon="11.107805"><ele>435.99999999999994</ele><time>2026-04-08T07:55:47.781Z</time></trkpt><trkpt lat="45.5330267" lon="11.107755"><ele>434.99999999999994</ele><time>2026-04-08T07:55:48.78Z</time></trkpt><trkpt lat="45.533115" lon="11.1076983"><ele>434.0</ele><time>2026-04-08T07:55:49.781Z</time></trkpt><trkpt lat="45.5331967" lon="11.10765"><ele>433.0</ele><time>2026-04-08T07:55:50.78Z</time></trkpt><trkpt lat="45.5333" lon="11.1076367"><ele>433.00000000000006</ele><time>2026-04-08T07:55:51.781Z</time></trkpt><trkpt lat="45.5334" lon="11.1075667"><ele>433.0</ele><time>2026-04-08T07:55:52.781Z</time></trkpt><trkpt lat="45.5334833" lon="11.1075017"><ele>433.0</ele><time>2026-04-08T07:55:53.78Z</time></trkpt><trkpt lat="45.5335433" lon="11.1074383"><ele>433.0</ele><time>2026-04-08T07:55:54.78Z</time></trkpt><trkpt lat="45.5336067" lon="11.107385"><ele>433.00000000000006</ele><time>2026-04-08T07:55:55.78Z</time></trkpt><trkpt lat="45.5336617" lon="11.107325"><ele>433.0</ele><time>2026-04-08T07:55:56.781Z</time></trkpt><trkpt lat="45.53371" lon="11.1072617"><ele>432.6666666666667</ele><time>2026-04-08T07:55:57.781Z</time></trkpt><trkpt lat="45.5337583" lon="11.1072033"><ele>432.33333333333337</ele><time>2026-04-08T07:55:58.781Z</time></trkpt><trkpt lat="45.533815" lon="11.1071267"><ele>432.0</ele><time>2026-04-08T07:55:59.78Z</time></trkpt><trkpt lat="45.5338533" lon="11.1070483"><ele>431.66666666666663</ele><time>2026-04-08T07:56:00.781Z</time></trkpt><trkpt lat="45.5338967" lon="11.10696"><ele>431.3333333333333</ele><time>2026-04-08T07:56:01.78Z</time></trkpt><trkpt lat="45.5339467" lon="11.1068717"><ele>431.0</ele><time>2026-04-08T07:56:02.781Z</time></trkpt><trkpt lat="45.5340217" lon="11.10674"><ele>431.0</ele><time>2026-04-08T07:56:04.78Z</time></trkpt><trkpt lat="45.53411" lon="11.1067183"><ele>431.0</ele><time>2026-04-08T07:56:06.781Z</time></trkpt><trkpt lat="45.5341783" lon="11.1068283"><ele>431.0</ele><time>2026-04-08T07:56:08.781Z</time></trkpt><trkpt lat="45.53426" lon="11.1069833"><ele>431.0</ele><time>2026-04-08T07:56:10.781Z</time></trkpt><trkpt lat="45.5343383" lon="11.107105"><ele>431.0</ele><time>2026-04-08T07:56:11.781Z</time></trkpt><trkpt lat="45.5343883" lon="11.1072083"><ele>430.99999999999994</ele><time>2026-04-08T07:56:12.781Z</time></trkpt><trkpt lat="45.5344383" lon="11.107295"><ele>431.0</ele><time>2026-04-08T07:56:13.78Z</time></trkpt><trkpt lat="45.5345" lon="11.1073883"><ele>431.0</ele><time>2026-04-08T07:56:14.781Z</time></trkpt><trkpt lat="45.5345617" lon="11.1074833"><ele>431.0</ele><time>2026-04-08T07:56:15.781Z</time></trkpt><trkpt lat="45.5346183" lon="11.1075733"><ele>430.99999999999994</ele><time>2026-04-08T07:56:16.78Z</time></trkpt><trkpt lat="45.53467" lon="11.1076533"><ele>431.0</ele><time>2026-04-08T07:56:17.781Z</time></trkpt><trkpt lat="45.5347183" lon="11.10772"><ele>429.3333333333333</ele><time>2026-04-08T07:56:18.781Z</time></trkpt><trkpt lat="45.53476" lon="11.1078083"><ele>427.66666666666663</ele><time>2026-04-08T07:56:19.781Z</time></trkpt><trkpt lat="45.5348183" lon="11.1078633"><ele>426.0</ele><time>2026-04-08T07:56:20.78Z</time></trkpt><trkpt lat="45.5349" lon="11.1079217"><ele>424.33333333333337</ele><time>2026-04-08T07:56:21.781Z</time></trkpt><trkpt lat="45.5349833" lon="11.107975"><ele>422.6666666666667</ele><time>2026-04-08T07:56:22.781Z</time></trkpt><trkpt lat="45.5350867" lon="11.1079617"><ele>421.0</ele><time>2026-04-08T07:56:23.78Z</time></trkpt><trkpt lat="45.5351617" lon="11.107995"><ele>421.0</ele><time>2026-04-08T07:56:24.78Z</time></trkpt><trkpt lat="45.5352433" lon="11.1079933"><ele>421.0</ele><time>2026-04-08T07:56:25.78Z</time></trkpt><trkpt lat="45.535365" lon="11.1080633"><ele>421.0</ele><time>2026-04-08T07:56:27.781Z</time></trkpt><trkpt lat="45.5354617" lon="11.1081367"><ele>421.0</ele><time>2026-04-08T07:56:29.781Z</time></trkpt><trkpt lat="45.5355817" lon="11.10821"><ele>417.50000000000006</ele><time>2026-04-08T07:56:31.781Z</time></trkpt><trkpt lat="45.5356417" lon="11.1082667"><ele>414.0</ele><time>2026-04-08T07:56:32.78Z</time></trkpt><trkpt lat="45.5356933" lon="11.10832"><ele>410.5</ele><time>2026-04-08T07:56:33.781Z</time></trkpt><trkpt lat="45.5357883" lon="11.1084083"><ele>407.0</ele><time>2026-04-08T07:56:35.781Z</time></trkpt><trkpt lat="45.5356983" lon="11.1084767"><ele>403.50000000000006</ele><time>2026-04-08T07:56:39.78Z</time></trkpt><trkpt lat="45.5356" lon="11.1084833"><ele>400.0</ele><time>2026-04-08T07:56:41.779Z</time></trkpt><trkpt lat="45.535535" lon="11.10846"><ele>400.00000000000006</ele><time>2026-04-08T07:56:43.78Z</time></trkpt><trkpt lat="45.5354617" lon="11.1084233"><ele>400.0</ele><time>2026-04-08T07:56:45.779Z</time></trkpt><trkpt lat="45.53537" lon="11.1083967"><ele>400.0</ele><time>2026-04-08T07:56:47.779Z</time></trkpt><trkpt lat="45.5353067" lon="11.1084283"><ele>400.0</ele><time>2026-04-08T07:56:50.779Z</time></trkpt><trkpt lat="45.5353517" lon="11.1085483"><ele>400.00000000000006</ele><time>2026-04-08T07:56:53.779Z</time></trkpt><trkpt lat="45.5354167" lon="11.1086767"><ele>400.0</ele><time>2026-04-08T07:56:55.779Z</time></trkpt><trkpt lat="45.5355067" lon="11.1087267"><ele>400.00000000000006</ele><time>2026-04-08T07:56:57.78Z</time></trkpt><trkpt lat="45.5355717" lon="11.1087667"><ele>400.0</ele><time>2026-04-08T07:56:58.78Z</time></trkpt><trkpt lat="45.5356317" lon="11.1088067"><ele>400.0</ele><time>2026-04-08T07:56:59.779Z</time></trkpt><trkpt lat="45.53568" lon="11.10887"><ele>400.0</ele><time>2026-04-08T07:57:00.779Z</time></trkpt><trkpt lat="45.5357717" lon="11.10896"><ele>400.00000000000006</ele><time>2026-04-08T07:57:02.78Z</time></trkpt><trkpt lat="45.535855" lon="11.1090533"><ele>400.0</ele><time>2026-04-08T07:57:04.78Z</time></trkpt><trkpt lat="45.5359283" lon="11.1090883"><ele>400.00000000000006</ele><time>2026-04-08T07:57:06.78Z</time></trkpt><trkpt lat="45.5360133" lon="11.10907"><ele>400.0</ele><time>2026-04-08T07:57:09.78Z</time></trkpt><trkpt lat="45.5360883" lon="11.109065"><ele>400.0</ele><time>2026-04-08T07:57:11.779Z</time></trkpt><trkpt lat="45.5361617" lon="11.1090783"><ele>400.0</ele><time>2026-04-08T07:57:13.779Z</time></trkpt><trkpt lat="45.5361283" lon="11.1091933"><ele>400.00000000000006</ele><time>2026-04-08T07:57:17.78Z</time></trkpt><trkpt lat="45.5360683" lon="11.10924"><ele>400.0</ele><time>2026-04-08T07:57:19.78Z</time></trkpt><trkpt lat="45.5359867" lon="11.1092583"><ele>397.1666666666667</ele><time>2026-04-08T07:57:22.779Z</time></trkpt><trkpt lat="45.535885" lon="11.1093317"><ele>394.33333333333337</ele><time>2026-04-08T07:57:36.78Z</time></trkpt><trkpt lat="45.5358633" lon="11.1094767"><ele>391.5</ele><time>2026-04-08T08:01:01.778Z</time></trkpt><trkpt lat="45.5359167" lon="11.1095333"><ele>388.6666666666667</ele><time>2026-04-08T08:01:06.778Z</time></trkpt><trkpt lat="45.5359533" lon="11.1094217"><ele>385.83333333333337</ele><time>2026-04-08T08:01:17.779Z</time></trkpt><trkpt lat="45.5360233" lon="11.1094417"><ele>383.0</ele><time>2026-04-08T08:01:18.778Z</time></trkpt><trkpt lat="45.5361017" lon="11.1094567"><ele>383.0</ele><time>2026-04-08T08:01:19.779Z</time></trkpt><trkpt lat="45.5361867" lon="11.1094783"><ele>383.0</ele><time>2026-04-08T08:01:20.778Z</time></trkpt><trkpt lat="45.536255" lon="11.1094367"><ele>383.0</ele><time>2026-04-08T08:01:22.779Z</time></trkpt><trkpt lat="45.5362683" lon="11.1093333"><ele>383.0</ele><time>2026-04-08T08:01:24.779Z</time></trkpt><trkpt lat="45.536275" lon="11.1092417"><ele>383.0</ele><time>2026-04-08T08:01:25.779Z</time></trkpt><trkpt lat="45.53622" lon="11.1091783"><ele>383.0</ele><time>2026-04-08T08:01:28.779Z</time></trkpt><trkpt lat="45.53619" lon="11.1090617"><ele>383.7142857142857</ele><time>2026-04-08T08:01:31.779Z</time></trkpt><trkpt lat="45.5362067" lon="11.10897"><ele>384.42857142857144</ele><time>2026-04-08T08:01:36.779Z</time></trkpt><trkpt lat="45.5362567" lon="11.10903"><ele>385.1428571428571</ele><time>2026-04-08T08:02:12.779Z</time></trkpt><trkpt lat="45.5362567" lon="11.10912"><ele>385.8571428571429</ele><time>2026-04-08T08:02:14.778Z</time></trkpt><trkpt lat="45.5362967" lon="11.1092217"><ele>386.5714285714286</ele><time>2026-04-08T08:02:17.778Z</time></trkpt><trkpt lat="45.5362733" lon="11.10933"><ele>387.2857142857143</ele><time>2026-04-08T08:02:21.779Z</time></trkpt><trkpt lat="45.5363233" lon="11.1094267"><ele>388.0</ele><time>2026-04-08T08:02:25.779Z</time></trkpt><trkpt lat="45.53638" lon="11.1094817"><ele>388.0</ele><time>2026-04-08T08:02:28.779Z</time></trkpt><trkpt lat="45.5364483" lon="11.10947"><ele>388.0</ele><time>2026-04-08T08:02:30.778Z</time></trkpt><trkpt lat="45.5365333" lon="11.1093683"><ele>388.0</ele><time>2026-04-08T08:02:52.777Z</time></trkpt><trkpt lat="45.5365717" lon="11.1092283"><ele>388.0</ele><time>2026-04-08T08:02:55.778Z</time></trkpt><trkpt lat="45.536565" lon="11.1090733"><ele>388.0</ele><time>2026-04-08T08:02:57.778Z</time></trkpt><trkpt lat="45.5365967" lon="11.1089633"><ele>388.1428571428571</ele><time>2026-04-08T08:03:00.778Z</time></trkpt><trkpt lat="45.536645" lon="11.1088883"><ele>388.28571428571433</ele><time>2026-04-08T08:03:02.777Z</time></trkpt><trkpt lat="45.5366917" lon="11.108805"><ele>388.42857142857144</ele><time>2026-04-08T08:03:05.778Z</time></trkpt><trkpt lat="45.5367583" lon="11.108795"><ele>388.57142857142856</ele><time>2026-04-08T08:03:10.778Z</time></trkpt><trkpt lat="45.5368317" lon="11.1087983"><ele>388.71428571428567</ele><time>2026-04-08T08:03:13.777Z</time></trkpt><trkpt lat="45.5368917" lon="11.1087383"><ele>388.8571428571429</ele><time>2026-04-08T08:03:16.778Z</time></trkpt><trkpt lat="45.5369583" lon="11.10869"><ele>389.0</ele><time>2026-04-08T08:03:18.778Z</time></trkpt><trkpt lat="45.5370433" lon="11.108575"><ele>391.16666666666663</ele><time>2026-04-08T08:03:20.778Z</time></trkpt><trkpt lat="45.5371067" lon="11.1084717"><ele>393.3333333333333</ele><time>2026-04-08T08:03:22.778Z</time></trkpt><trkpt lat="45.5371633" lon="11.1084133"><ele>395.5</ele><time>2026-04-08T08:03:24.777Z</time></trkpt><trkpt lat="45.53724" lon="11.1083317"><ele>397.66666666666663</ele><time>2026-04-08T08:03:26.778Z</time></trkpt><trkpt lat="45.5373017" lon="11.10826"><ele>399.8333333333333</ele><time>2026-04-08T08:03:28.778Z</time></trkpt><trkpt lat="45.5373467" lon="11.1081717"><ele>402.0</ele><time>2026-04-08T08:03:30.778Z</time></trkpt><trkpt lat="45.5373783" lon="11.108085"><ele>402.3333333333333</ele><time>2026-04-08T08:03:32.778Z</time></trkpt><trkpt lat="45.5374017" lon="11.10799"><ele>402.66666666666663</ele><time>2026-04-08T08:03:37.777Z</time></trkpt><trkpt lat="45.537465" lon="11.1079483"><ele>403.0</ele><time>2026-04-08T08:03:41.778Z</time></trkpt><trkpt lat="45.5375617" lon="11.1079617"><ele>403.3333333333333</ele><time>2026-04-08T08:03:43.778Z</time></trkpt><trkpt lat="45.53765" lon="11.1079817"><ele>403.66666666666663</ele><time>2026-04-08T08:03:45.777Z</time></trkpt><trkpt lat="45.5377217" lon="11.1079417"><ele>404.0</ele><time>2026-04-08T08:03:48.777Z</time></trkpt><trkpt lat="45.5377683" lon="11.10787"><ele>403.99999999999994</ele><time>2026-04-08T08:03:50.777Z</time></trkpt><trkpt lat="45.5378267" lon="11.107785"><ele>404.0</ele><time>2026-04-08T08:03:52.778Z</time></trkpt><trkpt lat="45.537895" lon="11.1076983"><ele>404.0</ele><time>2026-04-08T08:03:54.777Z</time></trkpt><trkpt lat="45.53799" lon="11.107635"><ele>404.0</ele><time>2026-04-08T08:03:57.777Z</time></trkpt><trkpt lat="45.5380817" lon="11.107635"><ele>403.99999999999994</ele><time>2026-04-08T08:04:00.777Z</time></trkpt><trkpt lat="45.538155" lon="11.107655"><ele>404.0</ele><time>2026-04-08T08:04:02.778Z</time></trkpt><trkpt lat="45.538225" lon="11.1076967"><ele>405.66666666666663</ele><time>2026-04-08T08:04:04.777Z</time></trkpt><trkpt lat="45.538285" lon="11.10775"><ele>407.3333333333333</ele><time>2026-04-08T08:04:06.778Z</time></trkpt><trkpt lat="45.538395" lon="11.1078417"><ele>409.0</ele><time>2026-04-08T08:04:08.778Z</time></trkpt><trkpt lat="45.538455" lon="11.1078933"><ele>410.66666666666663</ele><time>2026-04-08T08:04:09.778Z</time></trkpt><trkpt lat="45.5385467" lon="11.1079833"><ele>412.3333333333333</ele><time>2026-04-08T08:04:11.778Z</time></trkpt><trkpt lat="45.5386017" lon="11.1080383"><ele>414.0</ele><time>2026-04-08T08:04:13.777Z</time></trkpt><trkpt lat="45.538655" lon="11.108115"><ele>414.0</ele><time>2026-04-08T08:04:17.777Z</time></trkpt><trkpt lat="45.53863" lon="11.108205"><ele>414.0</ele><time>2026-04-08T08:04:22.778Z</time></trkpt><trkpt lat="45.538695" lon="11.1082167"><ele>414.0</ele><time>2026-04-08T08:04:27.778Z</time></trkpt><trkpt lat="45.5387817" lon="11.1082033"><ele>414.0</ele><time>2026-04-08T08:04:32.778Z</time></trkpt><trkpt lat="45.5388567" lon="11.1082033"><ele>414.0</ele><time>2026-04-08T08:04:34.777Z</time></trkpt><trkpt lat="45.538925" lon="11.1082183"><ele>414.0</ele><time>2026-04-08T08:04:37.778Z</time></trkpt><trkpt lat="45.5390167" lon="11.108295"><ele>419.4</ele><time>2026-04-08T08:04:39.778Z</time></trkpt><trkpt lat="45.539105" lon="11.1084"><ele>424.79999999999995</ele><time>2026-04-08T08:04:41.777Z</time></trkpt><trkpt lat="45.5391767" lon="11.1084883"><ele>430.20000000000005</ele><time>2026-04-08T08:04:43.777Z</time></trkpt><trkpt lat="45.539255" lon="11.1085683"><ele>435.6</ele><time>2026-04-08T08:04:45.778Z</time></trkpt><trkpt lat="45.539335" lon="11.1086033"><ele>441.0</ele><time>2026-04-08T08:04:47.778Z</time></trkpt><trkpt lat="45.539425" lon="11.1086667"><ele>441.0</ele><time>2026-04-08T08:04:49.778Z</time></trkpt><trkpt lat="45.53951" lon="11.1087683"><ele>441.0</ele><time>2026-04-08T08:04:51.778Z</time></trkpt><trkpt lat="45.53955" lon="11.108865"><ele>441.0</ele><time>2026-04-08T08:04:54.778Z</time></trkpt><trkpt lat="45.539555" lon="11.1090067"><ele>441.0</ele><time>2026-04-08T08:05:00.777Z</time></trkpt><trkpt lat="45.5396017" lon="11.1091383"><ele>441.0</ele><time>2026-04-08T08:05:02.778Z</time></trkpt><trkpt lat="45.53967" lon="11.10928"><ele>445.20000000000005</ele><time>2026-04-08T08:05:04.778Z</time></trkpt><trkpt lat="45.539695" lon="11.1093783"><ele>449.40000000000003</ele><time>2026-04-08T08:05:05.778Z</time></trkpt><trkpt lat="45.5397617" lon="11.1095033"><ele>453.6</ele><time>2026-04-08T08:05:07.778Z</time></trkpt><trkpt lat="45.5398433" lon="11.109575"><ele>457.8</ele><time>2026-04-08T08:05:09.778Z</time></trkpt><trkpt lat="45.5399533" lon="11.1096867"><ele>462.0</ele><time>2026-04-08T08:05:11.777Z</time></trkpt><trkpt lat="45.5400117" lon="11.1097383"><ele>462.0</ele><time>2026-04-08T08:05:12.778Z</time></trkpt><trkpt lat="45.5400633" lon="11.1097967"><ele>462.0</ele><time>2026-04-08T08:05:13.778Z</time></trkpt><trkpt lat="45.540125" lon="11.1098483"><ele>462.0</ele><time>2026-04-08T08:05:14.778Z</time></trkpt><trkpt lat="45.5401809" lon="11.1098911"><ele>462.0</ele><time>2026-04-08T08:05:15.777Z</time></trkpt><trkpt lat="45.5402494" lon="11.1099429"><ele>462.0</ele><time>2026-04-08T08:05:16.777Z</time></trkpt><trkpt lat="45.5403068" lon="11.1099943"><ele>462.0</ele><time>2026-04-08T08:05:17.778Z</time></trkpt><trkpt lat="45.5403626" lon="11.110041"><ele>462.0</ele><time>2026-04-08T08:05:18.777Z</time></trkpt><trkpt lat="45.5404484" lon="11.1101316"><ele>466.0</ele><time>2026-04-08T08:05:20.777Z</time></trkpt><trkpt lat="45.5405339" lon="11.1101921"><ele>470.0</ele><time>2026-04-08T08:05:22.777Z</time></trkpt><trkpt lat="45.5406067" lon="11.1102042"><ele>474.0</ele><time>2026-04-08T08:05:23.777Z</time></trkpt><trkpt lat="45.5406788" lon="11.1102371"><ele>478.0</ele><time>2026-04-08T08:05:24.777Z</time></trkpt><trkpt lat="45.5407599" lon="11.1102653"><ele>482.0</ele><time>2026-04-08T08:05:25.777Z</time></trkpt><trkpt lat="45.5408646" lon="11.1103051"><ele>486.0</ele><time>2026-04-08T08:05:26.778Z</time></trkpt><trkpt lat="45.5409989" lon="11.1103501"><ele>486.0</ele><time>2026-04-08T08:05:27.778Z</time></trkpt><trkpt lat="45.541103" lon="11.110387"><ele>486.0</ele><time>2026-04-08T08:05:28.778Z</time></trkpt><trkpt lat="45.5411797" lon="11.1104192"><ele>486.0</ele><time>2026-04-08T08:05:29.777Z</time></trkpt><trkpt lat="45.5412568" lon="11.1104518"><ele>486.0</ele><time>2026-04-08T08:05:30.776Z</time></trkpt><trkpt lat="45.5413332" lon="11.1105004"><ele>486.0</ele><time>2026-04-08T08:05:31.776Z</time></trkpt><trkpt lat="45.5414098" lon="11.1105442"><ele>486.0</ele><time>2026-04-08T08:05:32.777Z</time></trkpt><trkpt lat="45.541483" lon="11.1105779"><ele>488.1666666666667</ele><time>2026-04-08T08:05:33.776Z</time></trkpt><trkpt lat="45.5415623" lon="11.1106211"><ele>490.33333333333337</ele><time>2026-04-08T08:05:34.777Z</time></trkpt><trkpt lat="45.5416304" lon="11.1106613"><ele>492.5</ele><time>2026-04-08T08:05:35.776Z</time></trkpt><trkpt lat="45.5416902" lon="11.1107118"><ele>494.6666666666667</ele><time>2026-04-08T08:05:36.777Z</time></trkpt><trkpt lat="45.5417544" lon="11.1107676"><ele>496.83333333333337</ele><time>2026-04-08T08:05:37.776Z</time></trkpt><trkpt lat="45.5418121" lon="11.1108216"><ele>499.0</ele><time>2026-04-08T08:05:38.777Z</time></trkpt><trkpt lat="45.5419171" lon="11.1108986"><ele>500.1428571428572</ele><time>2026-04-08T08:05:40.776Z</time></trkpt><trkpt lat="45.541981" lon="11.1109178"><ele>501.28571428571433</ele><time>2026-04-08T08:05:41.776Z</time></trkpt><trkpt lat="45.5420463" lon="11.1109545"><ele>502.42857142857144</ele><time>2026-04-08T08:05:42.777Z</time></trkpt><trkpt lat="45.5421028" lon="11.1110065"><ele>503.5714285714286</ele><time>2026-04-08T08:05:49.777Z</time></trkpt><trkpt lat="45.5420224" lon="11.1109936"><ele>504.7142857142858</ele><time>2026-04-08T08:06:40.776Z</time></trkpt><trkpt lat="45.5419883" lon="11.11091"><ele>505.85714285714283</ele><time>2026-04-08T08:06:43.777Z</time></trkpt><trkpt lat="45.5419291" lon="11.1108427"><ele>507.0</ele><time>2026-04-08T08:07:14.776Z</time></trkpt><trkpt lat="45.5419588" lon="11.1109339"><ele>507.0</ele><time>2026-04-08T08:07:28.777Z</time></trkpt><trkpt lat="45.5419643" lon="11.110811"><ele>507.00000000000006</ele><time>2026-04-08T08:07:41.777Z</time></trkpt><trkpt lat="45.5418469" lon="11.110651"><ele>507.00000000000006</ele><time>2026-04-08T08:07:42.777Z</time></trkpt><trkpt lat="45.5418615" lon="11.1105265"><ele>507.0</ele><time>2026-04-08T08:07:44.777Z</time></trkpt><trkpt lat="45.5418881" lon="11.1103737"><ele>507.0</ele><time>2026-04-08T08:07:46.777Z</time></trkpt><trkpt lat="45.5419293" lon="11.1102341"><ele>505.8</ele><time>2026-04-08T08:07:48.777Z</time></trkpt><trkpt lat="45.5419276" lon="11.1101217"><ele>504.6</ele><time>2026-04-08T08:07:50.776Z</time></trkpt><trkpt lat="45.5419205" lon="11.1099966"><ele>503.40000000000003</ele><time>2026-04-08T08:07:52.777Z</time></trkpt><trkpt lat="45.5419281" lon="11.1098205"><ele>502.20000000000005</ele><time>2026-04-08T08:07:54.777Z</time></trkpt><trkpt lat="45.5419417" lon="11.1097037"><ele>501.0</ele><time>2026-04-08T08:07:55.777Z</time></trkpt><trkpt lat="45.541956" lon="11.1095828"><ele>501.0</ele><time>2026-04-08T08:07:56.777Z</time></trkpt><trkpt lat="45.5419812" lon="11.1094681"><ele>501.0</ele><time>2026-04-08T08:07:57.776Z</time></trkpt><trkpt lat="45.5419932" lon="11.1093461"><ele>501.0</ele><time>2026-04-08T08:07:58.777Z</time></trkpt><trkpt lat="45.5419949" lon="11.1092366"><ele>501.0</ele><time>2026-04-08T08:07:59.777Z</time></trkpt><trkpt lat="45.5419973" lon="11.1091307"><ele>501.0</ele><time>2026-04-08T08:08:00.777Z</time></trkpt><trkpt lat="45.5420083" lon="11.1090156"><ele>501.0</ele><time>2026-04-08T08:08:01.777Z</time></trkpt><trkpt lat="45.5420222" lon="11.1089111"><ele>501.42857142857144</ele><time>2026-04-08T08:08:02.776Z</time></trkpt><trkpt lat="45.5420384" lon="11.1088063"><ele>501.85714285714283</ele><time>2026-04-08T08:08:03.776Z</time></trkpt><trkpt lat="45.5420514" lon="11.1087077"><ele>502.2857142857143</ele><time>2026-04-08T08:08:04.777Z</time></trkpt><trkpt lat="45.5420738" lon="11.1086218"><ele>502.7142857142857</ele><time>2026-04-08T08:08:05.776Z</time></trkpt><trkpt lat="45.5421003" lon="11.108535"><ele>503.1428571428571</ele><time>2026-04-08T08:08:06.776Z</time></trkpt><trkpt lat="45.5421282" lon="11.1084279"><ele>503.57142857142856</ele><time>2026-04-08T08:08:07.777Z</time></trkpt><trkpt lat="45.5421609" lon="11.1083099"><ele>504.0</ele><time>2026-04-08T08:08:08.777Z</time></trkpt><trkpt lat="45.5422017" lon="11.1081996"><ele>508.6</ele><time>2026-04-08T08:08:09.776Z</time></trkpt><trkpt lat="45.542234" lon="11.1080338"><ele>513.2</ele><time>2026-04-08T08:08:10.776Z</time></trkpt><trkpt lat="45.5422752" lon="11.107908"><ele>517.8000000000001</ele><time>2026-04-08T08:08:11.776Z</time></trkpt><trkpt lat="45.5423209" lon="11.1077944"><ele>522.4</ele><time>2026-04-08T08:08:12.776Z</time></trkpt><trkpt lat="45.5423726" lon="11.1076811"><ele>527.0</ele><time>2026-04-08T08:08:13.777Z</time></trkpt><trkpt lat="45.5424337" lon="11.107597"><ele>527.0</ele><time>2026-04-08T08:08:14.777Z</time></trkpt><trkpt lat="45.5425021" lon="11.1075283"><ele>527.0</ele><time>2026-04-08T08:08:15.777Z</time></trkpt><trkpt lat="45.5425621" lon="11.1074661"><ele>527.0</ele><time>2026-04-08T08:08:16.777Z</time></trkpt><trkpt lat="45.5426468" lon="11.1074116"><ele>527.0</ele><time>2026-04-08T08:08:18.775Z</time></trkpt><trkpt lat="45.5427193" lon="11.1073804"><ele>527.0</ele><time>2026-04-08T08:08:21.775Z</time></trkpt><trkpt lat="45.5427681" lon="11.1072578"><ele>527.0</ele><time>2026-04-08T08:09:03.775Z</time></trkpt><trkpt lat="45.5428196" lon="11.107147"><ele>528.5</ele><time>2026-04-08T08:09:05.776Z</time></trkpt><trkpt lat="45.5428836" lon="11.1070999"><ele>530.0</ele><time>2026-04-08T08:09:06.775Z</time></trkpt><trkpt lat="45.5429748" lon="11.1070619"><ele>531.5</ele><time>2026-04-08T08:09:07.776Z</time></trkpt><trkpt lat="45.5432041" lon="11.1070091"><ele>533.0</ele><time>2026-04-08T08:09:08.776Z</time></trkpt><trkpt lat="45.5433282" lon="11.1069479"><ele>533.0</ele><time>2026-04-08T08:09:09.775Z</time></trkpt><trkpt lat="45.5434435" lon="11.1069074"><ele>533.0</ele><time>2026-04-08T08:09:10.776Z</time></trkpt><trkpt lat="45.5436265" lon="11.106894"><ele>533.0</ele><time>2026-04-08T08:09:11.776Z</time></trkpt><trkpt lat="45.5437495" lon="11.1069226"><ele>533.0</ele><time>2026-04-08T08:09:12.776Z</time></trkpt><trkpt lat="45.5438887" lon="11.1069199"><ele>532.4</ele><time>2026-04-08T08:09:13.776Z</time></trkpt><trkpt lat="45.5440156" lon="11.106927"><ele>531.8</ele><time>2026-04-08T08:09:14.775Z</time></trkpt><trkpt lat="45.5440812" lon="11.1070095"><ele>531.2</ele><time>2026-04-08T08:09:15.775Z</time></trkpt><trkpt lat="45.5441317" lon="11.1071183"><ele>530.6</ele><time>2026-04-08T08:09:16.775Z</time></trkpt><trkpt lat="45.5441681" lon="11.1072253"><ele>530.0</ele><time>2026-04-08T08:09:17.776Z</time></trkpt><trkpt lat="45.5441921" lon="11.1073239"><ele>535.3333333333333</ele><time>2026-04-08T08:09:18.776Z</time></trkpt><trkpt lat="45.5442446" lon="11.1074782"><ele>540.6666666666666</ele><time>2026-04-08T08:09:20.776Z</time></trkpt><trkpt lat="45.54406" lon="11.10746"><ele>546.0</ele><time>2026-04-08T08:09:22.775Z</time></trkpt><trkpt lat="45.5438483" lon="11.1075167"><ele>546.0</ele><time>2026-04-08T08:09:24.775Z</time></trkpt><trkpt lat="45.5437167" lon="11.1075783"><ele>546.0</ele><time>2026-04-08T08:09:25.776Z</time></trkpt><trkpt lat="45.5435917" lon="11.1076367"><ele>546.0</ele><time>2026-04-08T08:09:26.776Z</time></trkpt><trkpt lat="45.5435133" lon="11.107735"><ele>546.0</ele><time>2026-04-08T08:09:27.775Z</time></trkpt><trkpt lat="45.5434617" lon="11.1079217"><ele>545.3333333333334</ele><time>2026-04-08T08:09:28.776Z</time></trkpt><trkpt lat="45.5434117" lon="11.10803"><ele>544.6666666666666</ele><time>2026-04-08T08:09:29.775Z</time></trkpt><trkpt lat="45.5434017" lon="11.108135"><ele>544.0</ele><time>2026-04-08T08:09:30.776Z</time></trkpt><trkpt lat="45.5434867" lon="11.1081783"><ele>543.3333333333333</ele><time>2026-04-08T08:09:31.775Z</time></trkpt><trkpt lat="45.543545" lon="11.10824"><ele>542.6666666666666</ele><time>2026-04-08T08:09:32.775Z</time></trkpt><trkpt lat="45.5436183" lon="11.1083333"><ele>542.0</ele><time>2026-04-08T08:09:33.775Z</time></trkpt><trkpt lat="45.5436917" lon="11.108425"><ele>546.5</ele><time>2026-04-08T08:09:34.775Z</time></trkpt><trkpt lat="45.543765" lon="11.108565"><ele>551.0</ele><time>2026-04-08T08:09:35.776Z</time></trkpt><trkpt lat="45.543845" lon="11.1087183"><ele>555.5</ele><time>2026-04-08T08:09:36.776Z</time></trkpt><trkpt lat="45.54393" lon="11.1089267"><ele>560.0</ele><time>2026-04-08T08:09:37.776Z</time></trkpt><trkpt lat="45.544005" lon="11.1091433"><ele>562.5</ele><time>2026-04-08T08:09:38.775Z</time></trkpt><trkpt lat="45.544065" lon="11.109315"><ele>565.0</ele><time>2026-04-08T08:09:39.776Z</time></trkpt><trkpt lat="45.5441267" lon="11.10947"><ele>567.5</ele><time>2026-04-08T08:09:40.776Z</time></trkpt><trkpt lat="45.5441817" lon="11.1096317"><ele>570.0</ele><time>2026-04-08T08:09:41.776Z</time></trkpt><trkpt lat="45.544235" lon="11.1097733"><ele>570.0</ele><time>2026-04-08T08:09:42.775Z</time></trkpt><trkpt lat="45.5442833" lon="11.1099017"><ele>570.0</ele><time>2026-04-08T08:09:43.775Z</time></trkpt><trkpt lat="45.54432" lon="11.11"><ele>570.0</ele><time>2026-04-08T08:09:44.775Z</time></trkpt><trkpt lat="45.544375" lon="11.1101433"><ele>570.0</ele><time>2026-04-08T08:09:46.776Z</time></trkpt><trkpt lat="45.54442" lon="11.1102283"><ele>570.0</ele><time>2026-04-08T08:09:47.775Z</time></trkpt><trkpt lat="45.5444767" lon="11.110325"><ele>574.0</ele><time>2026-04-08T08:09:48.776Z</time></trkpt><trkpt lat="45.5445467" lon="11.1104117"><ele>578.0</ele><time>2026-04-08T08:09:49.775Z</time></trkpt><trkpt lat="45.54463" lon="11.1105017"><ele>582.0</ele><time>2026-04-08T08:09:50.776Z</time></trkpt><trkpt lat="45.5447283" lon="11.1105783"><ele>586.0</ele><time>2026-04-08T08:09:51.776Z</time></trkpt><trkpt lat="45.54483" lon="11.11065"><ele>590.0</ele><time>2026-04-08T08:09:52.776Z</time></trkpt><trkpt lat="45.5449317" lon="11.110725"><ele>590.6</ele><time>2026-04-08T08:09:53.775Z</time></trkpt><trkpt lat="45.545025" lon="11.1108067"><ele>591.2</ele><time>2026-04-08T08:09:54.776Z</time></trkpt><trkpt lat="45.54511" lon="11.110865"><ele>591.8</ele><time>2026-04-08T08:09:55.776Z</time></trkpt><trkpt lat="45.5451783" lon="11.110905"><ele>592.4</ele><time>2026-04-08T08:09:56.775Z</time></trkpt><trkpt lat="45.5452867" lon="11.1109433"><ele>593.0</ele><time>2026-04-08T08:09:58.776Z</time></trkpt><trkpt lat="45.5453267" lon="11.1108633"><ele>593.0</ele><time>2026-04-08T08:10:01.776Z</time></trkpt><trkpt lat="45.5452733" lon="11.11076"><ele>593.0</ele><time>2026-04-08T08:10:03.776Z</time></trkpt><trkpt lat="45.5452" lon="11.1106467"><ele>593.0</ele><time>2026-04-08T08:10:05.776Z</time></trkpt><trkpt lat="45.5451067" lon="11.1105533"><ele>593.0</ele><time>2026-04-08T08:10:07.776Z</time></trkpt><trkpt lat="45.5450533" lon="11.1104967"><ele>593.0</ele><time>2026-04-08T08:10:08.775Z</time></trkpt><trkpt lat="45.5449933" lon="11.1104483"><ele>593.0</ele><time>2026-04-08T08:10:09.775Z</time></trkpt><trkpt lat="45.5449367" lon="11.1104"><ele>592.5</ele><time>2026-04-08T08:10:10.776Z</time></trkpt><trkpt lat="45.5448767" lon="11.11035"><ele>592.0</ele><time>2026-04-08T08:10:11.776Z</time></trkpt><trkpt lat="45.54482" lon="11.1102983"><ele>591.5</ele><time>2026-04-08T08:10:12.775Z</time></trkpt><trkpt lat="45.5447367" lon="11.1102083"><ele>591.0</ele><time>2026-04-08T08:10:14.776Z</time></trkpt><trkpt lat="45.5448033" lon="11.1101967"><ele>590.5</ele><time>2026-04-08T08:11:31.774Z</time></trkpt><trkpt lat="45.5448283" lon="11.1100783"><ele>590.0</ele><time>2026-04-08T08:11:34.774Z</time></trkpt><trkpt lat="45.5447817" lon="11.11"><ele>590.0</ele><time>2026-04-08T08:11:37.774Z</time></trkpt><trkpt lat="45.5447133" lon="11.1099733"><ele>590.0</ele><time>2026-04-08T08:11:39.775Z</time></trkpt><trkpt lat="45.5446283" lon="11.109925"><ele>590.0</ele><time>2026-04-08T08:11:41.774Z</time></trkpt><trkpt lat="45.544545" lon="11.1098817"><ele>590.0</ele><time>2026-04-08T08:11:43.774Z</time></trkpt><trkpt lat="45.54448" lon="11.1098433"><ele>590.0</ele><time>2026-04-08T08:11:46.775Z</time></trkpt><trkpt lat="45.5445183" lon="11.1097317"><ele>590.0</ele><time>2026-04-08T08:11:53.775Z</time></trkpt><trkpt lat="45.5446483" lon="11.1096883"><ele>585.8</ele><time>2026-04-08T08:11:55.775Z</time></trkpt><trkpt lat="45.5447433" lon="11.1096683"><ele>581.6</ele><time>2026-04-08T08:11:56.775Z</time></trkpt><trkpt lat="45.54484" lon="11.1096483"><ele>577.4</ele><time>2026-04-08T08:11:57.774Z</time></trkpt><trkpt lat="45.5449333" lon="11.1096217"><ele>573.2</ele><time>2026-04-08T08:11:58.774Z</time></trkpt><trkpt lat="45.5450533" lon="11.1095983"><ele>569.0</ele><time>2026-04-08T08:11:59.775Z</time></trkpt><trkpt lat="45.5451467" lon="11.10957"><ele>569.0</ele><time>2026-04-08T08:12:00.775Z</time></trkpt><trkpt lat="45.5452383" lon="11.1095317"><ele>569.0</ele><time>2026-04-08T08:12:01.774Z</time></trkpt><trkpt lat="45.54533" lon="11.109515"><ele>569.0</ele><time>2026-04-08T08:12:02.775Z</time></trkpt><trkpt lat="45.5454217" lon="11.1095167"><ele>569.0</ele><time>2026-04-08T08:12:03.775Z</time></trkpt><trkpt lat="45.545505" lon="11.109525"><ele>569.0</ele><time>2026-04-08T08:12:04.774Z</time></trkpt><trkpt lat="45.5455967" lon="11.10951"><ele>571.1666666666666</ele><time>2026-04-08T08:12:05.774Z</time></trkpt><trkpt lat="45.5457" lon="11.1094467"><ele>573.3333333333333</ele><time>2026-04-08T08:12:07.774Z</time></trkpt><trkpt lat="45.5457633" lon="11.1093667"><ele>575.5</ele><time>2026-04-08T08:12:09.774Z</time></trkpt><trkpt lat="45.5458133" lon="11.1092517"><ele>577.6666666666666</ele><time>2026-04-08T08:12:12.775Z</time></trkpt><trkpt lat="45.5458367" lon="11.1091417"><ele>579.8333333333334</ele><time>2026-04-08T08:12:14.774Z</time></trkpt><trkpt lat="45.5458417" lon="11.10904"><ele>582.0</ele><time>2026-04-08T08:12:16.775Z</time></trkpt><trkpt lat="45.545825" lon="11.1089417"><ele>577.6666666666666</ele><time>2026-04-08T08:12:18.774Z</time></trkpt><trkpt lat="45.545835" lon="11.1088517"><ele>573.3333333333334</ele><time>2026-04-08T08:12:20.774Z</time></trkpt><trkpt lat="45.5458183" lon="11.10867"><ele>569.0</ele><time>2026-04-08T08:12:23.775Z</time></trkpt><trkpt lat="45.5458267" lon="11.1085483"><ele>564.6666666666667</ele><time>2026-04-08T08:12:25.774Z</time></trkpt><trkpt lat="45.5458783" lon="11.1084783"><ele>560.3333333333334</ele><time>2026-04-08T08:12:28.775Z</time></trkpt><trkpt lat="45.545955" lon="11.10849"><ele>556.0</ele><time>2026-04-08T08:12:30.774Z</time></trkpt><trkpt lat="45.5460317" lon="11.1085067"><ele>556.0</ele><time>2026-04-08T08:12:32.775Z</time></trkpt><trkpt lat="45.5461283" lon="11.108465"><ele>556.0</ele><time>2026-04-08T08:12:34.775Z</time></trkpt><trkpt lat="45.546215" lon="11.1083683"><ele>556.0</ele><time>2026-04-08T08:12:36.774Z</time></trkpt><trkpt lat="45.5462983" lon="11.108235"><ele>556.0</ele><time>2026-04-08T08:12:38.774Z</time></trkpt><trkpt lat="45.54639" lon="11.1081917"><ele>556.0</ele><time>2026-04-08T08:12:40.775Z</time></trkpt><trkpt lat="45.54649" lon="11.108155"><ele>556.1428571428571</ele><time>2026-04-08T08:12:42.775Z</time></trkpt><trkpt lat="45.546555" lon="11.10813"><ele>556.2857142857143</ele><time>2026-04-08T08:12:43.775Z</time></trkpt><trkpt lat="45.5466183" lon="11.1081133"><ele>556.4285714285714</ele><time>2026-04-08T08:12:44.774Z</time></trkpt><trkpt lat="45.5466883" lon="11.10811"><ele>556.5714285714286</ele><time>2026-04-08T08:12:45.775Z</time></trkpt><trkpt lat="45.5467633" lon="11.1081283"><ele>556.7142857142857</ele><time>2026-04-08T08:12:46.775Z</time></trkpt><trkpt lat="45.5468417" lon="11.1081517"><ele>556.8571428571429</ele><time>2026-04-08T08:12:47.775Z</time></trkpt><trkpt lat="45.5469167" lon="11.1081933"><ele>557.0</ele><time>2026-04-08T08:12:48.775Z</time></trkpt><trkpt lat="45.547005" lon="11.1082667"><ele>557.0</ele><time>2026-04-08T08:12:49.775Z</time></trkpt><trkpt lat="45.5471067" lon="11.1083233"><ele>557.0</ele><time>2026-04-08T08:12:51.774Z</time></trkpt><trkpt lat="45.5471667" lon="11.1083883"><ele>557.0</ele><time>2026-04-08T08:12:53.775Z</time></trkpt><trkpt lat="45.547105" lon="11.1083117"><ele>557.0</ele><time>2026-04-08T08:13:17.774Z</time></trkpt><trkpt lat="45.5470183" lon="11.10828"><ele>557.0</ele><time>2026-04-08T08:13:19.774Z</time></trkpt><trkpt lat="45.5468917" lon="11.1082533"><ele>557.0</ele><time>2026-04-08T08:13:21.775Z</time></trkpt><trkpt lat="45.5468267" lon="11.1082533"><ele>557.0</ele><time>2026-04-08T08:13:22.775Z</time></trkpt><trkpt lat="45.5467233" lon="11.1082117"><ele>557.0</ele><time>2026-04-08T08:13:24.774Z</time></trkpt><trkpt lat="45.5466467" lon="11.1081383"><ele>557.0</ele><time>2026-04-08T08:13:26.775Z</time></trkpt><trkpt lat="45.5466067" lon="11.1080667"><ele>557.0</ele><time>2026-04-08T08:13:28.775Z</time></trkpt><trkpt lat="45.54652" lon="11.108035"><ele>557.0</ele><time>2026-04-08T08:13:30.775Z</time></trkpt><trkpt lat="45.5464367" lon="11.108025"><ele>553.4</ele><time>2026-04-08T08:13:32.775Z</time></trkpt><trkpt lat="45.546365" lon="11.10798"><ele>549.8000000000001</ele><time>2026-04-08T08:13:35.774Z</time></trkpt><trkpt lat="45.546315" lon="11.1079"><ele>546.2</ele><time>2026-04-08T08:13:37.774Z</time></trkpt><trkpt lat="45.546365" lon="11.1078167"><ele>542.6</ele><time>2026-04-08T08:13:41.775Z</time></trkpt><trkpt lat="45.5465" lon="11.1077967"><ele>539.0</ele><time>2026-04-08T08:13:43.775Z</time></trkpt><trkpt lat="45.546645" lon="11.107805"><ele>539.0</ele><time>2026-04-08T08:13:44.774Z</time></trkpt><trkpt lat="45.5467283" lon="11.1078083"><ele>539.0</ele><time>2026-04-08T08:13:45.775Z</time></trkpt><trkpt lat="45.546815" lon="11.1078133"><ele>539.0</ele><time>2026-04-08T08:13:46.774Z</time></trkpt><trkpt lat="45.5468967" lon="11.1078167"><ele>539.0</ele><time>2026-04-08T08:13:47.775Z</time></trkpt><trkpt lat="45.5469717" lon="11.107825"><ele>539.0</ele><time>2026-04-08T08:13:48.775Z</time></trkpt><trkpt lat="45.5470433" lon="11.1078417"><ele>539.0</ele><time>2026-04-08T08:13:49.775Z</time></trkpt><trkpt lat="45.547105" lon="11.1078683"><ele>539.0</ele><time>2026-04-08T08:13:50.775Z</time></trkpt><trkpt lat="45.5471867" lon="11.10788"><ele>539.0</ele><time>2026-04-08T08:13:52.775Z</time></trkpt><trkpt lat="45.547135" lon="11.1077767"><ele>539.0</ele><time>2026-04-08T08:13:58.774Z</time></trkpt><trkpt lat="45.5470217" lon="11.1076967"><ele>539.0</ele><time>2026-04-08T08:14:00.773Z</time></trkpt><trkpt lat="45.5469533" lon="11.1075883"><ele>539.0</ele><time>2026-04-08T08:14:02.774Z</time></trkpt><trkpt lat="45.5469133" lon="11.1074817"><ele>539.6666666666666</ele><time>2026-04-08T08:14:04.773Z</time></trkpt><trkpt lat="45.5468983" lon="11.1073917"><ele>540.3333333333333</ele><time>2026-04-08T08:14:06.774Z</time></trkpt><trkpt lat="45.5468617" lon="11.10728"><ele>541.0</ele><time>2026-04-08T08:14:09.773Z</time></trkpt><trkpt lat="45.5468167" lon="11.107215"><ele>541.6666666666666</ele><time>2026-04-08T08:14:12.774Z</time></trkpt><trkpt lat="45.5467767" lon="11.1071083"><ele>542.3333333333334</ele><time>2026-04-08T08:14:21.774Z</time></trkpt><trkpt lat="45.5467083" lon="11.1070417"><ele>543.0</ele><time>2026-04-08T08:14:23.774Z</time></trkpt><trkpt lat="45.54663" lon="11.10699"><ele>543.0</ele><time>2026-04-08T08:14:25.773Z</time></trkpt><trkpt lat="45.5465433" lon="11.10695"><ele>543.0</ele><time>2026-04-08T08:14:27.774Z</time></trkpt><trkpt lat="45.5464817" lon="11.106885"><ele>543.0</ele><time>2026-04-08T08:14:29.774Z</time></trkpt><trkpt lat="45.5463933" lon="11.10684"><ele>543.0</ele><time>2026-04-08T08:14:31.774Z</time></trkpt><trkpt lat="45.5463033" lon="11.1067767"><ele>543.0</ele><time>2026-04-08T08:14:33.774Z</time></trkpt><trkpt lat="45.54622" lon="11.10672"><ele>540.0</ele><time>2026-04-08T08:14:35.773Z</time></trkpt><trkpt lat="45.546135" lon="11.1065983"><ele>537.0</ele><time>2026-04-08T08:14:37.773Z</time></trkpt><trkpt lat="45.5460667" lon="11.10646"><ele>534.0</ele><time>2026-04-08T08:14:39.774Z</time></trkpt><trkpt lat="45.54603" lon="11.1063733"><ele>531.0</ele><time>2026-04-08T08:14:40.773Z</time></trkpt><trkpt lat="45.545965" lon="11.1062867"><ele>528.0</ele><time>2026-04-08T08:14:42.774Z</time></trkpt><trkpt lat="45.5459167" lon="11.1062167"><ele>528.0</ele><time>2026-04-08T08:14:44.773Z</time></trkpt><trkpt lat="45.5458617" lon="11.106135"><ele>528.0</ele><time>2026-04-08T08:14:46.773Z</time></trkpt><trkpt lat="45.54583" lon="11.1060267"><ele>528.0</ele><time>2026-04-08T08:14:48.773Z</time></trkpt><trkpt lat="45.5457517" lon="11.1058917"><ele>528.0</ele><time>2026-04-08T08:14:50.774Z</time></trkpt><trkpt lat="45.545715" lon="11.10581"><ele>528.0</ele><time>2026-04-08T08:14:51.773Z</time></trkpt><trkpt lat="45.5456767" lon="11.1056983"><ele>528.0</ele><time>2026-04-08T08:14:52.774Z</time></trkpt><trkpt lat="45.5456433" lon="11.1056167"><ele>529.4</ele><time>2026-04-08T08:14:53.774Z</time></trkpt><trkpt lat="45.545595" lon="11.1055133"><ele>530.8</ele><time>2026-04-08T08:14:54.773Z</time></trkpt><trkpt lat="45.545565" lon="11.10538"><ele>532.2</ele><time>2026-04-08T08:14:56.773Z</time></trkpt><trkpt lat="45.5454883" lon="11.1052017"><ele>533.6</ele><time>2026-04-08T08:14:57.773Z</time></trkpt><trkpt lat="45.5454517" lon="11.105125"><ele>535.0</ele><time>2026-04-08T08:14:58.773Z</time></trkpt><trkpt lat="45.5453633" lon="11.1049767"><ele>530.6666666666667</ele><time>2026-04-08T08:15:00.774Z</time></trkpt><trkpt lat="45.5453183" lon="11.1049083"><ele>526.3333333333334</ele><time>2026-04-08T08:15:01.774Z</time></trkpt><trkpt lat="45.54531" lon="11.10477"><ele>522.0</ele><time>2026-04-08T08:15:03.774Z</time></trkpt><trkpt lat="45.5452917" lon="11.10468"><ele>517.6666666666666</ele><time>2026-04-08T08:15:04.774Z</time></trkpt><trkpt lat="45.54526" lon="11.1045633"><ele>513.3333333333333</ele><time>2026-04-08T08:15:06.774Z</time></trkpt><trkpt lat="45.545235" lon="11.1044667"><ele>509.0</ele><time>2026-04-08T08:15:08.773Z</time></trkpt><trkpt lat="45.54518" lon="11.1043517"><ele>509.0</ele><time>2026-04-08T08:15:10.773Z</time></trkpt><trkpt lat="45.54502" lon="11.1041417"><ele>509.0</ele><time>2026-04-08T08:15:12.773Z</time></trkpt><trkpt lat="45.54496" lon="11.10405"><ele>509.0</ele><time>2026-04-08T08:15:13.774Z</time></trkpt><trkpt lat="45.5449133" lon="11.1039617"><ele>509.0</ele><time>2026-04-08T08:15:15.773Z</time></trkpt><trkpt lat="45.5448917" lon="11.1038117"><ele>509.16666666666663</ele><time>2026-04-08T08:15:17.774Z</time></trkpt><trkpt lat="45.5448883" lon="11.1037133"><ele>509.3333333333333</ele><time>2026-04-08T08:15:18.773Z</time></trkpt><trkpt lat="45.54491" lon="11.103625"><ele>509.5</ele><time>2026-04-08T08:15:19.773Z</time></trkpt><trkpt lat="45.544935" lon="11.1035417"><ele>509.66666666666663</ele><time>2026-04-08T08:15:20.774Z</time></trkpt><trkpt lat="45.544955" lon="11.1033817"><ele>509.8333333333333</ele><time>2026-04-08T08:15:22.774Z</time></trkpt><trkpt lat="45.5449617" lon="11.1032333"><ele>510.0</ele><time>2026-04-08T08:15:24.773Z</time></trkpt><trkpt lat="45.544965" lon="11.1031417"><ele>506.75</ele><time>2026-04-08T08:15:26.774Z</time></trkpt><trkpt lat="45.54507" lon="11.102935"><ele>503.5</ele><time>2026-04-08T08:15:42.773Z</time></trkpt><trkpt lat="45.545135" lon="11.1028233"><ele>500.25</ele><time>2026-04-08T08:15:46.773Z</time></trkpt><trkpt lat="45.54521" lon="11.10271"><ele>497.0</ele><time>2026-04-08T08:15:47.774Z</time></trkpt><trkpt lat="45.5452717" lon="11.1026333"><ele>496.99999999999994</ele><time>2026-04-08T08:15:48.773Z</time></trkpt><trkpt lat="45.5453167" lon="11.1025633"><ele>497.0</ele><time>2026-04-08T08:15:49.774Z</time></trkpt><trkpt lat="45.5453667" lon="11.1024817"><ele>497.0</ele><time>2026-04-08T08:15:50.773Z</time></trkpt><trkpt lat="45.545435" lon="11.1023967"><ele>497.0</ele><time>2026-04-08T08:15:51.773Z</time></trkpt><trkpt lat="45.5454933" lon="11.1023117"><ele>496.99999999999994</ele><time>2026-04-08T08:15:52.774Z</time></trkpt><trkpt lat="45.5455483" lon="11.1022283"><ele>497.0</ele><time>2026-04-08T08:15:53.773Z</time></trkpt><trkpt lat="45.5455817" lon="11.1020883"><ele>498.99999999999994</ele><time>2026-04-08T08:15:54.773Z</time></trkpt><trkpt lat="45.545605" lon="11.101955"><ele>501.0</ele><time>2026-04-08T08:15:55.774Z</time></trkpt><trkpt lat="45.545645" lon="11.101865"><ele>503.0</ele><time>2026-04-08T08:15:56.774Z</time></trkpt><trkpt lat="45.5456967" lon="11.1017683"><ele>505.0</ele><time>2026-04-08T08:15:57.774Z</time></trkpt><trkpt lat="45.545755" lon="11.1016683"><ele>506.99999999999994</ele><time>2026-04-08T08:15:58.774Z</time></trkpt><trkpt lat="45.5458183" lon="11.10156"><ele>509.0</ele><time>2026-04-08T08:15:59.773Z</time></trkpt><trkpt lat="45.545885" lon="11.1014417"><ele>505.4</ele><time>2026-04-08T08:16:00.774Z</time></trkpt><trkpt lat="45.5459583" lon="11.101325"><ele>501.79999999999995</ele><time>2026-04-08T08:16:01.774Z</time></trkpt><trkpt lat="45.5460367" lon="11.1012067"><ele>498.20000000000005</ele><time>2026-04-08T08:16:02.773Z</time></trkpt><trkpt lat="45.5461167" lon="11.1011133"><ele>494.6</ele><time>2026-04-08T08:16:03.773Z</time></trkpt><trkpt lat="45.5461867" lon="11.101035"><ele>491.0</ele><time>2026-04-08T08:16:04.774Z</time></trkpt><trkpt lat="45.5462433" lon="11.1009533"><ele>491.0</ele><time>2026-04-08T08:16:05.773Z</time></trkpt><trkpt lat="45.5462883" lon="11.100885"><ele>491.0</ele><time>2026-04-08T08:16:06.774Z</time></trkpt><trkpt lat="45.54635" lon="11.1008033"><ele>491.0</ele><time>2026-04-08T08:16:08.774Z</time></trkpt><trkpt lat="45.54646" lon="11.100815"><ele>491.0</ele><time>2026-04-08T08:16:10.774Z</time></trkpt><trkpt lat="45.54658" lon="11.1008983"><ele>491.0</ele><time>2026-04-08T08:16:11.773Z</time></trkpt><trkpt lat="45.546685" lon="11.1008983"><ele>491.0</ele><time>2026-04-08T08:16:13.774Z</time></trkpt><trkpt lat="45.54683" lon="11.1009983"><ele>491.0</ele><time>2026-04-08T08:16:14.774Z</time></trkpt><trkpt lat="45.5469483" lon="11.1010767"><ele>491.0</ele><time>2026-04-08T08:16:15.774Z</time></trkpt><trkpt lat="45.5470633" lon="11.1011467"><ele>491.0</ele><time>2026-04-08T08:16:16.773Z</time></trkpt><trkpt lat="45.5471533" lon="11.101205"><ele>492.8333333333333</ele><time>2026-04-08T08:16:17.773Z</time></trkpt><trkpt lat="45.5472417" lon="11.1012667"><ele>494.66666666666663</ele><time>2026-04-08T08:16:18.774Z</time></trkpt><trkpt lat="45.5472967" lon="11.10132"><ele>496.5</ele><time>2026-04-08T08:16:19.773Z</time></trkpt><trkpt lat="45.5473733" lon="11.1014283"><ele>498.33333333333337</ele><time>2026-04-08T08:16:21.774Z</time></trkpt><trkpt lat="45.54746" lon="11.101495"><ele>500.1666666666667</ele><time>2026-04-08T08:16:23.774Z</time></trkpt><trkpt lat="45.54753" lon="11.1015083"><ele>502.0</ele><time>2026-04-08T08:16:25.773Z</time></trkpt><trkpt lat="45.5475683" lon="11.1014017"><ele>502.00000000000006</ele><time>2026-04-08T08:16:31.774Z</time></trkpt><trkpt lat="45.5476267" lon="11.1013267"><ele>502.0</ele><time>2026-04-08T08:16:33.773Z</time></trkpt><trkpt lat="45.54765" lon="11.1012233"><ele>502.0</ele><time>2026-04-08T08:16:34.774Z</time></trkpt><trkpt lat="45.54773" lon="11.1012067"><ele>502.0</ele><time>2026-04-08T08:16:35.774Z</time></trkpt><trkpt lat="45.547785" lon="11.1011"><ele>502.00000000000006</ele><time>2026-04-08T08:16:37.773Z</time></trkpt><trkpt lat="45.5478133" lon="11.100945"><ele>502.0</ele><time>2026-04-08T08:16:39.772Z</time></trkpt><trkpt lat="45.547825" lon="11.10082"><ele>504.33333333333337</ele><time>2026-04-08T08:16:41.773Z</time></trkpt><trkpt lat="45.54784" lon="11.100685"><ele>506.6666666666667</ele><time>2026-04-08T08:16:43.773Z</time></trkpt><trkpt lat="45.5478517" lon="11.10058"><ele>509.0</ele><time>2026-04-08T08:16:45.773Z</time></trkpt><trkpt lat="45.5478567" lon="11.10047"><ele>511.33333333333337</ele><time>2026-04-08T08:16:47.773Z</time></trkpt><trkpt lat="45.5478617" lon="11.1003317"><ele>513.6666666666666</ele><time>2026-04-08T08:16:51.773Z</time></trkpt><trkpt lat="45.5478517" lon="11.1002117"><ele>516.0</ele><time>2026-04-08T08:16:53.773Z</time></trkpt><trkpt lat="45.5479217" lon="11.10015"><ele>516.0</ele><time>2026-04-08T08:16:56.773Z</time></trkpt><trkpt lat="45.54797" lon="11.10004"><ele>516.0</ele><time>2026-04-08T08:16:58.773Z</time></trkpt><trkpt lat="45.5480583" lon="11.0998033"><ele>516.0</ele><time>2026-04-08T08:17:00.772Z</time></trkpt><trkpt lat="45.5481433" lon="11.0997"><ele>516.0</ele><time>2026-04-08T08:17:02.773Z</time></trkpt><trkpt lat="45.5482133" lon="11.0995783"><ele>512.2</ele><time>2026-04-08T08:17:04.772Z</time></trkpt><trkpt lat="45.54829" lon="11.0994483"><ele>508.40000000000003</ele><time>2026-04-08T08:17:06.772Z</time></trkpt><trkpt lat="45.5483267" lon="11.099345"><ele>504.6</ele><time>2026-04-08T08:17:07.772Z</time></trkpt><trkpt lat="45.54839" lon="11.099275"><ele>500.8</ele><time>2026-04-08T08:17:08.772Z</time></trkpt><trkpt lat="45.5484883" lon="11.0991633"><ele>497.0</ele><time>2026-04-08T08:17:10.773Z</time></trkpt><trkpt lat="45.5485483" lon="11.0991"><ele>496.49999999999994</ele><time>2026-04-08T08:17:11.773Z</time></trkpt><trkpt lat="45.54863" lon="11.0990767"><ele>496.0</ele><time>2026-04-08T08:17:12.773Z</time></trkpt><trkpt lat="45.5487167" lon="11.0990567"><ele>495.5</ele><time>2026-04-08T08:17:13.773Z</time></trkpt><trkpt lat="45.5488183" lon="11.0990667"><ele>495.0</ele><time>2026-04-08T08:17:14.773Z</time></trkpt><trkpt lat="45.5488917" lon="11.0990617"><ele>494.49999999999994</ele><time>2026-04-08T08:17:15.773Z</time></trkpt><trkpt lat="45.548985" lon="11.09908"><ele>494.0</ele><time>2026-04-08T08:17:16.772Z</time></trkpt><trkpt lat="45.5490633" lon="11.09909"><ele>497.7142857142857</ele><time>2026-04-08T08:17:17.773Z</time></trkpt><trkpt lat="45.5491333" lon="11.0991017"><ele>501.42857142857144</ele><time>2026-04-08T08:17:18.772Z</time></trkpt><trkpt lat="45.5492033" lon="11.0991067"><ele>505.14285714285717</ele><time>2026-04-08T08:17:19.772Z</time></trkpt><trkpt lat="45.549285" lon="11.0991"><ele>508.8571428571429</ele><time>2026-04-08T08:17:23.772Z</time></trkpt><trkpt lat="45.5493533" lon="11.0991233"><ele>512.5714285714286</ele><time>2026-04-08T08:17:25.772Z</time></trkpt><trkpt lat="45.5494233" lon="11.0991533"><ele>516.2857142857143</ele><time>2026-04-08T08:17:29.773Z</time></trkpt><trkpt lat="45.5494883" lon="11.0991567"><ele>520.0</ele><time>2026-04-08T08:17:32.772Z</time></trkpt><trkpt lat="45.5495467" lon="11.0990933"><ele>518.3333333333334</ele><time>2026-04-08T08:17:42.772Z</time></trkpt><trkpt lat="45.54962" lon="11.0990617"><ele>516.6666666666667</ele><time>2026-04-08T08:17:46.772Z</time></trkpt><trkpt lat="45.5496867" lon="11.0990833"><ele>515.0</ele><time>2026-04-08T08:17:49.772Z</time></trkpt><trkpt lat="45.5497467" lon="11.0991517"><ele>513.3333333333334</ele><time>2026-04-08T08:17:54.772Z</time></trkpt><trkpt lat="45.5498083" lon="11.0991917"><ele>511.6666666666667</ele><time>2026-04-08T08:17:58.772Z</time></trkpt><trkpt lat="45.54988" lon="11.09928"><ele>510.0</ele><time>2026-04-08T08:18:00.772Z</time></trkpt><trkpt lat="45.5499383" lon="11.09939"><ele>515.5</ele><time>2026-04-08T08:18:02.772Z</time></trkpt><trkpt lat="45.550015" lon="11.0994967"><ele>521.0</ele><time>2026-04-08T08:18:04.773Z</time></trkpt><trkpt lat="45.5500867" lon="11.0995767"><ele>526.5</ele><time>2026-04-08T08:18:06.773Z</time></trkpt><trkpt lat="45.5501517" lon="11.0996483"><ele>532.0</ele><time>2026-04-08T08:18:08.772Z</time></trkpt><trkpt lat="45.5503333" lon="11.09979"><ele>537.25</ele><time>2026-04-08T08:18:10.773Z</time></trkpt><trkpt lat="45.55047" lon="11.0998883"><ele>542.5</ele><time>2026-04-08T08:18:11.772Z</time></trkpt><trkpt lat="45.5506067" lon="11.0999883"><ele>547.75</ele><time>2026-04-08T08:18:12.772Z</time></trkpt><trkpt lat="45.5506817" lon="11.1000533"><ele>553.0</ele><time>2026-04-08T08:18:13.772Z</time></trkpt><trkpt lat="45.5507417" lon="11.1000817"><ele>555.0</ele><time>2026-04-08T08:18:14.773Z</time></trkpt><trkpt lat="45.5508133" lon="11.1001333"><ele>557.0</ele><time>2026-04-08T08:18:17.773Z</time></trkpt><trkpt lat="45.5506283" lon="11.1001083"><ele>559.0</ele><time>2026-04-08T08:18:29.773Z</time></trkpt><trkpt lat="45.5505417" lon="11.10013"><ele>561.0</ele><time>2026-04-08T08:18:30.773Z</time></trkpt><trkpt lat="45.5504767" lon="11.1000933"><ele>563.0</ele><time>2026-04-08T08:18:32.773Z</time></trkpt><trkpt lat="45.550435" lon="11.1000017"><ele>563.0</ele><time>2026-04-08T08:18:34.772Z</time></trkpt><trkpt lat="45.5505" lon="11.0999917"><ele>563.0</ele><time>2026-04-08T08:18:52.773Z</time></trkpt><trkpt lat="45.5506267" lon="11.0999933"><ele>563.0</ele><time>2026-04-08T08:22:16.771Z</time></trkpt><trkpt lat="45.5505983" lon="11.0998683"><ele>563.0</ele><time>2026-04-08T08:22:33.77Z</time></trkpt><trkpt lat="45.550545" lon="11.0999217"><ele>563.0</ele><time>2026-04-08T08:23:24.771Z</time></trkpt><trkpt lat="45.5504817" lon="11.0999817"><ele>563.0</ele><time>2026-04-08T08:23:35.77Z</time></trkpt><trkpt lat="45.5505833" lon="11.0998233"><ele>561.0</ele><time>2026-04-08T08:24:49.771Z</time></trkpt><trkpt lat="45.5506467" lon="11.0996983"><ele>559.0</ele><time>2026-04-08T08:24:50.771Z</time></trkpt><trkpt lat="45.550695" lon="11.099635"><ele>557.0</ele><time>2026-04-08T08:24:51.769Z</time></trkpt><trkpt lat="45.550775" lon="11.099535"><ele>555.0</ele><time>2026-04-08T08:24:53.77Z</time></trkpt><trkpt lat="45.55086" lon="11.09945"><ele>553.0</ele><time>2026-04-08T08:24:55.77Z</time></trkpt><trkpt lat="45.55096" lon="11.0993433"><ele>553.0</ele><time>2026-04-08T08:24:57.769Z</time></trkpt><trkpt lat="45.5510233" lon="11.09928"><ele>553.0</ele><time>2026-04-08T08:24:58.769Z</time></trkpt><trkpt lat="45.5510683" lon="11.0992067"><ele>553.0</ele><time>2026-04-08T08:24:59.77Z</time></trkpt><trkpt lat="45.5511133" lon="11.0991217"><ele>553.0</ele><time>2026-04-08T08:25:00.77Z</time></trkpt><trkpt lat="45.5511283" lon="11.0990217"><ele>553.0</ele><time>2026-04-08T08:25:01.77Z</time></trkpt><trkpt lat="45.551165" lon="11.0989417"><ele>553.0</ele><time>2026-04-08T08:25:02.769Z</time></trkpt><trkpt lat="45.5511867" lon="11.0988383"><ele>553.0</ele><time>2026-04-08T08:25:03.77Z</time></trkpt><trkpt lat="45.5512167" lon="11.0987483"><ele>556.0</ele><time>2026-04-08T08:25:04.769Z</time></trkpt><trkpt lat="45.5512667" lon="11.0986467"><ele>559.0</ele><time>2026-04-08T08:25:06.769Z</time></trkpt><trkpt lat="45.55133" lon="11.0985767"><ele>562.0</ele><time>2026-04-08T08:25:11.77Z</time></trkpt><trkpt lat="45.5514117" lon="11.0985267"><ele>565.0</ele><time>2026-04-08T08:25:14.77Z</time></trkpt><trkpt lat="45.551485" lon="11.09846"><ele>568.0</ele><time>2026-04-08T08:25:16.77Z</time></trkpt><trkpt lat="45.5515317" lon="11.098315"><ele>568.0</ele><time>2026-04-08T08:25:18.77Z</time></trkpt><trkpt lat="45.5516033" lon="11.0982633"><ele>568.0</ele><time>2026-04-08T08:25:21.77Z</time></trkpt><trkpt lat="45.5516733" lon="11.0982733"><ele>568.0</ele><time>2026-04-08T08:25:23.77Z</time></trkpt><trkpt lat="45.5517133" lon="11.09818"><ele>568.0</ele><time>2026-04-08T08:25:26.769Z</time></trkpt><trkpt lat="45.5516567" lon="11.0980133"><ele>568.0</ele><time>2026-04-08T08:25:36.769Z</time></trkpt><trkpt lat="45.55162" lon="11.0979133"><ele>568.0</ele><time>2026-04-08T08:25:38.77Z</time></trkpt><trkpt lat="45.5516717" lon="11.0978"><ele>565.1999999999999</ele><time>2026-04-08T08:25:41.769Z</time></trkpt><trkpt lat="45.5517383" lon="11.097815"><ele>562.4</ele><time>2026-04-08T08:25:42.769Z</time></trkpt><trkpt lat="45.5518333" lon="11.0977783"><ele>559.5999999999999</ele><time>2026-04-08T08:25:44.77Z</time></trkpt><trkpt lat="45.551955" lon="11.0977417"><ele>556.8</ele><time>2026-04-08T08:25:46.769Z</time></trkpt><trkpt lat="45.5520767" lon="11.0976517"><ele>554.0</ele><time>2026-04-08T08:25:48.77Z</time></trkpt><trkpt lat="45.552125" lon="11.09759"><ele>554.0</ele><time>2026-04-08T08:25:49.77Z</time></trkpt><trkpt lat="45.5521867" lon="11.0974767"><ele>554.0</ele><time>2026-04-08T08:25:51.769Z</time></trkpt><trkpt lat="45.552255" lon="11.097425"><ele>554.0</ele><time>2026-04-08T08:25:53.769Z</time></trkpt><trkpt lat="45.5523183" lon="11.097395"><ele>554.0</ele><time>2026-04-08T08:25:56.77Z</time></trkpt><trkpt lat="45.5522467" lon="11.097365"><ele>554.0</ele><time>2026-04-08T08:25:58.77Z</time></trkpt><trkpt lat="45.5522183" lon="11.0972517"><ele>554.0</ele><time>2026-04-08T08:26:03.769Z</time></trkpt><trkpt lat="45.55214" lon="11.0971683"><ele>549.2</ele><time>2026-04-08T08:26:06.77Z</time></trkpt><trkpt lat="45.5522217" lon="11.0972767"><ele>544.4</ele><time>2026-04-08T08:26:11.77Z</time></trkpt><trkpt lat="45.55233" lon="11.0973383"><ele>539.6</ele><time>2026-04-08T08:26:13.769Z</time></trkpt><trkpt lat="45.5523967" lon="11.0973683"><ele>534.8</ele><time>2026-04-08T08:26:14.77Z</time></trkpt><trkpt lat="45.552485" lon="11.097385"><ele>530.0</ele><time>2026-04-08T08:26:15.769Z</time></trkpt><trkpt lat="45.55255" lon="11.09741"><ele>533.8</ele><time>2026-04-08T08:26:16.77Z</time></trkpt><trkpt lat="45.5526333" lon="11.097465"><ele>537.6</ele><time>2026-04-08T08:26:17.769Z</time></trkpt><trkpt lat="45.5527233" lon="11.097525"><ele>541.4</ele><time>2026-04-08T08:26:18.769Z</time></trkpt><trkpt lat="45.5527917" lon="11.0975867"><ele>545.2</ele><time>2026-04-08T08:26:19.769Z</time></trkpt><trkpt lat="45.5528583" lon="11.09764"><ele>549.0</ele><time>2026-04-08T08:26:20.77Z</time></trkpt><trkpt lat="45.55296" lon="11.09775"><ele>549.0</ele><time>2026-04-08T08:26:22.77Z</time></trkpt><trkpt lat="45.5530217" lon="11.0978367"><ele>549.0</ele><time>2026-04-08T08:26:23.769Z</time></trkpt><trkpt lat="45.5530767" lon="11.0979083"><ele>549.0</ele><time>2026-04-08T08:26:24.77Z</time></trkpt><trkpt lat="45.5531333" lon="11.0979683"><ele>549.0</ele><time>2026-04-08T08:26:25.77Z</time></trkpt><trkpt lat="45.55319" lon="11.0980233"><ele>549.0</ele><time>2026-04-08T08:26:26.769Z</time></trkpt><trkpt lat="45.55329" lon="11.0981017"><ele>549.0</ele><time>2026-04-08T08:26:28.77Z</time></trkpt><trkpt lat="45.5533817" lon="11.0982417"><ele>552.5</ele><time>2026-04-08T08:26:30.769Z</time></trkpt><trkpt lat="45.5534" lon="11.098365"><ele>556.0</ele><time>2026-04-08T08:26:32.769Z</time></trkpt><trkpt lat="45.5533867" lon="11.0985033"><ele>559.5</ele><time>2026-04-08T08:26:34.77Z</time></trkpt><trkpt lat="45.55334" lon="11.0986083"><ele>563.0</ele><time>2026-04-08T08:26:36.77Z</time></trkpt><trkpt lat="45.5533233" lon="11.0987467"><ele>566.5</ele><time>2026-04-08T08:26:38.769Z</time></trkpt><trkpt lat="45.5533367" lon="11.098855"><ele>570.0</ele><time>2026-04-08T08:26:40.77Z</time></trkpt><trkpt lat="45.55337" lon="11.0989383"><ele>570.0</ele><time>2026-04-08T08:26:42.77Z</time></trkpt><trkpt lat="45.5534283" lon="11.09901"><ele>570.0</ele><time>2026-04-08T08:26:44.769Z</time></trkpt><trkpt lat="45.553525" lon="11.099035"><ele>570.0</ele><time>2026-04-08T08:26:45.769Z</time></trkpt><trkpt lat="45.553605" lon="11.0990717"><ele>570.0</ele><time>2026-04-08T08:26:46.77Z</time></trkpt><trkpt lat="45.55368" lon="11.0991167"><ele>570.0</ele><time>2026-04-08T08:26:47.77Z</time></trkpt><trkpt lat="45.55384" lon="11.0991433"><ele>570.25</ele><time>2026-04-08T08:26:48.77Z</time></trkpt><trkpt lat="45.553935" lon="11.0991817"><ele>570.5</ele><time>2026-04-08T08:26:49.77Z</time></trkpt><trkpt lat="45.5540833" lon="11.099265"><ele>570.75</ele><time>2026-04-08T08:26:50.769Z</time></trkpt><trkpt lat="45.5542033" lon="11.0993333"><ele>571.0</ele><time>2026-04-08T08:26:51.769Z</time></trkpt><trkpt lat="45.5543017" lon="11.099375"><ele>571.0</ele><time>2026-04-08T08:26:52.769Z</time></trkpt><trkpt lat="45.5543933" lon="11.099415"><ele>571.0</ele><time>2026-04-08T08:26:53.77Z</time></trkpt><trkpt lat="45.5544733" lon="11.09946"><ele>571.0</ele><time>2026-04-08T08:26:55.769Z</time></trkpt><trkpt lat="45.55454" lon="11.0994983"><ele>571.0</ele><time>2026-04-08T08:26:56.77Z</time></trkpt><trkpt lat="45.5546517" lon="11.09954"><ele>571.0</ele><time>2026-04-08T08:26:58.77Z</time></trkpt><trkpt lat="45.5547417" lon="11.0995967"><ele>571.75</ele><time>2026-04-08T08:27:00.77Z</time></trkpt><trkpt lat="45.5548483" lon="11.0996917"><ele>572.5</ele><time>2026-04-08T08:27:02.769Z</time></trkpt><trkpt lat="45.554915" lon="11.09975"><ele>573.25</ele><time>2026-04-08T08:27:03.77Z</time></trkpt><trkpt lat="45.555085" lon="11.0999233"><ele>574.0</ele><time>2026-04-08T08:27:04.769Z</time></trkpt><trkpt lat="45.5551433" lon="11.1000017"><ele>574.0</ele><time>2026-04-08T08:27:05.77Z</time></trkpt><trkpt lat="45.555205" lon="11.10007"><ele>574.0</ele><time>2026-04-08T08:27:06.77Z</time></trkpt><trkpt lat="45.5552233" lon="11.1001617"><ele>574.0</ele><time>2026-04-08T08:27:08.77Z</time></trkpt><trkpt lat="45.5552867" lon="11.1002767"><ele>574.0</ele><time>2026-04-08T08:27:10.769Z</time></trkpt><trkpt lat="45.5553517" lon="11.1002933"><ele>574.0</ele><time>2026-04-08T08:27:12.77Z</time></trkpt><trkpt lat="45.55546" lon="11.1003367"><ele>574.0</ele><time>2026-04-08T08:27:14.77Z</time></trkpt><trkpt lat="45.5555583" lon="11.1003317"><ele>573.2</ele><time>2026-04-08T08:27:16.769Z</time></trkpt><trkpt lat="45.5556467" lon="11.1003367"><ele>572.4</ele><time>2026-04-08T08:27:18.769Z</time></trkpt><trkpt lat="45.5557383" lon="11.100325"><ele>571.6</ele><time>2026-04-08T08:27:20.769Z</time></trkpt><trkpt lat="45.55562" lon="11.100165"><ele>570.8</ele><time>2026-04-08T08:27:24.769Z</time></trkpt><trkpt lat="45.55555" lon="11.10013"><ele>570.0</ele><time>2026-04-08T08:27:29.77Z</time></trkpt><trkpt lat="45.55549" lon="11.100215"><ele>570.0</ele><time>2026-04-08T08:27:35.768Z</time></trkpt><trkpt lat="45.5554433" lon="11.1002867"><ele>570.0</ele><time>2026-04-08T08:27:37.768Z</time></trkpt><trkpt lat="45.5554133" lon="11.1003867"><ele>570.0</ele><time>2026-04-08T08:27:40.768Z</time></trkpt><trkpt lat="45.5554817" lon="11.1003117"><ele>570.0</ele><time>2026-04-08T08:27:50.769Z</time></trkpt><trkpt lat="45.555545" lon="11.10012"><ele>570.0</ele><time>2026-04-08T08:28:04.769Z</time></trkpt><trkpt lat="45.5555933" lon="11.1000617"><ele>570.0</ele><time>2026-04-08T08:28:11.769Z</time></trkpt><trkpt lat="45.5555767" lon="11.10018"><ele>570.0</ele><time>2026-04-08T08:28:18.768Z</time></trkpt><trkpt lat="45.555505" lon="11.10024"><ele>570.0</ele><time>2026-04-08T08:28:21.769Z</time></trkpt><trkpt lat="45.5554617" lon="11.100315"><ele>570.0</ele><time>2026-04-08T08:28:24.769Z</time></trkpt><trkpt lat="45.555385" lon="11.1002733"><ele>570.0</ele><time>2026-04-08T08:28:28.768Z</time></trkpt><trkpt lat="45.5553633" lon="11.1001533"><ele>570.0</ele><time>2026-04-08T08:28:32.769Z</time></trkpt><trkpt lat="45.5553683" lon="11.100055"><ele>570.0</ele><time>2026-04-08T08:28:34.768Z</time></trkpt><trkpt lat="45.5555117" lon="11.10003"><ele>570.0</ele><time>2026-04-08T08:28:44.769Z</time></trkpt><trkpt lat="45.5556567" lon="11.10006"><ele>570.0</ele><time>2026-04-08T08:28:47.769Z</time></trkpt><trkpt lat="45.5557417" lon="11.1001317"><ele>570.0</ele><time>2026-04-08T08:39:41.764Z</time></trkpt><trkpt lat="45.5557017" lon="11.1000483"><ele>570.0</ele><time>2026-04-08T08:39:56.764Z</time></trkpt><trkpt lat="45.5556983" lon="11.0999333"><ele>570.0</ele><time>2026-04-08T08:40:00.764Z</time></trkpt><trkpt lat="45.55566" lon="11.0998467"><ele>569.3333333333334</ele><time>2026-04-08T08:40:03.765Z</time></trkpt><trkpt lat="45.555585" lon="11.0997533"><ele>568.6666666666666</ele><time>2026-04-08T08:40:06.764Z</time></trkpt><trkpt lat="45.5555333" lon="11.099685"><ele>568.0</ele><time>2026-04-08T08:40:07.765Z</time></trkpt><trkpt lat="45.55547" lon="11.0995767"><ele>567.3333333333333</ele><time>2026-04-08T08:40:08.764Z</time></trkpt><trkpt lat="45.5554317" lon="11.09946"><ele>566.6666666666666</ele><time>2026-04-08T08:40:09.765Z</time></trkpt><trkpt lat="45.5553917" lon="11.0993583"><ele>566.0</ele><time>2026-04-08T08:40:10.764Z</time></trkpt><trkpt lat="45.5553667" lon="11.0992633"><ele>566.0</ele><time>2026-04-08T08:40:11.764Z</time></trkpt><trkpt lat="45.555355" lon="11.0991683"><ele>566.0</ele><time>2026-04-08T08:40:12.764Z</time></trkpt><trkpt lat="45.5553167" lon="11.09899"><ele>566.0</ele><time>2026-04-08T08:40:14.764Z</time></trkpt><trkpt lat="45.5552217" lon="11.0989683"><ele>566.0</ele><time>2026-04-08T08:40:24.764Z</time></trkpt><trkpt lat="45.5551833" lon="11.0988817"><ele>566.0</ele><time>2026-04-08T08:40:28.764Z</time></trkpt><trkpt lat="45.55514" lon="11.0988033"><ele>566.0</ele><time>2026-04-08T08:40:33.764Z</time></trkpt><trkpt lat="45.5551017" lon="11.09873"><ele>565.8</ele><time>2026-04-08T08:40:37.763Z</time></trkpt><trkpt lat="45.5550633" lon="11.0986233"><ele>565.6</ele><time>2026-04-08T08:40:39.763Z</time></trkpt><trkpt lat="45.5550217" lon="11.0985333"><ele>565.4</ele><time>2026-04-08T08:40:42.763Z</time></trkpt><trkpt lat="45.5549717" lon="11.0984733"><ele>565.2</ele><time>2026-04-08T08:40:46.764Z</time></trkpt><trkpt lat="45.5548767" lon="11.098475"><ele>565.0</ele><time>2026-04-08T08:41:04.763Z</time></trkpt><trkpt lat="45.554775" lon="11.0983083"><ele>565.0</ele><time>2026-04-08T08:41:33.763Z</time></trkpt><trkpt lat="45.5548133" lon="11.0984633"><ele>565.0</ele><time>2026-04-08T08:42:01.764Z</time></trkpt><trkpt lat="45.5548533" lon="11.0986233"><ele>565.0</ele><time>2026-04-08T08:42:20.764Z</time></trkpt><trkpt lat="45.554755" lon="11.0985833"><ele>565.0</ele><time>2026-04-08T08:43:48.763Z</time></trkpt><trkpt lat="45.5546867" lon="11.0984283"><ele>565.0</ele><time>2026-04-08T08:43:50.763Z</time></trkpt><trkpt lat="45.5546167" lon="11.0983367"><ele>565.0</ele><time>2026-04-08T08:43:52.763Z</time></trkpt><trkpt lat="45.5545683" lon="11.098245"><ele>565.0</ele><time>2026-04-08T08:43:54.763Z</time></trkpt><trkpt lat="45.5545183" lon="11.0981517"><ele>565.0</ele><time>2026-04-08T08:43:56.763Z</time></trkpt><trkpt lat="45.5544483" lon="11.0980667"><ele>565.0</ele><time>2026-04-08T08:43:59.762Z</time></trkpt><trkpt lat="45.55439" lon="11.0979917"><ele>565.0</ele><time>2026-04-08T08:44:02.762Z</time></trkpt><trkpt lat="45.554335" lon="11.097945"><ele>561.5714285714286</ele><time>2026-04-08T08:44:05.763Z</time></trkpt><trkpt lat="45.5542567" lon="11.0979033"><ele>558.1428571428571</ele><time>2026-04-08T08:44:23.763Z</time></trkpt><trkpt lat="45.55425" lon="11.0978117"><ele>554.7142857142858</ele><time>2026-04-08T08:45:10.763Z</time></trkpt><trkpt lat="45.554245" lon="11.0977117"><ele>551.2857142857142</ele><time>2026-04-08T08:45:12.763Z</time></trkpt><trkpt lat="45.55421" lon="11.0976033"><ele>547.8571428571429</ele><time>2026-04-08T08:45:14.762Z</time></trkpt><trkpt lat="45.5541783" lon="11.0975067"><ele>544.4285714285714</ele><time>2026-04-08T08:45:17.763Z</time></trkpt><trkpt lat="45.554135" lon="11.097435"><ele>541.0</ele><time>2026-04-08T08:45:23.762Z</time></trkpt><trkpt lat="45.5540767" lon="11.0973667"><ele>540.8333333333334</ele><time>2026-04-08T08:45:26.762Z</time></trkpt><trkpt lat="45.55403" lon="11.0972733"><ele>540.6666666666667</ele><time>2026-04-08T08:45:29.763Z</time></trkpt><trkpt lat="45.5540317" lon="11.0971517"><ele>540.5</ele><time>2026-04-08T08:45:32.763Z</time></trkpt><trkpt lat="45.554025" lon="11.0970517"><ele>540.3333333333334</ele><time>2026-04-08T08:45:34.762Z</time></trkpt><trkpt lat="45.5539783" lon="11.0969567"><ele>540.1666666666666</ele><time>2026-04-08T08:45:36.762Z</time></trkpt><trkpt lat="45.5538983" lon="11.0968883"><ele>540.0</ele><time>2026-04-08T08:45:39.762Z</time></trkpt><trkpt lat="45.5538417" lon="11.09684"><ele>540.0</ele><time>2026-04-08T08:45:41.761Z</time></trkpt><trkpt lat="45.5537967" lon="11.0967717"><ele>540.0</ele><time>2026-04-08T08:45:43.761Z</time></trkpt><trkpt lat="45.55376" lon="11.0966733"><ele>540.0</ele><time>2026-04-08T08:45:46.762Z</time></trkpt><trkpt lat="45.5537283" lon="11.0965917"><ele>540.0</ele><time>2026-04-08T08:45:49.761Z</time></trkpt><trkpt lat="45.5536817" lon="11.0965233"><ele>540.0</ele><time>2026-04-08T08:45:52.761Z</time></trkpt><trkpt lat="45.5536217" lon="11.0964583"><ele>540.0</ele><time>2026-04-08T08:45:55.762Z</time></trkpt><trkpt lat="45.553555" lon="11.0963617"><ele>540.0</ele><time>2026-04-08T08:45:58.762Z</time></trkpt><trkpt lat="45.553515" lon="11.0962717"><ele>535.3333333333334</ele><time>2026-04-08T08:46:00.762Z</time></trkpt><trkpt lat="45.5534567" lon="11.0961233"><ele>530.6666666666666</ele><time>2026-04-08T08:46:02.762Z</time></trkpt><trkpt lat="45.5534217" lon="11.0960417"><ele>526.0</ele><time>2026-04-08T08:46:04.761Z</time></trkpt><trkpt lat="45.55337" lon="11.0959317"><ele>521.3333333333333</ele><time>2026-04-08T08:46:07.762Z</time></trkpt><trkpt lat="45.5533267" lon="11.0958417"><ele>516.6666666666666</ele><time>2026-04-08T08:46:09.762Z</time></trkpt><trkpt lat="45.5532633" lon="11.0957633"><ele>512.0</ele><time>2026-04-08T08:46:12.762Z</time></trkpt><trkpt lat="45.5532067" lon="11.095705"><ele>510.3333333333333</ele><time>2026-04-08T08:46:13.762Z</time></trkpt><trkpt lat="45.553145" lon="11.0956367"><ele>508.66666666666663</ele><time>2026-04-08T08:46:14.762Z</time></trkpt><trkpt lat="45.5530733" lon="11.09557"><ele>507.0</ele><time>2026-04-08T08:46:16.761Z</time></trkpt><trkpt lat="45.55302" lon="11.0954717"><ele>505.33333333333337</ele><time>2026-04-08T08:46:18.762Z</time></trkpt><trkpt lat="45.552995" lon="11.0953817"><ele>503.6666666666667</ele><time>2026-04-08T08:46:20.761Z</time></trkpt><trkpt lat="45.5529533" lon="11.0952833"><ele>502.0</ele><time>2026-04-08T08:46:23.762Z</time></trkpt><trkpt lat="45.5529917" lon="11.09521"><ele>502.00000000000006</ele><time>2026-04-08T08:46:28.761Z</time></trkpt><trkpt lat="45.5530183" lon="11.0951167"><ele>502.0</ele><time>2026-04-08T08:46:31.762Z</time></trkpt><trkpt lat="45.5530133" lon="11.0950167"><ele>502.0</ele><time>2026-04-08T08:46:36.762Z</time></trkpt><trkpt lat="45.5530333" lon="11.0949283"><ele>502.0</ele><time>2026-04-08T08:46:39.761Z</time></trkpt><trkpt lat="45.55299" lon="11.0947717"><ele>502.00000000000006</ele><time>2026-04-08T08:47:18.761Z</time></trkpt><trkpt lat="45.5529083" lon="11.0947617"><ele>502.0</ele><time>2026-04-08T08:47:29.761Z</time></trkpt><trkpt lat="45.553015" lon="11.094745"><ele>502.6666666666667</ele><time>2026-04-08T08:47:44.761Z</time></trkpt><trkpt lat="45.55308" lon="11.0947483"><ele>503.33333333333337</ele><time>2026-04-08T08:47:46.762Z</time></trkpt><trkpt lat="45.553145" lon="11.0948"><ele>504.0</ele><time>2026-04-08T08:47:49.762Z</time></trkpt><trkpt lat="45.5532767" lon="11.0947467"><ele>504.66666666666663</ele><time>2026-04-08T08:48:08.761Z</time></trkpt><trkpt lat="45.5533217" lon="11.09465"><ele>505.3333333333333</ele><time>2026-04-08T08:48:17.761Z</time></trkpt><trkpt lat="45.5533733" lon="11.09459"><ele>506.0</ele><time>2026-04-08T08:48:19.761Z</time></trkpt><trkpt lat="45.5534433" lon="11.0945433"><ele>505.99999999999994</ele><time>2026-04-08T08:48:22.761Z</time></trkpt><trkpt lat="45.5535217" lon="11.09457"><ele>506.0</ele><time>2026-04-08T08:48:27.761Z</time></trkpt><trkpt lat="45.55349" lon="11.09444"><ele>506.0</ele><time>2026-04-08T08:48:36.761Z</time></trkpt><trkpt lat="45.5535317" lon="11.09434"><ele>506.0</ele><time>2026-04-08T08:48:38.76Z</time></trkpt><trkpt lat="45.553585" lon="11.0941767"><ele>505.99999999999994</ele><time>2026-04-08T08:49:02.761Z</time></trkpt><trkpt lat="45.5536317" lon="11.094115"><ele>506.0</ele><time>2026-04-08T08:49:04.761Z</time></trkpt><trkpt lat="45.5537083" lon="11.0940167"><ele>511.99999999999994</ele><time>2026-04-08T08:49:06.761Z</time></trkpt><trkpt lat="45.5538017" lon="11.09391"><ele>518.0</ele><time>2026-04-08T08:49:08.761Z</time></trkpt><trkpt lat="45.553865" lon="11.093855"><ele>524.0</ele><time>2026-04-08T08:49:09.76Z</time></trkpt><trkpt lat="45.5539383" lon="11.0938033"><ele>530.0</ele><time>2026-04-08T08:49:10.761Z</time></trkpt><trkpt lat="45.5540117" lon="11.09377"><ele>536.0</ele><time>2026-04-08T08:49:11.761Z</time></trkpt><trkpt lat="45.5540917" lon="11.0937183"><ele>542.0</ele><time>2026-04-08T08:49:12.76Z</time></trkpt><trkpt lat="45.5542033" lon="11.0936367"><ele>542.0</ele><time>2026-04-08T08:49:13.76Z</time></trkpt><trkpt lat="45.5542833" lon="11.093565"><ele>542.0</ele><time>2026-04-08T08:49:14.76Z</time></trkpt><trkpt lat="45.5543667" lon="11.09349"><ele>542.0</ele><time>2026-04-08T08:49:16.761Z</time></trkpt><trkpt lat="45.5544317" lon="11.0935233"><ele>542.0</ele><time>2026-04-08T08:49:18.76Z</time></trkpt><trkpt lat="45.55448" lon="11.0935967"><ele>542.0</ele><time>2026-04-08T08:49:32.761Z</time></trkpt><trkpt lat="45.554585" lon="11.0935233"><ele>542.0</ele><time>2026-04-08T08:49:34.76Z</time></trkpt><trkpt lat="45.55465" lon="11.093475"><ele>541.5</ele><time>2026-04-08T08:49:35.761Z</time></trkpt><trkpt lat="45.5547167" lon="11.093435"><ele>541.0</ele><time>2026-04-08T08:49:36.761Z</time></trkpt><trkpt lat="45.55479" lon="11.0933817"><ele>540.5</ele><time>2026-04-08T08:49:37.761Z</time></trkpt><trkpt lat="45.5548817" lon="11.0933133"><ele>540.0</ele><time>2026-04-08T08:49:38.76Z</time></trkpt><trkpt lat="45.5549583" lon="11.09326"><ele>539.5</ele><time>2026-04-08T08:49:39.76Z</time></trkpt><trkpt lat="45.5550233" lon="11.0932117"><ele>539.0</ele><time>2026-04-08T08:49:40.76Z</time></trkpt><trkpt lat="45.5550883" lon="11.09317"><ele>543.0</ele><time>2026-04-08T08:49:41.761Z</time></trkpt><trkpt lat="45.555155" lon="11.0931333"><ele>547.0</ele><time>2026-04-08T08:49:42.761Z</time></trkpt><trkpt lat="45.5552267" lon="11.0931533"><ele>551.0</ele><time>2026-04-08T08:49:45.761Z</time></trkpt><trkpt lat="45.5552267" lon="11.0930517"><ele>555.0</ele><time>2026-04-08T08:49:57.761Z</time></trkpt><trkpt lat="45.5551767" lon="11.09298"><ele>559.0</ele><time>2026-04-08T08:50:02.761Z</time></trkpt><trkpt lat="45.5550917" lon="11.092965"><ele>563.0</ele><time>2026-04-08T08:50:06.76Z</time></trkpt><trkpt lat="45.555015" lon="11.0929617"><ele>567.0</ele><time>2026-04-08T08:50:09.76Z</time></trkpt><trkpt lat="45.5549467" lon="11.0929417"><ele>567.0</ele><time>2026-04-08T08:50:11.761Z</time></trkpt><trkpt lat="45.5549" lon="11.0928783"><ele>567.0</ele><time>2026-04-08T08:50:14.761Z</time></trkpt><trkpt lat="45.5549833" lon="11.092815"><ele>567.0</ele><time>2026-04-08T08:50:18.76Z</time></trkpt><trkpt lat="45.555065" lon="11.092765"><ele>567.0</ele><time>2026-04-08T08:50:20.76Z</time></trkpt><trkpt lat="45.5550417" lon="11.0926417"><ele>567.0</ele><time>2026-04-08T08:50:27.76Z</time></trkpt><trkpt lat="45.5549983" lon="11.0925733"><ele>567.0</ele><time>2026-04-08T08:50:29.76Z</time></trkpt><trkpt lat="45.5549817" lon="11.092465"><ele>569.5714285714286</ele><time>2026-04-08T08:50:33.761Z</time></trkpt><trkpt lat="45.5549833" lon="11.0923667"><ele>572.1428571428571</ele><time>2026-04-08T08:50:35.761Z</time></trkpt><trkpt lat="45.5549933" lon="11.0922733"><ele>574.7142857142858</ele><time>2026-04-08T08:50:38.761Z</time></trkpt><trkpt lat="45.554995" lon="11.0921683"><ele>577.2857142857142</ele><time>2026-04-08T08:50:41.76Z</time></trkpt><trkpt lat="45.5549967" lon="11.0920783"><ele>579.8571428571429</ele><time>2026-04-08T08:50:43.759Z</time></trkpt><trkpt lat="45.5549783" lon="11.0919633"><ele>582.4285714285714</ele><time>2026-04-08T08:50:46.759Z</time></trkpt><trkpt lat="45.55492" lon="11.091865"><ele>585.0</ele><time>2026-04-08T08:51:37.76Z</time></trkpt><trkpt lat="45.5548617" lon="11.091915"><ele>585.0</ele><time>2026-04-08T08:51:39.76Z</time></trkpt><trkpt lat="45.554795" lon="11.0919267"><ele>585.0</ele><time>2026-04-08T08:51:42.759Z</time></trkpt><trkpt lat="45.55473" lon="11.0919667"><ele>585.0</ele><time>2026-04-08T08:51:45.76Z</time></trkpt><trkpt lat="45.554665" lon="11.09195"><ele>585.0</ele><time>2026-04-08T08:51:47.76Z</time></trkpt><trkpt lat="45.5546" lon="11.0918733"><ele>585.0</ele><time>2026-04-08T08:51:51.759Z</time></trkpt><trkpt lat="45.5545067" lon="11.0918967"><ele>585.0</ele><time>2026-04-08T08:52:01.76Z</time></trkpt><trkpt lat="45.55446" lon="11.09183"><ele>585.0</ele><time>2026-04-08T08:52:03.759Z</time></trkpt><trkpt lat="45.5543917" lon="11.09174"><ele>585.5</ele><time>2026-04-08T08:52:05.76Z</time></trkpt><trkpt lat="45.554425" lon="11.0916533"><ele>586.0</ele><time>2026-04-08T08:52:08.759Z</time></trkpt><trkpt lat="45.55452" lon="11.0915417"><ele>586.5</ele><time>2026-04-08T08:52:10.759Z</time></trkpt><trkpt lat="45.554575" lon="11.0914633"><ele>587.0</ele><time>2026-04-08T08:52:11.76Z</time></trkpt><trkpt lat="45.5546183" lon="11.0913567"><ele>587.5</ele><time>2026-04-08T08:52:12.76Z</time></trkpt><trkpt lat="45.5546533" lon="11.0912333"><ele>588.0</ele><time>2026-04-08T08:52:13.759Z</time></trkpt><trkpt lat="45.5546617" lon="11.091115"><ele>589.0</ele><time>2026-04-08T08:52:14.76Z</time></trkpt><trkpt lat="45.554685" lon="11.0910117"><ele>590.0</ele><time>2026-04-08T08:52:15.759Z</time></trkpt><trkpt lat="45.5546917" lon="11.0909167"><ele>591.0</ele><time>2026-04-08T08:52:16.759Z</time></trkpt><trkpt lat="45.5547383" lon="11.090795"><ele>592.0</ele><time>2026-04-08T08:52:18.759Z</time></trkpt><trkpt lat="45.5548217" lon="11.0907367"><ele>593.0</ele><time>2026-04-08T08:52:20.76Z</time></trkpt><trkpt lat="45.5548917" lon="11.0906283"><ele>594.0</ele><time>2026-04-08T08:52:22.759Z</time></trkpt><trkpt lat="45.5549433" lon="11.0905683"><ele>595.8</ele><time>2026-04-08T08:52:23.759Z</time></trkpt><trkpt lat="45.55505" lon="11.09049"><ele>597.5999999999999</ele><time>2026-04-08T08:52:25.759Z</time></trkpt><trkpt lat="45.5551583" lon="11.090455"><ele>599.4</ele><time>2026-04-08T08:52:27.76Z</time></trkpt><trkpt lat="45.55523" lon="11.09051"><ele>601.1999999999999</ele><time>2026-04-08T08:52:29.759Z</time></trkpt><trkpt lat="45.555265" lon="11.0906267"><ele>603.0</ele><time>2026-04-08T08:52:31.76Z</time></trkpt><trkpt lat="45.5553017" lon="11.0907467"><ele>602.5</ele><time>2026-04-08T08:52:33.76Z</time></trkpt><trkpt lat="45.5553233" lon="11.090835"><ele>602.0</ele><time>2026-04-08T08:52:35.76Z</time></trkpt><trkpt lat="45.5553517" lon="11.0909367"><ele>601.5</ele><time>2026-04-08T08:52:37.759Z</time></trkpt><trkpt lat="45.555355" lon="11.0910917"><ele>601.0</ele><time>2026-04-08T08:52:39.76Z</time></trkpt><trkpt lat="45.5553933" lon="11.0912517"><ele>600.5</ele><time>2026-04-08T08:52:41.759Z</time></trkpt><trkpt lat="45.5554117" lon="11.0913567"><ele>600.0</ele><time>2026-04-08T08:52:42.759Z</time></trkpt><trkpt lat="45.5554383" lon="11.09153"><ele>598.4</ele><time>2026-04-08T08:52:44.76Z</time></trkpt><trkpt lat="45.5555017" lon="11.0916533"><ele>596.8</ele><time>2026-04-08T08:52:45.759Z</time></trkpt><trkpt lat="45.5555483" lon="11.0917667"><ele>595.2</ele><time>2026-04-08T08:52:46.76Z</time></trkpt><trkpt lat="45.5555983" lon="11.0918717"><ele>593.6</ele><time>2026-04-08T08:52:47.76Z</time></trkpt><trkpt lat="45.5556433" lon="11.091975"><ele>592.0</ele><time>2026-04-08T08:52:48.76Z</time></trkpt><trkpt lat="45.5556967" lon="11.0920667"><ele>592.0</ele><time>2026-04-08T08:52:49.76Z</time></trkpt><trkpt lat="45.5557567" lon="11.0921333"><ele>592.0</ele><time>2026-04-08T08:52:50.759Z</time></trkpt><trkpt lat="45.5557933" lon="11.0922083"><ele>592.0</ele><time>2026-04-08T08:52:51.76Z</time></trkpt><trkpt lat="45.55587" lon="11.0923517"><ele>592.0</ele><time>2026-04-08T08:52:53.759Z</time></trkpt><trkpt lat="45.5559633" lon="11.0924767"><ele>592.0</ele><time>2026-04-08T08:52:55.76Z</time></trkpt><trkpt lat="45.5560567" lon="11.0925817"><ele>588.5</ele><time>2026-04-08T08:52:57.759Z</time></trkpt><trkpt lat="45.556125" lon="11.0926167"><ele>585.0</ele><time>2026-04-08T08:52:58.76Z</time></trkpt><trkpt lat="45.5561883" lon="11.0926983"><ele>581.5</ele><time>2026-04-08T08:52:59.759Z</time></trkpt><trkpt lat="45.556255" lon="11.09275"><ele>578.0</ele><time>2026-04-08T08:53:00.76Z</time></trkpt><trkpt lat="45.5563433" lon="11.092765"><ele>574.5</ele><time>2026-04-08T08:53:01.759Z</time></trkpt><trkpt lat="45.556425" lon="11.092765"><ele>571.0</ele><time>2026-04-08T08:53:02.759Z</time></trkpt><trkpt lat="45.5565033" lon="11.09278"><ele>571.0</ele><time>2026-04-08T08:53:03.76Z</time></trkpt><trkpt lat="45.556575" lon="11.0928"><ele>571.0</ele><time>2026-04-08T08:53:04.759Z</time></trkpt><trkpt lat="45.556645" lon="11.0928133"><ele>571.0</ele><time>2026-04-08T08:53:05.759Z</time></trkpt><trkpt lat="45.5567633" lon="11.0928317"><ele>571.0</ele><time>2026-04-08T08:53:07.76Z</time></trkpt><trkpt lat="45.5568267" lon="11.09285"><ele>571.0</ele><time>2026-04-08T08:53:08.76Z</time></trkpt><trkpt lat="45.55696" lon="11.092875"><ele>570.5</ele><time>2026-04-08T08:53:10.76Z</time></trkpt><trkpt lat="45.5570417" lon="11.0928833"><ele>570.0</ele><time>2026-04-08T08:53:11.759Z</time></trkpt><trkpt lat="45.5571217" lon="11.09287"><ele>569.5</ele><time>2026-04-08T08:53:12.759Z</time></trkpt><trkpt lat="45.5571983" lon="11.0928767"><ele>569.0</ele><time>2026-04-08T08:53:13.76Z</time></trkpt><trkpt lat="45.5572983" lon="11.09289"><ele>568.5</ele><time>2026-04-08T08:53:15.76Z</time></trkpt><trkpt lat="45.5572133" lon="11.0929733"><ele>568.0</ele><time>2026-04-08T08:53:23.758Z</time></trkpt><trkpt lat="45.5572867" lon="11.092965"><ele>568.0</ele><time>2026-04-08T08:53:37.758Z</time></trkpt><trkpt lat="45.5574167" lon="11.0929217"><ele>568.0</ele><time>2026-04-08T08:53:39.758Z</time></trkpt><trkpt lat="45.55748" lon="11.092915"><ele>568.0</ele><time>2026-04-08T08:53:40.759Z</time></trkpt><trkpt lat="45.557545" lon="11.09294"><ele>568.0</ele><time>2026-04-08T08:53:41.758Z</time></trkpt><trkpt lat="45.557615" lon="11.0929683"><ele>568.0</ele><time>2026-04-08T08:53:42.758Z</time></trkpt><trkpt lat="45.5577183" lon="11.0930033"><ele>568.0</ele><time>2026-04-08T08:53:44.759Z</time></trkpt><trkpt lat="45.55783" lon="11.0930367"><ele>566.6</ele><time>2026-04-08T08:53:46.758Z</time></trkpt><trkpt lat="45.5579183" lon="11.0930483"><ele>565.1999999999999</ele><time>2026-04-08T08:53:48.758Z</time></trkpt><trkpt lat="45.5580433" lon="11.0930317"><ele>563.8</ele><time>2026-04-08T08:53:50.758Z</time></trkpt><trkpt lat="45.5581183" lon="11.0929983"><ele>562.4</ele><time>2026-04-08T08:53:51.758Z</time></trkpt><trkpt lat="45.5581867" lon="11.092965"><ele>561.0</ele><time>2026-04-08T08:53:52.759Z</time></trkpt><trkpt lat="45.5582767" lon="11.0929383"><ele>561.0</ele><time>2026-04-08T08:53:53.759Z</time></trkpt><trkpt lat="45.5583533" lon="11.0929233"><ele>561.0</ele><time>2026-04-08T08:53:54.759Z</time></trkpt><trkpt lat="45.558455" lon="11.0928167"><ele>561.0</ele><time>2026-04-08T08:53:56.758Z</time></trkpt><trkpt lat="45.558505" lon="11.09275"><ele>561.0</ele><time>2026-04-08T08:53:57.758Z</time></trkpt><trkpt lat="45.5585533" lon="11.0926383"><ele>561.0</ele><time>2026-04-08T08:53:58.758Z</time></trkpt><trkpt lat="45.55859" lon="11.0925283"><ele>561.0</ele><time>2026-04-08T08:53:59.758Z</time></trkpt><trkpt lat="45.558625" lon="11.0924383"><ele>564.2</ele><time>2026-04-08T08:54:00.759Z</time></trkpt><trkpt lat="45.5586667" lon="11.0922833"><ele>567.4000000000001</ele><time>2026-04-08T08:54:02.759Z</time></trkpt><trkpt lat="45.5587233" lon="11.092175"><ele>570.6</ele><time>2026-04-08T08:54:04.759Z</time></trkpt><trkpt lat="45.5588267" lon="11.0921633"><ele>573.8000000000001</ele><time>2026-04-08T08:54:05.758Z</time></trkpt><trkpt lat="45.5589017" lon="11.09217"><ele>577.0</ele><time>2026-04-08T08:54:07.759Z</time></trkpt><trkpt lat="45.558945" lon="11.0922367"><ele>577.0</ele><time>2026-04-08T08:54:09.758Z</time></trkpt><trkpt lat="45.559005" lon="11.0923733"><ele>577.0</ele><time>2026-04-08T08:54:11.759Z</time></trkpt><trkpt lat="45.55906" lon="11.0924833"><ele>577.0</ele><time>2026-04-08T08:54:13.759Z</time></trkpt><trkpt lat="45.5591283" lon="11.092595"><ele>577.0</ele><time>2026-04-08T08:54:15.759Z</time></trkpt><trkpt lat="45.559205" lon="11.0927067"><ele>577.0</ele><time>2026-04-08T08:54:17.759Z</time></trkpt><trkpt lat="45.5592883" lon="11.092785"><ele>576.8000000000001</ele><time>2026-04-08T08:54:19.759Z</time></trkpt><trkpt lat="45.5593867" lon="11.092825"><ele>576.6</ele><time>2026-04-08T08:54:21.759Z</time></trkpt><trkpt lat="45.5594383" lon="11.0929217"><ele>576.4000000000001</ele><time>2026-04-08T08:54:40.758Z</time></trkpt><trkpt lat="45.559515" lon="11.0929833"><ele>576.2</ele><time>2026-04-08T08:54:42.759Z</time></trkpt><trkpt lat="45.55964" lon="11.092985"><ele>576.0</ele><time>2026-04-08T08:54:44.759Z</time></trkpt><trkpt lat="45.5597033" lon="11.0929833"><ele>576.0</ele><time>2026-04-08T08:54:45.759Z</time></trkpt><trkpt lat="45.5597817" lon="11.0929933"><ele>576.0</ele><time>2026-04-08T08:54:46.759Z</time></trkpt><trkpt lat="45.55985" lon="11.093015"><ele>576.0</ele><time>2026-04-08T08:54:47.759Z</time></trkpt><trkpt lat="45.5599183" lon="11.0930183"><ele>576.0</ele><time>2026-04-08T08:54:48.758Z</time></trkpt><trkpt lat="45.5599833" lon="11.092995"><ele>576.0</ele><time>2026-04-08T08:54:49.759Z</time></trkpt><trkpt lat="45.56007" lon="11.09297"><ele>576.0</ele><time>2026-04-08T08:54:51.758Z</time></trkpt><trkpt lat="45.5601783" lon="11.092955"><ele>576.0</ele><time>2026-04-08T08:54:53.758Z</time></trkpt><trkpt lat="45.5602967" lon="11.0929467"><ele>576.0</ele><time>2026-04-08T08:54:55.758Z</time></trkpt><trkpt lat="45.56038" lon="11.09295"><ele>576.0</ele><time>2026-04-08T08:54:56.758Z</time></trkpt><trkpt lat="45.5605067" lon="11.0929717"><ele>576.0</ele><time>2026-04-08T08:54:58.758Z</time></trkpt><trkpt lat="45.5605917" lon="11.092995"><ele>576.0</ele><time>2026-04-08T08:54:59.759Z</time></trkpt><trkpt lat="45.5606983" lon="11.093035"><ele>576.2</ele><time>2026-04-08T08:55:00.759Z</time></trkpt><trkpt lat="45.560805" lon="11.0930867"><ele>576.4000000000001</ele><time>2026-04-08T08:55:01.759Z</time></trkpt><trkpt lat="45.560905" lon="11.093135"><ele>576.6</ele><time>2026-04-08T08:55:02.758Z</time></trkpt><trkpt lat="45.5609933" lon="11.0931983"><ele>576.8000000000001</ele><time>2026-04-08T08:55:03.759Z</time></trkpt><trkpt lat="45.5610567" lon="11.093245"><ele>577.0</ele><time>2026-04-08T08:55:04.758Z</time></trkpt><trkpt lat="45.5611333" lon="11.093285"><ele>571.2</ele><time>2026-04-08T08:55:05.759Z</time></trkpt><trkpt lat="45.5611983" lon="11.0933133"><ele>565.4000000000001</ele><time>2026-04-08T08:55:06.759Z</time></trkpt><trkpt lat="45.5612717" lon="11.09332"><ele>559.5999999999999</ele><time>2026-04-08T08:55:07.759Z</time></trkpt><trkpt lat="45.5614233" lon="11.0933"><ele>553.8</ele><time>2026-04-08T08:55:09.758Z</time></trkpt><trkpt lat="45.5615083" lon="11.0932933"><ele>548.0</ele><time>2026-04-08T08:55:11.759Z</time></trkpt><trkpt lat="45.5616283" lon="11.09328"><ele>547.8333333333333</ele><time>2026-04-08T08:55:31.759Z</time></trkpt><trkpt lat="45.5616967" lon="11.09336"><ele>547.6666666666666</ele><time>2026-04-08T08:55:37.759Z</time></trkpt><trkpt lat="45.5617667" lon="11.0932967"><ele>547.5</ele><time>2026-04-08T08:55:43.758Z</time></trkpt><trkpt lat="45.56184" lon="11.0932817"><ele>547.3333333333334</ele><time>2026-04-08T08:55:47.759Z</time></trkpt><trkpt lat="45.5618967" lon="11.0933467"><ele>547.1666666666667</ele><time>2026-04-08T08:55:51.759Z</time></trkpt><trkpt lat="45.56194" lon="11.093465"><ele>547.0</ele><time>2026-04-08T08:56:00.758Z</time></trkpt><trkpt lat="45.56188" lon="11.0935767"><ele>547.0</ele><time>2026-04-08T08:57:01.757Z</time></trkpt><trkpt lat="45.5618783" lon="11.0934733"><ele>547.0</ele><time>2026-04-08T08:57:29.757Z</time></trkpt><trkpt lat="45.5618433" lon="11.0935783"><ele>547.0</ele><time>2026-04-08T08:58:22.791Z</time></trkpt><trkpt lat="45.5617567" lon="11.09366"><ele>547.0</ele><time>2026-04-08T08:58:33.79Z</time></trkpt><trkpt lat="45.56167" lon="11.093695"><ele>547.0</ele><time>2026-04-08T08:58:35.791Z</time></trkpt><trkpt lat="45.5615983" lon="11.0936933"><ele>547.0</ele><time>2026-04-08T08:58:37.79Z</time></trkpt><trkpt lat="45.5615233" lon="11.0937383"><ele>547.0</ele><time>2026-04-08T08:58:39.79Z</time></trkpt><trkpt lat="45.56148" lon="11.0938117"><ele>547.0</ele><time>2026-04-08T08:58:41.791Z</time></trkpt><trkpt lat="45.5614083" lon="11.0939117"><ele>547.0</ele><time>2026-04-08T08:58:42.791Z</time></trkpt><trkpt lat="45.56129" lon="11.0940933"><ele>547.0</ele><time>2026-04-08T08:58:44.791Z</time></trkpt><trkpt lat="45.5612467" lon="11.0941667"><ele>547.0</ele><time>2026-04-08T08:58:45.79Z</time></trkpt><trkpt lat="45.5612" lon="11.0942533"><ele>547.1666666666667</ele><time>2026-04-08T08:58:46.79Z</time></trkpt><trkpt lat="45.56114" lon="11.0943317"><ele>547.3333333333334</ele><time>2026-04-08T08:58:47.79Z</time></trkpt><trkpt lat="45.561085" lon="11.09441"><ele>547.5</ele><time>2026-04-08T08:58:48.79Z</time></trkpt><trkpt lat="45.5610417" lon="11.0944783"><ele>547.6666666666666</ele><time>2026-04-08T08:58:49.789Z</time></trkpt><trkpt lat="45.560965" lon="11.09462"><ele>547.8333333333333</ele><time>2026-04-08T08:58:51.789Z</time></trkpt><trkpt lat="45.5609267" lon="11.0946917"><ele>548.0</ele><time>2026-04-08T08:58:52.789Z</time></trkpt><trkpt lat="45.56086" lon="11.09481"><ele>548.0</ele><time>2026-04-08T08:58:54.789Z</time></trkpt><trkpt lat="45.5608317" lon="11.094905"><ele>548.0</ele><time>2026-04-08T08:58:57.79Z</time></trkpt><trkpt lat="45.5608933" lon="11.0948533"><ele>548.0</ele><time>2026-04-08T08:58:59.79Z</time></trkpt><trkpt lat="45.560955" lon="11.09481"><ele>548.0</ele><time>2026-04-08T08:59:01.789Z</time></trkpt><trkpt lat="45.5610867" lon="11.09481"><ele>548.0</ele><time>2026-04-08T08:59:03.789Z</time></trkpt><trkpt lat="45.5612067" lon="11.09476"><ele>550.4</ele><time>2026-04-08T08:59:05.79Z</time></trkpt><trkpt lat="45.56128" lon="11.094755"><ele>552.8</ele><time>2026-04-08T08:59:06.789Z</time></trkpt><trkpt lat="45.5613667" lon="11.09473"><ele>555.2</ele><time>2026-04-08T08:59:07.79Z</time></trkpt><trkpt lat="45.561475" lon="11.0947383"><ele>557.6</ele><time>2026-04-08T08:59:08.79Z</time></trkpt><trkpt lat="45.5615817" lon="11.0947817"><ele>560.0</ele><time>2026-04-08T08:59:10.79Z</time></trkpt><trkpt lat="45.561665" lon="11.094815"><ele>560.0</ele><time>2026-04-08T08:59:12.79Z</time></trkpt><trkpt lat="45.5617383" lon="11.0947617"><ele>560.0</ele><time>2026-04-08T08:59:18.79Z</time></trkpt><trkpt lat="45.561845" lon="11.0947383"><ele>560.0</ele><time>2026-04-08T08:59:20.789Z</time></trkpt><trkpt lat="45.561915" lon="11.0947083"><ele>560.0</ele><time>2026-04-08T08:59:21.79Z</time></trkpt><trkpt lat="45.5620117" lon="11.0946833"><ele>560.0</ele><time>2026-04-08T08:59:22.789Z</time></trkpt><trkpt lat="45.5621583" lon="11.094655"><ele>560.25</ele><time>2026-04-08T08:59:23.79Z</time></trkpt><trkpt lat="45.562345" lon="11.0945933"><ele>560.5</ele><time>2026-04-08T08:59:24.79Z</time></trkpt><trkpt lat="45.5624733" lon="11.0945517"><ele>560.75</ele><time>2026-04-08T08:59:25.79Z</time></trkpt><trkpt lat="45.562575" lon="11.0945517"><ele>561.0</ele><time>2026-04-08T08:59:26.79Z</time></trkpt><trkpt lat="45.5626717" lon="11.0945683"><ele>561.0</ele><time>2026-04-08T08:59:27.789Z</time></trkpt><trkpt lat="45.5627533" lon="11.0946117"><ele>561.0</ele><time>2026-04-08T08:59:28.79Z</time></trkpt><trkpt lat="45.5628317" lon="11.09466"><ele>561.0</ele><time>2026-04-08T08:59:29.79Z</time></trkpt><trkpt lat="45.562875" lon="11.0947933"><ele>561.0</ele><time>2026-04-08T08:59:30.789Z</time></trkpt><trkpt lat="45.562955" lon="11.0948933"><ele>561.0</ele><time>2026-04-08T08:59:31.79Z</time></trkpt><trkpt lat="45.5630183" lon="11.0950367"><ele>567.25</ele><time>2026-04-08T08:59:32.79Z</time></trkpt><trkpt lat="45.56309" lon="11.0951383"><ele>573.5</ele><time>2026-04-08T08:59:33.79Z</time></trkpt><trkpt lat="45.5631583" lon="11.0952233"><ele>579.75</ele><time>2026-04-08T08:59:34.79Z</time></trkpt><trkpt lat="45.56323" lon="11.09541"><ele>586.0</ele><time>2026-04-08T08:59:35.79Z</time></trkpt><trkpt lat="45.5632833" lon="11.0956033"><ele>586.0</ele><time>2026-04-08T08:59:36.79Z</time></trkpt><trkpt lat="45.5633133" lon="11.0957483"><ele>586.0</ele><time>2026-04-08T08:59:37.79Z</time></trkpt><trkpt lat="45.56337" lon="11.0958717"><ele>586.0</ele><time>2026-04-08T08:59:38.79Z</time></trkpt><trkpt lat="45.5634283" lon="11.095985"><ele>586.0</ele><time>2026-04-08T08:59:39.789Z</time></trkpt><trkpt lat="45.5634333" lon="11.0958783"><ele>586.0</ele><time>2026-04-08T08:59:41.789Z</time></trkpt><trkpt lat="45.56343" lon="11.0957133"><ele>586.0</ele><time>2026-04-08T08:59:42.789Z</time></trkpt><trkpt lat="45.563445" lon="11.0955317"><ele>586.0</ele><time>2026-04-08T08:59:43.789Z</time></trkpt><trkpt lat="45.5634733" lon="11.095385"><ele>586.0</ele><time>2026-04-08T08:59:44.79Z</time></trkpt><trkpt lat="45.5634683" lon="11.0952183"><ele>586.0</ele><time>2026-04-08T08:59:45.79Z</time></trkpt><trkpt lat="45.5635033" lon="11.0950817"><ele>588.0</ele><time>2026-04-08T08:59:46.789Z</time></trkpt><trkpt lat="45.563515" lon="11.0948833"><ele>590.0</ele><time>2026-04-08T08:59:47.79Z</time></trkpt><trkpt lat="45.563545" lon="11.0947067"><ele>592.0</ele><time>2026-04-08T08:59:48.79Z</time></trkpt><trkpt lat="45.563715" lon="11.0946183"><ele>594.0</ele><time>2026-04-08T08:59:49.789Z</time></trkpt><trkpt lat="45.5638217" lon="11.0945633"><ele>594.0</ele><time>2026-04-08T08:59:50.79Z</time></trkpt><trkpt lat="45.5639" lon="11.0944983"><ele>594.0</ele><time>2026-04-08T08:59:51.79Z</time></trkpt><trkpt lat="45.5640017" lon="11.0944417"><ele>594.0</ele><time>2026-04-08T08:59:52.789Z</time></trkpt><trkpt lat="45.5640933" lon="11.094345"><ele>594.0</ele><time>2026-04-08T08:59:53.79Z</time></trkpt><trkpt lat="45.5641983" lon="11.0942717"><ele>594.0</ele><time>2026-04-08T08:59:54.789Z</time></trkpt><trkpt lat="45.5642933" lon="11.094205"><ele>594.0</ele><time>2026-04-08T08:59:55.789Z</time></trkpt><trkpt lat="45.56439" lon="11.09415"><ele>594.0</ele><time>2026-04-08T08:59:56.789Z</time></trkpt><trkpt lat="45.5644817" lon="11.0941433"><ele>594.0</ele><time>2026-04-08T08:59:57.79Z</time></trkpt><trkpt lat="45.5645783" lon="11.0941033"><ele>594.0</ele><time>2026-04-08T08:59:58.789Z</time></trkpt><trkpt lat="45.5646633" lon="11.0941617"><ele>594.0</ele><time>2026-04-08T08:59:59.79Z</time></trkpt><trkpt lat="45.5647383" lon="11.0942783"><ele>595.75</ele><time>2026-04-08T09:00:00.79Z</time></trkpt><trkpt lat="45.5648283" lon="11.0944183"><ele>597.5</ele><time>2026-04-08T09:00:01.79Z</time></trkpt><trkpt lat="45.5649433" lon="11.0945233"><ele>599.25</ele><time>2026-04-08T09:00:02.79Z</time></trkpt><trkpt lat="45.565055" lon="11.094605"><ele>601.0</ele><time>2026-04-08T09:00:03.789Z</time></trkpt><trkpt lat="45.5651667" lon="11.09468"><ele>601.0</ele><time>2026-04-08T09:00:04.789Z</time></trkpt><trkpt lat="45.5652867" lon="11.09474"><ele>601.0</ele><time>2026-04-08T09:00:05.79Z</time></trkpt><trkpt lat="45.5654017" lon="11.0947867"><ele>601.0</ele><time>2026-04-08T09:00:06.789Z</time></trkpt><trkpt lat="45.565515" lon="11.0948267"><ele>601.0</ele><time>2026-04-08T09:00:07.789Z</time></trkpt><trkpt lat="45.5656033" lon="11.09489"><ele>603.0</ele><time>2026-04-08T09:00:08.79Z</time></trkpt><trkpt lat="45.56567" lon="11.0949817"><ele>605.0</ele><time>2026-04-08T09:00:09.789Z</time></trkpt><trkpt lat="45.56574" lon="11.095055"><ele>607.0</ele><time>2026-04-08T09:00:10.789Z</time></trkpt><trkpt lat="45.5657883" lon="11.0951767"><ele>609.0</ele><time>2026-04-08T09:00:12.789Z</time></trkpt><trkpt lat="45.5658267" lon="11.0952483"><ele>611.0</ele><time>2026-04-08T09:00:13.789Z</time></trkpt><trkpt lat="45.5658833" lon="11.0953567"><ele>613.0</ele><time>2026-04-08T09:00:15.79Z</time></trkpt><trkpt lat="45.5659367" lon="11.0954667"><ele>613.0</ele><time>2026-04-08T09:00:17.79Z</time></trkpt><trkpt lat="45.56601" lon="11.0955283"><ele>613.0</ele><time>2026-04-08T09:00:19.789Z</time></trkpt><trkpt lat="45.5660967" lon="11.09561"><ele>613.0</ele><time>2026-04-08T09:00:21.789Z</time></trkpt><trkpt lat="45.56615" lon="11.09566"><ele>613.0</ele><time>2026-04-08T09:00:22.789Z</time></trkpt><trkpt lat="45.5662183" lon="11.09576"><ele>613.0</ele><time>2026-04-08T09:00:23.79Z</time></trkpt><trkpt lat="45.5662817" lon="11.09582"><ele>613.0</ele><time>2026-04-08T09:00:24.79Z</time></trkpt><trkpt lat="45.5663517" lon="11.0958867"><ele>614.6</ele><time>2026-04-08T09:00:25.79Z</time></trkpt><trkpt lat="45.5664267" lon="11.0959717"><ele>616.1999999999999</ele><time>2026-04-08T09:00:26.789Z</time></trkpt><trkpt lat="45.56653" lon="11.096075"><ele>617.8</ele><time>2026-04-08T09:00:27.79Z</time></trkpt><trkpt lat="45.56661" lon="11.096155"><ele>619.4</ele><time>2026-04-08T09:00:28.789Z</time></trkpt><trkpt lat="45.566685" lon="11.09624"><ele>621.0</ele><time>2026-04-08T09:00:29.789Z</time></trkpt><trkpt lat="45.56676" lon="11.0963083"><ele>621.0</ele><time>2026-04-08T09:00:30.789Z</time></trkpt><trkpt lat="45.566835" lon="11.096355"><ele>621.0</ele><time>2026-04-08T09:00:31.79Z</time></trkpt><trkpt lat="45.5669383" lon="11.0963867"><ele>621.0</ele><time>2026-04-08T09:00:32.789Z</time></trkpt><trkpt lat="45.56703" lon="11.0964333"><ele>621.0</ele><time>2026-04-08T09:00:33.789Z</time></trkpt><trkpt lat="45.5671017" lon="11.0964583"><ele>621.0</ele><time>2026-04-08T09:00:34.79Z</time></trkpt><trkpt lat="45.5671667" lon="11.0964667"><ele>621.0</ele><time>2026-04-08T09:00:35.79Z</time></trkpt><trkpt lat="45.56725" lon="11.096455"><ele>621.3333333333334</ele><time>2026-04-08T09:00:36.79Z</time></trkpt><trkpt lat="45.567335" lon="11.0963967"><ele>621.6666666666666</ele><time>2026-04-08T09:00:37.79Z</time></trkpt><trkpt lat="45.5674233" lon="11.096385"><ele>622.0</ele><time>2026-04-08T09:00:39.79Z</time></trkpt><trkpt lat="45.567485" lon="11.0963633"><ele>622.3333333333333</ele><time>2026-04-08T09:00:40.789Z</time></trkpt><trkpt lat="45.5675567" lon="11.0963217"><ele>622.6666666666666</ele><time>2026-04-08T09:00:41.789Z</time></trkpt><trkpt lat="45.56766" lon="11.096275"><ele>623.0</ele><time>2026-04-08T09:00:43.79Z</time></trkpt><trkpt lat="45.5677233" lon="11.096295"><ele>623.0</ele><time>2026-04-08T09:00:44.789Z</time></trkpt><trkpt lat="45.5678033" lon="11.096275"><ele>623.0</ele><time>2026-04-08T09:00:46.789Z</time></trkpt><trkpt lat="45.5677767" lon="11.096165"><ele>623.0</ele><time>2026-04-08T09:00:52.79Z</time></trkpt><trkpt lat="45.5677717" lon="11.0960433"><ele>623.0</ele><time>2026-04-08T09:00:54.79Z</time></trkpt><trkpt lat="45.567755" lon="11.0959133"><ele>623.0</ele><time>2026-04-08T09:00:56.79Z</time></trkpt><trkpt lat="45.56772" lon="11.0958"><ele>623.0</ele><time>2026-04-08T09:00:58.79Z</time></trkpt><trkpt lat="45.5676967" lon="11.0956533"><ele>626.4</ele><time>2026-04-08T09:01:00.789Z</time></trkpt><trkpt lat="45.567635" lon="11.095495"><ele>629.8</ele><time>2026-04-08T09:01:02.789Z</time></trkpt><trkpt lat="45.5675933" lon="11.0954167"><ele>633.2</ele><time>2026-04-08T09:01:03.789Z</time></trkpt><trkpt lat="45.5674917" lon="11.09529"><ele>636.6</ele><time>2026-04-08T09:01:05.79Z</time></trkpt><trkpt lat="45.56743" lon="11.095225"><ele>640.0</ele><time>2026-04-08T09:01:06.789Z</time></trkpt><trkpt lat="45.567365" lon="11.095155"><ele>640.0</ele><time>2026-04-08T09:01:07.79Z</time></trkpt><trkpt lat="45.5672967" lon="11.09505"><ele>640.0</ele><time>2026-04-08T09:01:08.789Z</time></trkpt><trkpt lat="45.56724" lon="11.0949383"><ele>640.0</ele><time>2026-04-08T09:01:09.79Z</time></trkpt><trkpt lat="45.567165" lon="11.0948317"><ele>640.0</ele><time>2026-04-08T09:01:10.79Z</time></trkpt><trkpt lat="45.567125" lon="11.0947533"><ele>640.0</ele><time>2026-04-08T09:01:11.79Z</time></trkpt><trkpt lat="45.5670667" lon="11.0946683"><ele>637.6666666666667</ele><time>2026-04-08T09:01:12.79Z</time></trkpt><trkpt lat="45.5670067" lon="11.0945983"><ele>635.3333333333334</ele><time>2026-04-08T09:01:13.79Z</time></trkpt><trkpt lat="45.5669417" lon="11.09454"><ele>633.0</ele><time>2026-04-08T09:01:14.79Z</time></trkpt><trkpt lat="45.5668867" lon="11.0944767"><ele>630.6666666666666</ele><time>2026-04-08T09:01:15.79Z</time></trkpt><trkpt lat="45.5667783" lon="11.0943717"><ele>628.3333333333333</ele><time>2026-04-08T09:01:17.789Z</time></trkpt><trkpt lat="45.5667133" lon="11.0943"><ele>626.0</ele><time>2026-04-08T09:01:18.789Z</time></trkpt><trkpt lat="45.566665" lon="11.0942133"><ele>629.3333333333333</ele><time>2026-04-08T09:01:19.79Z</time></trkpt><trkpt lat="45.5665867" lon="11.0940783"><ele>632.6666666666666</ele><time>2026-04-08T09:01:21.789Z</time></trkpt><trkpt lat="45.56654" lon="11.0940167"><ele>636.0</ele><time>2026-04-08T09:01:22.79Z</time></trkpt><trkpt lat="45.566485" lon="11.0939633"><ele>639.3333333333334</ele><time>2026-04-08T09:01:23.79Z</time></trkpt><trkpt lat="45.5664317" lon="11.0939067"><ele>642.6666666666667</ele><time>2026-04-08T09:01:24.789Z</time></trkpt><trkpt lat="45.5663717" lon="11.093855"><ele>646.0</ele><time>2026-04-08T09:01:25.79Z</time></trkpt><trkpt lat="45.5663117" lon="11.0937883"><ele>638.75</ele><time>2026-04-08T09:01:26.79Z</time></trkpt><trkpt lat="45.56616" lon="11.09373"><ele>631.5</ele><time>2026-04-08T09:01:27.79Z</time></trkpt><trkpt lat="45.566095" lon="11.0936067"><ele>624.25</ele><time>2026-04-08T09:01:28.789Z</time></trkpt><trkpt lat="45.566055" lon="11.0934717"><ele>617.0</ele><time>2026-04-08T09:01:29.79Z</time></trkpt><trkpt lat="45.5660033" lon="11.0933483"><ele>619.1666666666666</ele><time>2026-04-08T09:01:30.79Z</time></trkpt><trkpt lat="45.56598" lon="11.093225"><ele>621.3333333333333</ele><time>2026-04-08T09:01:31.789Z</time></trkpt><trkpt lat="45.56593" lon="11.0931417"><ele>623.5</ele><time>2026-04-08T09:01:32.79Z</time></trkpt><trkpt lat="45.56588" lon="11.0930417"><ele>625.6666666666666</ele><time>2026-04-08T09:01:33.789Z</time></trkpt><trkpt lat="45.5658367" lon="11.0929667"><ele>627.8333333333334</ele><time>2026-04-08T09:01:34.79Z</time></trkpt><trkpt lat="45.5657933" lon="11.0928967"><ele>630.0</ele><time>2026-04-08T09:01:35.789Z</time></trkpt><trkpt lat="45.565755" lon="11.0928167"><ele>630.0</ele><time>2026-04-08T09:01:36.789Z</time></trkpt><trkpt lat="45.56572" lon="11.092725"><ele>630.0</ele><time>2026-04-08T09:01:37.79Z</time></trkpt><trkpt lat="45.5656852" lon="11.0926189"><ele>630.0</ele><time>2026-04-08T09:01:38.788Z</time></trkpt><trkpt lat="45.5656658" lon="11.0925097"><ele>630.0</ele><time>2026-04-08T09:01:39.788Z</time></trkpt><trkpt lat="45.5656521" lon="11.0924121"><ele>630.0</ele><time>2026-04-08T09:01:40.788Z</time></trkpt><trkpt lat="45.5656344" lon="11.0922262"><ele>630.0</ele><time>2026-04-08T09:01:42.789Z</time></trkpt><trkpt lat="45.5656322" lon="11.092123"><ele>630.6</ele><time>2026-04-08T09:01:43.789Z</time></trkpt><trkpt lat="45.5656449" lon="11.0920251"><ele>631.2</ele><time>2026-04-08T09:01:44.789Z</time></trkpt><trkpt lat="45.5656832" lon="11.0919181"><ele>631.8</ele><time>2026-04-08T09:01:45.789Z</time></trkpt><trkpt lat="45.5657038" lon="11.0918281"><ele>632.4</ele><time>2026-04-08T09:01:46.788Z</time></trkpt><trkpt lat="45.5657213" lon="11.0916539"><ele>633.0</ele><time>2026-04-08T09:01:48.788Z</time></trkpt><trkpt lat="45.5657478" lon="11.0914712"><ele>633.1666666666666</ele><time>2026-04-08T09:01:50.789Z</time></trkpt><trkpt lat="45.5657554" lon="11.091365"><ele>633.3333333333334</ele><time>2026-04-08T09:01:51.788Z</time></trkpt><trkpt lat="45.5657508" lon="11.0912515"><ele>633.5</ele><time>2026-04-08T09:01:52.789Z</time></trkpt><trkpt lat="45.5657511" lon="11.0911483"><ele>633.6666666666667</ele><time>2026-04-08T09:01:53.788Z</time></trkpt><trkpt lat="45.5657535" lon="11.0910241"><ele>633.8333333333334</ele><time>2026-04-08T09:01:54.789Z</time></trkpt><trkpt lat="45.565764" lon="11.0908796"><ele>634.0</ele><time>2026-04-08T09:01:55.789Z</time></trkpt><trkpt lat="45.5657757" lon="11.0907333"><ele>633.4</ele><time>2026-04-08T09:01:56.788Z</time></trkpt><trkpt lat="45.5657874" lon="11.0905825"><ele>632.8</ele><time>2026-04-08T09:01:57.789Z</time></trkpt><trkpt lat="45.5657965" lon="11.0904444"><ele>632.2</ele><time>2026-04-08T09:01:58.789Z</time></trkpt><trkpt lat="45.5658022" lon="11.090329"><ele>631.6</ele><time>2026-04-08T09:01:59.788Z</time></trkpt><trkpt lat="45.5658455" lon="11.0902016"><ele>631.0</ele><time>2026-04-08T09:02:01.788Z</time></trkpt><trkpt lat="45.5659218" lon="11.090123"><ele>631.0</ele><time>2026-04-08T09:02:03.788Z</time></trkpt><trkpt lat="45.5660095" lon="11.0901102"><ele>631.0</ele><time>2026-04-08T09:02:05.788Z</time></trkpt><trkpt lat="45.5660812" lon="11.0900539"><ele>631.0</ele><time>2026-04-08T09:02:07.789Z</time></trkpt><trkpt lat="45.5661023" lon="11.0898812"><ele>631.0</ele><time>2026-04-08T09:02:36.789Z</time></trkpt><trkpt lat="45.5661553" lon="11.0897775"><ele>631.0</ele><time>2026-04-08T09:02:38.789Z</time></trkpt><trkpt lat="45.5662576" lon="11.089735"><ele>631.6</ele><time>2026-04-08T09:02:40.789Z</time></trkpt><trkpt lat="45.5663341" lon="11.0897239"><ele>632.2</ele><time>2026-04-08T09:02:41.789Z</time></trkpt><trkpt lat="45.566434" lon="11.0896858"><ele>632.8</ele><time>2026-04-08T09:02:42.789Z</time></trkpt><trkpt lat="45.5665733" lon="11.0896417"><ele>633.4</ele><time>2026-04-08T09:02:43.789Z</time></trkpt><trkpt lat="45.5666783" lon="11.0896017"><ele>634.0</ele><time>2026-04-08T09:02:44.788Z</time></trkpt><trkpt lat="45.5668167" lon="11.0895667"><ele>634.0</ele><time>2026-04-08T09:02:45.789Z</time></trkpt><trkpt lat="45.5669467" lon="11.0895483"><ele>634.0</ele><time>2026-04-08T09:02:46.788Z</time></trkpt><trkpt lat="45.5670583" lon="11.0895367"><ele>634.0</ele><time>2026-04-08T09:02:47.789Z</time></trkpt><trkpt lat="45.567195" lon="11.0895233"><ele>634.0</ele><time>2026-04-08T09:02:48.789Z</time></trkpt><trkpt lat="45.5673267" lon="11.0895017"><ele>635.4</ele><time>2026-04-08T09:02:49.789Z</time></trkpt><trkpt lat="45.5674467" lon="11.089485"><ele>636.8</ele><time>2026-04-08T09:02:50.789Z</time></trkpt><trkpt lat="45.5675517" lon="11.0894667"><ele>638.1999999999999</ele><time>2026-04-08T09:02:51.789Z</time></trkpt><trkpt lat="45.5676483" lon="11.08945"><ele>639.5999999999999</ele><time>2026-04-08T09:02:52.789Z</time></trkpt><trkpt lat="45.56775" lon="11.08938"><ele>641.0</ele><time>2026-04-08T09:02:54.789Z</time></trkpt><trkpt lat="45.5676283" lon="11.0893233"><ele>641.0</ele><time>2026-04-08T09:02:55.788Z</time></trkpt><trkpt lat="45.5675867" lon="11.0892383"><ele>641.0</ele><time>2026-04-08T09:02:57.788Z</time></trkpt><trkpt lat="45.56753" lon="11.0891217"><ele>641.0</ele><time>2026-04-08T09:02:59.789Z</time></trkpt><trkpt lat="45.5674583" lon="11.0890567"><ele>641.0</ele><time>2026-04-08T09:03:00.789Z</time></trkpt><trkpt lat="45.5673717" lon="11.0889567"><ele>641.0</ele><time>2026-04-08T09:03:01.789Z</time></trkpt><trkpt lat="45.567255" lon="11.0888533"><ele>640.0</ele><time>2026-04-08T09:03:02.789Z</time></trkpt><trkpt lat="45.5671467" lon="11.088785"><ele>639.0</ele><time>2026-04-08T09:03:03.788Z</time></trkpt><trkpt lat="45.5670533" lon="11.0887167"><ele>638.0</ele><time>2026-04-08T09:03:04.789Z</time></trkpt><trkpt lat="45.56697" lon="11.08864"><ele>637.0</ele><time>2026-04-08T09:03:05.789Z</time></trkpt><trkpt lat="45.5668933" lon="11.0885867"><ele>636.0</ele><time>2026-04-08T09:03:06.788Z</time></trkpt><trkpt lat="45.5668133" lon="11.0884867"><ele>636.0</ele><time>2026-04-08T09:03:07.789Z</time></trkpt><trkpt lat="45.5667433" lon="11.0884133"><ele>636.0</ele><time>2026-04-08T09:03:08.788Z</time></trkpt><trkpt lat="45.56667" lon="11.088265"><ele>636.0</ele><time>2026-04-08T09:03:09.788Z</time></trkpt><trkpt lat="45.566555" lon="11.0881083"><ele>636.0</ele><time>2026-04-08T09:03:10.789Z</time></trkpt><trkpt lat="45.56649" lon="11.0879583"><ele>636.25</ele><time>2026-04-08T09:03:11.789Z</time></trkpt><trkpt lat="45.5664083" lon="11.08777"><ele>636.5</ele><time>2026-04-08T09:03:12.789Z</time></trkpt><trkpt lat="45.5663767" lon="11.0876117"><ele>636.75</ele><time>2026-04-08T09:03:13.788Z</time></trkpt><trkpt lat="45.5663383" lon="11.087445"><ele>637.0</ele><time>2026-04-08T09:03:14.788Z</time></trkpt><trkpt lat="45.5663183" lon="11.08728"><ele>637.0</ele><time>2026-04-08T09:03:15.788Z</time></trkpt><trkpt lat="45.56631" lon="11.0871333"><ele>637.0</ele><time>2026-04-08T09:03:16.789Z</time></trkpt><trkpt lat="45.56632" lon="11.0869933"><ele>637.0</ele><time>2026-04-08T09:03:17.789Z</time></trkpt><trkpt lat="45.566345" lon="11.086865"><ele>637.0</ele><time>2026-04-08T09:03:18.789Z</time></trkpt><trkpt lat="45.56641" lon="11.0867617"><ele>637.0</ele><time>2026-04-08T09:03:19.788Z</time></trkpt><trkpt lat="45.56647" lon="11.0866583"><ele>635.75</ele><time>2026-04-08T09:03:20.789Z</time></trkpt><trkpt lat="45.5665533" lon="11.0865833"><ele>634.5</ele><time>2026-04-08T09:03:21.788Z</time></trkpt><trkpt lat="45.5666567" lon="11.0865283"><ele>633.25</ele><time>2026-04-08T09:03:22.788Z</time></trkpt><trkpt lat="45.56677" lon="11.0865167"><ele>632.0</ele><time>2026-04-08T09:03:23.788Z</time></trkpt><trkpt lat="45.5669617" lon="11.0865683"><ele>635.6</ele><time>2026-04-08T09:03:24.788Z</time></trkpt><trkpt lat="45.5670767" lon="11.0865817"><ele>639.2</ele><time>2026-04-08T09:03:25.788Z</time></trkpt><trkpt lat="45.5672083" lon="11.0865367"><ele>642.8</ele><time>2026-04-08T09:03:26.789Z</time></trkpt><trkpt lat="45.5672983" lon="11.086445"><ele>646.4</ele><time>2026-04-08T09:03:27.789Z</time></trkpt><trkpt lat="45.567375" lon="11.0863867"><ele>650.0</ele><time>2026-04-08T09:03:28.789Z</time></trkpt><trkpt lat="45.5674317" lon="11.086315"><ele>650.0</ele><time>2026-04-08T09:03:29.789Z</time></trkpt><trkpt lat="45.567465" lon="11.0862167"><ele>650.0</ele><time>2026-04-08T09:03:30.788Z</time></trkpt><trkpt lat="45.56749" lon="11.0861133"><ele>650.0</ele><time>2026-04-08T09:03:31.788Z</time></trkpt><trkpt lat="45.5675467" lon="11.08603"><ele>650.0</ele><time>2026-04-08T09:03:32.789Z</time></trkpt><trkpt lat="45.5675183" lon="11.0858933"><ele>650.0</ele><time>2026-04-08T09:03:33.789Z</time></trkpt><trkpt lat="45.5674517" lon="11.0857617"><ele>650.0</ele><time>2026-04-08T09:03:34.789Z</time></trkpt><trkpt lat="45.5673533" lon="11.0856167"><ele>653.5</ele><time>2026-04-08T09:03:35.788Z</time></trkpt><trkpt lat="45.5672567" lon="11.08545"><ele>657.0</ele><time>2026-04-08T09:03:36.789Z</time></trkpt><trkpt lat="45.5671633" lon="11.08532"><ele>660.5</ele><time>2026-04-08T09:03:37.789Z</time></trkpt><trkpt lat="45.5671233" lon="11.0851983"><ele>664.0</ele><time>2026-04-08T09:03:38.788Z</time></trkpt><trkpt lat="45.56704" lon="11.0850917"><ele>657.75</ele><time>2026-04-08T09:03:39.788Z</time></trkpt><trkpt lat="45.566975" lon="11.0849283"><ele>651.5</ele><time>2026-04-08T09:03:40.788Z</time></trkpt><trkpt lat="45.5669067" lon="11.0847967"><ele>645.25</ele><time>2026-04-08T09:03:41.789Z</time></trkpt><trkpt lat="45.56685" lon="11.0846667"><ele>639.0</ele><time>2026-04-08T09:03:42.789Z</time></trkpt><trkpt lat="45.5667983" lon="11.0845333"><ele>639.0</ele><time>2026-04-08T09:03:43.789Z</time></trkpt><trkpt lat="45.5667617" lon="11.084405"><ele>639.0</ele><time>2026-04-08T09:03:44.789Z</time></trkpt><trkpt lat="45.5667267" lon="11.084275"><ele>639.0</ele><time>2026-04-08T09:03:45.788Z</time></trkpt><trkpt lat="45.566705" lon="11.084125"><ele>639.0</ele><time>2026-04-08T09:03:46.789Z</time></trkpt><trkpt lat="45.566685" lon="11.0839583"><ele>639.0</ele><time>2026-04-08T09:03:47.788Z</time></trkpt><trkpt lat="45.56667" lon="11.083785"><ele>638.5</ele><time>2026-04-08T09:03:48.789Z</time></trkpt><trkpt lat="45.5666583" lon="11.0835933"><ele>638.0</ele><time>2026-04-08T09:03:49.789Z</time></trkpt><trkpt lat="45.5666367" lon="11.0833917"><ele>637.5</ele><time>2026-04-08T09:03:50.788Z</time></trkpt><trkpt lat="45.5666367" lon="11.0832333"><ele>637.0</ele><time>2026-04-08T09:03:51.788Z</time></trkpt><trkpt lat="45.5666483" lon="11.0830817"><ele>636.2</ele><time>2026-04-08T09:03:52.789Z</time></trkpt><trkpt lat="45.5666633" lon="11.082935"><ele>635.4000000000001</ele><time>2026-04-08T09:03:53.788Z</time></trkpt><trkpt lat="45.56671" lon="11.082805"><ele>634.5999999999999</ele><time>2026-04-08T09:03:54.789Z</time></trkpt><trkpt lat="45.5667467" lon="11.082665"><ele>633.8</ele><time>2026-04-08T09:03:55.788Z</time></trkpt><trkpt lat="45.5667717" lon="11.0825167"><ele>633.0</ele><time>2026-04-08T09:03:56.789Z</time></trkpt><trkpt lat="45.5668117" lon="11.0823717"><ele>634.5999999999999</ele><time>2026-04-08T09:03:57.789Z</time></trkpt><trkpt lat="45.5668367" lon="11.0822467"><ele>636.1999999999999</ele><time>2026-04-08T09:03:58.789Z</time></trkpt><trkpt lat="45.5669167" lon="11.08214"><ele>637.8</ele><time>2026-04-08T09:03:59.789Z</time></trkpt><trkpt lat="45.5670017" lon="11.0820317"><ele>639.4</ele><time>2026-04-08T09:04:00.788Z</time></trkpt><trkpt lat="45.5670617" lon="11.0819217"><ele>641.0</ele><time>2026-04-08T09:04:01.788Z</time></trkpt><trkpt lat="45.56715" lon="11.08182"><ele>642.0</ele><time>2026-04-08T09:04:02.788Z</time></trkpt><trkpt lat="45.567245" lon="11.0817183"><ele>643.0</ele><time>2026-04-08T09:04:03.789Z</time></trkpt><trkpt lat="45.56732" lon="11.081625"><ele>644.0</ele><time>2026-04-08T09:04:04.789Z</time></trkpt><trkpt lat="45.5673867" lon="11.0815417"><ele>645.0</ele><time>2026-04-08T09:04:05.789Z</time></trkpt><trkpt lat="45.5674467" lon="11.0814767"><ele>646.0</ele><time>2026-04-08T09:04:06.788Z</time></trkpt><trkpt lat="45.5675017" lon="11.0814167"><ele>646.6666666666667</ele><time>2026-04-08T09:04:07.788Z</time></trkpt><trkpt lat="45.5675467" lon="11.0813517"><ele>647.3333333333334</ele><time>2026-04-08T09:04:08.789Z</time></trkpt><trkpt lat="45.5676017" lon="11.08124"><ele>648.0</ele><time>2026-04-08T09:04:10.789Z</time></trkpt><trkpt lat="45.5676433" lon="11.0811467"><ele>648.6666666666666</ele><time>2026-04-08T09:04:12.789Z</time></trkpt><trkpt lat="45.567695" lon="11.081065"><ele>649.3333333333333</ele><time>2026-04-08T09:04:13.789Z</time></trkpt><trkpt lat="45.5677633" lon="11.0810683"><ele>650.0</ele><time>2026-04-08T09:04:22.788Z</time></trkpt><trkpt lat="45.56783" lon="11.0810983"><ele>650.0</ele><time>2026-04-08T09:04:25.789Z</time></trkpt><trkpt lat="45.567915" lon="11.0811183"><ele>650.0</ele><time>2026-04-08T09:04:28.788Z</time></trkpt><trkpt lat="45.5679767" lon="11.081155"><ele>650.0</ele><time>2026-04-08T09:04:29.789Z</time></trkpt><trkpt lat="45.5680517" lon="11.08117"><ele>650.0</ele><time>2026-04-08T09:04:31.789Z</time></trkpt><trkpt lat="45.568115" lon="11.0811683"><ele>650.0</ele><time>2026-04-08T09:04:34.788Z</time></trkpt><trkpt lat="45.5681917" lon="11.0811467"><ele>650.0</ele><time>2026-04-08T09:04:37.787Z</time></trkpt><trkpt lat="45.568265" lon="11.081125"><ele>650.0</ele><time>2026-04-08T09:04:39.787Z</time></trkpt><trkpt lat="45.568335" lon="11.0810967"><ele>650.0</ele><time>2026-04-08T09:04:42.788Z</time></trkpt><trkpt lat="45.5683967" lon="11.0811267"><ele>650.0</ele><time>2026-04-08T09:04:46.788Z</time></trkpt><trkpt lat="45.5684717" lon="11.0811517"><ele>650.0</ele><time>2026-04-08T09:04:49.787Z</time></trkpt><trkpt lat="45.568535" lon="11.0811683"><ele>650.0</ele><time>2026-04-08T09:04:52.788Z</time></trkpt><trkpt lat="45.568635" lon="11.0812317"><ele>650.0</ele><time>2026-04-08T09:05:03.788Z</time></trkpt><trkpt lat="45.5687667" lon="11.0811717"><ele>651.6666666666666</ele><time>2026-04-08T09:05:30.788Z</time></trkpt><trkpt lat="45.5688617" lon="11.0811467"><ele>653.3333333333333</ele><time>2026-04-08T09:05:41.788Z</time></trkpt><trkpt lat="45.56893" lon="11.081145"><ele>655.0</ele><time>2026-04-08T09:05:45.787Z</time></trkpt><trkpt lat="45.5689883" lon="11.0811867"><ele>656.6666666666666</ele><time>2026-04-08T09:06:11.787Z</time></trkpt><trkpt lat="45.56891" lon="11.0812817"><ele>658.3333333333334</ele><time>2026-04-08T09:06:33.787Z</time></trkpt><trkpt lat="45.5689333" lon="11.0811833"><ele>660.0</ele><time>2026-04-08T09:07:09.788Z</time></trkpt><trkpt lat="45.5689817" lon="11.0812533"><ele>660.0</ele><time>2026-04-08T09:07:16.788Z</time></trkpt><trkpt lat="45.5690433" lon="11.0812917"><ele>660.0</ele><time>2026-04-08T09:07:20.787Z</time></trkpt><trkpt lat="45.569105" lon="11.0813217"><ele>660.0</ele><time>2026-04-08T09:07:23.787Z</time></trkpt><trkpt lat="45.56905" lon="11.0814083"><ele>660.0</ele><time>2026-04-08T09:08:48.787Z</time></trkpt><trkpt lat="45.56909" lon="11.0812933"><ele>660.0</ele><time>2026-04-08T09:08:49.787Z</time></trkpt><trkpt lat="45.569065" lon="11.0813917"><ele>660.0</ele><time>2026-04-08T09:09:28.786Z</time></trkpt><trkpt lat="45.5690183" lon="11.0812567"><ele>660.0</ele><time>2026-04-08T09:09:51.787Z</time></trkpt><trkpt lat="45.568935" lon="11.081235"><ele>660.0</ele><time>2026-04-08T09:10:05.786Z</time></trkpt><trkpt lat="45.56908" lon="11.0812233"><ele>660.0</ele><time>2026-04-08T09:10:14.786Z</time></trkpt><trkpt lat="45.56916" lon="11.0811983"><ele>660.0</ele><time>2026-04-08T09:10:17.786Z</time></trkpt><trkpt lat="45.56932" lon="11.08118"><ele>660.0</ele><time>2026-04-08T09:10:31.787Z</time></trkpt><trkpt lat="45.56939" lon="11.0811833"><ele>660.0</ele><time>2026-04-08T09:10:33.787Z</time></trkpt><trkpt lat="45.569455" lon="11.0812333"><ele>660.0</ele><time>2026-04-08T09:10:35.786Z</time></trkpt><trkpt lat="45.5695267" lon="11.081305"><ele>660.0</ele><time>2026-04-08T09:10:37.786Z</time></trkpt><trkpt lat="45.5696" lon="11.081395"><ele>660.0</ele><time>2026-04-08T09:10:39.786Z</time></trkpt><trkpt lat="45.5696767" lon="11.0814583"><ele>660.0</ele><time>2026-04-08T09:10:41.786Z</time></trkpt><trkpt lat="45.5697517" lon="11.0814267"><ele>661.6666666666666</ele><time>2026-04-08T09:10:46.786Z</time></trkpt><trkpt lat="45.569815" lon="11.0814017"><ele>663.3333333333334</ele><time>2026-04-08T09:10:49.786Z</time></trkpt><trkpt lat="45.5698783" lon="11.08139"><ele>665.0</ele><time>2026-04-08T09:10:51.787Z</time></trkpt><trkpt lat="45.5699467" lon="11.08139"><ele>666.6666666666667</ele><time>2026-04-08T09:10:53.787Z</time></trkpt><trkpt lat="45.57003" lon="11.081405"><ele>668.3333333333334</ele><time>2026-04-08T09:10:57.787Z</time></trkpt><trkpt lat="45.5701383" lon="11.0814683"><ele>670.0</ele><time>2026-04-08T09:11:08.786Z</time></trkpt><trkpt lat="45.5702017" lon="11.081455"><ele>670.0</ele><time>2026-04-08T09:11:10.786Z</time></trkpt><trkpt lat="45.57027" lon="11.081415"><ele>670.0</ele><time>2026-04-08T09:11:13.785Z</time></trkpt><trkpt lat="45.5703333" lon="11.0814317"><ele>670.0</ele><time>2026-04-08T09:11:16.786Z</time></trkpt><trkpt lat="45.5704217" lon="11.081455"><ele>670.0</ele><time>2026-04-08T09:11:19.785Z</time></trkpt><trkpt lat="45.570515" lon="11.0813883"><ele>670.0</ele><time>2026-04-08T09:11:21.785Z</time></trkpt><trkpt lat="45.57058" lon="11.08137"><ele>670.0</ele><time>2026-04-08T09:11:22.786Z</time></trkpt><trkpt lat="45.5706467" lon="11.0813333"><ele>671.2</ele><time>2026-04-08T09:11:23.785Z</time></trkpt><trkpt lat="45.5707117" lon="11.0813067"><ele>672.4</ele><time>2026-04-08T09:11:24.786Z</time></trkpt><trkpt lat="45.570825" lon="11.08127"><ele>673.5999999999999</ele><time>2026-04-08T09:11:26.785Z</time></trkpt><trkpt lat="45.570925" lon="11.0812283"><ele>674.8</ele><time>2026-04-08T09:11:28.785Z</time></trkpt><trkpt lat="45.5710433" lon="11.0811683"><ele>676.0</ele><time>2026-04-08T09:11:30.786Z</time></trkpt><trkpt lat="45.5711283" lon="11.08115"><ele>676.5</ele><time>2026-04-08T09:11:32.785Z</time></trkpt><trkpt lat="45.571195" lon="11.081145"><ele>677.0</ele><time>2026-04-08T09:11:34.785Z</time></trkpt><trkpt lat="45.5712983" lon="11.0811367"><ele>677.5</ele><time>2026-04-08T09:11:37.786Z</time></trkpt><trkpt lat="45.5713867" lon="11.081125"><ele>678.0</ele><time>2026-04-08T09:11:40.785Z</time></trkpt><trkpt lat="45.571455" lon="11.0811633"><ele>678.5</ele><time>2026-04-08T09:11:43.785Z</time></trkpt><trkpt lat="45.5715283" lon="11.081175"><ele>679.0</ele><time>2026-04-08T09:11:46.785Z</time></trkpt><trkpt lat="45.5715917" lon="11.0811917"><ele>679.0</ele><time>2026-04-08T09:11:49.785Z</time></trkpt><trkpt lat="45.5716517" lon="11.0812267"><ele>679.0</ele><time>2026-04-08T09:11:52.786Z</time></trkpt><trkpt lat="45.57174" lon="11.081245"><ele>679.0</ele><time>2026-04-08T09:11:55.786Z</time></trkpt><trkpt lat="45.571815" lon="11.0812067"><ele>679.0</ele><time>2026-04-08T09:11:57.785Z</time></trkpt><trkpt lat="45.5719067" lon="11.0811617"><ele>679.0</ele><time>2026-04-08T09:11:59.785Z</time></trkpt><trkpt lat="45.5719867" lon="11.081145"><ele>679.0</ele><time>2026-04-08T09:12:01.786Z</time></trkpt><trkpt lat="45.5720933" lon="11.0810533"><ele>679.6</ele><time>2026-04-08T09:12:04.785Z</time></trkpt><trkpt lat="45.5721517" lon="11.08098"><ele>680.2</ele><time>2026-04-08T09:12:06.785Z</time></trkpt><trkpt lat="45.5722783" lon="11.080775"><ele>680.8000000000001</ele><time>2026-04-08T09:13:42.786Z</time></trkpt><trkpt lat="45.57235" lon="11.0807567"><ele>681.4000000000001</ele><time>2026-04-08T09:13:44.785Z</time></trkpt><trkpt lat="45.5724167" lon="11.08067"><ele>682.0</ele><time>2026-04-08T09:13:46.786Z</time></trkpt><trkpt lat="45.5724733" lon="11.0805767"><ele>685.3333333333334</ele><time>2026-04-08T09:13:48.785Z</time></trkpt><trkpt lat="45.5725267" lon="11.0805217"><ele>688.6666666666667</ele><time>2026-04-08T09:13:49.785Z</time></trkpt><trkpt lat="45.5725683" lon="11.0804517"><ele>692.0</ele><time>2026-04-08T09:13:50.785Z</time></trkpt><trkpt lat="45.5726433" lon="11.080335"><ele>695.3333333333334</ele><time>2026-04-08T09:13:52.786Z</time></trkpt><trkpt lat="45.5726633" lon="11.0802333"><ele>698.6666666666666</ele><time>2026-04-08T09:13:55.786Z</time></trkpt><trkpt lat="45.572705" lon="11.080165"><ele>702.0</ele><time>2026-04-08T09:14:14.786Z</time></trkpt><trkpt lat="45.5727433" lon="11.0800567"><ele>702.0</ele><time>2026-04-08T09:14:18.786Z</time></trkpt><trkpt lat="45.5727783" lon="11.0799367"><ele>702.0</ele><time>2026-04-08T09:15:09.785Z</time></trkpt><trkpt lat="45.5727633" lon="11.079835"><ele>702.0</ele><time>2026-04-08T09:15:12.785Z</time></trkpt><trkpt lat="45.572775" lon="11.079735"><ele>702.0</ele><time>2026-04-08T09:15:15.785Z</time></trkpt><trkpt lat="45.5727733" lon="11.0796333"><ele>702.0</ele><time>2026-04-08T09:15:18.785Z</time></trkpt><trkpt lat="45.5727567" lon="11.079535"><ele>702.0</ele><time>2026-04-08T09:15:21.784Z</time></trkpt><trkpt lat="45.572735" lon="11.07938"><ele>705.1666666666666</ele><time>2026-04-08T09:15:27.785Z</time></trkpt><trkpt lat="45.572715" lon="11.079255"><ele>708.3333333333334</ele><time>2026-04-08T09:15:31.785Z</time></trkpt><trkpt lat="45.5726867" lon="11.07913"><ele>711.5</ele><time>2026-04-08T09:15:37.784Z</time></trkpt><trkpt lat="45.5727167" lon="11.0790133"><ele>714.6666666666667</ele><time>2026-04-08T09:15:40.784Z</time></trkpt><trkpt lat="45.5727533" lon="11.0788883"><ele>717.8333333333334</ele><time>2026-04-08T09:15:44.784Z</time></trkpt><trkpt lat="45.5727733" lon="11.0787917"><ele>721.0</ele><time>2026-04-08T09:15:46.785Z</time></trkpt><trkpt lat="45.5727883" lon="11.0787017"><ele>723.6666666666667</ele><time>2026-04-08T09:15:48.785Z</time></trkpt><trkpt lat="45.5728033" lon="11.078595"><ele>726.3333333333334</ele><time>2026-04-08T09:15:50.784Z</time></trkpt><trkpt lat="45.572815" lon="11.0784717"><ele>729.0</ele><time>2026-04-08T09:15:52.784Z</time></trkpt><trkpt lat="45.57284" lon="11.0783483"><ele>731.6666666666666</ele><time>2026-04-08T09:15:54.784Z</time></trkpt><trkpt lat="45.57285" lon="11.0782383"><ele>734.3333333333333</ele><time>2026-04-08T09:15:56.784Z</time></trkpt><trkpt lat="45.5728467" lon="11.0781083"><ele>737.0</ele><time>2026-04-08T09:15:59.785Z</time></trkpt><trkpt lat="45.5728017" lon="11.0780217"><ele>738.5</ele><time>2026-04-08T09:16:01.784Z</time></trkpt><trkpt lat="45.5727567" lon="11.0779083"><ele>740.0</ele><time>2026-04-08T09:16:04.785Z</time></trkpt><trkpt lat="45.5727033" lon="11.0778467"><ele>741.5</ele><time>2026-04-08T09:16:06.785Z</time></trkpt><trkpt lat="45.5726083" lon="11.0777833"><ele>743.0</ele><time>2026-04-08T09:16:08.784Z</time></trkpt><trkpt lat="45.57253" lon="11.0777583"><ele>744.5</ele><time>2026-04-08T09:16:10.785Z</time></trkpt><trkpt lat="45.5724417" lon="11.07771"><ele>746.0</ele><time>2026-04-08T09:16:12.784Z</time></trkpt><trkpt lat="45.572385" lon="11.0776667"><ele>746.0</ele><time>2026-04-08T09:16:14.785Z</time></trkpt><trkpt lat="45.5722817" lon="11.0776717"><ele>746.0</ele><time>2026-04-08T09:16:16.784Z</time></trkpt><trkpt lat="45.5721967" lon="11.0777283"><ele>746.0</ele><time>2026-04-08T09:16:18.785Z</time></trkpt><trkpt lat="45.5721433" lon="11.0777883"><ele>746.0</ele><time>2026-04-08T09:16:20.784Z</time></trkpt><trkpt lat="45.5720917" lon="11.0778733"><ele>746.0</ele><time>2026-04-08T09:16:35.784Z</time></trkpt><trkpt lat="45.5720317" lon="11.0779133"><ele>746.0</ele><time>2026-04-08T09:16:37.785Z</time></trkpt><trkpt lat="45.5719633" lon="11.07789"><ele>748.5999999999999</ele><time>2026-04-08T09:16:39.785Z</time></trkpt><trkpt lat="45.5719067" lon="11.0778033"><ele>751.2</ele><time>2026-04-08T09:16:41.784Z</time></trkpt><trkpt lat="45.57185" lon="11.0776767"><ele>753.8</ele><time>2026-04-08T09:16:43.785Z</time></trkpt><trkpt lat="45.5717933" lon="11.0774983"><ele>756.4000000000001</ele><time>2026-04-08T09:16:45.785Z</time></trkpt><trkpt lat="45.5717467" lon="11.077415"><ele>759.0</ele><time>2026-04-08T09:16:46.784Z</time></trkpt><trkpt lat="45.5717" lon="11.0773283"><ele>760.1666666666666</ele><time>2026-04-08T09:16:47.784Z</time></trkpt><trkpt lat="45.5716633" lon="11.0772417"><ele>761.3333333333334</ele><time>2026-04-08T09:16:48.785Z</time></trkpt><trkpt lat="45.5716317" lon="11.077155"><ele>762.5</ele><time>2026-04-08T09:16:49.785Z</time></trkpt><trkpt lat="45.5715933" lon="11.07707"><ele>763.6666666666667</ele><time>2026-04-08T09:16:50.785Z</time></trkpt><trkpt lat="45.5715583" lon="11.0769917"><ele>764.8333333333334</ele><time>2026-04-08T09:16:51.785Z</time></trkpt><trkpt lat="45.5715483" lon="11.0768683"><ele>766.0</ele><time>2026-04-08T09:16:53.784Z</time></trkpt><trkpt lat="45.5715717" lon="11.076735"><ele>766.0</ele><time>2026-04-08T09:16:55.784Z</time></trkpt><trkpt lat="45.57158" lon="11.076625"><ele>766.0</ele><time>2026-04-08T09:16:57.785Z</time></trkpt><trkpt lat="45.5715167" lon="11.0765567"><ele>766.0</ele><time>2026-04-08T09:17:14.785Z</time></trkpt><trkpt lat="45.5714467" lon="11.0765967"><ele>766.0</ele><time>2026-04-08T09:17:15.785Z</time></trkpt><trkpt lat="45.5713617" lon="11.0766333"><ele>766.0</ele><time>2026-04-08T09:17:16.785Z</time></trkpt><trkpt lat="45.571265" lon="11.0766417"><ele>766.0</ele><time>2026-04-08T09:17:17.783Z</time></trkpt><trkpt lat="45.5711633" lon="11.0766367"><ele>767.0</ele><time>2026-04-08T09:17:18.783Z</time></trkpt><trkpt lat="45.5710683" lon="11.0766133"><ele>768.0</ele><time>2026-04-08T09:17:19.784Z</time></trkpt><trkpt lat="45.5709583" lon="11.076565"><ele>769.0</ele><time>2026-04-08T09:17:20.784Z</time></trkpt><trkpt lat="45.5708217" lon="11.0764933"><ele>770.0</ele><time>2026-04-08T09:17:21.783Z</time></trkpt><trkpt lat="45.57068" lon="11.076415"><ele>770.0</ele><time>2026-04-08T09:17:22.784Z</time></trkpt><trkpt lat="45.5705517" lon="11.0763567"><ele>770.0</ele><time>2026-04-08T09:17:23.783Z</time></trkpt><trkpt lat="45.570415" lon="11.0762983"><ele>770.0</ele><time>2026-04-08T09:17:24.783Z</time></trkpt><trkpt lat="45.570285" lon="11.0762583"><ele>770.0</ele><time>2026-04-08T09:17:25.783Z</time></trkpt><trkpt lat="45.5701683" lon="11.0762433"><ele>766.75</ele><time>2026-04-08T09:17:26.783Z</time></trkpt><trkpt lat="45.5700417" lon="11.0762467"><ele>763.5</ele><time>2026-04-08T09:17:27.784Z</time></trkpt><trkpt lat="45.5699167" lon="11.07625"><ele>760.25</ele><time>2026-04-08T09:17:28.784Z</time></trkpt><trkpt lat="45.569785" lon="11.0762517"><ele>757.0</ele><time>2026-04-08T09:17:29.784Z</time></trkpt><trkpt lat="45.5696433" lon="11.07625"><ele>754.0</ele><time>2026-04-08T09:17:30.783Z</time></trkpt><trkpt lat="45.56951" lon="11.0762467"><ele>751.0</ele><time>2026-04-08T09:17:31.784Z</time></trkpt><trkpt lat="45.5693533" lon="11.076235"><ele>748.0</ele><time>2026-04-08T09:17:32.783Z</time></trkpt><trkpt lat="45.5692" lon="11.0762517"><ele>745.0</ele><time>2026-04-08T09:17:33.784Z</time></trkpt><trkpt lat="45.5690567" lon="11.0762983"><ele>745.0</ele><time>2026-04-08T09:17:34.784Z</time></trkpt><trkpt lat="45.568925" lon="11.0763317"><ele>745.0</ele><time>2026-04-08T09:17:35.783Z</time></trkpt><trkpt lat="45.5687967" lon="11.0763817"><ele>745.0</ele><time>2026-04-08T09:17:36.784Z</time></trkpt><trkpt lat="45.56867" lon="11.0764267"><ele>745.0</ele><time>2026-04-08T09:17:37.784Z</time></trkpt><trkpt lat="45.568545" lon="11.0764517"><ele>740.5</ele><time>2026-04-08T09:17:38.784Z</time></trkpt><trkpt lat="45.568395" lon="11.0764717"><ele>736.0</ele><time>2026-04-08T09:17:39.783Z</time></trkpt><trkpt lat="45.5682717" lon="11.07649"><ele>731.5</ele><time>2026-04-08T09:17:40.783Z</time></trkpt><trkpt lat="45.56816" lon="11.0764717"><ele>727.0</ele><time>2026-04-08T09:17:41.783Z</time></trkpt><trkpt lat="45.5680567" lon="11.0764483"><ele>727.0</ele><time>2026-04-08T09:17:42.783Z</time></trkpt><trkpt lat="45.56795" lon="11.07644"><ele>727.0</ele><time>2026-04-08T09:17:43.784Z</time></trkpt><trkpt lat="45.5678617" lon="11.0764"><ele>727.0</ele><time>2026-04-08T09:17:44.784Z</time></trkpt><trkpt lat="45.567775" lon="11.076355"><ele>727.0</ele><time>2026-04-08T09:17:45.783Z</time></trkpt><trkpt lat="45.567695" lon="11.0762867"><ele>727.0</ele><time>2026-04-08T09:17:46.784Z</time></trkpt><trkpt lat="45.567615" lon="11.0762233"><ele>725.2</ele><time>2026-04-08T09:17:47.783Z</time></trkpt><trkpt lat="45.5675533" lon="11.076165"><ele>723.4000000000001</ele><time>2026-04-08T09:17:48.784Z</time></trkpt><trkpt lat="45.5674967" lon="11.07611"><ele>721.5999999999999</ele><time>2026-04-08T09:17:49.783Z</time></trkpt><trkpt lat="45.5674367" lon="11.0760183"><ele>719.8</ele><time>2026-04-08T09:17:51.783Z</time></trkpt><trkpt lat="45.5675583" lon="11.0758933"><ele>718.0</ele><time>2026-04-08T09:17:53.784Z</time></trkpt><trkpt lat="45.5676867" lon="11.0758333"><ele>718.0</ele><time>2026-04-08T09:17:54.783Z</time></trkpt><trkpt lat="45.5677583" lon="11.0757817"><ele>718.0</ele><time>2026-04-08T09:17:55.783Z</time></trkpt><trkpt lat="45.5679283" lon="11.0757583"><ele>718.0</ele><time>2026-04-08T09:17:56.783Z</time></trkpt><trkpt lat="45.5680883" lon="11.07572"><ele>718.0</ele><time>2026-04-08T09:17:57.783Z</time></trkpt><trkpt lat="45.568215" lon="11.075655"><ele>720.5999999999999</ele><time>2026-04-08T09:17:58.784Z</time></trkpt><trkpt lat="45.568295" lon="11.0755767"><ele>723.1999999999999</ele><time>2026-04-08T09:17:59.784Z</time></trkpt><trkpt lat="45.568385" lon="11.0754933"><ele>725.8</ele><time>2026-04-08T09:18:00.783Z</time></trkpt><trkpt lat="45.5684633" lon="11.0754183"><ele>728.4</ele><time>2026-04-08T09:18:01.783Z</time></trkpt><trkpt lat="45.568465" lon="11.0752967"><ele>731.0</ele><time>2026-04-08T09:18:02.784Z</time></trkpt><trkpt lat="45.5683417" lon="11.0751183"><ele>731.0</ele><time>2026-04-08T09:18:03.784Z</time></trkpt><trkpt lat="45.5683117" lon="11.0749933"><ele>731.0</ele><time>2026-04-08T09:18:04.783Z</time></trkpt><trkpt lat="45.5682617" lon="11.0748667"><ele>731.0</ele><time>2026-04-08T09:18:05.784Z</time></trkpt><trkpt lat="45.5681767" lon="11.0746967"><ele>731.0</ele><time>2026-04-08T09:18:06.783Z</time></trkpt><trkpt lat="45.568075" lon="11.0745217"><ele>729.6666666666666</ele><time>2026-04-08T09:18:07.784Z</time></trkpt><trkpt lat="45.56798" lon="11.0743283"><ele>728.3333333333334</ele><time>2026-04-08T09:18:08.783Z</time></trkpt><trkpt lat="45.5678933" lon="11.0741533"><ele>727.0</ele><time>2026-04-08T09:18:09.783Z</time></trkpt><trkpt lat="45.5678333" lon="11.0739783"><ele>727.0</ele><time>2026-04-08T09:18:10.783Z</time></trkpt><trkpt lat="45.5678" lon="11.07377"><ele>727.0</ele><time>2026-04-08T09:18:11.784Z</time></trkpt><trkpt lat="45.56776" lon="11.07358"><ele>727.0</ele><time>2026-04-08T09:18:12.783Z</time></trkpt><trkpt lat="45.56772" lon="11.07338"><ele>727.0</ele><time>2026-04-08T09:18:13.783Z</time></trkpt><trkpt lat="45.5676567" lon="11.0732033"><ele>726.6</ele><time>2026-04-08T09:18:14.783Z</time></trkpt><trkpt lat="45.5676283" lon="11.0730267"><ele>726.2</ele><time>2026-04-08T09:18:15.784Z</time></trkpt><trkpt lat="45.5676467" lon="11.0729067"><ele>725.8</ele><time>2026-04-08T09:18:16.783Z</time></trkpt><trkpt lat="45.56772" lon="11.0728533"><ele>725.4</ele><time>2026-04-08T09:18:17.784Z</time></trkpt><trkpt lat="45.56779" lon="11.0727883"><ele>725.0</ele><time>2026-04-08T09:18:18.784Z</time></trkpt><trkpt lat="45.5678517" lon="11.0727033"><ele>726.5</ele><time>2026-04-08T09:18:19.783Z</time></trkpt><trkpt lat="45.5679917" lon="11.072675"><ele>728.0</ele><time>2026-04-08T09:18:20.784Z</time></trkpt><trkpt lat="45.5681217" lon="11.0726367"><ele>729.5</ele><time>2026-04-08T09:18:21.783Z</time></trkpt><trkpt lat="45.5682517" lon="11.0726283"><ele>731.0</ele><time>2026-04-08T09:18:22.784Z</time></trkpt><trkpt lat="45.5683867" lon="11.0726283"><ele>731.0</ele><time>2026-04-08T09:18:23.783Z</time></trkpt><trkpt lat="45.5685333" lon="11.0726117"><ele>731.0</ele><time>2026-04-08T09:18:24.783Z</time></trkpt><trkpt lat="45.5686567" lon="11.07259"><ele>731.0</ele><time>2026-04-08T09:18:25.783Z</time></trkpt><trkpt lat="45.5687767" lon="11.07256"><ele>731.0</ele><time>2026-04-08T09:18:26.784Z</time></trkpt><trkpt lat="45.5689267" lon="11.0725383"><ele>733.25</ele><time>2026-04-08T09:18:27.783Z</time></trkpt><trkpt lat="45.5690583" lon="11.0724983"><ele>735.5</ele><time>2026-04-08T09:18:28.783Z</time></trkpt><trkpt lat="45.5691933" lon="11.0724617"><ele>737.75</ele><time>2026-04-08T09:18:29.783Z</time></trkpt><trkpt lat="45.5693133" lon="11.072395"><ele>740.0</ele><time>2026-04-08T09:18:30.784Z</time></trkpt><trkpt lat="45.5694283" lon="11.072345"><ele>736.0</ele><time>2026-04-08T09:18:31.783Z</time></trkpt><trkpt lat="45.5695817" lon="11.072275"><ele>732.0</ele><time>2026-04-08T09:18:32.784Z</time></trkpt><trkpt lat="45.5696917" lon="11.0722217"><ele>728.0</ele><time>2026-04-08T09:18:33.784Z</time></trkpt><trkpt lat="45.56982" lon="11.0721233"><ele>724.0</ele><time>2026-04-08T09:18:34.783Z</time></trkpt><trkpt lat="45.5699267" lon="11.072065"><ele>724.0</ele><time>2026-04-08T09:18:35.784Z</time></trkpt><trkpt lat="45.5700533" lon="11.0720117"><ele>724.0</ele><time>2026-04-08T09:18:36.784Z</time></trkpt><trkpt lat="45.5701767" lon="11.07198"><ele>724.0</ele><time>2026-04-08T09:18:37.784Z</time></trkpt><trkpt lat="45.5703067" lon="11.0719333"><ele>724.0</ele><time>2026-04-08T09:18:38.784Z</time></trkpt><trkpt lat="45.5704433" lon="11.0719"><ele>726.75</ele><time>2026-04-08T09:18:39.784Z</time></trkpt><trkpt lat="45.570585" lon="11.07187"><ele>729.5</ele><time>2026-04-08T09:18:40.783Z</time></trkpt><trkpt lat="45.5707333" lon="11.0718583"><ele>732.25</ele><time>2026-04-08T09:18:41.783Z</time></trkpt><trkpt lat="45.5708433" lon="11.07184"><ele>735.0</ele><time>2026-04-08T09:18:42.784Z</time></trkpt><trkpt lat="45.570935" lon="11.0718167"><ele>735.0</ele><time>2026-04-08T09:18:43.784Z</time></trkpt><trkpt lat="45.5710333" lon="11.0717917"><ele>735.0</ele><time>2026-04-08T09:18:44.783Z</time></trkpt><trkpt lat="45.571095" lon="11.0717533"><ele>735.0</ele><time>2026-04-08T09:18:45.783Z</time></trkpt><trkpt lat="45.5711567" lon="11.071715"><ele>735.0</ele><time>2026-04-08T09:18:46.784Z</time></trkpt><trkpt lat="45.5712333" lon="11.0716633"><ele>735.0</ele><time>2026-04-08T09:18:47.783Z</time></trkpt><trkpt lat="45.571315" lon="11.0715783"><ele>735.0</ele><time>2026-04-08T09:18:48.784Z</time></trkpt><trkpt lat="45.5714" lon="11.071515"><ele>735.75</ele><time>2026-04-08T09:18:49.784Z</time></trkpt><trkpt lat="45.5714967" lon="11.071425"><ele>736.5</ele><time>2026-04-08T09:18:50.783Z</time></trkpt><trkpt lat="45.5715733" lon="11.0712833"><ele>737.25</ele><time>2026-04-08T09:18:51.784Z</time></trkpt><trkpt lat="45.5716683" lon="11.0711667"><ele>738.0</ele><time>2026-04-08T09:18:52.784Z</time></trkpt><trkpt lat="45.5717667" lon="11.0710583"><ele>738.0</ele><time>2026-04-08T09:18:53.783Z</time></trkpt><trkpt lat="45.5718683" lon="11.07098"><ele>738.0</ele><time>2026-04-08T09:18:54.783Z</time></trkpt><trkpt lat="45.5719617" lon="11.07094"><ele>738.0</ele><time>2026-04-08T09:18:55.784Z</time></trkpt><trkpt lat="45.572065" lon="11.0709"><ele>738.0</ele><time>2026-04-08T09:18:56.784Z</time></trkpt><trkpt lat="45.5721733" lon="11.070875"><ele>738.0</ele><time>2026-04-08T09:18:57.783Z</time></trkpt><trkpt lat="45.5722833" lon="11.0708667"><ele>738.25</ele><time>2026-04-08T09:18:58.784Z</time></trkpt><trkpt lat="45.5723983" lon="11.07086"><ele>738.5</ele><time>2026-04-08T09:18:59.784Z</time></trkpt><trkpt lat="45.57253" lon="11.0709083"><ele>738.75</ele><time>2026-04-08T09:19:00.784Z</time></trkpt><trkpt lat="45.5726617" lon="11.0709467"><ele>739.0</ele><time>2026-04-08T09:19:01.784Z</time></trkpt><trkpt lat="45.5727917" lon="11.0709767"><ele>738.25</ele><time>2026-04-08T09:19:02.784Z</time></trkpt><trkpt lat="45.5729183" lon="11.0709967"><ele>737.5</ele><time>2026-04-08T09:19:03.784Z</time></trkpt><trkpt lat="45.57306" lon="11.07099"><ele>736.75</ele><time>2026-04-08T09:19:04.784Z</time></trkpt><trkpt lat="45.5731867" lon="11.0709533"><ele>736.0</ele><time>2026-04-08T09:19:05.783Z</time></trkpt><trkpt lat="45.5733117" lon="11.070915"><ele>736.0</ele><time>2026-04-08T09:19:06.784Z</time></trkpt><trkpt lat="45.5734117" lon="11.070855"><ele>736.0</ele><time>2026-04-08T09:19:07.783Z</time></trkpt><trkpt lat="45.573505" lon="11.0707833"><ele>736.0</ele><time>2026-04-08T09:19:08.783Z</time></trkpt><trkpt lat="45.57359" lon="11.0706967"><ele>736.0</ele><time>2026-04-08T09:19:09.784Z</time></trkpt><trkpt lat="45.5736683" lon="11.070595"><ele>736.0</ele><time>2026-04-08T09:19:10.783Z</time></trkpt><trkpt lat="45.573735" lon="11.070475"><ele>734.0</ele><time>2026-04-08T09:19:11.784Z</time></trkpt><trkpt lat="45.57382" lon="11.07037"><ele>732.0</ele><time>2026-04-08T09:19:12.784Z</time></trkpt><trkpt lat="45.5739083" lon="11.0702883"><ele>730.0</ele><time>2026-04-08T09:19:13.783Z</time></trkpt><trkpt lat="45.5740033" lon="11.0702483"><ele>728.0</ele><time>2026-04-08T09:19:14.783Z</time></trkpt><trkpt lat="45.5740917" lon="11.0702383"><ele>726.0</ele><time>2026-04-08T09:19:15.783Z</time></trkpt><trkpt lat="45.5741633" lon="11.0702017"><ele>726.0</ele><time>2026-04-08T09:19:16.784Z</time></trkpt><trkpt lat="45.57424" lon="11.0701517"><ele>726.0</ele><time>2026-04-08T09:19:18.784Z</time></trkpt><trkpt lat="45.5742583" lon="11.0700167"><ele>726.0</ele><time>2026-04-08T09:19:20.783Z</time></trkpt><trkpt lat="45.5742283" lon="11.0698333"><ele>726.0</ele><time>2026-04-08T09:19:22.783Z</time></trkpt><trkpt lat="45.5741967" lon="11.0697483"><ele>726.0</ele><time>2026-04-08T09:19:23.784Z</time></trkpt><trkpt lat="45.57419" lon="11.0695867"><ele>726.1666666666666</ele><time>2026-04-08T09:19:25.783Z</time></trkpt><trkpt lat="45.574195" lon="11.0694733"><ele>726.3333333333334</ele><time>2026-04-08T09:19:26.784Z</time></trkpt><trkpt lat="45.574255" lon="11.06936"><ele>726.5</ele><time>2026-04-08T09:19:27.784Z</time></trkpt><trkpt lat="45.5742767" lon="11.0692467"><ele>726.6666666666667</ele><time>2026-04-08T09:19:28.784Z</time></trkpt><trkpt lat="45.57424" lon="11.0691367"><ele>726.8333333333334</ele><time>2026-04-08T09:19:29.783Z</time></trkpt><trkpt lat="45.5741983" lon="11.0690283"><ele>727.0</ele><time>2026-04-08T09:19:30.783Z</time></trkpt><trkpt lat="45.5741283" lon="11.0689317"><ele>728.6</ele><time>2026-04-08T09:19:31.783Z</time></trkpt><trkpt lat="45.57406" lon="11.0688483"><ele>730.2</ele><time>2026-04-08T09:19:32.784Z</time></trkpt><trkpt lat="45.5740067" lon="11.0687633"><ele>731.8</ele><time>2026-04-08T09:19:33.784Z</time></trkpt><trkpt lat="45.57397" lon="11.0686267"><ele>733.4</ele><time>2026-04-08T09:19:34.784Z</time></trkpt><trkpt lat="45.5739567" lon="11.068465"><ele>735.0</ele><time>2026-04-08T09:19:35.783Z</time></trkpt><trkpt lat="45.5739217" lon="11.0682933"><ele>736.75</ele><time>2026-04-08T09:19:36.784Z</time></trkpt><trkpt lat="45.5738817" lon="11.0681283"><ele>738.5</ele><time>2026-04-08T09:19:37.783Z</time></trkpt><trkpt lat="45.5738317" lon="11.067975"><ele>740.25</ele><time>2026-04-08T09:19:38.783Z</time></trkpt><trkpt lat="45.5737867" lon="11.0678167"><ele>742.0</ele><time>2026-04-08T09:19:39.784Z</time></trkpt><trkpt lat="45.5737483" lon="11.0676583"><ele>742.0</ele><time>2026-04-08T09:19:40.784Z</time></trkpt><trkpt lat="45.5737283" lon="11.06748"><ele>742.0</ele><time>2026-04-08T09:19:41.783Z</time></trkpt><trkpt lat="45.5737217" lon="11.067325"><ele>742.0</ele><time>2026-04-08T09:19:42.784Z</time></trkpt><trkpt lat="45.5737283" lon="11.0671467"><ele>742.0</ele><time>2026-04-08T09:19:43.784Z</time></trkpt><trkpt lat="45.5737367" lon="11.066975"><ele>742.2</ele><time>2026-04-08T09:19:44.783Z</time></trkpt><trkpt lat="45.57374" lon="11.066805"><ele>742.4000000000001</ele><time>2026-04-08T09:19:45.784Z</time></trkpt><trkpt lat="45.57376" lon="11.066645"><ele>742.5999999999999</ele><time>2026-04-08T09:19:46.784Z</time></trkpt><trkpt lat="45.5737933" lon="11.06651"><ele>742.8</ele><time>2026-04-08T09:19:47.783Z</time></trkpt><trkpt lat="45.57382" lon="11.0663833"><ele>743.0</ele><time>2026-04-08T09:19:48.783Z</time></trkpt><trkpt lat="45.573855" lon="11.0662883"><ele>743.0</ele><time>2026-04-08T09:19:49.783Z</time></trkpt><trkpt lat="45.57388" lon="11.0661917"><ele>743.0</ele><time>2026-04-08T09:19:51.784Z</time></trkpt><trkpt lat="45.5739133" lon="11.0660583"><ele>743.0</ele><time>2026-04-08T09:19:54.783Z</time></trkpt><trkpt lat="45.5739383" lon="11.0658817"><ele>743.0</ele><time>2026-04-08T09:19:56.783Z</time></trkpt><trkpt lat="45.5739633" lon="11.06578"><ele>743.0</ele><time>2026-04-08T09:19:57.784Z</time></trkpt><trkpt lat="45.5739817" lon="11.0656267"><ele>742.8333333333333</ele><time>2026-04-08T09:19:58.784Z</time></trkpt><trkpt lat="45.5740083" lon="11.0654983"><ele>742.6666666666666</ele><time>2026-04-08T09:19:59.783Z</time></trkpt><trkpt lat="45.5740233" lon="11.0653867"><ele>742.5</ele><time>2026-04-08T09:20:00.784Z</time></trkpt><trkpt lat="45.5740567" lon="11.0652517"><ele>742.3333333333334</ele><time>2026-04-08T09:20:02.784Z</time></trkpt><trkpt lat="45.5741283" lon="11.06521"><ele>742.1666666666667</ele><time>2026-04-08T09:20:05.784Z</time></trkpt><trkpt lat="45.5742133" lon="11.0652433"><ele>742.0</ele><time>2026-04-08T09:20:08.784Z</time></trkpt><trkpt lat="45.5742717" lon="11.0653533"><ele>742.0</ele><time>2026-04-08T09:20:10.783Z</time></trkpt><trkpt lat="45.5743733" lon="11.0654667"><ele>742.0</ele><time>2026-04-08T09:20:12.783Z</time></trkpt><trkpt lat="45.5744417" lon="11.0655117"><ele>742.0</ele><time>2026-04-08T09:20:13.783Z</time></trkpt><trkpt lat="45.5745017" lon="11.065545"><ele>742.0</ele><time>2026-04-08T09:20:14.782Z</time></trkpt><trkpt lat="45.5745833" lon="11.0655667"><ele>742.0</ele><time>2026-04-08T09:20:15.782Z</time></trkpt><trkpt lat="45.5746667" lon="11.0656117"><ele>742.0</ele><time>2026-04-08T09:20:16.783Z</time></trkpt><trkpt lat="45.5747533" lon="11.0656417"><ele>738.0</ele><time>2026-04-08T09:20:17.782Z</time></trkpt><trkpt lat="45.57485" lon="11.065665"><ele>734.0</ele><time>2026-04-08T09:20:18.782Z</time></trkpt><trkpt lat="45.5749483" lon="11.0656667"><ele>730.0</ele><time>2026-04-08T09:20:19.783Z</time></trkpt><trkpt lat="45.575045" lon="11.06567"><ele>726.0</ele><time>2026-04-08T09:20:20.783Z</time></trkpt><trkpt lat="45.5751333" lon="11.06568"><ele>722.0</ele><time>2026-04-08T09:20:21.783Z</time></trkpt><trkpt lat="45.5752167" lon="11.0656583"><ele>722.0</ele><time>2026-04-08T09:20:22.783Z</time></trkpt><trkpt lat="45.5752917" lon="11.0656167"><ele>722.0</ele><time>2026-04-08T09:20:23.782Z</time></trkpt><trkpt lat="45.5753467" lon="11.0655483"><ele>722.0</ele><time>2026-04-08T09:20:24.782Z</time></trkpt><trkpt lat="45.5753933" lon="11.065475"><ele>722.0</ele><time>2026-04-08T09:20:25.783Z</time></trkpt><trkpt lat="45.5754317" lon="11.065355"><ele>722.0</ele><time>2026-04-08T09:20:26.783Z</time></trkpt><trkpt lat="45.575475" lon="11.065245"><ele>722.0</ele><time>2026-04-08T09:20:27.782Z</time></trkpt><trkpt lat="45.5755317" lon="11.0651233"><ele>721.5</ele><time>2026-04-08T09:20:28.782Z</time></trkpt><trkpt lat="45.5755867" lon="11.0650533"><ele>721.0</ele><time>2026-04-08T09:20:29.782Z</time></trkpt><trkpt lat="45.5756483" lon="11.0649767"><ele>720.5</ele><time>2026-04-08T09:20:30.783Z</time></trkpt><trkpt lat="45.5757283" lon="11.0649167"><ele>720.0</ele><time>2026-04-08T09:20:31.783Z</time></trkpt><trkpt lat="45.5757917" lon="11.0649017"><ele>719.5</ele><time>2026-04-08T09:20:32.782Z</time></trkpt><trkpt lat="45.5758617" lon="11.0648817"><ele>719.0</ele><time>2026-04-08T09:20:33.782Z</time></trkpt><trkpt lat="45.5759583" lon="11.0648133"><ele>719.0</ele><time>2026-04-08T09:20:35.782Z</time></trkpt><trkpt lat="45.57607" lon="11.0648033"><ele>719.0</ele><time>2026-04-08T09:20:37.782Z</time></trkpt><trkpt lat="45.5761983" lon="11.0647667"><ele>719.0</ele><time>2026-04-08T09:20:39.783Z</time></trkpt><trkpt lat="45.5762667" lon="11.0647283"><ele>719.0</ele><time>2026-04-08T09:20:40.782Z</time></trkpt><trkpt lat="45.57635" lon="11.0646383"><ele>719.0</ele><time>2026-04-08T09:20:41.783Z</time></trkpt><trkpt lat="45.5764017" lon="11.0645417"><ele>718.4000000000001</ele><time>2026-04-08T09:20:43.783Z</time></trkpt><trkpt lat="45.576355" lon="11.0644367"><ele>717.8</ele><time>2026-04-08T09:20:45.783Z</time></trkpt><trkpt lat="45.5762717" lon="11.0642767"><ele>717.2</ele><time>2026-04-08T09:20:47.783Z</time></trkpt><trkpt lat="45.5762017" lon="11.0641633"><ele>716.5999999999999</ele><time>2026-04-08T09:20:48.783Z</time></trkpt><trkpt lat="45.5761583" lon="11.0640917"><ele>716.0</ele><time>2026-04-08T09:20:49.782Z</time></trkpt><trkpt lat="45.5761317" lon="11.0639683"><ele>716.0</ele><time>2026-04-08T09:20:51.782Z</time></trkpt><trkpt lat="45.5760933" lon="11.0638183"><ele>716.0</ele><time>2026-04-08T09:20:53.782Z</time></trkpt><trkpt lat="45.57607" lon="11.06371"><ele>716.0</ele><time>2026-04-08T09:20:54.783Z</time></trkpt><trkpt lat="45.5760367" lon="11.0636067"><ele>716.0</ele><time>2026-04-08T09:20:55.782Z</time></trkpt><trkpt lat="45.5759917" lon="11.0634517"><ele>716.0</ele><time>2026-04-08T09:20:56.783Z</time></trkpt><trkpt lat="45.5759583" lon="11.063285"><ele>715.0</ele><time>2026-04-08T09:20:57.783Z</time></trkpt><trkpt lat="45.5759183" lon="11.063125"><ele>714.0</ele><time>2026-04-08T09:20:58.782Z</time></trkpt><trkpt lat="45.5758967" lon="11.0629267"><ele>713.0</ele><time>2026-04-08T09:20:59.783Z</time></trkpt><trkpt lat="45.5758733" lon="11.0627383"><ele>712.0</ele><time>2026-04-08T09:21:00.782Z</time></trkpt><trkpt lat="45.5758417" lon="11.062575"><ele>710.4000000000001</ele><time>2026-04-08T09:21:01.783Z</time></trkpt><trkpt lat="45.5758333" lon="11.062405"><ele>708.8000000000001</ele><time>2026-04-08T09:21:02.782Z</time></trkpt><trkpt lat="45.5758867" lon="11.06227"><ele>707.2</ele><time>2026-04-08T09:21:03.783Z</time></trkpt><trkpt lat="45.5758883" lon="11.0621317"><ele>705.6</ele><time>2026-04-08T09:21:04.782Z</time></trkpt><trkpt lat="45.575905" lon="11.0620117"><ele>704.0</ele><time>2026-04-08T09:21:05.782Z</time></trkpt><trkpt lat="45.57594" lon="11.0618983"><ele>704.0</ele><time>2026-04-08T09:21:06.782Z</time></trkpt><trkpt lat="45.5759933" lon="11.0618"><ele>704.0</ele><time>2026-04-08T09:21:07.783Z</time></trkpt><trkpt lat="45.5760567" lon="11.0617133"><ele>704.0</ele><time>2026-04-08T09:21:08.782Z</time></trkpt><trkpt lat="45.5761517" lon="11.0616483"><ele>704.0</ele><time>2026-04-08T09:21:09.782Z</time></trkpt><trkpt lat="45.5762317" lon="11.06159"><ele>704.0</ele><time>2026-04-08T09:21:10.782Z</time></trkpt><trkpt lat="45.5762933" lon="11.0615217"><ele>704.0</ele><time>2026-04-08T09:21:11.783Z</time></trkpt><trkpt lat="45.5763633" lon="11.06145"><ele>703.0</ele><time>2026-04-08T09:21:12.783Z</time></trkpt><trkpt lat="45.576435" lon="11.061385"><ele>702.0</ele><time>2026-04-08T09:21:13.782Z</time></trkpt><trkpt lat="45.576505" lon="11.0613283"><ele>701.0</ele><time>2026-04-08T09:21:14.783Z</time></trkpt><trkpt lat="45.57658" lon="11.06128"><ele>700.0</ele><time>2026-04-08T09:21:15.782Z</time></trkpt><trkpt lat="45.5766583" lon="11.0612317"><ele>699.0</ele><time>2026-04-08T09:21:16.783Z</time></trkpt><trkpt lat="45.57672" lon="11.0611983"><ele>698.0</ele><time>2026-04-08T09:21:17.783Z</time></trkpt><trkpt lat="45.5768283" lon="11.0611867"><ele>698.0</ele><time>2026-04-08T09:21:19.782Z</time></trkpt><trkpt lat="45.5768917" lon="11.0611867"><ele>698.0</ele><time>2026-04-08T09:21:20.783Z</time></trkpt><trkpt lat="45.57696" lon="11.0612167"><ele>698.0</ele><time>2026-04-08T09:21:21.783Z</time></trkpt><trkpt lat="45.57711" lon="11.0613517"><ele>698.0</ele><time>2026-04-08T09:21:23.782Z</time></trkpt><trkpt lat="45.577185" lon="11.061475"><ele>698.0</ele><time>2026-04-08T09:21:25.783Z</time></trkpt><trkpt lat="45.5772567" lon="11.0614533"><ele>697.2</ele><time>2026-04-08T09:21:39.783Z</time></trkpt><trkpt lat="45.57733" lon="11.0615583"><ele>696.4</ele><time>2026-04-08T09:21:41.783Z</time></trkpt><trkpt lat="45.5774167" lon="11.0616817"><ele>695.6</ele><time>2026-04-08T09:21:43.782Z</time></trkpt><trkpt lat="45.577485" lon="11.061745"><ele>694.8000000000001</ele><time>2026-04-08T09:21:44.783Z</time></trkpt><trkpt lat="45.577545" lon="11.0618167"><ele>694.0</ele><time>2026-04-08T09:21:45.783Z</time></trkpt><trkpt lat="45.5776717" lon="11.06195"><ele>697.3333333333334</ele><time>2026-04-08T09:21:47.783Z</time></trkpt><trkpt lat="45.5777617" lon="11.0620017"><ele>700.6666666666667</ele><time>2026-04-08T09:21:48.783Z</time></trkpt><trkpt lat="45.577845" lon="11.0620483"><ele>704.0</ele><time>2026-04-08T09:21:49.782Z</time></trkpt><trkpt lat="45.5779283" lon="11.06208"><ele>707.3333333333334</ele><time>2026-04-08T09:21:50.782Z</time></trkpt><trkpt lat="45.5779983" lon="11.0621117"><ele>710.6666666666666</ele><time>2026-04-08T09:21:51.783Z</time></trkpt><trkpt lat="45.5780667" lon="11.062145"><ele>714.0</ele><time>2026-04-08T09:21:52.783Z</time></trkpt><trkpt lat="45.578165" lon="11.062115"><ele>714.0</ele><time>2026-04-08T09:21:53.782Z</time></trkpt><trkpt lat="45.578225" lon="11.0620267"><ele>714.0</ele><time>2026-04-08T09:21:54.783Z</time></trkpt><trkpt lat="45.5782967" lon="11.0619"><ele>714.0</ele><time>2026-04-08T09:21:55.782Z</time></trkpt><trkpt lat="45.57837" lon="11.0617583"><ele>714.0</ele><time>2026-04-08T09:21:56.782Z</time></trkpt><trkpt lat="45.5784667" lon="11.061625"><ele>710.4000000000001</ele><time>2026-04-08T09:21:57.782Z</time></trkpt><trkpt lat="45.5785117" lon="11.0615367"><ele>706.8</ele><time>2026-04-08T09:21:58.782Z</time></trkpt><trkpt lat="45.5785583" lon="11.0614667"><ele>703.2</ele><time>2026-04-08T09:21:59.783Z</time></trkpt><trkpt lat="45.5786483" lon="11.0613767"><ele>699.5999999999999</ele><time>2026-04-08T09:22:01.782Z</time></trkpt><trkpt lat="45.5787767" lon="11.0613317"><ele>696.0</ele><time>2026-04-08T09:22:03.783Z</time></trkpt><trkpt lat="45.578845" lon="11.061325"><ele>696.0</ele><time>2026-04-08T09:22:04.782Z</time></trkpt><trkpt lat="45.5789067" lon="11.0613583"><ele>696.0</ele><time>2026-04-08T09:22:05.783Z</time></trkpt><trkpt lat="45.5790117" lon="11.0614417"><ele>696.0</ele><time>2026-04-08T09:22:07.783Z</time></trkpt><trkpt lat="45.5791167" lon="11.0615617"><ele>696.0</ele><time>2026-04-08T09:22:09.783Z</time></trkpt><trkpt lat="45.579195" lon="11.06164"><ele>696.0</ele><time>2026-04-08T09:22:11.783Z</time></trkpt><trkpt lat="45.5792717" lon="11.06165"><ele>697.5</ele><time>2026-04-08T09:22:14.782Z</time></trkpt><trkpt lat="45.5793382" lon="11.0616369"><ele>699.0</ele><time>2026-04-08T09:22:16.782Z</time></trkpt><trkpt lat="45.5794029" lon="11.0616532"><ele>700.5</ele><time>2026-04-08T09:22:18.782Z</time></trkpt><trkpt lat="45.5794702" lon="11.0616752"><ele>702.0</ele><time>2026-04-08T09:22:20.827Z</time></trkpt><trkpt lat="45.5795451" lon="11.061768"><ele>703.5</ele><time>2026-04-08T09:22:22.815Z</time></trkpt><trkpt lat="45.5796866" lon="11.0617806"><ele>705.0</ele><time>2026-04-08T09:22:24.828Z</time></trkpt><trkpt lat="45.5797591" lon="11.0617821"><ele>705.0</ele><time>2026-04-08T09:22:25.766Z</time></trkpt><trkpt lat="45.5798773" lon="11.0617718"><ele>705.0</ele><time>2026-04-08T09:22:26.446Z</time></trkpt><trkpt lat="45.5799784" lon="11.0618247"><ele>705.0</ele><time>2026-04-08T09:22:27.785Z</time></trkpt><trkpt lat="45.5800424" lon="11.0618457"><ele>705.0</ele><time>2026-04-08T09:22:28.746Z</time></trkpt><trkpt lat="45.5801332" lon="11.0618282"><ele>705.0</ele><time>2026-04-08T09:22:29.862Z</time></trkpt><trkpt lat="45.5802049" lon="11.0618528"><ele>705.0</ele><time>2026-04-08T09:22:30.868Z</time></trkpt><trkpt lat="45.5802716" lon="11.0619034"><ele>705.0</ele><time>2026-04-08T09:22:31.783Z</time></trkpt><trkpt lat="45.5803407" lon="11.0619545"><ele>705.0</ele><time>2026-04-08T09:22:32.783Z</time></trkpt><trkpt lat="45.5804105" lon="11.0619937"><ele>705.0</ele><time>2026-04-08T09:22:33.788Z</time></trkpt><trkpt lat="45.5805233" lon="11.0620583"><ele>705.0</ele><time>2026-04-08T09:22:34.783Z</time></trkpt><trkpt lat="45.5806033" lon="11.0621267"><ele>705.0</ele><time>2026-04-08T09:22:35.782Z</time></trkpt><trkpt lat="45.580695" lon="11.0621817"><ele>705.4</ele><time>2026-04-08T09:22:36.783Z</time></trkpt><trkpt lat="45.58078" lon="11.0622433"><ele>705.8</ele><time>2026-04-08T09:22:37.783Z</time></trkpt><trkpt lat="45.5808833" lon="11.0623367"><ele>706.2</ele><time>2026-04-08T09:22:38.783Z</time></trkpt><trkpt lat="45.5809717" lon="11.0624167"><ele>706.6</ele><time>2026-04-08T09:22:39.783Z</time></trkpt><trkpt lat="45.58105" lon="11.0624717"><ele>707.0</ele><time>2026-04-08T09:22:40.783Z</time></trkpt><trkpt lat="45.581145" lon="11.06257"><ele>703.0</ele><time>2026-04-08T09:22:41.783Z</time></trkpt><trkpt lat="45.5812217" lon="11.062645"><ele>699.0</ele><time>2026-04-08T09:22:42.783Z</time></trkpt><trkpt lat="45.5813283" lon="11.0627317"><ele>695.0</ele><time>2026-04-08T09:22:43.783Z</time></trkpt><trkpt lat="45.5813967" lon="11.0628"><ele>691.0</ele><time>2026-04-08T09:22:44.783Z</time></trkpt><trkpt lat="45.581475" lon="11.06288"><ele>687.0</ele><time>2026-04-08T09:22:45.782Z</time></trkpt><trkpt lat="45.581545" lon="11.0629567"><ele>687.0</ele><time>2026-04-08T09:22:46.783Z</time></trkpt><trkpt lat="45.5816083" lon="11.0630483"><ele>687.0</ele><time>2026-04-08T09:22:47.783Z</time></trkpt><trkpt lat="45.5816483" lon="11.0631517"><ele>687.0</ele><time>2026-04-08T09:22:48.783Z</time></trkpt><trkpt lat="45.58163" lon="11.063265"><ele>687.0</ele><time>2026-04-08T09:22:49.783Z</time></trkpt><trkpt lat="45.581675" lon="11.063375"><ele>687.0</ele><time>2026-04-08T09:22:50.782Z</time></trkpt><trkpt lat="45.5817333" lon="11.0635117"><ele>687.0</ele><time>2026-04-08T09:22:52.783Z</time></trkpt><trkpt lat="45.5817333" lon="11.0636133"><ele>687.0</ele><time>2026-04-08T09:22:55.783Z</time></trkpt><trkpt lat="45.5817833" lon="11.0635467"><ele>687.0</ele><time>2026-04-08T09:22:58.783Z</time></trkpt><trkpt lat="45.58185" lon="11.0634767"><ele>687.0</ele><time>2026-04-08T09:23:00.783Z</time></trkpt><trkpt lat="45.5818983" lon="11.06337"><ele>687.0</ele><time>2026-04-08T09:23:03.783Z</time></trkpt><trkpt lat="45.58187" lon="11.0632867"><ele>687.0</ele><time>2026-04-08T09:23:05.783Z</time></trkpt><trkpt lat="45.5818367" lon="11.0631567"><ele>687.0</ele><time>2026-04-08T09:23:07.782Z</time></trkpt><trkpt lat="45.58182" lon="11.06301"><ele>687.0</ele><time>2026-04-08T09:23:09.781Z</time></trkpt><trkpt lat="45.581855" lon="11.062895"><ele>687.0</ele><time>2026-04-08T09:23:11.781Z</time></trkpt><trkpt lat="45.581885" lon="11.0627733"><ele>687.0</ele><time>2026-04-08T09:23:13.782Z</time></trkpt><trkpt lat="45.5819567" lon="11.062665"><ele>687.0</ele><time>2026-04-08T09:23:15.782Z</time></trkpt><trkpt lat="45.581975" lon="11.0625083"><ele>687.6666666666666</ele><time>2026-04-08T09:23:17.782Z</time></trkpt><trkpt lat="45.58198" lon="11.0624167"><ele>688.3333333333334</ele><time>2026-04-08T09:23:18.781Z</time></trkpt><trkpt lat="45.5819983" lon="11.06233"><ele>689.0</ele><time>2026-04-08T09:23:19.781Z</time></trkpt><trkpt lat="45.5820183" lon="11.062235"><ele>689.6666666666667</ele><time>2026-04-08T09:23:20.781Z</time></trkpt><trkpt lat="45.5820383" lon="11.0620617"><ele>690.3333333333334</ele><time>2026-04-08T09:23:22.782Z</time></trkpt><trkpt lat="45.5820483" lon="11.06194"><ele>691.0</ele><time>2026-04-08T09:23:23.781Z</time></trkpt><trkpt lat="45.582075" lon="11.0618117"><ele>698.1999999999999</ele><time>2026-04-08T09:23:24.781Z</time></trkpt><trkpt lat="45.5821" lon="11.0616767"><ele>705.4</ele><time>2026-04-08T09:23:25.781Z</time></trkpt><trkpt lat="45.58212" lon="11.0615433"><ele>712.6</ele><time>2026-04-08T09:23:26.781Z</time></trkpt><trkpt lat="45.582125" lon="11.0614067"><ele>719.8</ele><time>2026-04-08T09:23:27.781Z</time></trkpt><trkpt lat="45.582125" lon="11.0612833"><ele>727.0</ele><time>2026-04-08T09:23:28.781Z</time></trkpt><trkpt lat="45.5821317" lon="11.0611683"><ele>727.2</ele><time>2026-04-08T09:23:29.781Z</time></trkpt><trkpt lat="45.5820817" lon="11.0610117"><ele>727.4000000000001</ele><time>2026-04-08T09:23:30.781Z</time></trkpt><trkpt lat="45.5820717" lon="11.0608933"><ele>727.5999999999999</ele><time>2026-04-08T09:23:31.781Z</time></trkpt><trkpt lat="45.5820567" lon="11.0607733"><ele>727.8</ele><time>2026-04-08T09:23:32.781Z</time></trkpt><trkpt lat="45.5820517" lon="11.060665"><ele>728.0</ele><time>2026-04-08T09:23:33.781Z</time></trkpt><trkpt lat="45.5820083" lon="11.06056"><ele>726.0</ele><time>2026-04-08T09:23:34.782Z</time></trkpt><trkpt lat="45.58199" lon="11.0604567"><ele>724.0</ele><time>2026-04-08T09:23:36.782Z</time></trkpt><trkpt lat="45.5820467" lon="11.060385"><ele>722.0</ele><time>2026-04-08T09:23:38.781Z</time></trkpt><trkpt lat="45.582115" lon="11.0604233"><ele>720.0</ele><time>2026-04-08T09:23:40.781Z</time></trkpt><trkpt lat="45.5821017" lon="11.0605167"><ele>718.0</ele><time>2026-04-08T09:23:43.782Z</time></trkpt><trkpt lat="45.58212" lon="11.06062"><ele>716.0</ele><time>2026-04-08T09:23:45.781Z</time></trkpt><trkpt lat="45.5821933" lon="11.0606917"><ele>716.0</ele><time>2026-04-08T09:23:48.782Z</time></trkpt><trkpt lat="45.5822533" lon="11.06074"><ele>716.0</ele><time>2026-04-08T09:23:50.782Z</time></trkpt><trkpt lat="45.58233" lon="11.0608167"><ele>716.0</ele><time>2026-04-08T09:23:52.782Z</time></trkpt><trkpt lat="45.5823883" lon="11.06088"><ele>716.0</ele><time>2026-04-08T09:23:54.781Z</time></trkpt><trkpt lat="45.5824667" lon="11.0609883"><ele>716.0</ele><time>2026-04-08T09:23:56.782Z</time></trkpt><trkpt lat="45.582545" lon="11.061065"><ele>716.0</ele><time>2026-04-08T09:23:58.782Z</time></trkpt><trkpt lat="45.58261" lon="11.0611067"><ele>717.1666666666666</ele><time>2026-04-08T09:24:00.782Z</time></trkpt><trkpt lat="45.5826833" lon="11.06112"><ele>718.3333333333333</ele><time>2026-04-08T09:24:02.782Z</time></trkpt><trkpt lat="45.582735" lon="11.0610667"><ele>719.5</ele><time>2026-04-08T09:24:05.781Z</time></trkpt><trkpt lat="45.58282" lon="11.0610217"><ele>720.6666666666666</ele><time>2026-04-08T09:24:35.782Z</time></trkpt><trkpt lat="45.5828817" lon="11.0609517"><ele>721.8333333333334</ele><time>2026-04-08T09:24:36.782Z</time></trkpt><trkpt lat="45.58296" lon="11.0608517"><ele>723.0</ele><time>2026-04-08T09:24:37.782Z</time></trkpt><trkpt lat="45.58305" lon="11.0607317"><ele>723.0</ele><time>2026-04-08T09:24:38.782Z</time></trkpt><trkpt lat="45.5831517" lon="11.060625"><ele>723.0</ele><time>2026-04-08T09:24:39.782Z</time></trkpt><trkpt lat="45.5832633" lon="11.0605383"><ele>723.0</ele><time>2026-04-08T09:24:40.781Z</time></trkpt><trkpt lat="45.5833767" lon="11.0604783"><ele>723.0</ele><time>2026-04-08T09:24:41.782Z</time></trkpt><trkpt lat="45.5834967" lon="11.0604417"><ele>723.0</ele><time>2026-04-08T09:24:42.782Z</time></trkpt><trkpt lat="45.5836217" lon="11.0604"><ele>723.0</ele><time>2026-04-08T09:24:43.781Z</time></trkpt><trkpt lat="45.5837567" lon="11.06035"><ele>723.0</ele><time>2026-04-08T09:24:44.782Z</time></trkpt><trkpt lat="45.5838917" lon="11.0603067"><ele>723.0</ele><time>2026-04-08T09:24:45.782Z</time></trkpt><trkpt lat="45.5840233" lon="11.0602617"><ele>722.5</ele><time>2026-04-08T09:24:46.781Z</time></trkpt><trkpt lat="45.5841567" lon="11.0602067"><ele>722.0</ele><time>2026-04-08T09:24:47.781Z</time></trkpt><trkpt lat="45.5842967" lon="11.06017"><ele>721.5</ele><time>2026-04-08T09:24:48.781Z</time></trkpt><trkpt lat="45.5844367" lon="11.0601367"><ele>721.0</ele><time>2026-04-08T09:24:49.781Z</time></trkpt><trkpt lat="45.5845717" lon="11.0601317"><ele>721.0</ele><time>2026-04-08T09:24:50.781Z</time></trkpt><trkpt lat="45.5847217" lon="11.0601417"><ele>721.0</ele><time>2026-04-08T09:24:51.781Z</time></trkpt><trkpt lat="45.58487" lon="11.0601733"><ele>721.0</ele><time>2026-04-08T09:24:52.782Z</time></trkpt><trkpt lat="45.585005" lon="11.060195"><ele>721.0</ele><time>2026-04-08T09:24:53.782Z</time></trkpt><trkpt lat="45.5851217" lon="11.06022"><ele>721.0</ele><time>2026-04-08T09:24:54.782Z</time></trkpt><trkpt lat="45.58523" lon="11.0602567"><ele>721.0</ele><time>2026-04-08T09:24:55.782Z</time></trkpt><trkpt lat="45.5853467" lon="11.0603017"><ele>721.0</ele><time>2026-04-08T09:24:56.782Z</time></trkpt><trkpt lat="45.5854367" lon="11.0603567"><ele>721.0</ele><time>2026-04-08T09:24:57.781Z</time></trkpt><trkpt lat="45.5855033" lon="11.0604217"><ele>721.0</ele><time>2026-04-08T09:24:58.781Z</time></trkpt><trkpt lat="45.5855583" lon="11.0604783"><ele>719.75</ele><time>2026-04-08T09:24:59.781Z</time></trkpt><trkpt lat="45.5856" lon="11.0603833"><ele>718.5</ele><time>2026-04-08T09:25:03.781Z</time></trkpt><trkpt lat="45.5855167" lon="11.0602133"><ele>717.25</ele><time>2026-04-08T09:25:05.782Z</time></trkpt><trkpt lat="45.585445" lon="11.0600967"><ele>716.0</ele><time>2026-04-08T09:25:06.781Z</time></trkpt><trkpt lat="45.5853667" lon="11.0599317"><ele>715.25</ele><time>2026-04-08T09:25:07.782Z</time></trkpt><trkpt lat="45.585285" lon="11.0597583"><ele>714.5</ele><time>2026-04-08T09:25:08.781Z</time></trkpt><trkpt lat="45.585225" lon="11.0596133"><ele>713.75</ele><time>2026-04-08T09:25:09.782Z</time></trkpt><trkpt lat="45.58516" lon="11.0594683"><ele>713.0</ele><time>2026-04-08T09:25:10.782Z</time></trkpt><trkpt lat="45.5850917" lon="11.0593633"><ele>713.0</ele><time>2026-04-08T09:25:11.781Z</time></trkpt><trkpt lat="45.5850617" lon="11.0592683"><ele>713.0</ele><time>2026-04-08T09:25:12.781Z</time></trkpt><trkpt lat="45.5850933" lon="11.0591233"><ele>713.0</ele><time>2026-04-08T09:25:14.781Z</time></trkpt><trkpt lat="45.5851333" lon="11.0590433"><ele>713.0</ele><time>2026-04-08T09:25:15.781Z</time></trkpt><trkpt lat="45.5851933" lon="11.05892"><ele>713.0</ele><time>2026-04-08T09:25:17.781Z</time></trkpt><trkpt lat="45.5852683" lon="11.0587817"><ele>713.1666666666666</ele><time>2026-04-08T09:25:19.781Z</time></trkpt><trkpt lat="45.58531" lon="11.0586633"><ele>713.3333333333333</ele><time>2026-04-08T09:25:20.782Z</time></trkpt><trkpt lat="45.5853583" lon="11.05853"><ele>713.5</ele><time>2026-04-08T09:25:21.782Z</time></trkpt><trkpt lat="45.5853983" lon="11.0584033"><ele>713.6666666666666</ele><time>2026-04-08T09:25:22.781Z</time></trkpt><trkpt lat="45.58543" lon="11.0582883"><ele>713.8333333333334</ele><time>2026-04-08T09:25:23.781Z</time></trkpt><trkpt lat="45.585455" lon="11.0582"><ele>714.0</ele><time>2026-04-08T09:25:24.781Z</time></trkpt><trkpt lat="45.5854917" lon="11.058095"><ele>712.5</ele><time>2026-04-08T09:25:26.782Z</time></trkpt><trkpt lat="45.58556" lon="11.0580667"><ele>711.0</ele><time>2026-04-08T09:25:28.782Z</time></trkpt><trkpt lat="45.5855967" lon="11.0579583"><ele>709.5</ele><time>2026-04-08T09:25:33.781Z</time></trkpt><trkpt lat="45.5855983" lon="11.0578333"><ele>708.0</ele><time>2026-04-08T09:25:35.782Z</time></trkpt><trkpt lat="45.585605" lon="11.0577333"><ele>706.5</ele><time>2026-04-08T09:25:37.781Z</time></trkpt><trkpt lat="45.5856217" lon="11.057615"><ele>705.0</ele><time>2026-04-08T09:25:40.782Z</time></trkpt><trkpt lat="45.585625" lon="11.0574933"><ele>703.6666666666666</ele><time>2026-04-08T09:25:42.781Z</time></trkpt><trkpt lat="45.5856317" lon="11.0574033"><ele>702.3333333333334</ele><time>2026-04-08T09:25:44.781Z</time></trkpt><trkpt lat="45.5856883" lon="11.057325"><ele>701.0</ele><time>2026-04-08T09:25:46.781Z</time></trkpt><trkpt lat="45.5857133" lon="11.057155"><ele>699.6666666666667</ele><time>2026-04-08T09:25:56.782Z</time></trkpt><trkpt lat="45.585745" lon="11.057075"><ele>698.3333333333334</ele><time>2026-04-08T09:26:00.781Z</time></trkpt><trkpt lat="45.5858" lon="11.0569733"><ele>697.0</ele><time>2026-04-08T09:26:09.781Z</time></trkpt><trkpt lat="45.58585" lon="11.0568883"><ele>697.0</ele><time>2026-04-08T09:26:11.781Z</time></trkpt><trkpt lat="45.5859117" lon="11.056805"><ele>697.0</ele><time>2026-04-08T09:26:13.781Z</time></trkpt><trkpt lat="45.585995" lon="11.05674"><ele>697.0</ele><time>2026-04-08T09:26:15.78Z</time></trkpt><trkpt lat="45.5860383" lon="11.0566733"><ele>697.0</ele><time>2026-04-08T09:26:16.781Z</time></trkpt><trkpt lat="45.5860867" lon="11.0565883"><ele>697.0</ele><time>2026-04-08T09:26:17.78Z</time></trkpt><trkpt lat="45.5861267" lon="11.0564967"><ele>697.0</ele><time>2026-04-08T09:26:18.78Z</time></trkpt><trkpt lat="45.5861667" lon="11.0563883"><ele>693.5</ele><time>2026-04-08T09:26:19.781Z</time></trkpt><trkpt lat="45.58621" lon="11.056295"><ele>690.0</ele><time>2026-04-08T09:26:20.781Z</time></trkpt><trkpt lat="45.5862533" lon="11.056185"><ele>686.5</ele><time>2026-04-08T09:26:21.781Z</time></trkpt><trkpt lat="45.5862517" lon="11.05607"><ele>683.0</ele><time>2026-04-08T09:26:22.78Z</time></trkpt><trkpt lat="45.5862683" lon="11.0559583"><ele>679.5</ele><time>2026-04-08T09:26:23.78Z</time></trkpt><trkpt lat="45.5862917" lon="11.05587"><ele>676.0</ele><time>2026-04-08T09:26:24.78Z</time></trkpt><trkpt lat="45.5863517" lon="11.05576"><ele>671.8</ele><time>2026-04-08T09:26:25.78Z</time></trkpt><trkpt lat="45.586405" lon="11.0556017"><ele>667.5999999999999</ele><time>2026-04-08T09:26:27.78Z</time></trkpt><trkpt lat="45.5864183" lon="11.0555083"><ele>663.4</ele><time>2026-04-08T09:26:28.78Z</time></trkpt><trkpt lat="45.586355" lon="11.0553883"><ele>659.2</ele><time>2026-04-08T09:26:29.781Z</time></trkpt><trkpt lat="45.5863417" lon="11.0552867"><ele>655.0</ele><time>2026-04-08T09:26:30.78Z</time></trkpt><trkpt lat="45.5863217" lon="11.0551367"><ele>655.0</ele><time>2026-04-08T09:26:32.781Z</time></trkpt><trkpt lat="45.5862933" lon="11.055055"><ele>655.0</ele><time>2026-04-08T09:26:33.781Z</time></trkpt><trkpt lat="45.58625" lon="11.0549433"><ele>655.0</ele><time>2026-04-08T09:26:35.781Z</time></trkpt><trkpt lat="45.5861533" lon="11.05483"><ele>655.0</ele><time>2026-04-08T09:26:37.781Z</time></trkpt><trkpt lat="45.5860817" lon="11.054725"><ele>655.0</ele><time>2026-04-08T09:26:39.78Z</time></trkpt><trkpt lat="45.586045" lon="11.0546217"><ele>654.0</ele><time>2026-04-08T09:26:41.78Z</time></trkpt><trkpt lat="45.586075" lon="11.054475"><ele>653.0</ele><time>2026-04-08T09:26:43.78Z</time></trkpt><trkpt lat="45.586065" lon="11.0543567"><ele>652.0</ele><time>2026-04-08T09:26:45.78Z</time></trkpt><trkpt lat="45.586125" lon="11.05449"><ele>651.0</ele><time>2026-04-08T09:26:50.781Z</time></trkpt><trkpt lat="45.5862667" lon="11.0546233"><ele>651.6666666666666</ele><time>2026-04-08T09:26:52.78Z</time></trkpt><trkpt lat="45.5863133" lon="11.0546983"><ele>652.3333333333334</ele><time>2026-04-08T09:26:53.781Z</time></trkpt><trkpt lat="45.586375" lon="11.0547883"><ele>653.0</ele><time>2026-04-08T09:26:54.78Z</time></trkpt><trkpt lat="45.5864133" lon="11.0548783"><ele>653.6666666666667</ele><time>2026-04-08T09:26:55.78Z</time></trkpt><trkpt lat="45.5864533" lon="11.0550017"><ele>654.3333333333334</ele><time>2026-04-08T09:26:57.78Z</time></trkpt><trkpt lat="45.5864783" lon="11.0551167"><ele>655.0</ele><time>2026-04-08T09:26:59.78Z</time></trkpt><trkpt lat="45.5865267" lon="11.0552017"><ele>655.0</ele><time>2026-04-08T09:27:03.781Z</time></trkpt><trkpt lat="45.586605" lon="11.055225"><ele>655.0</ele><time>2026-04-08T09:27:06.781Z</time></trkpt><trkpt lat="45.5867217" lon="11.0551817"><ele>655.0</ele><time>2026-04-08T09:27:13.78Z</time></trkpt><trkpt lat="45.5866633" lon="11.0551383"><ele>655.0</ele><time>2026-04-08T09:27:48.78Z</time></trkpt><trkpt lat="45.5866117" lon="11.0551917"><ele>655.0</ele><time>2026-04-08T09:28:34.781Z</time></trkpt><trkpt lat="45.5866467" lon="11.055275"><ele>655.0</ele><time>2026-04-08T09:28:41.781Z</time></trkpt><trkpt lat="45.5866833" lon="11.0553667"><ele>655.0</ele><time>2026-04-08T09:28:47.781Z</time></trkpt><trkpt lat="45.5867317" lon="11.0554417"><ele>655.0</ele><time>2026-04-08T09:28:51.781Z</time></trkpt><trkpt lat="45.5867983" lon="11.0555233"><ele>655.0</ele><time>2026-04-08T09:28:58.781Z</time></trkpt><trkpt lat="45.58677" lon="11.0554367"><ele>655.0</ele><time>2026-04-08T09:29:06.78Z</time></trkpt><trkpt lat="45.5867033" lon="11.0553033"><ele>655.0</ele><time>2026-04-08T09:29:23.78Z</time></trkpt><trkpt lat="45.5866967" lon="11.0551633"><ele>655.0</ele><time>2026-04-08T09:29:25.78Z</time></trkpt><trkpt lat="45.5866933" lon="11.0550133"><ele>651.8</ele><time>2026-04-08T09:29:27.78Z</time></trkpt><trkpt lat="45.5867267" lon="11.0548333"><ele>648.6</ele><time>2026-04-08T09:29:29.78Z</time></trkpt><trkpt lat="45.5867583" lon="11.0547333"><ele>645.4</ele><time>2026-04-08T09:29:30.779Z</time></trkpt><trkpt lat="45.5867933" lon="11.0546217"><ele>642.2</ele><time>2026-04-08T09:29:31.78Z</time></trkpt><trkpt lat="45.58683" lon="11.05452"><ele>639.0</ele><time>2026-04-08T09:29:32.78Z</time></trkpt><trkpt lat="45.5868933" lon="11.0543817"><ele>639.0</ele><time>2026-04-08T09:29:34.78Z</time></trkpt><trkpt lat="45.5869067" lon="11.0542483"><ele>639.0</ele><time>2026-04-08T09:29:36.78Z</time></trkpt><trkpt lat="45.58692" lon="11.054075"><ele>639.0</ele><time>2026-04-08T09:29:38.78Z</time></trkpt><trkpt lat="45.586935" lon="11.0539183"><ele>639.0</ele><time>2026-04-08T09:29:39.78Z</time></trkpt><trkpt lat="45.5869767" lon="11.05375"><ele>638.25</ele><time>2026-04-08T09:29:40.779Z</time></trkpt><trkpt lat="45.5870633" lon="11.0535283"><ele>637.5</ele><time>2026-04-08T09:29:41.78Z</time></trkpt><trkpt lat="45.5870833" lon="11.0533833"><ele>636.75</ele><time>2026-04-08T09:29:42.78Z</time></trkpt><trkpt lat="45.587105" lon="11.0532433"><ele>636.0</ele><time>2026-04-08T09:29:43.78Z</time></trkpt><trkpt lat="45.58715" lon="11.0530983"><ele>636.0</ele><time>2026-04-08T09:29:44.78Z</time></trkpt><trkpt lat="45.58718" lon="11.0529817"><ele>636.0</ele><time>2026-04-08T09:29:45.78Z</time></trkpt><trkpt lat="45.58722" lon="11.05288"><ele>636.0</ele><time>2026-04-08T09:29:46.78Z</time></trkpt><trkpt lat="45.58727" lon="11.0527617"><ele>636.0</ele><time>2026-04-08T09:29:47.779Z</time></trkpt><trkpt lat="45.5872983" lon="11.0525833"><ele>636.0</ele><time>2026-04-08T09:29:48.779Z</time></trkpt><trkpt lat="45.5873767" lon="11.052455"><ele>629.25</ele><time>2026-04-08T09:29:49.78Z</time></trkpt><trkpt lat="45.587425" lon="11.0523417"><ele>622.5</ele><time>2026-04-08T09:29:50.78Z</time></trkpt><trkpt lat="45.587515" lon="11.0522183"><ele>615.75</ele><time>2026-04-08T09:29:51.779Z</time></trkpt><trkpt lat="45.58763" lon="11.0521283"><ele>609.0</ele><time>2026-04-08T09:29:52.779Z</time></trkpt><trkpt lat="45.5877417" lon="11.052035"><ele>614.25</ele><time>2026-04-08T09:29:53.78Z</time></trkpt><trkpt lat="45.5878833" lon="11.0519333"><ele>619.5</ele><time>2026-04-08T09:29:54.78Z</time></trkpt><trkpt lat="45.5879833" lon="11.0518333"><ele>624.75</ele><time>2026-04-08T09:29:55.779Z</time></trkpt><trkpt lat="45.5880917" lon="11.0517167"><ele>630.0</ele><time>2026-04-08T09:29:56.779Z</time></trkpt><trkpt lat="45.5881883" lon="11.05163"><ele>625.0</ele><time>2026-04-08T09:29:57.779Z</time></trkpt><trkpt lat="45.5882933" lon="11.05154"><ele>620.0</ele><time>2026-04-08T09:29:58.78Z</time></trkpt><trkpt lat="45.5882817" lon="11.0514483"><ele>615.0</ele><time>2026-04-08T09:29:59.779Z</time></trkpt><trkpt lat="45.5882117" lon="11.0514583"><ele>610.0</ele><time>2026-04-08T09:30:01.779Z</time></trkpt><trkpt lat="45.5881033" lon="11.0514933"><ele>605.0</ele><time>2026-04-08T09:30:02.779Z</time></trkpt><trkpt lat="45.5880267" lon="11.0515367"><ele>605.0</ele><time>2026-04-08T09:30:03.78Z</time></trkpt><trkpt lat="45.5879417" lon="11.0516083"><ele>605.0</ele><time>2026-04-08T09:30:04.78Z</time></trkpt><trkpt lat="45.58786" lon="11.0516833"><ele>605.0</ele><time>2026-04-08T09:30:05.779Z</time></trkpt><trkpt lat="45.5877517" lon="11.0517617"><ele>605.0</ele><time>2026-04-08T09:30:06.78Z</time></trkpt><trkpt lat="45.5876517" lon="11.0518383"><ele>605.0</ele><time>2026-04-08T09:30:07.78Z</time></trkpt><trkpt lat="45.58753" lon="11.0518883"><ele>605.8</ele><time>2026-04-08T09:30:08.779Z</time></trkpt><trkpt lat="45.5874267" lon="11.051945"><ele>606.6</ele><time>2026-04-08T09:30:09.78Z</time></trkpt><trkpt lat="45.5873417" lon="11.0520033"><ele>607.4</ele><time>2026-04-08T09:30:10.779Z</time></trkpt><trkpt lat="45.58725" lon="11.0520517"><ele>608.2</ele><time>2026-04-08T09:30:11.779Z</time></trkpt><trkpt lat="45.5871883" lon="11.0521717"><ele>609.0</ele><time>2026-04-08T09:30:12.78Z</time></trkpt><trkpt lat="45.5871033" lon="11.05224"><ele>609.0</ele><time>2026-04-08T09:30:13.779Z</time></trkpt><trkpt lat="45.5870233" lon="11.0523183"><ele>609.0</ele><time>2026-04-08T09:30:14.78Z</time></trkpt><trkpt lat="45.586945" lon="11.0523617"><ele>609.0</ele><time>2026-04-08T09:30:15.779Z</time></trkpt><trkpt lat="45.5868633" lon="11.0524133"><ele>609.0</ele><time>2026-04-08T09:30:16.78Z</time></trkpt><trkpt lat="45.5867933" lon="11.0524567"><ele>609.0</ele><time>2026-04-08T09:30:17.779Z</time></trkpt><trkpt lat="45.5867317" lon="11.052505"><ele>609.0</ele><time>2026-04-08T09:30:18.779Z</time></trkpt><trkpt lat="45.58667" lon="11.0525317"><ele>607.0</ele><time>2026-04-08T09:30:19.78Z</time></trkpt><trkpt lat="45.5866133" lon="11.0524683"><ele>605.0</ele><time>2026-04-08T09:30:22.78Z</time></trkpt><trkpt lat="45.58664" lon="11.0523833"><ele>603.0</ele><time>2026-04-08T09:30:23.78Z</time></trkpt><trkpt lat="45.5866983" lon="11.0522917"><ele>601.0</ele><time>2026-04-08T09:30:24.78Z</time></trkpt><trkpt lat="45.5867617" lon="11.05221"><ele>599.0</ele><time>2026-04-08T09:30:25.779Z</time></trkpt><trkpt lat="45.58687" lon="11.0521367"><ele>597.0</ele><time>2026-04-08T09:30:26.779Z</time></trkpt><trkpt lat="45.5869383" lon="11.0520883"><ele>601.0</ele><time>2026-04-08T09:30:27.779Z</time></trkpt><trkpt lat="45.5870933" lon="11.051965"><ele>605.0</ele><time>2026-04-08T09:30:28.78Z</time></trkpt><trkpt lat="45.5872133" lon="11.0518683"><ele>609.0</ele><time>2026-04-08T09:30:29.78Z</time></trkpt><trkpt lat="45.58735" lon="11.0517517"><ele>609.0</ele><time>2026-04-08T09:30:30.78Z</time></trkpt><trkpt lat="45.58744" lon="11.0516517"><ele>609.0</ele><time>2026-04-08T09:30:31.779Z</time></trkpt><trkpt lat="45.5875467" lon="11.0515283"><ele>609.0</ele><time>2026-04-08T09:30:32.78Z</time></trkpt><trkpt lat="45.5876517" lon="11.0514383"><ele>609.0</ele><time>2026-04-08T09:30:33.78Z</time></trkpt><trkpt lat="45.5877467" lon="11.0513633"><ele>608.0</ele><time>2026-04-08T09:30:34.779Z</time></trkpt><trkpt lat="45.5878383" lon="11.051265"><ele>607.0</ele><time>2026-04-08T09:30:35.779Z</time></trkpt><trkpt lat="45.5879333" lon="11.0511733"><ele>606.0</ele><time>2026-04-08T09:30:36.779Z</time></trkpt><trkpt lat="45.5880283" lon="11.0510867"><ele>605.0</ele><time>2026-04-08T09:30:37.779Z</time></trkpt><trkpt lat="45.5881367" lon="11.0509933"><ele>605.0</ele><time>2026-04-08T09:30:38.78Z</time></trkpt><trkpt lat="45.5882267" lon="11.0509183"><ele>605.0</ele><time>2026-04-08T09:30:39.78Z</time></trkpt><trkpt lat="45.588325" lon="11.0508617"><ele>605.0</ele><time>2026-04-08T09:30:40.78Z</time></trkpt><trkpt lat="45.588425" lon="11.050775"><ele>605.0</ele><time>2026-04-08T09:30:41.779Z</time></trkpt><trkpt lat="45.5885083" lon="11.0507"><ele>605.0</ele><time>2026-04-08T09:30:42.779Z</time></trkpt><trkpt lat="45.58858" lon="11.0506133"><ele>607.25</ele><time>2026-04-08T09:30:43.78Z</time></trkpt><trkpt lat="45.5886967" lon="11.05052"><ele>609.5</ele><time>2026-04-08T09:30:45.779Z</time></trkpt><trkpt lat="45.5887433" lon="11.0504483"><ele>611.75</ele><time>2026-04-08T09:30:49.779Z</time></trkpt><trkpt lat="45.5887533" lon="11.050315"><ele>614.0</ele><time>2026-04-08T09:30:59.78Z</time></trkpt><trkpt lat="45.588825" lon="11.0501017"><ele>614.0</ele><time>2026-04-08T09:31:01.78Z</time></trkpt><trkpt lat="45.5888567" lon="11.0500167"><ele>614.0</ele><time>2026-04-08T09:31:02.779Z</time></trkpt><trkpt lat="45.5888867" lon="11.049885"><ele>614.0</ele><time>2026-04-08T09:31:03.78Z</time></trkpt><trkpt lat="45.588975" lon="11.0497467"><ele>614.0</ele><time>2026-04-08T09:31:04.779Z</time></trkpt><trkpt lat="45.5890483" lon="11.049635"><ele>614.0</ele><time>2026-04-08T09:31:05.779Z</time></trkpt><trkpt lat="45.5891" lon="11.049545"><ele>612.8</ele><time>2026-04-08T09:31:06.779Z</time></trkpt><trkpt lat="45.5891583" lon="11.049465"><ele>611.5999999999999</ele><time>2026-04-08T09:31:07.779Z</time></trkpt><trkpt lat="45.5892217" lon="11.049375"><ele>610.4</ele><time>2026-04-08T09:31:08.779Z</time></trkpt><trkpt lat="45.5892867" lon="11.04925"><ele>609.1999999999999</ele><time>2026-04-08T09:31:09.779Z</time></trkpt><trkpt lat="45.589365" lon="11.0491317"><ele>608.0</ele><time>2026-04-08T09:31:10.779Z</time></trkpt><trkpt lat="45.5894383" lon="11.0490217"><ele>608.8</ele><time>2026-04-08T09:31:11.779Z</time></trkpt><trkpt lat="45.58952" lon="11.0489033"><ele>609.5999999999999</ele><time>2026-04-08T09:31:12.78Z</time></trkpt><trkpt lat="45.5895383" lon="11.048775"><ele>610.4000000000001</ele><time>2026-04-08T09:31:13.779Z</time></trkpt><trkpt lat="45.5895967" lon="11.0486517"><ele>611.2</ele><time>2026-04-08T09:31:14.78Z</time></trkpt><trkpt lat="45.5896267" lon="11.0485317"><ele>612.0</ele><time>2026-04-08T09:31:15.78Z</time></trkpt><trkpt lat="45.5896583" lon="11.0484217"><ele>612.0</ele><time>2026-04-08T09:31:16.779Z</time></trkpt><trkpt lat="45.5896717" lon="11.048265"><ele>612.0</ele><time>2026-04-08T09:31:18.78Z</time></trkpt><trkpt lat="45.589665" lon="11.0481617"><ele>612.0</ele><time>2026-04-08T09:31:20.78Z</time></trkpt><trkpt lat="45.5896183" lon="11.0482417"><ele>612.0</ele><time>2026-04-08T09:31:23.78Z</time></trkpt><trkpt lat="45.5895667" lon="11.0484783"><ele>612.0</ele><time>2026-04-08T09:31:25.779Z</time></trkpt><trkpt lat="45.589535" lon="11.0486067"><ele>618.0</ele><time>2026-04-08T09:31:26.779Z</time></trkpt><trkpt lat="45.5894583" lon="11.0487517"><ele>624.0</ele><time>2026-04-08T09:31:27.779Z</time></trkpt><trkpt lat="45.5893617" lon="11.0488783"><ele>630.0</ele><time>2026-04-08T09:31:28.78Z</time></trkpt><trkpt lat="45.5892667" lon="11.04894"><ele>636.0</ele><time>2026-04-08T09:31:29.779Z</time></trkpt><trkpt lat="45.5891433" lon="11.0490233"><ele>636.0</ele><time>2026-04-08T09:31:30.779Z</time></trkpt><trkpt lat="45.5890417" lon="11.0490983"><ele>636.0</ele><time>2026-04-08T09:31:31.779Z</time></trkpt><trkpt lat="45.588935" lon="11.0492"><ele>636.0</ele><time>2026-04-08T09:31:32.78Z</time></trkpt><trkpt lat="45.5888417" lon="11.04928"><ele>636.0</ele><time>2026-04-08T09:31:33.78Z</time></trkpt><trkpt lat="45.58876" lon="11.0493633"><ele>638.0</ele><time>2026-04-08T09:31:34.779Z</time></trkpt><trkpt lat="45.588675" lon="11.0494567"><ele>640.0</ele><time>2026-04-08T09:31:35.78Z</time></trkpt><trkpt lat="45.58853" lon="11.0495783"><ele>642.0</ele><time>2026-04-08T09:31:36.78Z</time></trkpt><trkpt lat="45.58843" lon="11.0496533"><ele>644.0</ele><time>2026-04-08T09:31:37.78Z</time></trkpt><trkpt lat="45.5883617" lon="11.0497017"><ele>644.0</ele><time>2026-04-08T09:31:38.779Z</time></trkpt><trkpt lat="45.5882533" lon="11.049795"><ele>644.0</ele><time>2026-04-08T09:31:39.779Z</time></trkpt><trkpt lat="45.58818" lon="11.0498867"><ele>644.0</ele><time>2026-04-08T09:31:40.779Z</time></trkpt><trkpt lat="45.5880917" lon="11.0499683"><ele>644.0</ele><time>2026-04-08T09:31:41.78Z</time></trkpt><trkpt lat="45.588015" lon="11.0500283"><ele>644.0</ele><time>2026-04-08T09:31:42.78Z</time></trkpt><trkpt lat="45.5879433" lon="11.0500817"><ele>642.3333333333333</ele><time>2026-04-08T09:31:43.779Z</time></trkpt><trkpt lat="45.5878733" lon="11.0501217"><ele>640.6666666666666</ele><time>2026-04-08T09:31:44.779Z</time></trkpt><trkpt lat="45.5878083" lon="11.0501417"><ele>639.0</ele><time>2026-04-08T09:31:45.78Z</time></trkpt><trkpt lat="45.5877417" lon="11.0501533"><ele>637.3333333333334</ele><time>2026-04-08T09:31:46.779Z</time></trkpt><trkpt lat="45.5876267" lon="11.0501683"><ele>635.6666666666667</ele><time>2026-04-08T09:31:48.779Z</time></trkpt><trkpt lat="45.58756" lon="11.0501867"><ele>634.0</ele><time>2026-04-08T09:31:49.779Z</time></trkpt><trkpt lat="45.5874983" lon="11.050205"><ele>634.0</ele><time>2026-04-08T09:31:50.78Z</time></trkpt><trkpt lat="45.5874283" lon="11.050225"><ele>634.0</ele><time>2026-04-08T09:31:51.779Z</time></trkpt><trkpt lat="45.5873483" lon="11.0502383"><ele>634.0</ele><time>2026-04-08T09:31:52.78Z</time></trkpt><trkpt lat="45.5872783" lon="11.05025"><ele>634.0</ele><time>2026-04-08T09:31:53.78Z</time></trkpt><trkpt lat="45.5872083" lon="11.0502667"><ele>634.0</ele><time>2026-04-08T09:31:54.78Z</time></trkpt><trkpt lat="45.5870817" lon="11.050275"><ele>634.0</ele><time>2026-04-08T09:31:56.779Z</time></trkpt><trkpt lat="45.587" lon="11.05028"><ele>635.8333333333334</ele><time>2026-04-08T09:31:57.78Z</time></trkpt><trkpt lat="45.5869333" lon="11.050265"><ele>637.6666666666667</ele><time>2026-04-08T09:31:58.779Z</time></trkpt><trkpt lat="45.5868567" lon="11.0502783"><ele>639.5</ele><time>2026-04-08T09:31:59.78Z</time></trkpt><trkpt lat="45.58673" lon="11.0502933"><ele>641.3333333333334</ele><time>2026-04-08T09:32:01.779Z</time></trkpt><trkpt lat="45.5866567" lon="11.0502833"><ele>643.1666666666666</ele><time>2026-04-08T09:32:02.779Z</time></trkpt><trkpt lat="45.5865617" lon="11.0502483"><ele>645.0</ele><time>2026-04-08T09:32:04.78Z</time></trkpt><trkpt lat="45.586465" lon="11.0502517"><ele>645.0</ele><time>2026-04-08T09:32:06.779Z</time></trkpt><trkpt lat="45.5863683" lon="11.050235"><ele>645.0</ele><time>2026-04-08T09:32:08.78Z</time></trkpt><trkpt lat="45.5863083" lon="11.0502017"><ele>645.0</ele><time>2026-04-08T09:32:10.779Z</time></trkpt><trkpt lat="45.5862283" lon="11.0501583"><ele>645.0</ele><time>2026-04-08T09:32:13.78Z</time></trkpt><trkpt lat="45.5861433" lon="11.05016"><ele>645.0</ele><time>2026-04-08T09:32:15.78Z</time></trkpt><trkpt lat="45.58601" lon="11.0501783"><ele>647.2</ele><time>2026-04-08T09:32:17.778Z</time></trkpt><trkpt lat="45.585895" lon="11.0501933"><ele>649.4</ele><time>2026-04-08T09:32:19.778Z</time></trkpt><trkpt lat="45.585815" lon="11.05022"><ele>651.5999999999999</ele><time>2026-04-08T09:32:20.778Z</time></trkpt><trkpt lat="45.5857417" lon="11.0502517"><ele>653.8</ele><time>2026-04-08T09:32:21.779Z</time></trkpt><trkpt lat="45.5856567" lon="11.05029"><ele>656.0</ele><time>2026-04-08T09:32:22.779Z</time></trkpt><trkpt lat="45.5855817" lon="11.0503617"><ele>656.0</ele><time>2026-04-08T09:32:23.779Z</time></trkpt><trkpt lat="45.5855133" lon="11.0504183"><ele>656.0</ele><time>2026-04-08T09:32:24.779Z</time></trkpt><trkpt lat="45.5854267" lon="11.0504733"><ele>656.0</ele><time>2026-04-08T09:32:25.779Z</time></trkpt><trkpt lat="45.58535" lon="11.0505167"><ele>656.0</ele><time>2026-04-08T09:32:26.778Z</time></trkpt><trkpt lat="45.58528" lon="11.0505533"><ele>656.0</ele><time>2026-04-08T09:32:27.778Z</time></trkpt><trkpt lat="45.5852217" lon="11.0505883"><ele>656.0</ele><time>2026-04-08T09:32:28.778Z</time></trkpt><trkpt lat="45.5851267" lon="11.0506533"><ele>656.3333333333333</ele><time>2026-04-08T09:32:30.779Z</time></trkpt><trkpt lat="45.5850667" lon="11.0506117"><ele>656.6666666666666</ele><time>2026-04-08T09:32:32.779Z</time></trkpt><trkpt lat="45.584955" lon="11.05055"><ele>657.0</ele><time>2026-04-08T09:32:34.779Z</time></trkpt><trkpt lat="45.5849" lon="11.0504867"><ele>657.3333333333334</ele><time>2026-04-08T09:32:35.778Z</time></trkpt><trkpt lat="45.5848367" lon="11.0503467"><ele>657.6666666666667</ele><time>2026-04-08T09:32:37.778Z</time></trkpt><trkpt lat="45.5847933" lon="11.0502683"><ele>658.0</ele><time>2026-04-08T09:32:38.779Z</time></trkpt><trkpt lat="45.584755" lon="11.05017"><ele>665.0</ele><time>2026-04-08T09:32:39.779Z</time></trkpt><trkpt lat="45.5846433" lon="11.0499283"><ele>672.0</ele><time>2026-04-08T09:32:41.779Z</time></trkpt><trkpt lat="45.584585" lon="11.04977"><ele>679.0</ele><time>2026-04-08T09:32:42.779Z</time></trkpt><trkpt lat="45.5845317" lon="11.049605"><ele>676.4000000000001</ele><time>2026-04-08T09:32:43.778Z</time></trkpt><trkpt lat="45.58447" lon="11.0494533"><ele>673.8</ele><time>2026-04-08T09:32:44.778Z</time></trkpt><trkpt lat="45.584415" lon="11.0493233"><ele>671.2</ele><time>2026-04-08T09:32:45.779Z</time></trkpt><trkpt lat="45.58436" lon="11.0492083"><ele>668.5999999999999</ele><time>2026-04-08T09:32:46.778Z</time></trkpt><trkpt lat="45.5843033" lon="11.0490917"><ele>666.0</ele><time>2026-04-08T09:32:47.779Z</time></trkpt><trkpt lat="45.5842683" lon="11.0489817"><ele>666.0</ele><time>2026-04-08T09:32:48.779Z</time></trkpt><trkpt lat="45.58426" lon="11.0488717"><ele>666.0</ele><time>2026-04-08T09:32:49.779Z</time></trkpt><trkpt lat="45.58426" lon="11.04878"><ele>666.0</ele><time>2026-04-08T09:32:50.779Z</time></trkpt><trkpt lat="45.584225" lon="11.04868"><ele>666.0</ele><time>2026-04-08T09:32:51.779Z</time></trkpt><trkpt lat="45.58421" lon="11.048575"><ele>666.0</ele><time>2026-04-08T09:32:52.779Z</time></trkpt><trkpt lat="45.58418" lon="11.048495"><ele>666.0</ele><time>2026-04-08T09:32:53.778Z</time></trkpt><trkpt lat="45.5841817" lon="11.048395"><ele>666.0</ele><time>2026-04-08T09:32:56.778Z</time></trkpt><trkpt lat="45.5841567" lon="11.048295"><ele>667.5</ele><time>2026-04-08T09:32:59.778Z</time></trkpt><trkpt lat="45.5841233" lon="11.0481883"><ele>669.0</ele><time>2026-04-08T09:33:02.779Z</time></trkpt><trkpt lat="45.5841" lon="11.0481033"><ele>670.5</ele><time>2026-04-08T09:33:04.779Z</time></trkpt><trkpt lat="45.5840767" lon="11.0479683"><ele>672.0</ele><time>2026-04-08T09:33:07.778Z</time></trkpt><trkpt lat="45.5840833" lon="11.04785"><ele>673.5</ele><time>2026-04-08T09:33:09.778Z</time></trkpt><trkpt lat="45.5841012" lon="11.0477012"><ele>675.0</ele><time>2026-04-08T09:33:11.778Z</time></trkpt><trkpt lat="45.584102" lon="11.0475995"><ele>675.0</ele><time>2026-04-08T09:33:12.779Z</time></trkpt><trkpt lat="45.5841004" lon="11.0474938"><ele>675.0</ele><time>2026-04-08T09:33:13.779Z</time></trkpt><trkpt lat="45.5840723" lon="11.0473563"><ele>675.0</ele><time>2026-04-08T09:33:14.779Z</time></trkpt><trkpt lat="45.5840647" lon="11.0472574"><ele>675.0</ele><time>2026-04-08T09:33:15.778Z</time></trkpt><trkpt lat="45.5841164" lon="11.0470116"><ele>675.0</ele><time>2026-04-08T09:33:25.846Z</time></trkpt><trkpt lat="45.5841517" lon="11.0468167"><ele>677.0</ele><time>2026-04-08T09:33:26.779Z</time></trkpt><trkpt lat="45.5841633" lon="11.04667"><ele>679.0</ele><time>2026-04-08T09:33:28.778Z</time></trkpt><trkpt lat="45.5841917" lon="11.0465167"><ele>681.0</ele><time>2026-04-08T09:33:30.778Z</time></trkpt><trkpt lat="45.58422" lon="11.0463783"><ele>683.0</ele><time>2026-04-08T09:33:32.778Z</time></trkpt><trkpt lat="45.5842417" lon="11.0462533"><ele>685.0</ele><time>2026-04-08T09:33:34.778Z</time></trkpt><trkpt lat="45.584205" lon="11.0461567"><ele>686.6</ele><time>2026-04-08T09:33:37.779Z</time></trkpt><trkpt lat="45.5841167" lon="11.04613"><ele>688.2</ele><time>2026-04-08T09:33:39.778Z</time></trkpt><trkpt lat="45.5840317" lon="11.0461467"><ele>689.8</ele><time>2026-04-08T09:33:42.779Z</time></trkpt><trkpt lat="45.58396" lon="11.0461717"><ele>691.4</ele><time>2026-04-08T09:33:46.778Z</time></trkpt><trkpt lat="45.5838967" lon="11.0462083"><ele>693.0</ele><time>2026-04-08T09:33:49.779Z</time></trkpt><trkpt lat="45.5837517" lon="11.0461967"><ele>693.0</ele><time>2026-04-08T09:34:14.779Z</time></trkpt><trkpt lat="45.5838867" lon="11.0462267"><ele>693.0</ele><time>2026-04-08T09:35:44.778Z</time></trkpt><trkpt lat="45.583945" lon="11.0461683"><ele>693.0</ele><time>2026-04-08T09:35:55.777Z</time></trkpt><trkpt lat="45.5840183" lon="11.0461883"><ele>693.0</ele><time>2026-04-08T09:36:36.778Z</time></trkpt><trkpt lat="45.584095" lon="11.0462483"><ele>693.0</ele><time>2026-04-08T09:36:40.777Z</time></trkpt><trkpt lat="45.5841317" lon="11.0463583"><ele>693.0</ele><time>2026-04-08T09:36:43.777Z</time></trkpt><trkpt lat="45.584125" lon="11.0464817"><ele>693.0</ele><time>2026-04-08T09:36:45.778Z</time></trkpt><trkpt lat="45.5841133" lon="11.046575"><ele>693.0</ele><time>2026-04-08T09:36:47.778Z</time></trkpt><trkpt lat="45.58409" lon="11.0467067"><ele>693.0</ele><time>2026-04-08T09:36:50.777Z</time></trkpt><trkpt lat="45.5840633" lon="11.0468067"><ele>693.0</ele><time>2026-04-08T09:36:52.778Z</time></trkpt><trkpt lat="45.5840383" lon="11.0469117"><ele>693.0</ele><time>2026-04-08T09:36:55.778Z</time></trkpt><trkpt lat="45.584005" lon="11.0470283"><ele>691.6666666666666</ele><time>2026-04-08T09:36:58.778Z</time></trkpt><trkpt lat="45.5840217" lon="11.0471383"><ele>690.3333333333334</ele><time>2026-04-08T09:37:00.777Z</time></trkpt><trkpt lat="45.5840283" lon="11.047275"><ele>689.0</ele><time>2026-04-08T09:37:06.778Z</time></trkpt><trkpt lat="45.5840683" lon="11.0473467"><ele>687.6666666666667</ele><time>2026-04-08T09:37:13.777Z</time></trkpt><trkpt lat="45.5841283" lon="11.047415"><ele>686.3333333333334</ele><time>2026-04-08T09:37:15.778Z</time></trkpt><trkpt lat="45.5842183" lon="11.047435"><ele>685.0</ele><time>2026-04-08T09:37:17.778Z</time></trkpt><trkpt lat="45.5843067" lon="11.0474033"><ele>685.0</ele><time>2026-04-08T09:37:19.777Z</time></trkpt><trkpt lat="45.5843667" lon="11.0473533"><ele>685.0</ele><time>2026-04-08T09:37:20.777Z</time></trkpt><trkpt lat="45.58442" lon="11.047265"><ele>685.0</ele><time>2026-04-08T09:37:22.777Z</time></trkpt><trkpt lat="45.5844467" lon="11.0471467"><ele>685.0</ele><time>2026-04-08T09:37:33.778Z</time></trkpt><trkpt lat="45.5844383" lon="11.0469617"><ele>685.0</ele><time>2026-04-08T09:37:35.778Z</time></trkpt><trkpt lat="45.5844283" lon="11.046845"><ele>685.0</ele><time>2026-04-08T09:37:36.777Z</time></trkpt><trkpt lat="45.584445" lon="11.0466733"><ele>685.0</ele><time>2026-04-08T09:37:37.778Z</time></trkpt><trkpt lat="45.5844517" lon="11.0465017"><ele>685.0</ele><time>2026-04-08T09:37:38.778Z</time></trkpt><trkpt lat="45.584455" lon="11.0463267"><ele>685.0</ele><time>2026-04-08T09:37:39.778Z</time></trkpt><trkpt lat="45.5844483" lon="11.046155"><ele>686.6</ele><time>2026-04-08T09:37:40.778Z</time></trkpt><trkpt lat="45.5844383" lon="11.0459883"><ele>688.2</ele><time>2026-04-08T09:37:41.777Z</time></trkpt><trkpt lat="45.584415" lon="11.0458283"><ele>689.8</ele><time>2026-04-08T09:37:42.778Z</time></trkpt><trkpt lat="45.5843533" lon="11.0457167"><ele>691.4</ele><time>2026-04-08T09:37:43.778Z</time></trkpt><trkpt lat="45.584285" lon="11.0456033"><ele>693.0</ele><time>2026-04-08T09:37:44.778Z</time></trkpt><trkpt lat="45.5842" lon="11.0455083"><ele>695.8</ele><time>2026-04-08T09:37:45.777Z</time></trkpt><trkpt lat="45.5841283" lon="11.0454133"><ele>698.5999999999999</ele><time>2026-04-08T09:37:46.777Z</time></trkpt><trkpt lat="45.58404" lon="11.0453283"><ele>701.4000000000001</ele><time>2026-04-08T09:37:47.778Z</time></trkpt><trkpt lat="45.5839483" lon="11.0452333"><ele>704.2</ele><time>2026-04-08T09:37:48.778Z</time></trkpt><trkpt lat="45.5838633" lon="11.045125"><ele>707.0</ele><time>2026-04-08T09:37:49.778Z</time></trkpt><trkpt lat="45.5837833" lon="11.0450033"><ele>707.6</ele><time>2026-04-08T09:37:50.778Z</time></trkpt><trkpt lat="45.5837" lon="11.044885"><ele>708.2</ele><time>2026-04-08T09:37:51.778Z</time></trkpt><trkpt lat="45.5836367" lon="11.0447567"><ele>708.8</ele><time>2026-04-08T09:37:52.777Z</time></trkpt><trkpt lat="45.58358" lon="11.04462"><ele>709.4</ele><time>2026-04-08T09:37:53.777Z</time></trkpt><trkpt lat="45.58353" lon="11.04448"><ele>710.0</ele><time>2026-04-08T09:37:54.777Z</time></trkpt><trkpt lat="45.58346" lon="11.0443283"><ele>710.0</ele><time>2026-04-08T09:37:55.777Z</time></trkpt><trkpt lat="45.5834017" lon="11.04419"><ele>710.0</ele><time>2026-04-08T09:37:56.778Z</time></trkpt><trkpt lat="45.5833417" lon="11.0440817"><ele>710.0</ele><time>2026-04-08T09:37:57.777Z</time></trkpt><trkpt lat="45.5832783" lon="11.0439783"><ele>710.0</ele><time>2026-04-08T09:37:58.778Z</time></trkpt><trkpt lat="45.5832067" lon="11.04388"><ele>710.0</ele><time>2026-04-08T09:37:59.777Z</time></trkpt><trkpt lat="45.5831317" lon="11.04379"><ele>711.4</ele><time>2026-04-08T09:38:00.777Z</time></trkpt><trkpt lat="45.583025" lon="11.0437267"><ele>712.8</ele><time>2026-04-08T09:38:01.778Z</time></trkpt><trkpt lat="45.582935" lon="11.0436517"><ele>714.2</ele><time>2026-04-08T09:38:02.778Z</time></trkpt><trkpt lat="45.582835" lon="11.0435983"><ele>715.6</ele><time>2026-04-08T09:38:03.777Z</time></trkpt><trkpt lat="45.5827167" lon="11.0435533"><ele>717.0</ele><time>2026-04-08T09:38:04.777Z</time></trkpt><trkpt lat="45.5825783" lon="11.0435417"><ele>717.75</ele><time>2026-04-08T09:38:05.778Z</time></trkpt><trkpt lat="45.582455" lon="11.0435117"><ele>718.5</ele><time>2026-04-08T09:38:06.777Z</time></trkpt><trkpt lat="45.5823167" lon="11.0434733"><ele>719.25</ele><time>2026-04-08T09:38:07.777Z</time></trkpt><trkpt lat="45.5821783" lon="11.04342"><ele>720.0</ele><time>2026-04-08T09:38:08.776Z</time></trkpt><trkpt lat="45.5820317" lon="11.04337"><ele>720.0</ele><time>2026-04-08T09:38:09.777Z</time></trkpt><trkpt lat="45.58189" lon="11.043315"><ele>720.0</ele><time>2026-04-08T09:38:10.777Z</time></trkpt><trkpt lat="45.5817567" lon="11.043275"><ele>720.0</ele><time>2026-04-08T09:38:11.777Z</time></trkpt><trkpt lat="45.581625" lon="11.04322"><ele>720.0</ele><time>2026-04-08T09:38:12.777Z</time></trkpt><trkpt lat="45.5815017" lon="11.0431517"><ele>723.75</ele><time>2026-04-08T09:38:13.777Z</time></trkpt><trkpt lat="45.5813717" lon="11.043095"><ele>727.5</ele><time>2026-04-08T09:38:14.776Z</time></trkpt><trkpt lat="45.5812583" lon="11.0430317"><ele>731.25</ele><time>2026-04-08T09:38:15.776Z</time></trkpt><trkpt lat="45.5811567" lon="11.0429867"><ele>735.0</ele><time>2026-04-08T09:38:16.777Z</time></trkpt><trkpt lat="45.5810667" lon="11.0429533"><ele>735.0</ele><time>2026-04-08T09:38:17.777Z</time></trkpt><trkpt lat="45.5809867" lon="11.04293"><ele>735.0</ele><time>2026-04-08T09:38:18.776Z</time></trkpt><trkpt lat="45.580905" lon="11.0429183"><ele>735.0</ele><time>2026-04-08T09:38:19.777Z</time></trkpt><trkpt lat="45.5808167" lon="11.042905"><ele>735.0</ele><time>2026-04-08T09:38:20.777Z</time></trkpt><trkpt lat="45.5807167" lon="11.042915"><ele>735.0</ele><time>2026-04-08T09:38:21.776Z</time></trkpt><trkpt lat="45.5806217" lon="11.0429217"><ele>735.0</ele><time>2026-04-08T09:38:22.776Z</time></trkpt><trkpt lat="45.5805217" lon="11.0429333"><ele>735.0</ele><time>2026-04-08T09:38:23.776Z</time></trkpt><trkpt lat="45.5804283" lon="11.0429483"><ele>735.0</ele><time>2026-04-08T09:38:24.776Z</time></trkpt><trkpt lat="45.5803433" lon="11.0429667"><ele>735.0</ele><time>2026-04-08T09:38:25.776Z</time></trkpt><trkpt lat="45.580265" lon="11.04298"><ele>735.0</ele><time>2026-04-08T09:38:26.777Z</time></trkpt><trkpt lat="45.5801983" lon="11.042995"><ele>735.0</ele><time>2026-04-08T09:38:27.776Z</time></trkpt><trkpt lat="45.5800817" lon="11.04301"><ele>735.0</ele><time>2026-04-08T09:38:29.777Z</time></trkpt><trkpt lat="45.5799717" lon="11.0430017"><ele>735.5</ele><time>2026-04-08T09:38:31.776Z</time></trkpt><trkpt lat="45.5798967" lon="11.042985"><ele>736.0</ele><time>2026-04-08T09:38:33.776Z</time></trkpt><trkpt lat="45.5798317" lon="11.042945"><ele>736.5</ele><time>2026-04-08T09:38:35.776Z</time></trkpt><trkpt lat="45.5797683" lon="11.0428767"><ele>737.0</ele><time>2026-04-08T09:38:37.777Z</time></trkpt><trkpt lat="45.5797017" lon="11.0427433"><ele>737.5</ele><time>2026-04-08T09:38:39.777Z</time></trkpt><trkpt lat="45.5796617" lon="11.0426267"><ele>738.0</ele><time>2026-04-08T09:38:41.777Z</time></trkpt><trkpt lat="45.5796217" lon="11.0425367"><ele>738.0</ele><time>2026-04-08T09:38:44.776Z</time></trkpt><trkpt lat="45.5795567" lon="11.0425433"><ele>738.0</ele><time>2026-04-08T09:38:46.777Z</time></trkpt><trkpt lat="45.579485" lon="11.0425933"><ele>738.0</ele><time>2026-04-08T09:38:48.776Z</time></trkpt><trkpt lat="45.5794167" lon="11.0426383"><ele>738.0</ele><time>2026-04-08T09:38:49.777Z</time></trkpt><trkpt lat="45.5793417" lon="11.0427133"><ele>738.0</ele><time>2026-04-08T09:38:50.777Z</time></trkpt><trkpt lat="45.5792483" lon="11.0428017"><ele>738.0</ele><time>2026-04-08T09:38:51.776Z</time></trkpt><trkpt lat="45.5791567" lon="11.0429"><ele>737.25</ele><time>2026-04-08T09:38:52.776Z</time></trkpt><trkpt lat="45.579055" lon="11.0429983"><ele>736.5</ele><time>2026-04-08T09:38:53.777Z</time></trkpt><trkpt lat="45.578955" lon="11.043095"><ele>735.75</ele><time>2026-04-08T09:38:54.777Z</time></trkpt><trkpt lat="45.578855" lon="11.0431733"><ele>735.0</ele><time>2026-04-08T09:38:55.777Z</time></trkpt><trkpt lat="45.5787317" lon="11.043235"><ele>735.75</ele><time>2026-04-08T09:38:56.776Z</time></trkpt><trkpt lat="45.5786283" lon="11.0432983"><ele>736.5</ele><time>2026-04-08T09:38:57.777Z</time></trkpt><trkpt lat="45.57852" lon="11.0433467"><ele>737.25</ele><time>2026-04-08T09:38:58.777Z</time></trkpt><trkpt lat="45.5783617" lon="11.043345"><ele>738.0</ele><time>2026-04-08T09:38:59.777Z</time></trkpt><trkpt lat="45.5782233" lon="11.0433517"><ele>738.0</ele><time>2026-04-08T09:39:00.776Z</time></trkpt><trkpt lat="45.5780967" lon="11.04332"><ele>738.0</ele><time>2026-04-08T09:39:01.777Z</time></trkpt><trkpt lat="45.577965" lon="11.0432367"><ele>738.0</ele><time>2026-04-08T09:39:02.776Z</time></trkpt><trkpt lat="45.5778483" lon="11.0431367"><ele>738.0</ele><time>2026-04-08T09:39:03.776Z</time></trkpt><trkpt lat="45.5778017" lon="11.0430067"><ele>737.1428571428571</ele><time>2026-04-08T09:39:04.777Z</time></trkpt><trkpt lat="45.577765" lon="11.0429083"><ele>736.2857142857142</ele><time>2026-04-08T09:39:05.777Z</time></trkpt><trkpt lat="45.577725" lon="11.0428133"><ele>735.4285714285714</ele><time>2026-04-08T09:39:06.776Z</time></trkpt><trkpt lat="45.57769" lon="11.0427367"><ele>734.5714285714286</ele><time>2026-04-08T09:39:07.776Z</time></trkpt><trkpt lat="45.5776583" lon="11.0426483"><ele>733.7142857142858</ele><time>2026-04-08T09:39:08.777Z</time></trkpt><trkpt lat="45.5776333" lon="11.0425517"><ele>732.8571428571429</ele><time>2026-04-08T09:39:09.776Z</time></trkpt><trkpt lat="45.577615" lon="11.04245"><ele>732.0</ele><time>2026-04-08T09:39:10.777Z</time></trkpt><trkpt lat="45.5775883" lon="11.0423367"><ele>730.8333333333334</ele><time>2026-04-08T09:39:11.776Z</time></trkpt><trkpt lat="45.5775633" lon="11.0422333"><ele>729.6666666666666</ele><time>2026-04-08T09:39:12.777Z</time></trkpt><trkpt lat="45.577545" lon="11.0421117"><ele>728.5</ele><time>2026-04-08T09:39:13.776Z</time></trkpt><trkpt lat="45.57752" lon="11.042005"><ele>727.3333333333333</ele><time>2026-04-08T09:39:14.777Z</time></trkpt><trkpt lat="45.57749" lon="11.041895"><ele>726.1666666666666</ele><time>2026-04-08T09:39:15.777Z</time></trkpt><trkpt lat="45.577455" lon="11.041785"><ele>725.0</ele><time>2026-04-08T09:39:16.777Z</time></trkpt><trkpt lat="45.5774133" lon="11.04168"><ele>722.8</ele><time>2026-04-08T09:39:17.777Z</time></trkpt><trkpt lat="45.5773517" lon="11.041565"><ele>720.6</ele><time>2026-04-08T09:39:18.777Z</time></trkpt><trkpt lat="45.57728" lon="11.0414533"><ele>718.4000000000001</ele><time>2026-04-08T09:39:19.776Z</time></trkpt><trkpt lat="45.5772117" lon="11.041355"><ele>716.2</ele><time>2026-04-08T09:39:20.776Z</time></trkpt><trkpt lat="45.5771317" lon="11.0412767"><ele>714.0</ele><time>2026-04-08T09:39:21.776Z</time></trkpt><trkpt lat="45.5770517" lon="11.0412217"><ele>715.0</ele><time>2026-04-08T09:39:22.777Z</time></trkpt><trkpt lat="45.57697" lon="11.041185"><ele>716.0</ele><time>2026-04-08T09:39:23.777Z</time></trkpt><trkpt lat="45.5768817" lon="11.0411733"><ele>717.0</ele><time>2026-04-08T09:39:24.777Z</time></trkpt><trkpt lat="45.57678" lon="11.04118"><ele>718.0</ele><time>2026-04-08T09:39:25.777Z</time></trkpt><trkpt lat="45.5766783" lon="11.0411717"><ele>719.0</ele><time>2026-04-08T09:39:26.776Z</time></trkpt><trkpt lat="45.576555" lon="11.041205"><ele>719.0</ele><time>2026-04-08T09:39:27.776Z</time></trkpt><trkpt lat="45.57645" lon="11.0412217"><ele>719.0</ele><time>2026-04-08T09:39:28.776Z</time></trkpt><trkpt lat="45.5763517" lon="11.04124"><ele>719.0</ele><time>2026-04-08T09:39:29.776Z</time></trkpt><trkpt lat="45.5762567" lon="11.0412533"><ele>719.0</ele><time>2026-04-08T09:39:30.777Z</time></trkpt><trkpt lat="45.5761617" lon="11.041245"><ele>719.0</ele><time>2026-04-08T09:39:31.777Z</time></trkpt><trkpt lat="45.5760733" lon="11.0412433"><ele>718.5</ele><time>2026-04-08T09:39:32.777Z</time></trkpt><trkpt lat="45.5759933" lon="11.0412317"><ele>718.0</ele><time>2026-04-08T09:39:33.776Z</time></trkpt><trkpt lat="45.5759133" lon="11.041225"><ele>717.5</ele><time>2026-04-08T09:39:34.776Z</time></trkpt><trkpt lat="45.57585" lon="11.0412183"><ele>717.0</ele><time>2026-04-08T09:39:35.777Z</time></trkpt><trkpt lat="45.5757683" lon="11.0412317"><ele>716.5</ele><time>2026-04-08T09:39:37.777Z</time></trkpt><trkpt lat="45.57575" lon="11.04133"><ele>716.0</ele><time>2026-04-08T09:39:40.776Z</time></trkpt><trkpt lat="45.5758317" lon="11.0413333"><ele>716.0</ele><time>2026-04-08T09:39:55.777Z</time></trkpt><trkpt lat="45.5759117" lon="11.041345"><ele>716.0</ele><time>2026-04-08T09:39:57.777Z</time></trkpt><trkpt lat="45.5759867" lon="11.0414667"><ele>716.0</ele><time>2026-04-08T09:40:24.777Z</time></trkpt><trkpt lat="45.5759417" lon="11.0413833"><ele>716.0</ele><time>2026-04-08T09:41:10.775Z</time></trkpt><trkpt lat="45.5759329" lon="11.0412914"><ele>716.0</ele><time>2026-04-08T09:42:08.811Z</time></trkpt><trkpt lat="45.5758976" lon="11.0414031"><ele>716.0</ele><time>2026-04-08T09:46:03.834Z</time></trkpt><trkpt lat="45.57591" lon="11.0412967"><ele>716.0</ele><time>2026-04-08T09:46:13.775Z</time></trkpt><trkpt lat="45.575845" lon="11.0414133"><ele>716.0</ele><time>2026-04-08T09:49:03.774Z</time></trkpt><trkpt lat="45.5757933" lon="11.04133"><ele>716.0</ele><time>2026-04-08T10:29:24.769Z</time></trkpt><trkpt lat="45.5758526" lon="11.0413849"><ele>716.0</ele><time>2026-04-08T10:30:16.79Z</time></trkpt><trkpt lat="45.575735" lon="11.0413467"><ele>716.0</ele><time>2026-04-08T10:33:08.789Z</time></trkpt><trkpt lat="45.5756117" lon="11.04134"><ele>716.0</ele><time>2026-04-08T10:33:09.788Z</time></trkpt><trkpt lat="45.57551" lon="11.0413433"><ele>716.0</ele><time>2026-04-08T10:33:10.789Z</time></trkpt><trkpt lat="45.5754283" lon="11.0413117"><ele>716.0</ele><time>2026-04-08T10:33:11.788Z</time></trkpt><trkpt lat="45.5753417" lon="11.0412683"><ele>716.0</ele><time>2026-04-08T10:33:12.789Z</time></trkpt><trkpt lat="45.575285" lon="11.0411783"><ele>716.0</ele><time>2026-04-08T10:33:13.789Z</time></trkpt><trkpt lat="45.575235" lon="11.0410717"><ele>715.4</ele><time>2026-04-08T10:33:14.788Z</time></trkpt><trkpt lat="45.5751883" lon="11.0409583"><ele>714.8</ele><time>2026-04-08T10:33:15.789Z</time></trkpt><trkpt lat="45.5751633" lon="11.0408283"><ele>714.1999999999999</ele><time>2026-04-08T10:33:16.788Z</time></trkpt><trkpt lat="45.5751317" lon="11.0407"><ele>713.5999999999999</ele><time>2026-04-08T10:33:17.789Z</time></trkpt><trkpt lat="45.575105" lon="11.0405533"><ele>713.0</ele><time>2026-04-08T10:33:18.788Z</time></trkpt><trkpt lat="45.5750617" lon="11.0404033"><ele>713.0</ele><time>2026-04-08T10:33:19.789Z</time></trkpt><trkpt lat="45.575015" lon="11.0402417"><ele>713.0</ele><time>2026-04-08T10:33:20.788Z</time></trkpt><trkpt lat="45.5749567" lon="11.0400933"><ele>713.0</ele><time>2026-04-08T10:33:21.789Z</time></trkpt><trkpt lat="45.574905" lon="11.0399367"><ele>713.0</ele><time>2026-04-08T10:33:22.788Z</time></trkpt><trkpt lat="45.5748567" lon="11.03978"><ele>712.0</ele><time>2026-04-08T10:33:23.789Z</time></trkpt><trkpt lat="45.5748133" lon="11.03962"><ele>711.0</ele><time>2026-04-08T10:33:24.789Z</time></trkpt><trkpt lat="45.5747667" lon="11.039465"><ele>710.0</ele><time>2026-04-08T10:33:25.789Z</time></trkpt><trkpt lat="45.5747217" lon="11.0393233"><ele>709.0</ele><time>2026-04-08T10:33:26.789Z</time></trkpt><trkpt lat="45.5746683" lon="11.0391783"><ele>709.5</ele><time>2026-04-08T10:33:27.788Z</time></trkpt><trkpt lat="45.5746017" lon="11.0390317"><ele>710.0</ele><time>2026-04-08T10:33:28.789Z</time></trkpt><trkpt lat="45.5745433" lon="11.0388883"><ele>710.5</ele><time>2026-04-08T10:33:29.788Z</time></trkpt><trkpt lat="45.574465" lon="11.0387533"><ele>711.0</ele><time>2026-04-08T10:33:30.789Z</time></trkpt><trkpt lat="45.5743667" lon="11.0386533"><ele>711.25</ele><time>2026-04-08T10:33:31.789Z</time></trkpt><trkpt lat="45.574255" lon="11.0385883"><ele>711.5</ele><time>2026-04-08T10:33:32.788Z</time></trkpt><trkpt lat="45.5741367" lon="11.0385383"><ele>711.75</ele><time>2026-04-08T10:33:33.788Z</time></trkpt><trkpt lat="45.5740183" lon="11.0385067"><ele>712.0</ele><time>2026-04-08T10:33:34.788Z</time></trkpt><trkpt lat="45.5739017" lon="11.0385033"><ele>712.0</ele><time>2026-04-08T10:33:35.788Z</time></trkpt><trkpt lat="45.5737783" lon="11.0385333"><ele>712.0</ele><time>2026-04-08T10:33:36.789Z</time></trkpt><trkpt lat="45.573655" lon="11.03859"><ele>712.0</ele><time>2026-04-08T10:33:37.788Z</time></trkpt><trkpt lat="45.5735467" lon="11.0386683"><ele>712.0</ele><time>2026-04-08T10:33:38.789Z</time></trkpt><trkpt lat="45.5734433" lon="11.0387617"><ele>711.0</ele><time>2026-04-08T10:33:39.789Z</time></trkpt><trkpt lat="45.57335" lon="11.0388883"><ele>710.0</ele><time>2026-04-08T10:33:40.789Z</time></trkpt><trkpt lat="45.573275" lon="11.0390267"><ele>709.0</ele><time>2026-04-08T10:33:41.789Z</time></trkpt><trkpt lat="45.5731967" lon="11.0391817"><ele>708.0</ele><time>2026-04-08T10:33:42.789Z</time></trkpt><trkpt lat="45.57313" lon="11.0393533"><ele>708.0</ele><time>2026-04-08T10:33:43.789Z</time></trkpt><trkpt lat="45.573065" lon="11.03954"><ele>708.0</ele><time>2026-04-08T10:33:44.788Z</time></trkpt><trkpt lat="45.57301" lon="11.039715"><ele>708.0</ele><time>2026-04-08T10:33:45.788Z</time></trkpt><trkpt lat="45.572945" lon="11.0398833"><ele>708.0</ele><time>2026-04-08T10:33:46.789Z</time></trkpt><trkpt lat="45.5728667" lon="11.0400333"><ele>705.75</ele><time>2026-04-08T10:33:47.788Z</time></trkpt><trkpt lat="45.57277" lon="11.0401683"><ele>703.5</ele><time>2026-04-08T10:33:48.788Z</time></trkpt><trkpt lat="45.57267" lon="11.0402867"><ele>701.25</ele><time>2026-04-08T10:33:49.789Z</time></trkpt><trkpt lat="45.57258" lon="11.0403933"><ele>699.0</ele><time>2026-04-08T10:33:50.789Z</time></trkpt><trkpt lat="45.5725083" lon="11.0404917"><ele>699.0</ele><time>2026-04-08T10:33:51.788Z</time></trkpt><trkpt lat="45.57246" lon="11.0405933"><ele>699.0</ele><time>2026-04-08T10:33:52.788Z</time></trkpt><trkpt lat="45.5724383" lon="11.0407033"><ele>699.0</ele><time>2026-04-08T10:33:53.789Z</time></trkpt><trkpt lat="45.5724283" lon="11.0408"><ele>699.0</ele><time>2026-04-08T10:33:54.788Z</time></trkpt><trkpt lat="45.5724183" lon="11.0408933"><ele>699.0</ele><time>2026-04-08T10:33:55.788Z</time></trkpt><trkpt lat="45.57237" lon="11.0409533"><ele>699.0</ele><time>2026-04-08T10:33:56.789Z</time></trkpt><trkpt lat="45.57229" lon="11.0410317"><ele>699.4000000000001</ele><time>2026-04-08T10:33:57.789Z</time></trkpt><trkpt lat="45.5722117" lon="11.0411283"><ele>699.8</ele><time>2026-04-08T10:33:58.789Z</time></trkpt><trkpt lat="45.5721533" lon="11.04124"><ele>700.2</ele><time>2026-04-08T10:33:59.788Z</time></trkpt><trkpt lat="45.5721217" lon="11.0413683"><ele>700.5999999999999</ele><time>2026-04-08T10:34:00.788Z</time></trkpt><trkpt lat="45.5721233" lon="11.0415117"><ele>701.0</ele><time>2026-04-08T10:34:01.788Z</time></trkpt><trkpt lat="45.572155" lon="11.0416467"><ele>700.0</ele><time>2026-04-08T10:34:02.788Z</time></trkpt><trkpt lat="45.572205" lon="11.0417867"><ele>699.0</ele><time>2026-04-08T10:34:03.789Z</time></trkpt><trkpt lat="45.5722583" lon="11.0419233"><ele>698.0</ele><time>2026-04-08T10:34:04.788Z</time></trkpt><trkpt lat="45.5723017" lon="11.0420683"><ele>697.0</ele><time>2026-04-08T10:34:05.789Z</time></trkpt><trkpt lat="45.57235" lon="11.0422183"><ele>696.0</ele><time>2026-04-08T10:34:06.789Z</time></trkpt><trkpt lat="45.572395" lon="11.0423683"><ele>694.75</ele><time>2026-04-08T10:34:07.789Z</time></trkpt><trkpt lat="45.57243" lon="11.0425217"><ele>693.5</ele><time>2026-04-08T10:34:08.788Z</time></trkpt><trkpt lat="45.572445" lon="11.042675"><ele>692.25</ele><time>2026-04-08T10:34:09.788Z</time></trkpt><trkpt lat="45.5724483" lon="11.0428367"><ele>691.0</ele><time>2026-04-08T10:34:10.789Z</time></trkpt><trkpt lat="45.572445" lon="11.0430117"><ele>691.0</ele><time>2026-04-08T10:34:11.788Z</time></trkpt><trkpt lat="45.572435" lon="11.0431817"><ele>691.0</ele><time>2026-04-08T10:34:12.789Z</time></trkpt><trkpt lat="45.572405" lon="11.0433383"><ele>691.0</ele><time>2026-04-08T10:34:13.788Z</time></trkpt><trkpt lat="45.5723733" lon="11.0434917"><ele>691.0</ele><time>2026-04-08T10:34:14.789Z</time></trkpt><trkpt lat="45.5723433" lon="11.043645"><ele>689.5999999999999</ele><time>2026-04-08T10:34:15.788Z</time></trkpt><trkpt lat="45.5723217" lon="11.043795"><ele>688.2</ele><time>2026-04-08T10:34:16.789Z</time></trkpt><trkpt lat="45.5723" lon="11.04395"><ele>686.8</ele><time>2026-04-08T10:34:17.789Z</time></trkpt><trkpt lat="45.5722767" lon="11.0441067"><ele>685.4000000000001</ele><time>2026-04-08T10:34:18.789Z</time></trkpt><trkpt lat="45.5722733" lon="11.0442683"><ele>684.0</ele><time>2026-04-08T10:34:19.788Z</time></trkpt><trkpt lat="45.5722567" lon="11.04444"><ele>681.75</ele><time>2026-04-08T10:34:20.788Z</time></trkpt><trkpt lat="45.5722467" lon="11.04462"><ele>679.5</ele><time>2026-04-08T10:34:21.788Z</time></trkpt><trkpt lat="45.5722383" lon="11.044795"><ele>677.25</ele><time>2026-04-08T10:34:22.789Z</time></trkpt><trkpt lat="45.572215" lon="11.0449583"><ele>675.0</ele><time>2026-04-08T10:34:23.788Z</time></trkpt><trkpt lat="45.57217" lon="11.0451167"><ele>674.0</ele><time>2026-04-08T10:34:24.788Z</time></trkpt><trkpt lat="45.57213" lon="11.0452667"><ele>673.0</ele><time>2026-04-08T10:34:25.789Z</time></trkpt><trkpt lat="45.5720817" lon="11.0454283"><ele>672.0</ele><time>2026-04-08T10:34:26.788Z</time></trkpt><trkpt lat="45.5720383" lon="11.04559"><ele>671.0</ele><time>2026-04-08T10:34:27.789Z</time></trkpt><trkpt lat="45.5719983" lon="11.045745"><ele>669.8</ele><time>2026-04-08T10:34:28.788Z</time></trkpt><trkpt lat="45.5719617" lon="11.04589"><ele>668.5999999999999</ele><time>2026-04-08T10:34:29.788Z</time></trkpt><trkpt lat="45.5719283" lon="11.0460267"><ele>667.4</ele><time>2026-04-08T10:34:30.789Z</time></trkpt><trkpt lat="45.5718917" lon="11.0461883"><ele>666.2</ele><time>2026-04-08T10:34:31.789Z</time></trkpt><trkpt lat="45.5718683" lon="11.046345"><ele>665.0</ele><time>2026-04-08T10:34:32.789Z</time></trkpt><trkpt lat="45.5718483" lon="11.04649"><ele>665.0</ele><time>2026-04-08T10:34:33.788Z</time></trkpt><trkpt lat="45.5718333" lon="11.04661"><ele>665.0</ele><time>2026-04-08T10:34:34.789Z</time></trkpt><trkpt lat="45.5718317" lon="11.046725"><ele>665.0</ele><time>2026-04-08T10:34:35.789Z</time></trkpt><trkpt lat="45.571825" lon="11.0468517"><ele>665.0</ele><time>2026-04-08T10:34:36.789Z</time></trkpt><trkpt lat="45.5718133" lon="11.046975"><ele>665.0</ele><time>2026-04-08T10:34:37.789Z</time></trkpt><trkpt lat="45.57181" lon="11.0470817"><ele>665.0</ele><time>2026-04-08T10:34:38.788Z</time></trkpt><trkpt lat="45.5718067" lon="11.0471767"><ele>662.2</ele><time>2026-04-08T10:34:39.788Z</time></trkpt><trkpt lat="45.5717833" lon="11.0473433"><ele>659.4</ele><time>2026-04-08T10:34:41.788Z</time></trkpt><trkpt lat="45.571755" lon="11.0474283"><ele>656.5999999999999</ele><time>2026-04-08T10:34:42.788Z</time></trkpt><trkpt lat="45.5717017" lon="11.0475683"><ele>653.8</ele><time>2026-04-08T10:34:44.788Z</time></trkpt><trkpt lat="45.5716817" lon="11.04771"><ele>651.0</ele><time>2026-04-08T10:34:46.789Z</time></trkpt><trkpt lat="45.5716783" lon="11.0478"><ele>649.0</ele><time>2026-04-08T10:34:48.789Z</time></trkpt><trkpt lat="45.5715983" lon="11.0478383"><ele>647.0</ele><time>2026-04-08T10:34:50.789Z</time></trkpt><trkpt lat="45.5714967" lon="11.0478733"><ele>645.0</ele><time>2026-04-08T10:34:51.789Z</time></trkpt><trkpt lat="45.5714017" lon="11.0479167"><ele>643.0</ele><time>2026-04-08T10:34:52.789Z</time></trkpt><trkpt lat="45.5713033" lon="11.0479633"><ele>641.0</ele><time>2026-04-08T10:34:53.788Z</time></trkpt><trkpt lat="45.571205" lon="11.048005"><ele>641.5</ele><time>2026-04-08T10:34:54.788Z</time></trkpt><trkpt lat="45.5711167" lon="11.0480133"><ele>642.0</ele><time>2026-04-08T10:34:55.788Z</time></trkpt><trkpt lat="45.571025" lon="11.0480167"><ele>642.5</ele><time>2026-04-08T10:34:56.789Z</time></trkpt><trkpt lat="45.5709417" lon="11.0479933"><ele>643.0</ele><time>2026-04-08T10:34:57.789Z</time></trkpt><trkpt lat="45.570865" lon="11.0479517"><ele>643.5</ele><time>2026-04-08T10:34:58.789Z</time></trkpt><trkpt lat="45.57079" lon="11.0479017"><ele>644.0</ele><time>2026-04-08T10:34:59.789Z</time></trkpt><trkpt lat="45.5707083" lon="11.0478317"><ele>644.0</ele><time>2026-04-08T10:35:00.788Z</time></trkpt><trkpt lat="45.5706283" lon="11.0477533"><ele>644.0</ele><time>2026-04-08T10:35:01.788Z</time></trkpt><trkpt lat="45.5705517" lon="11.04765"><ele>644.0</ele><time>2026-04-08T10:35:02.789Z</time></trkpt><trkpt lat="45.5704633" lon="11.0475417"><ele>644.0</ele><time>2026-04-08T10:35:03.788Z</time></trkpt><trkpt lat="45.5703717" lon="11.04744"><ele>644.0</ele><time>2026-04-08T10:35:04.788Z</time></trkpt><trkpt lat="45.570285" lon="11.0473533"><ele>645.6</ele><time>2026-04-08T10:35:05.788Z</time></trkpt><trkpt lat="45.57019" lon="11.047265"><ele>647.2</ele><time>2026-04-08T10:35:06.789Z</time></trkpt><trkpt lat="45.5700967" lon="11.047165"><ele>648.8000000000001</ele><time>2026-04-08T10:35:07.788Z</time></trkpt><trkpt lat="45.5700217" lon="11.047085"><ele>650.4000000000001</ele><time>2026-04-08T10:35:08.788Z</time></trkpt><trkpt lat="45.5699317" lon="11.047045"><ele>652.0</ele><time>2026-04-08T10:35:09.789Z</time></trkpt><trkpt lat="45.5698317" lon="11.04704"><ele>652.0</ele><time>2026-04-08T10:35:10.788Z</time></trkpt><trkpt lat="45.5697283" lon="11.0470567"><ele>652.0</ele><time>2026-04-08T10:35:11.788Z</time></trkpt><trkpt lat="45.56963" lon="11.04706"><ele>652.0</ele><time>2026-04-08T10:35:12.789Z</time></trkpt><trkpt lat="45.56953" lon="11.0470417"><ele>652.0</ele><time>2026-04-08T10:35:13.787Z</time></trkpt><trkpt lat="45.5694283" lon="11.04702"><ele>652.0</ele><time>2026-04-08T10:35:14.788Z</time></trkpt><trkpt lat="45.5693383" lon="11.0469883"><ele>650.8</ele><time>2026-04-08T10:35:15.788Z</time></trkpt><trkpt lat="45.569265" lon="11.0469567"><ele>649.6</ele><time>2026-04-08T10:35:16.787Z</time></trkpt><trkpt lat="45.56916" lon="11.0469467"><ele>648.4</ele><time>2026-04-08T10:35:18.788Z</time></trkpt><trkpt lat="45.569145" lon="11.0470817"><ele>647.1999999999999</ele><time>2026-04-08T10:35:20.788Z</time></trkpt><trkpt lat="45.569215" lon="11.0472583"><ele>646.0</ele><time>2026-04-08T10:35:22.788Z</time></trkpt><trkpt lat="45.5692883" lon="11.0473617"><ele>646.0</ele><time>2026-04-08T10:35:23.787Z</time></trkpt><trkpt lat="45.5693817" lon="11.04746"><ele>646.0</ele><time>2026-04-08T10:35:24.788Z</time></trkpt><trkpt lat="45.5694883" lon="11.0475633"><ele>646.0</ele><time>2026-04-08T10:35:25.788Z</time></trkpt><trkpt lat="45.5696033" lon="11.0476517"><ele>646.0</ele><time>2026-04-08T10:35:26.787Z</time></trkpt><trkpt lat="45.5696933" lon="11.0477317"><ele>645.8333333333334</ele><time>2026-04-08T10:35:27.787Z</time></trkpt><trkpt lat="45.569755" lon="11.0478017"><ele>645.6666666666667</ele><time>2026-04-08T10:35:28.787Z</time></trkpt><trkpt lat="45.569795" lon="11.0478733"><ele>645.5</ele><time>2026-04-08T10:35:29.788Z</time></trkpt><trkpt lat="45.5698583" lon="11.048"><ele>645.3333333333334</ele><time>2026-04-08T10:35:31.787Z</time></trkpt><trkpt lat="45.5699383" lon="11.048135"><ele>645.1666666666666</ele><time>2026-04-08T10:35:33.787Z</time></trkpt><trkpt lat="45.5699683" lon="11.0482167"><ele>645.0</ele><time>2026-04-08T10:35:34.787Z</time></trkpt><trkpt lat="45.5700183" lon="11.0483783"><ele>645.0</ele><time>2026-04-08T10:35:36.788Z</time></trkpt><trkpt lat="45.570045" lon="11.04854"><ele>645.0</ele><time>2026-04-08T10:35:38.787Z</time></trkpt><trkpt lat="45.5700417" lon="11.0486417"><ele>645.0</ele><time>2026-04-08T10:35:39.788Z</time></trkpt><trkpt lat="45.5700033" lon="11.0488033"><ele>645.0</ele><time>2026-04-08T10:35:40.787Z</time></trkpt><trkpt lat="45.5699817" lon="11.0489467"><ele>645.0</ele><time>2026-04-08T10:35:41.787Z</time></trkpt><trkpt lat="45.5699717" lon="11.0490783"><ele>646.6666666666666</ele><time>2026-04-08T10:35:42.788Z</time></trkpt><trkpt lat="45.569985" lon="11.0491917"><ele>648.3333333333334</ele><time>2026-04-08T10:35:43.787Z</time></trkpt><trkpt lat="45.570005" lon="11.0492867"><ele>650.0</ele><time>2026-04-08T10:35:44.787Z</time></trkpt><trkpt lat="45.5700667" lon="11.049405"><ele>651.6666666666667</ele><time>2026-04-08T10:35:46.788Z</time></trkpt><trkpt lat="45.5700017" lon="11.0494283"><ele>653.3333333333334</ele><time>2026-04-08T10:35:48.788Z</time></trkpt><trkpt lat="45.5699133" lon="11.0493933"><ele>655.0</ele><time>2026-04-08T10:35:50.787Z</time></trkpt><trkpt lat="45.5698633" lon="11.04945"><ele>655.0</ele><time>2026-04-08T10:35:52.787Z</time></trkpt><trkpt lat="45.56986" lon="11.0496217"><ele>655.0</ele><time>2026-04-08T10:35:54.788Z</time></trkpt><trkpt lat="45.569895" lon="11.0497233"><ele>655.0</ele><time>2026-04-08T10:35:55.787Z</time></trkpt><trkpt lat="45.56993" lon="11.0498383"><ele>655.0</ele><time>2026-04-08T10:35:56.788Z</time></trkpt><trkpt lat="45.5699483" lon="11.049965"><ele>655.0</ele><time>2026-04-08T10:35:57.788Z</time></trkpt><trkpt lat="45.569945" lon="11.05011"><ele>656.2</ele><time>2026-04-08T10:35:59.787Z</time></trkpt><trkpt lat="45.5698417" lon="11.05011"><ele>657.4</ele><time>2026-04-08T10:36:01.787Z</time></trkpt><trkpt lat="45.5697117" lon="11.0500367"><ele>658.5999999999999</ele><time>2026-04-08T10:36:03.788Z</time></trkpt><trkpt lat="45.5696283" lon="11.0499983"><ele>659.8</ele><time>2026-04-08T10:36:04.787Z</time></trkpt><trkpt lat="45.5695467" lon="11.04998"><ele>661.0</ele><time>2026-04-08T10:36:06.787Z</time></trkpt><trkpt lat="45.56953" lon="11.0501117"><ele>665.5999999999999</ele><time>2026-04-08T10:36:08.787Z</time></trkpt><trkpt lat="45.5695233" lon="11.0502117"><ele>670.2</ele><time>2026-04-08T10:36:09.788Z</time></trkpt><trkpt lat="45.569505" lon="11.0503667"><ele>674.8</ele><time>2026-04-08T10:36:10.788Z</time></trkpt><trkpt lat="45.5694833" lon="11.0505333"><ele>679.4000000000001</ele><time>2026-04-08T10:36:11.787Z</time></trkpt><trkpt lat="45.5694517" lon="11.0507033"><ele>684.0</ele><time>2026-04-08T10:36:12.787Z</time></trkpt><trkpt lat="45.5694217" lon="11.0508517"><ele>685.4000000000001</ele><time>2026-04-08T10:36:13.788Z</time></trkpt><trkpt lat="45.5693867" lon="11.0509883"><ele>686.8</ele><time>2026-04-08T10:36:14.788Z</time></trkpt><trkpt lat="45.56934" lon="11.0511067"><ele>688.2</ele><time>2026-04-08T10:36:15.787Z</time></trkpt><trkpt lat="45.56928" lon="11.0512167"><ele>689.5999999999999</ele><time>2026-04-08T10:36:16.788Z</time></trkpt><trkpt lat="45.5692117" lon="11.0513383"><ele>691.0</ele><time>2026-04-08T10:36:17.787Z</time></trkpt><trkpt lat="45.569135" lon="11.0514633"><ele>691.0</ele><time>2026-04-08T10:36:18.787Z</time></trkpt><trkpt lat="45.5690567" lon="11.0515783"><ele>691.0</ele><time>2026-04-08T10:36:19.788Z</time></trkpt><trkpt lat="45.56897" lon="11.0516967"><ele>691.0</ele><time>2026-04-08T10:36:20.788Z</time></trkpt><trkpt lat="45.568885" lon="11.0518033"><ele>691.0</ele><time>2026-04-08T10:36:21.787Z</time></trkpt><trkpt lat="45.5687917" lon="11.051915"><ele>690.5</ele><time>2026-04-08T10:36:22.788Z</time></trkpt><trkpt lat="45.5687033" lon="11.05203"><ele>690.0</ele><time>2026-04-08T10:36:23.787Z</time></trkpt><trkpt lat="45.5686" lon="11.0521233"><ele>689.5</ele><time>2026-04-08T10:36:24.788Z</time></trkpt><trkpt lat="45.5684833" lon="11.0522183"><ele>689.0</ele><time>2026-04-08T10:36:25.788Z</time></trkpt><trkpt lat="45.5683583" lon="11.0523167"><ele>692.0</ele><time>2026-04-08T10:36:26.787Z</time></trkpt><trkpt lat="45.5682433" lon="11.0524167"><ele>695.0</ele><time>2026-04-08T10:36:27.788Z</time></trkpt><trkpt lat="45.568165" lon="11.0525117"><ele>698.0</ele><time>2026-04-08T10:36:28.787Z</time></trkpt><trkpt lat="45.5681017" lon="11.0525883"><ele>701.0</ele><time>2026-04-08T10:36:29.788Z</time></trkpt><trkpt lat="45.5680483" lon="11.0526567"><ele>704.0</ele><time>2026-04-08T10:36:30.787Z</time></trkpt><trkpt lat="45.5679983" lon="11.0527133"><ele>704.0</ele><time>2026-04-08T10:36:31.788Z</time></trkpt><trkpt lat="45.5679183" lon="11.0527933"><ele>704.0</ele><time>2026-04-08T10:36:33.788Z</time></trkpt><trkpt lat="45.5678417" lon="11.05281"><ele>704.0</ele><time>2026-04-08T10:36:47.788Z</time></trkpt><trkpt lat="45.5677783" lon="11.0528"><ele>704.0</ele><time>2026-04-08T10:36:48.788Z</time></trkpt><trkpt lat="45.5676467" lon="11.052785"><ele>704.0</ele><time>2026-04-08T10:36:49.787Z</time></trkpt><trkpt lat="45.5675" lon="11.0527617"><ele>704.3333333333333</ele><time>2026-04-08T10:36:50.787Z</time></trkpt><trkpt lat="45.56733" lon="11.05275"><ele>704.6666666666666</ele><time>2026-04-08T10:36:51.788Z</time></trkpt><trkpt lat="45.5671567" lon="11.0527467"><ele>705.0</ele><time>2026-04-08T10:36:52.788Z</time></trkpt><trkpt lat="45.5670183" lon="11.0527417"><ele>705.0</ele><time>2026-04-08T10:36:53.787Z</time></trkpt><trkpt lat="45.566905" lon="11.0527617"><ele>705.0</ele><time>2026-04-08T10:36:54.787Z</time></trkpt><trkpt lat="45.566795" lon="11.05278"><ele>705.0</ele><time>2026-04-08T10:36:55.788Z</time></trkpt><trkpt lat="45.56669" lon="11.0527683"><ele>705.0</ele><time>2026-04-08T10:36:56.788Z</time></trkpt><trkpt lat="45.5665867" lon="11.0527333"><ele>705.0</ele><time>2026-04-08T10:36:57.787Z</time></trkpt><trkpt lat="45.5664783" lon="11.0526833"><ele>705.0</ele><time>2026-04-08T10:36:58.787Z</time></trkpt><trkpt lat="45.5663667" lon="11.052635"><ele>705.0</ele><time>2026-04-08T10:36:59.788Z</time></trkpt><trkpt lat="45.5662817" lon="11.0525883"><ele>705.0</ele><time>2026-04-08T10:37:00.787Z</time></trkpt><trkpt lat="45.5662067" lon="11.0525517"><ele>705.0</ele><time>2026-04-08T10:37:01.788Z</time></trkpt><trkpt lat="45.5661383" lon="11.0525317"><ele>705.0</ele><time>2026-04-08T10:37:02.788Z</time></trkpt><trkpt lat="45.56606" lon="11.0525583"><ele>705.0</ele><time>2026-04-08T10:37:03.788Z</time></trkpt><trkpt lat="45.5659833" lon="11.0525883"><ele>703.6666666666666</ele><time>2026-04-08T10:37:04.788Z</time></trkpt><trkpt lat="45.5659067" lon="11.0526033"><ele>702.3333333333334</ele><time>2026-04-08T10:37:05.788Z</time></trkpt><trkpt lat="45.56583" lon="11.0525833"><ele>701.0</ele><time>2026-04-08T10:37:06.787Z</time></trkpt><trkpt lat="45.5657667" lon="11.052575"><ele>699.6666666666667</ele><time>2026-04-08T10:37:07.788Z</time></trkpt><trkpt lat="45.5656883" lon="11.05257"><ele>698.3333333333334</ele><time>2026-04-08T10:37:08.788Z</time></trkpt><trkpt lat="45.56561" lon="11.0525567"><ele>697.0</ele><time>2026-04-08T10:37:09.787Z</time></trkpt><trkpt lat="45.5655033" lon="11.0525183"><ele>697.0</ele><time>2026-04-08T10:37:11.788Z</time></trkpt><trkpt lat="45.5654217" lon="11.0525233"><ele>697.0</ele><time>2026-04-08T10:37:13.788Z</time></trkpt><trkpt lat="45.56536" lon="11.0525567"><ele>697.0</ele><time>2026-04-08T10:37:14.788Z</time></trkpt><trkpt lat="45.5652383" lon="11.05253"><ele>697.0</ele><time>2026-04-08T10:37:16.788Z</time></trkpt><trkpt lat="45.565175" lon="11.052465"><ele>697.0</ele><time>2026-04-08T10:37:17.787Z</time></trkpt><trkpt lat="45.56511" lon="11.0524017"><ele>697.0</ele><time>2026-04-08T10:37:18.787Z</time></trkpt><trkpt lat="45.5650517" lon="11.0523567"><ele>694.8333333333334</ele><time>2026-04-08T10:37:19.788Z</time></trkpt><trkpt lat="45.5649617" lon="11.0522467"><ele>692.6666666666667</ele><time>2026-04-08T10:37:21.787Z</time></trkpt><trkpt lat="45.5648967" lon="11.052185"><ele>690.5</ele><time>2026-04-08T10:37:23.787Z</time></trkpt><trkpt lat="45.564805" lon="11.0521733"><ele>688.3333333333334</ele><time>2026-04-08T10:37:25.788Z</time></trkpt><trkpt lat="45.5647367" lon="11.0521717"><ele>686.1666666666666</ele><time>2026-04-08T10:37:26.787Z</time></trkpt><trkpt lat="45.5646717" lon="11.0521933"><ele>684.0</ele><time>2026-04-08T10:37:27.788Z</time></trkpt><trkpt lat="45.5645967" lon="11.052215"><ele>682.0</ele><time>2026-04-08T10:37:28.787Z</time></trkpt><trkpt lat="45.564525" lon="11.0522433"><ele>680.0</ele><time>2026-04-08T10:37:29.788Z</time></trkpt><trkpt lat="45.5644433" lon="11.0522867"><ele>678.0</ele><time>2026-04-08T10:37:30.787Z</time></trkpt><trkpt lat="45.564395" lon="11.0523483"><ele>676.0</ele><time>2026-04-08T10:37:31.788Z</time></trkpt><trkpt lat="45.564365" lon="11.0524433"><ele>674.0</ele><time>2026-04-08T10:37:32.787Z</time></trkpt><trkpt lat="45.5643367" lon="11.0525517"><ele>672.0</ele><time>2026-04-08T10:37:33.787Z</time></trkpt><trkpt lat="45.5643117" lon="11.0526917"><ele>670.25</ele><time>2026-04-08T10:37:34.787Z</time></trkpt><trkpt lat="45.5642583" lon="11.0528617"><ele>668.5</ele><time>2026-04-08T10:37:35.788Z</time></trkpt><trkpt lat="45.5641917" lon="11.0530267"><ele>666.75</ele><time>2026-04-08T10:37:36.787Z</time></trkpt><trkpt lat="45.5641367" lon="11.0531667"><ele>665.0</ele><time>2026-04-08T10:37:37.788Z</time></trkpt><trkpt lat="45.5640767" lon="11.0532917"><ele>664.2</ele><time>2026-04-08T10:37:38.787Z</time></trkpt><trkpt lat="45.564045" lon="11.0534117"><ele>663.4</ele><time>2026-04-08T10:37:39.787Z</time></trkpt><trkpt lat="45.56403" lon="11.0535467"><ele>662.5999999999999</ele><time>2026-04-08T10:37:40.788Z</time></trkpt><trkpt lat="45.56403" lon="11.0536733"><ele>661.8</ele><time>2026-04-08T10:37:41.787Z</time></trkpt><trkpt lat="45.5640483" lon="11.0538067"><ele>661.0</ele><time>2026-04-08T10:37:42.788Z</time></trkpt><trkpt lat="45.5640817" lon="11.0539467"><ele>661.0</ele><time>2026-04-08T10:37:43.788Z</time></trkpt><trkpt lat="45.5641067" lon="11.0540867"><ele>661.0</ele><time>2026-04-08T10:37:44.788Z</time></trkpt><trkpt lat="45.56413" lon="11.054225"><ele>661.0</ele><time>2026-04-08T10:37:45.787Z</time></trkpt><trkpt lat="45.564175" lon="11.0543733"><ele>661.0</ele><time>2026-04-08T10:37:46.788Z</time></trkpt><trkpt lat="45.5642367" lon="11.0545217"><ele>661.0</ele><time>2026-04-08T10:37:47.788Z</time></trkpt><trkpt lat="45.5642833" lon="11.0546533"><ele>659.4</ele><time>2026-04-08T10:37:48.788Z</time></trkpt><trkpt lat="45.5643333" lon="11.054775"><ele>657.8</ele><time>2026-04-08T10:37:49.788Z</time></trkpt><trkpt lat="45.5643867" lon="11.0549067"><ele>656.1999999999999</ele><time>2026-04-08T10:37:50.788Z</time></trkpt><trkpt lat="45.5644217" lon="11.055035"><ele>654.5999999999999</ele><time>2026-04-08T10:37:51.787Z</time></trkpt><trkpt lat="45.5644733" lon="11.055155"><ele>653.0</ele><time>2026-04-08T10:37:52.787Z</time></trkpt><trkpt lat="45.564515" lon="11.0552667"><ele>654.3333333333333</ele><time>2026-04-08T10:37:53.788Z</time></trkpt><trkpt lat="45.5645767" lon="11.0553567"><ele>655.6666666666666</ele><time>2026-04-08T10:37:54.787Z</time></trkpt><trkpt lat="45.56464" lon="11.05544"><ele>657.0</ele><time>2026-04-08T10:37:55.787Z</time></trkpt><trkpt lat="45.5646933" lon="11.05552"><ele>658.3333333333334</ele><time>2026-04-08T10:37:56.787Z</time></trkpt><trkpt lat="45.5647317" lon="11.0556033"><ele>659.6666666666667</ele><time>2026-04-08T10:37:57.787Z</time></trkpt><trkpt lat="45.56476" lon="11.0557733"><ele>661.0</ele><time>2026-04-08T10:37:59.787Z</time></trkpt><trkpt lat="45.5647983" lon="11.0559167"><ele>658.1666666666667</ele><time>2026-04-08T10:38:01.788Z</time></trkpt><trkpt lat="45.5648617" lon="11.0560633"><ele>655.3333333333334</ele><time>2026-04-08T10:38:03.787Z</time></trkpt><trkpt lat="45.5649033" lon="11.0561417"><ele>652.5</ele><time>2026-04-08T10:38:04.788Z</time></trkpt><trkpt lat="45.5649467" lon="11.0562283"><ele>649.6666666666666</ele><time>2026-04-08T10:38:05.787Z</time></trkpt><trkpt lat="45.5649917" lon="11.0563283"><ele>646.8333333333333</ele><time>2026-04-08T10:38:06.787Z</time></trkpt><trkpt lat="45.5650333" lon="11.0564317"><ele>644.0</ele><time>2026-04-08T10:38:07.788Z</time></trkpt><trkpt lat="45.5650733" lon="11.05651"><ele>644.0</ele><time>2026-04-08T10:38:08.787Z</time></trkpt><trkpt lat="45.5651117" lon="11.056585"><ele>644.0</ele><time>2026-04-08T10:38:09.787Z</time></trkpt><trkpt lat="45.565165" lon="11.05667"><ele>644.0</ele><time>2026-04-08T10:38:10.788Z</time></trkpt><trkpt lat="45.5652267" lon="11.056715"><ele>644.0</ele><time>2026-04-08T10:38:11.788Z</time></trkpt><trkpt lat="45.5652883" lon="11.0567633"><ele>644.0</ele><time>2026-04-08T10:38:12.787Z</time></trkpt><trkpt lat="45.5653933" lon="11.056835"><ele>644.0</ele><time>2026-04-08T10:38:14.787Z</time></trkpt><trkpt lat="45.565455" lon="11.0569183"><ele>643.0</ele><time>2026-04-08T10:38:16.788Z</time></trkpt><trkpt lat="45.5655333" lon="11.0569933"><ele>642.0</ele><time>2026-04-08T10:38:19.788Z</time></trkpt><trkpt lat="45.5655133" lon="11.0570833"><ele>641.0</ele><time>2026-04-08T10:38:39.787Z</time></trkpt><trkpt lat="45.5654933" lon="11.057205"><ele>640.0</ele><time>2026-04-08T10:38:43.786Z</time></trkpt><trkpt lat="45.5654567" lon="11.057285"><ele>639.0</ele><time>2026-04-08T10:38:44.786Z</time></trkpt><trkpt lat="45.5654117" lon="11.0573633"><ele>638.0</ele><time>2026-04-08T10:38:45.787Z</time></trkpt><trkpt lat="45.5653733" lon="11.0574967"><ele>635.8333333333333</ele><time>2026-04-08T10:38:47.787Z</time></trkpt><trkpt lat="45.5653583" lon="11.0576117"><ele>633.6666666666666</ele><time>2026-04-08T10:38:49.786Z</time></trkpt><trkpt lat="45.565325" lon="11.057735"><ele>631.5</ele><time>2026-04-08T10:38:52.787Z</time></trkpt><trkpt lat="45.5652883" lon="11.0578217"><ele>629.3333333333334</ele><time>2026-04-08T10:38:54.786Z</time></trkpt><trkpt lat="45.565235" lon="11.0578833"><ele>627.1666666666667</ele><time>2026-04-08T10:38:56.787Z</time></trkpt><trkpt lat="45.5651717" lon="11.05788"><ele>625.0</ele><time>2026-04-08T10:38:59.786Z</time></trkpt><trkpt lat="45.5651" lon="11.0578067"><ele>625.0</ele><time>2026-04-08T10:39:08.787Z</time></trkpt><trkpt lat="45.56507" lon="11.0577183"><ele>625.0</ele><time>2026-04-08T10:39:11.787Z</time></trkpt><trkpt lat="45.56492" lon="11.05772"><ele>625.0</ele><time>2026-04-08T10:39:20.786Z</time></trkpt><trkpt lat="45.5648517" lon="11.0577533"><ele>625.0</ele><time>2026-04-08T10:40:39.787Z</time></trkpt><trkpt lat="45.5648" lon="11.057845"><ele>625.0</ele><time>2026-04-08T10:40:41.787Z</time></trkpt><trkpt lat="45.5647217" lon="11.0578817"><ele>625.0</ele><time>2026-04-08T10:40:44.787Z</time></trkpt><trkpt lat="45.564595" lon="11.0579267"><ele>625.0</ele><time>2026-04-08T10:43:49.786Z</time></trkpt><trkpt lat="45.5645067" lon="11.0579317"><ele>625.0</ele><time>2026-04-08T10:43:52.786Z</time></trkpt><trkpt lat="45.5644233" lon="11.0579383"><ele>625.0</ele><time>2026-04-08T10:43:55.786Z</time></trkpt><trkpt lat="45.5643567" lon="11.0580017"><ele>625.0</ele><time>2026-04-08T10:44:01.785Z</time></trkpt><trkpt lat="45.5642933" lon="11.05803"><ele>625.0</ele><time>2026-04-08T10:44:03.785Z</time></trkpt><trkpt lat="45.564225" lon="11.0580633"><ele>627.8333333333334</ele><time>2026-04-08T10:44:05.786Z</time></trkpt><trkpt lat="45.5641383" lon="11.0580683"><ele>630.6666666666667</ele><time>2026-04-08T10:44:07.785Z</time></trkpt><trkpt lat="45.5640683" lon="11.0580583"><ele>633.5</ele><time>2026-04-08T10:44:09.785Z</time></trkpt><trkpt lat="45.5639767" lon="11.0580483"><ele>636.3333333333334</ele><time>2026-04-08T10:44:12.785Z</time></trkpt><trkpt lat="45.563885" lon="11.0580567"><ele>639.1666666666666</ele><time>2026-04-08T10:44:15.785Z</time></trkpt><trkpt lat="45.5638017" lon="11.0580433"><ele>642.0</ele><time>2026-04-08T10:44:18.786Z</time></trkpt><trkpt lat="45.56369" lon="11.058015"><ele>645.1666666666666</ele><time>2026-04-08T10:44:20.785Z</time></trkpt><trkpt lat="45.5636267" lon="11.05802"><ele>648.3333333333334</ele><time>2026-04-08T10:44:21.785Z</time></trkpt><trkpt lat="45.5635367" lon="11.0580217"><ele>651.5</ele><time>2026-04-08T10:44:23.785Z</time></trkpt><trkpt lat="45.5634517" lon="11.0580167"><ele>654.6666666666667</ele><time>2026-04-08T10:44:25.786Z</time></trkpt><trkpt lat="45.563375" lon="11.0580167"><ele>657.8333333333334</ele><time>2026-04-08T10:44:27.785Z</time></trkpt><trkpt lat="45.5632917" lon="11.058"><ele>661.0</ele><time>2026-04-08T10:44:29.785Z</time></trkpt><trkpt lat="45.563185" lon="11.0579683"><ele>661.0</ele><time>2026-04-08T10:44:31.785Z</time></trkpt><trkpt lat="45.563085" lon="11.057935"><ele>661.0</ele><time>2026-04-08T10:44:33.786Z</time></trkpt><trkpt lat="45.5630083" lon="11.05791"><ele>661.0</ele><time>2026-04-08T10:44:35.786Z</time></trkpt><trkpt lat="45.562935" lon="11.0579017"><ele>661.0</ele><time>2026-04-08T10:44:37.785Z</time></trkpt><trkpt lat="45.5628733" lon="11.05788"><ele>661.0</ele><time>2026-04-08T10:44:39.785Z</time></trkpt><trkpt lat="45.5627967" lon="11.05783"><ele>661.0</ele><time>2026-04-08T10:44:41.785Z</time></trkpt><trkpt lat="45.56268" lon="11.0577683"><ele>663.1999999999999</ele><time>2026-04-08T10:44:59.784Z</time></trkpt><trkpt lat="45.56262" lon="11.05773"><ele>665.4</ele><time>2026-04-08T10:45:01.785Z</time></trkpt><trkpt lat="45.5625383" lon="11.0577133"><ele>667.6</ele><time>2026-04-08T10:45:03.784Z</time></trkpt><trkpt lat="45.56239" lon="11.0577333"><ele>669.8</ele><time>2026-04-08T10:45:05.785Z</time></trkpt><trkpt lat="45.5623183" lon="11.0577417"><ele>672.0</ele><time>2026-04-08T10:45:06.784Z</time></trkpt><trkpt lat="45.56222" lon="11.0577367"><ele>672.0</ele><time>2026-04-08T10:45:07.784Z</time></trkpt><trkpt lat="45.562155" lon="11.0577483"><ele>672.0</ele><time>2026-04-08T10:45:08.785Z</time></trkpt><trkpt lat="45.5620883" lon="11.0577767"><ele>672.0</ele><time>2026-04-08T10:45:09.784Z</time></trkpt><trkpt lat="45.562" lon="11.057775"><ele>672.0</ele><time>2026-04-08T10:45:10.785Z</time></trkpt><trkpt lat="45.561935" lon="11.057765"><ele>672.0</ele><time>2026-04-08T10:45:11.784Z</time></trkpt><trkpt lat="45.5618683" lon="11.0577767"><ele>672.0</ele><time>2026-04-08T10:45:12.784Z</time></trkpt><trkpt lat="45.56179" lon="11.0578067"><ele>672.0</ele><time>2026-04-08T10:45:13.785Z</time></trkpt><trkpt lat="45.5617133" lon="11.0578433"><ele>673.6666666666666</ele><time>2026-04-08T10:45:14.785Z</time></trkpt><trkpt lat="45.5616433" lon="11.057865"><ele>675.3333333333334</ele><time>2026-04-08T10:45:15.784Z</time></trkpt><trkpt lat="45.561575" lon="11.05786"><ele>677.0</ele><time>2026-04-08T10:45:16.784Z</time></trkpt><trkpt lat="45.561475" lon="11.0579267"><ele>678.6666666666667</ele><time>2026-04-08T10:45:18.785Z</time></trkpt><trkpt lat="45.5614067" lon="11.0579333"><ele>680.3333333333334</ele><time>2026-04-08T10:45:19.785Z</time></trkpt><trkpt lat="45.561345" lon="11.0579717"><ele>682.0</ele><time>2026-04-08T10:45:20.785Z</time></trkpt><trkpt lat="45.561275" lon="11.057965"><ele>683.2</ele><time>2026-04-08T10:45:21.784Z</time></trkpt><trkpt lat="45.5611917" lon="11.0579317"><ele>684.4000000000001</ele><time>2026-04-08T10:45:23.785Z</time></trkpt><trkpt lat="45.561105" lon="11.057835"><ele>685.5999999999999</ele><time>2026-04-08T10:45:25.784Z</time></trkpt><trkpt lat="45.561035" lon="11.057705"><ele>686.8</ele><time>2026-04-08T10:45:27.785Z</time></trkpt><trkpt lat="45.5609867" lon="11.057645"><ele>688.0</ele><time>2026-04-08T10:45:28.785Z</time></trkpt><trkpt lat="45.5609133" lon="11.05758"><ele>688.0</ele><time>2026-04-08T10:45:29.785Z</time></trkpt><trkpt lat="45.560835" lon="11.057535"><ele>688.0</ele><time>2026-04-08T10:45:30.785Z</time></trkpt><trkpt lat="45.5607633" lon="11.0575"><ele>688.0</ele><time>2026-04-08T10:45:31.784Z</time></trkpt><trkpt lat="45.5606767" lon="11.0574833"><ele>688.0</ele><time>2026-04-08T10:45:33.785Z</time></trkpt><trkpt lat="45.5605833" lon="11.0574617"><ele>688.0</ele><time>2026-04-08T10:45:35.785Z</time></trkpt><trkpt lat="45.5604733" lon="11.0574333"><ele>689.6666666666667</ele><time>2026-04-08T10:45:37.784Z</time></trkpt><trkpt lat="45.56035" lon="11.0574"><ele>691.3333333333334</ele><time>2026-04-08T10:45:39.785Z</time></trkpt><trkpt lat="45.5602833" lon="11.0573783"><ele>693.0</ele><time>2026-04-08T10:45:40.785Z</time></trkpt><trkpt lat="45.5602167" lon="11.057345"><ele>694.6666666666666</ele><time>2026-04-08T10:45:41.785Z</time></trkpt><trkpt lat="45.5601517" lon="11.0573183"><ele>696.3333333333333</ele><time>2026-04-08T10:45:42.784Z</time></trkpt><trkpt lat="45.5600733" lon="11.0572883"><ele>698.0</ele><time>2026-04-08T10:45:43.784Z</time></trkpt><trkpt lat="45.5600017" lon="11.0572717"><ele>698.0</ele><time>2026-04-08T10:45:44.785Z</time></trkpt><trkpt lat="45.5599283" lon="11.05725"><ele>698.0</ele><time>2026-04-08T10:45:45.785Z</time></trkpt><trkpt lat="45.5598483" lon="11.057225"><ele>698.0</ele><time>2026-04-08T10:45:46.784Z</time></trkpt><trkpt lat="45.5597633" lon="11.0571967"><ele>698.0</ele><time>2026-04-08T10:45:47.784Z</time></trkpt><trkpt lat="45.5596767" lon="11.05718"><ele>698.0</ele><time>2026-04-08T10:45:48.784Z</time></trkpt><trkpt lat="45.5595883" lon="11.0571467"><ele>698.0</ele><time>2026-04-08T10:45:49.784Z</time></trkpt><trkpt lat="45.5595083" lon="11.0571317"><ele>697.1428571428571</ele><time>2026-04-08T10:45:50.785Z</time></trkpt><trkpt lat="45.559425" lon="11.0571133"><ele>696.2857142857142</ele><time>2026-04-08T10:45:51.784Z</time></trkpt><trkpt lat="45.55936" lon="11.057075"><ele>695.4285714285713</ele><time>2026-04-08T10:45:52.785Z</time></trkpt><trkpt lat="45.5593017" lon="11.05702"><ele>694.5714285714286</ele><time>2026-04-08T10:45:53.784Z</time></trkpt><trkpt lat="45.5592417" lon="11.0569567"><ele>693.7142857142858</ele><time>2026-04-08T10:45:54.784Z</time></trkpt><trkpt lat="45.559185" lon="11.0569067"><ele>692.8571428571428</ele><time>2026-04-08T10:45:55.785Z</time></trkpt><trkpt lat="45.5591283" lon="11.05685"><ele>692.0</ele><time>2026-04-08T10:45:56.785Z</time></trkpt><trkpt lat="45.5590733" lon="11.0567867"><ele>692.0</ele><time>2026-04-08T10:45:57.785Z</time></trkpt><trkpt lat="45.55898" lon="11.056705"><ele>692.0</ele><time>2026-04-08T10:45:59.784Z</time></trkpt><trkpt lat="45.5589067" lon="11.05665"><ele>692.0</ele><time>2026-04-08T10:46:01.785Z</time></trkpt><trkpt lat="45.5588483" lon="11.056595"><ele>692.0</ele><time>2026-04-08T10:46:03.784Z</time></trkpt><trkpt lat="45.55879" lon="11.056555"><ele>692.0</ele><time>2026-04-08T10:46:06.785Z</time></trkpt><trkpt lat="45.5587267" lon="11.0565117"><ele>692.0</ele><time>2026-04-08T10:46:14.784Z</time></trkpt><trkpt lat="45.5586017" lon="11.0564317"><ele>697.2</ele><time>2026-04-08T10:46:16.785Z</time></trkpt><trkpt lat="45.558515" lon="11.0563933"><ele>702.4000000000001</ele><time>2026-04-08T10:46:17.784Z</time></trkpt><trkpt lat="45.5584217" lon="11.0563633"><ele>707.5999999999999</ele><time>2026-04-08T10:46:18.785Z</time></trkpt><trkpt lat="45.558315" lon="11.0563467"><ele>712.8</ele><time>2026-04-08T10:46:19.784Z</time></trkpt><trkpt lat="45.5582217" lon="11.0563383"><ele>718.0</ele><time>2026-04-08T10:46:20.785Z</time></trkpt><trkpt lat="45.5581383" lon="11.05633"><ele>718.0</ele><time>2026-04-08T10:46:21.784Z</time></trkpt><trkpt lat="45.5580517" lon="11.0563233"><ele>718.0</ele><time>2026-04-08T10:46:22.784Z</time></trkpt><trkpt lat="45.5579617" lon="11.0563183"><ele>718.0</ele><time>2026-04-08T10:46:23.784Z</time></trkpt><trkpt lat="45.5578733" lon="11.0563383"><ele>718.0</ele><time>2026-04-08T10:46:24.785Z</time></trkpt><trkpt lat="45.5577867" lon="11.0563233"><ele>718.0</ele><time>2026-04-08T10:46:25.784Z</time></trkpt><trkpt lat="45.55771" lon="11.056315"><ele>718.0</ele><time>2026-04-08T10:46:26.785Z</time></trkpt><trkpt lat="45.5576167" lon="11.0563117"><ele>718.0</ele><time>2026-04-08T10:46:27.785Z</time></trkpt><trkpt lat="45.5575333" lon="11.0563017"><ele>718.0</ele><time>2026-04-08T10:46:28.784Z</time></trkpt><trkpt lat="45.557445" lon="11.0563033"><ele>718.0</ele><time>2026-04-08T10:46:29.785Z</time></trkpt><trkpt lat="45.5573517" lon="11.0563"><ele>718.0</ele><time>2026-04-08T10:46:30.784Z</time></trkpt><trkpt lat="45.5572433" lon="11.0562967"><ele>718.0</ele><time>2026-04-08T10:46:31.784Z</time></trkpt><trkpt lat="45.5571667" lon="11.0562967"><ele>718.0</ele><time>2026-04-08T10:46:32.784Z</time></trkpt><trkpt lat="45.55708" lon="11.05629"><ele>718.0</ele><time>2026-04-08T10:46:33.784Z</time></trkpt><trkpt lat="45.556985" lon="11.056295"><ele>718.0</ele><time>2026-04-08T10:46:34.784Z</time></trkpt><trkpt lat="45.5568883" lon="11.0562917"><ele>718.0</ele><time>2026-04-08T10:46:35.785Z</time></trkpt><trkpt lat="45.5567883" lon="11.056275"><ele>718.0</ele><time>2026-04-08T10:46:36.784Z</time></trkpt><trkpt lat="45.5566683" lon="11.0562633"><ele>718.4</ele><time>2026-04-08T10:46:37.784Z</time></trkpt><trkpt lat="45.5565633" lon="11.05627"><ele>718.8</ele><time>2026-04-08T10:46:38.785Z</time></trkpt><trkpt lat="45.5564617" lon="11.0562933"><ele>719.2</ele><time>2026-04-08T10:46:39.784Z</time></trkpt><trkpt lat="45.5563567" lon="11.0563267"><ele>719.6</ele><time>2026-04-08T10:46:40.784Z</time></trkpt><trkpt lat="45.5562483" lon="11.0563567"><ele>720.0</ele><time>2026-04-08T10:46:41.784Z</time></trkpt><trkpt lat="45.5561483" lon="11.0563567"><ele>720.2</ele><time>2026-04-08T10:46:42.784Z</time></trkpt><trkpt lat="45.5560483" lon="11.0563233"><ele>720.4</ele><time>2026-04-08T10:46:43.785Z</time></trkpt><trkpt lat="45.55595" lon="11.0562917"><ele>720.5999999999999</ele><time>2026-04-08T10:46:44.785Z</time></trkpt><trkpt lat="45.555855" lon="11.05627"><ele>720.8</ele><time>2026-04-08T10:46:45.785Z</time></trkpt><trkpt lat="45.555765" lon="11.0562417"><ele>721.0</ele><time>2026-04-08T10:46:46.785Z</time></trkpt><trkpt lat="45.555675" lon="11.0562033"><ele>721.0</ele><time>2026-04-08T10:46:47.785Z</time></trkpt><trkpt lat="45.5555883" lon="11.0561517"><ele>721.0</ele><time>2026-04-08T10:46:48.784Z</time></trkpt><trkpt lat="45.5555017" lon="11.05609"><ele>721.0</ele><time>2026-04-08T10:46:49.784Z</time></trkpt><trkpt lat="45.5554183" lon="11.0560017"><ele>721.0</ele><time>2026-04-08T10:46:50.784Z</time></trkpt><trkpt lat="45.55533" lon="11.0559033"><ele>721.0</ele><time>2026-04-08T10:46:51.785Z</time></trkpt><trkpt lat="45.5552517" lon="11.055805"><ele>723.5999999999999</ele><time>2026-04-08T10:46:52.785Z</time></trkpt><trkpt lat="45.5551817" lon="11.0557117"><ele>726.2</ele><time>2026-04-08T10:46:53.784Z</time></trkpt><trkpt lat="45.5551117" lon="11.055625"><ele>728.8</ele><time>2026-04-08T10:46:54.785Z</time></trkpt><trkpt lat="45.555035" lon="11.0555267"><ele>731.4000000000001</ele><time>2026-04-08T10:46:55.784Z</time></trkpt><trkpt lat="45.5549583" lon="11.05543"><ele>734.0</ele><time>2026-04-08T10:46:56.784Z</time></trkpt><trkpt lat="45.5548817" lon="11.0553417"><ele>734.0</ele><time>2026-04-08T10:46:57.784Z</time></trkpt><trkpt lat="45.55481" lon="11.0552467"><ele>734.0</ele><time>2026-04-08T10:46:58.784Z</time></trkpt><trkpt lat="45.5547333" lon="11.0551783"><ele>734.0</ele><time>2026-04-08T10:46:59.784Z</time></trkpt><trkpt lat="45.554655" lon="11.0551333"><ele>734.0</ele><time>2026-04-08T10:47:00.785Z</time></trkpt><trkpt lat="45.5545683" lon="11.0551033"><ele>734.0</ele><time>2026-04-08T10:47:01.785Z</time></trkpt><trkpt lat="45.5544683" lon="11.05507"><ele>732.6</ele><time>2026-04-08T10:47:02.785Z</time></trkpt><trkpt lat="45.5543667" lon="11.055045"><ele>731.2</ele><time>2026-04-08T10:47:03.785Z</time></trkpt><trkpt lat="45.5542517" lon="11.0550367"><ele>729.8000000000001</ele><time>2026-04-08T10:47:04.785Z</time></trkpt><trkpt lat="45.5541483" lon="11.05505"><ele>728.4000000000001</ele><time>2026-04-08T10:47:05.785Z</time></trkpt><trkpt lat="45.55405" lon="11.0550767"><ele>727.0</ele><time>2026-04-08T10:47:06.785Z</time></trkpt><trkpt lat="45.5539383" lon="11.0551033"><ele>727.0</ele><time>2026-04-08T10:47:07.784Z</time></trkpt><trkpt lat="45.5538233" lon="11.055155"><ele>727.0</ele><time>2026-04-08T10:47:08.784Z</time></trkpt><trkpt lat="45.55371" lon="11.0551983"><ele>727.0</ele><time>2026-04-08T10:47:09.784Z</time></trkpt><trkpt lat="45.5536017" lon="11.05525"><ele>727.0</ele><time>2026-04-08T10:47:10.784Z</time></trkpt><trkpt lat="45.5535033" lon="11.0553"><ele>727.8</ele><time>2026-04-08T10:47:11.785Z</time></trkpt><trkpt lat="45.553385" lon="11.0553317"><ele>728.6</ele><time>2026-04-08T10:47:12.784Z</time></trkpt><trkpt lat="45.5532633" lon="11.055345"><ele>729.4</ele><time>2026-04-08T10:47:13.784Z</time></trkpt><trkpt lat="45.5531533" lon="11.0553367"><ele>730.1999999999999</ele><time>2026-04-08T10:47:14.785Z</time></trkpt><trkpt lat="45.5530583" lon="11.055315"><ele>731.0</ele><time>2026-04-08T10:47:15.785Z</time></trkpt><trkpt lat="45.5529733" lon="11.05529"><ele>731.0</ele><time>2026-04-08T10:47:16.784Z</time></trkpt><trkpt lat="45.5528917" lon="11.0552617"><ele>731.0</ele><time>2026-04-08T10:47:17.784Z</time></trkpt><trkpt lat="45.552815" lon="11.055235"><ele>731.0</ele><time>2026-04-08T10:47:18.784Z</time></trkpt><trkpt lat="45.5527367" lon="11.055205"><ele>731.0</ele><time>2026-04-08T10:47:19.784Z</time></trkpt><trkpt lat="45.552655" lon="11.0551617"><ele>731.0</ele><time>2026-04-08T10:47:20.784Z</time></trkpt><trkpt lat="45.5525733" lon="11.055135"><ele>731.0</ele><time>2026-04-08T10:47:21.785Z</time></trkpt><trkpt lat="45.5524967" lon="11.0551217"><ele>731.0</ele><time>2026-04-08T10:47:22.785Z</time></trkpt><trkpt lat="45.5524217" lon="11.0551183"><ele>731.0</ele><time>2026-04-08T10:47:23.784Z</time></trkpt><trkpt lat="45.5523483" lon="11.0551267"><ele>731.0</ele><time>2026-04-08T10:47:24.784Z</time></trkpt><trkpt lat="45.5522683" lon="11.0551483"><ele>731.0</ele><time>2026-04-08T10:47:25.784Z</time></trkpt><trkpt lat="45.5521833" lon="11.055155"><ele>731.0</ele><time>2026-04-08T10:47:26.784Z</time></trkpt><trkpt lat="45.5520817" lon="11.05515"><ele>731.0</ele><time>2026-04-08T10:47:27.785Z</time></trkpt><trkpt lat="45.5519683" lon="11.0551467"><ele>732.0</ele><time>2026-04-08T10:47:28.784Z</time></trkpt><trkpt lat="45.5518517" lon="11.05516"><ele>733.0</ele><time>2026-04-08T10:47:29.784Z</time></trkpt><trkpt lat="45.551735" lon="11.0551667"><ele>734.0</ele><time>2026-04-08T10:47:30.785Z</time></trkpt><trkpt lat="45.551615" lon="11.0551717"><ele>735.0</ele><time>2026-04-08T10:47:31.785Z</time></trkpt><trkpt lat="45.5515" lon="11.0551867"><ele>735.0</ele><time>2026-04-08T10:47:32.784Z</time></trkpt><trkpt lat="45.5513867" lon="11.0551983"><ele>735.0</ele><time>2026-04-08T10:47:33.784Z</time></trkpt><trkpt lat="45.551275" lon="11.0552033"><ele>735.0</ele><time>2026-04-08T10:47:34.785Z</time></trkpt><trkpt lat="45.5511483" lon="11.0552217"><ele>735.0</ele><time>2026-04-08T10:47:35.785Z</time></trkpt><trkpt lat="45.55103" lon="11.0552367"><ele>735.0</ele><time>2026-04-08T10:47:36.785Z</time></trkpt><trkpt lat="45.5509117" lon="11.055245"><ele>735.0</ele><time>2026-04-08T10:47:37.784Z</time></trkpt><trkpt lat="45.5507967" lon="11.055235"><ele>735.0</ele><time>2026-04-08T10:47:38.784Z</time></trkpt><trkpt lat="45.5506933" lon="11.055215"><ele>735.0</ele><time>2026-04-08T10:47:39.785Z</time></trkpt><trkpt lat="45.5505817" lon="11.0551817"><ele>735.0</ele><time>2026-04-08T10:47:40.785Z</time></trkpt><trkpt lat="45.5504683" lon="11.0551517"><ele>735.0</ele><time>2026-04-08T10:47:41.785Z</time></trkpt><trkpt lat="45.5503517" lon="11.0551033"><ele>735.0</ele><time>2026-04-08T10:47:42.785Z</time></trkpt><trkpt lat="45.55023" lon="11.0550683"><ele>735.0</ele><time>2026-04-08T10:47:43.785Z</time></trkpt><trkpt lat="45.5501083" lon="11.0550367"><ele>734.0</ele><time>2026-04-08T10:47:44.785Z</time></trkpt><trkpt lat="45.5499783" lon="11.0550067"><ele>733.0</ele><time>2026-04-08T10:47:45.785Z</time></trkpt><trkpt lat="45.5498533" lon="11.0549717"><ele>732.0</ele><time>2026-04-08T10:47:46.784Z</time></trkpt><trkpt lat="45.5497317" lon="11.05495"><ele>731.0</ele><time>2026-04-08T10:47:47.784Z</time></trkpt><trkpt lat="45.5496017" lon="11.0549233"><ele>730.75</ele><time>2026-04-08T10:47:48.784Z</time></trkpt><trkpt lat="45.5494783" lon="11.0548917"><ele>730.5</ele><time>2026-04-08T10:47:49.785Z</time></trkpt><trkpt lat="45.5493583" lon="11.0548617"><ele>730.25</ele><time>2026-04-08T10:47:50.784Z</time></trkpt><trkpt lat="45.5492417" lon="11.05482"><ele>730.0</ele><time>2026-04-08T10:47:51.785Z</time></trkpt><trkpt lat="45.549135" lon="11.0547583"><ele>730.0</ele><time>2026-04-08T10:47:52.784Z</time></trkpt><trkpt lat="45.5490283" lon="11.0546833"><ele>730.0</ele><time>2026-04-08T10:47:53.784Z</time></trkpt><trkpt lat="45.54893" lon="11.0545917"><ele>730.0</ele><time>2026-04-08T10:47:54.784Z</time></trkpt><trkpt lat="45.54883" lon="11.054505"><ele>730.0</ele><time>2026-04-08T10:47:55.785Z</time></trkpt><trkpt lat="45.548725" lon="11.0544167"><ele>728.2</ele><time>2026-04-08T10:47:56.784Z</time></trkpt><trkpt lat="45.54863" lon="11.0543233"><ele>726.4</ele><time>2026-04-08T10:47:57.784Z</time></trkpt><trkpt lat="45.548545" lon="11.0542317"><ele>724.5999999999999</ele><time>2026-04-08T10:47:58.783Z</time></trkpt><trkpt lat="45.5484683" lon="11.0541233"><ele>722.8</ele><time>2026-04-08T10:47:59.783Z</time></trkpt><trkpt lat="45.5483883" lon="11.054015"><ele>721.0</ele><time>2026-04-08T10:48:00.784Z</time></trkpt><trkpt lat="45.548315" lon="11.053895"><ele>721.0</ele><time>2026-04-08T10:48:01.783Z</time></trkpt><trkpt lat="45.548255" lon="11.053775"><ele>721.0</ele><time>2026-04-08T10:48:02.783Z</time></trkpt><trkpt lat="45.5482067" lon="11.05364"><ele>721.0</ele><time>2026-04-08T10:48:03.783Z</time></trkpt><trkpt lat="45.5481733" lon="11.05349"><ele>721.0</ele><time>2026-04-08T10:48:04.784Z</time></trkpt><trkpt lat="45.5481517" lon="11.0533383"><ele>721.0</ele><time>2026-04-08T10:48:05.783Z</time></trkpt><trkpt lat="45.5481467" lon="11.0531833"><ele>719.4</ele><time>2026-04-08T10:48:06.784Z</time></trkpt><trkpt lat="45.5481433" lon="11.053045"><ele>717.8</ele><time>2026-04-08T10:48:07.784Z</time></trkpt><trkpt lat="45.5481383" lon="11.05291"><ele>716.1999999999999</ele><time>2026-04-08T10:48:08.783Z</time></trkpt><trkpt lat="45.5481167" lon="11.05277"><ele>714.5999999999999</ele><time>2026-04-08T10:48:09.783Z</time></trkpt><trkpt lat="45.5480917" lon="11.0526517"><ele>713.0</ele><time>2026-04-08T10:48:10.784Z</time></trkpt><trkpt lat="45.54805" lon="11.0525533"><ele>713.0</ele><time>2026-04-08T10:48:11.783Z</time></trkpt><trkpt lat="45.54798" lon="11.05246"><ele>713.0</ele><time>2026-04-08T10:48:12.784Z</time></trkpt><trkpt lat="45.5478817" lon="11.052405"><ele>713.0</ele><time>2026-04-08T10:48:13.784Z</time></trkpt><trkpt lat="45.5477733" lon="11.0523733"><ele>713.0</ele><time>2026-04-08T10:48:14.783Z</time></trkpt><trkpt lat="45.54766" lon="11.052345"><ele>713.0</ele><time>2026-04-08T10:48:15.784Z</time></trkpt><trkpt lat="45.5475333" lon="11.0523383"><ele>705.25</ele><time>2026-04-08T10:48:16.783Z</time></trkpt><trkpt lat="45.5474067" lon="11.0523383"><ele>697.5</ele><time>2026-04-08T10:48:17.783Z</time></trkpt><trkpt lat="45.54728" lon="11.05234"><ele>689.75</ele><time>2026-04-08T10:48:18.783Z</time></trkpt><trkpt lat="45.5471667" lon="11.0523683"><ele>682.0</ele><time>2026-04-08T10:48:19.784Z</time></trkpt><trkpt lat="45.5470483" lon="11.052395"><ele>684.5</ele><time>2026-04-08T10:48:20.783Z</time></trkpt><trkpt lat="45.5469283" lon="11.0524117"><ele>687.0</ele><time>2026-04-08T10:48:21.784Z</time></trkpt><trkpt lat="45.546815" lon="11.0524383"><ele>689.5</ele><time>2026-04-08T10:48:22.784Z</time></trkpt><trkpt lat="45.5467017" lon="11.0524817"><ele>692.0</ele><time>2026-04-08T10:48:23.784Z</time></trkpt><trkpt lat="45.5465867" lon="11.0525333"><ele>692.0</ele><time>2026-04-08T10:48:24.783Z</time></trkpt><trkpt lat="45.5464817" lon="11.0526117"><ele>692.0</ele><time>2026-04-08T10:48:25.784Z</time></trkpt><trkpt lat="45.546395" lon="11.0527183"><ele>692.0</ele><time>2026-04-08T10:48:26.783Z</time></trkpt><trkpt lat="45.5463333" lon="11.05285"><ele>692.0</ele><time>2026-04-08T10:48:27.784Z</time></trkpt><trkpt lat="45.5462617" lon="11.0529783"><ele>687.5</ele><time>2026-04-08T10:48:28.783Z</time></trkpt><trkpt lat="45.5461933" lon="11.0531383"><ele>683.0</ele><time>2026-04-08T10:48:29.784Z</time></trkpt><trkpt lat="45.546125" lon="11.05328"><ele>678.5</ele><time>2026-04-08T10:48:30.783Z</time></trkpt><trkpt lat="45.546045" lon="11.0534"><ele>674.0</ele><time>2026-04-08T10:48:31.783Z</time></trkpt><trkpt lat="45.5459383" lon="11.053515"><ele>674.0</ele><time>2026-04-08T10:48:32.783Z</time></trkpt><trkpt lat="45.54583" lon="11.053635"><ele>674.0</ele><time>2026-04-08T10:48:33.783Z</time></trkpt><trkpt lat="45.5457317" lon="11.0537433"><ele>674.0</ele><time>2026-04-08T10:48:34.784Z</time></trkpt><trkpt lat="45.5456467" lon="11.0538483"><ele>674.0</ele><time>2026-04-08T10:48:35.783Z</time></trkpt><trkpt lat="45.5455717" lon="11.05394"><ele>674.0</ele><time>2026-04-08T10:48:36.783Z</time></trkpt><trkpt lat="45.5454867" lon="11.0540483"><ele>674.0</ele><time>2026-04-08T10:48:37.783Z</time></trkpt><trkpt lat="45.5454017" lon="11.05415"><ele>674.0</ele><time>2026-04-08T10:48:38.784Z</time></trkpt><trkpt lat="45.5453383" lon="11.0542333"><ele>674.0</ele><time>2026-04-08T10:48:39.783Z</time></trkpt><trkpt lat="45.5452933" lon="11.0542983"><ele>674.0</ele><time>2026-04-08T10:48:40.784Z</time></trkpt><trkpt lat="45.545195" lon="11.0544117"><ele>671.4000000000001</ele><time>2026-04-08T10:48:49.784Z</time></trkpt><trkpt lat="45.5451167" lon="11.05449"><ele>668.8</ele><time>2026-04-08T10:48:50.784Z</time></trkpt><trkpt lat="45.5450267" lon="11.0545833"><ele>666.2</ele><time>2026-04-08T10:48:51.783Z</time></trkpt><trkpt lat="45.5449333" lon="11.0546683"><ele>663.5999999999999</ele><time>2026-04-08T10:48:52.783Z</time></trkpt><trkpt lat="45.54485" lon="11.0547183"><ele>661.0</ele><time>2026-04-08T10:48:53.784Z</time></trkpt><trkpt lat="45.5447783" lon="11.0547233"><ele>661.0</ele><time>2026-04-08T10:48:54.784Z</time></trkpt><trkpt lat="45.5446967" lon="11.0547083"><ele>661.0</ele><time>2026-04-08T10:48:55.784Z</time></trkpt><trkpt lat="45.5446117" lon="11.054665"><ele>661.0</ele><time>2026-04-08T10:48:56.784Z</time></trkpt><trkpt lat="45.5445433" lon="11.05458"><ele>661.0</ele><time>2026-04-08T10:48:57.783Z</time></trkpt><trkpt lat="45.54448" lon="11.0544833"><ele>661.0</ele><time>2026-04-08T10:48:58.784Z</time></trkpt><trkpt lat="45.5444317" lon="11.0543683"><ele>660.5999999999999</ele><time>2026-04-08T10:48:59.784Z</time></trkpt><trkpt lat="45.5443933" lon="11.05425"><ele>660.2</ele><time>2026-04-08T10:49:00.783Z</time></trkpt><trkpt lat="45.5443633" lon="11.05413"><ele>659.8</ele><time>2026-04-08T10:49:01.784Z</time></trkpt><trkpt lat="45.5443267" lon="11.054005"><ele>659.4000000000001</ele><time>2026-04-08T10:49:02.783Z</time></trkpt><trkpt lat="45.5442867" lon="11.05389"><ele>659.0</ele><time>2026-04-08T10:49:03.784Z</time></trkpt><trkpt lat="45.5442283" lon="11.0537783"><ele>659.0</ele><time>2026-04-08T10:49:04.783Z</time></trkpt><trkpt lat="45.5441567" lon="11.0536583"><ele>659.0</ele><time>2026-04-08T10:49:05.784Z</time></trkpt><trkpt lat="45.544085" lon="11.0535417"><ele>659.0</ele><time>2026-04-08T10:49:06.784Z</time></trkpt><trkpt lat="45.544" lon="11.05344"><ele>659.0</ele><time>2026-04-08T10:49:07.783Z</time></trkpt><trkpt lat="45.5438967" lon="11.0533433"><ele>660.4000000000001</ele><time>2026-04-08T10:49:08.784Z</time></trkpt><trkpt lat="45.543805" lon="11.0532433"><ele>661.8</ele><time>2026-04-08T10:49:09.783Z</time></trkpt><trkpt lat="45.5437167" lon="11.053155"><ele>663.2</ele><time>2026-04-08T10:49:10.784Z</time></trkpt><trkpt lat="45.5436233" lon="11.0530783"><ele>664.5999999999999</ele><time>2026-04-08T10:49:11.784Z</time></trkpt><trkpt lat="45.543525" lon="11.0529917"><ele>666.0</ele><time>2026-04-08T10:49:12.784Z</time></trkpt><trkpt lat="45.5434333" lon="11.0529167"><ele>666.0</ele><time>2026-04-08T10:49:13.783Z</time></trkpt><trkpt lat="45.5433417" lon="11.05285"><ele>666.0</ele><time>2026-04-08T10:49:14.784Z</time></trkpt><trkpt lat="45.5432517" lon="11.0528017"><ele>666.0</ele><time>2026-04-08T10:49:15.784Z</time></trkpt><trkpt lat="45.5431683" lon="11.0527717"><ele>666.0</ele><time>2026-04-08T10:49:16.784Z</time></trkpt><trkpt lat="45.5430867" lon="11.05274"><ele>666.0</ele><time>2026-04-08T10:49:17.784Z</time></trkpt><trkpt lat="45.5430017" lon="11.052695"><ele>666.0</ele><time>2026-04-08T10:49:18.784Z</time></trkpt><trkpt lat="45.5429117" lon="11.0526267"><ele>666.0</ele><time>2026-04-08T10:49:19.783Z</time></trkpt><trkpt lat="45.5428183" lon="11.052545"><ele>666.0</ele><time>2026-04-08T10:49:20.783Z</time></trkpt><trkpt lat="45.5427333" lon="11.0524433"><ele>666.0</ele><time>2026-04-08T10:49:21.783Z</time></trkpt><trkpt lat="45.5426467" lon="11.0523483"><ele>666.0</ele><time>2026-04-08T10:49:22.783Z</time></trkpt><trkpt lat="45.54255" lon="11.052275"><ele>662.5</ele><time>2026-04-08T10:49:23.783Z</time></trkpt><trkpt lat="45.542455" lon="11.052215"><ele>659.0</ele><time>2026-04-08T10:49:24.783Z</time></trkpt><trkpt lat="45.5423483" lon="11.05216"><ele>655.5</ele><time>2026-04-08T10:49:25.783Z</time></trkpt><trkpt lat="45.5422333" lon="11.0521233"><ele>652.0</ele><time>2026-04-08T10:49:26.784Z</time></trkpt><trkpt lat="45.5421083" lon="11.05211"><ele>651.5</ele><time>2026-04-08T10:49:27.783Z</time></trkpt><trkpt lat="45.5419867" lon="11.0521233"><ele>651.0</ele><time>2026-04-08T10:49:28.783Z</time></trkpt><trkpt lat="45.5418733" lon="11.052135"><ele>650.5</ele><time>2026-04-08T10:49:29.784Z</time></trkpt><trkpt lat="45.5417567" lon="11.0521483"><ele>650.0</ele><time>2026-04-08T10:49:30.783Z</time></trkpt><trkpt lat="45.5416517" lon="11.052165"><ele>650.0</ele><time>2026-04-08T10:49:31.784Z</time></trkpt><trkpt lat="45.5415383" lon="11.0521883"><ele>650.0</ele><time>2026-04-08T10:49:32.784Z</time></trkpt><trkpt lat="45.5414233" lon="11.0522117"><ele>650.0</ele><time>2026-04-08T10:49:33.784Z</time></trkpt><trkpt lat="45.5413133" lon="11.0522333"><ele>650.0</ele><time>2026-04-08T10:49:34.784Z</time></trkpt><trkpt lat="45.5411933" lon="11.0522367"><ele>649.25</ele><time>2026-04-08T10:49:35.783Z</time></trkpt><trkpt lat="45.5410817" lon="11.05224"><ele>648.5</ele><time>2026-04-08T10:49:36.784Z</time></trkpt><trkpt lat="45.5409717" lon="11.0522433"><ele>647.75</ele><time>2026-04-08T10:49:37.783Z</time></trkpt><trkpt lat="45.5408633" lon="11.052255"><ele>647.0</ele><time>2026-04-08T10:49:38.784Z</time></trkpt><trkpt lat="45.5407433" lon="11.0522617"><ele>647.0</ele><time>2026-04-08T10:49:39.784Z</time></trkpt><trkpt lat="45.54063" lon="11.0522633"><ele>647.0</ele><time>2026-04-08T10:49:40.784Z</time></trkpt><trkpt lat="45.54051" lon="11.052255"><ele>647.0</ele><time>2026-04-08T10:49:41.784Z</time></trkpt><trkpt lat="45.540385" lon="11.05225"><ele>647.0</ele><time>2026-04-08T10:49:42.783Z</time></trkpt><trkpt lat="45.540265" lon="11.0522467"><ele>646.0</ele><time>2026-04-08T10:49:43.783Z</time></trkpt><trkpt lat="45.5401517" lon="11.05225"><ele>645.0</ele><time>2026-04-08T10:49:44.784Z</time></trkpt><trkpt lat="45.5400333" lon="11.0522617"><ele>644.0</ele><time>2026-04-08T10:49:45.783Z</time></trkpt><trkpt lat="45.5399067" lon="11.052275"><ele>643.0</ele><time>2026-04-08T10:49:46.784Z</time></trkpt><trkpt lat="45.53978" lon="11.0522917"><ele>643.0</ele><time>2026-04-08T10:49:47.784Z</time></trkpt><trkpt lat="45.539655" lon="11.0523117"><ele>643.0</ele><time>2026-04-08T10:49:48.784Z</time></trkpt><trkpt lat="45.5395317" lon="11.0523267"><ele>643.0</ele><time>2026-04-08T10:49:49.784Z</time></trkpt><trkpt lat="45.5394067" lon="11.0523383"><ele>643.0</ele><time>2026-04-08T10:49:50.784Z</time></trkpt><trkpt lat="45.539285" lon="11.0523467"><ele>642.75</ele><time>2026-04-08T10:49:51.784Z</time></trkpt><trkpt lat="45.5391567" lon="11.052355"><ele>642.5</ele><time>2026-04-08T10:49:52.783Z</time></trkpt><trkpt lat="45.539035" lon="11.052375"><ele>642.25</ele><time>2026-04-08T10:49:53.784Z</time></trkpt><trkpt lat="45.5389133" lon="11.0523883"><ele>642.0</ele><time>2026-04-08T10:49:54.783Z</time></trkpt><trkpt lat="45.5387933" lon="11.0524"><ele>642.25</ele><time>2026-04-08T10:49:55.784Z</time></trkpt><trkpt lat="45.5386667" lon="11.0523917"><ele>642.5</ele><time>2026-04-08T10:49:56.784Z</time></trkpt><trkpt lat="45.53854" lon="11.0523633"><ele>642.75</ele><time>2026-04-08T10:49:57.784Z</time></trkpt><trkpt lat="45.5384067" lon="11.0523333"><ele>643.0</ele><time>2026-04-08T10:49:58.784Z</time></trkpt><trkpt lat="45.5382767" lon="11.0523167"><ele>643.0</ele><time>2026-04-08T10:49:59.784Z</time></trkpt><trkpt lat="45.538165" lon="11.052305"><ele>643.0</ele><time>2026-04-08T10:50:00.783Z</time></trkpt><trkpt lat="45.538045" lon="11.0523067"><ele>643.0</ele><time>2026-04-08T10:50:01.784Z</time></trkpt><trkpt lat="45.53792" lon="11.0523183"><ele>643.0</ele><time>2026-04-08T10:50:02.784Z</time></trkpt><trkpt lat="45.537795" lon="11.0523183"><ele>642.25</ele><time>2026-04-08T10:50:03.783Z</time></trkpt><trkpt lat="45.5376717" lon="11.05231"><ele>641.5</ele><time>2026-04-08T10:50:04.784Z</time></trkpt><trkpt lat="45.537545" lon="11.052295"><ele>640.75</ele><time>2026-04-08T10:50:05.784Z</time></trkpt><trkpt lat="45.53742" lon="11.0522817"><ele>640.0</ele><time>2026-04-08T10:50:06.783Z</time></trkpt><trkpt lat="45.5372967" lon="11.0522517"><ele>640.0</ele><time>2026-04-08T10:50:07.783Z</time></trkpt><trkpt lat="45.5371733" lon="11.052205"><ele>640.0</ele><time>2026-04-08T10:50:08.783Z</time></trkpt><trkpt lat="45.5370467" lon="11.0521383"><ele>640.0</ele><time>2026-04-08T10:50:09.784Z</time></trkpt><trkpt lat="45.5369283" lon="11.0520683"><ele>640.0</ele><time>2026-04-08T10:50:10.784Z</time></trkpt><trkpt lat="45.5368117" lon="11.0520183"><ele>636.5</ele><time>2026-04-08T10:50:11.784Z</time></trkpt><trkpt lat="45.536685" lon="11.051985"><ele>633.0</ele><time>2026-04-08T10:50:12.783Z</time></trkpt><trkpt lat="45.5365617" lon="11.0519367"><ele>629.5</ele><time>2026-04-08T10:50:13.784Z</time></trkpt><trkpt lat="45.53644" lon="11.051875"><ele>626.0</ele><time>2026-04-08T10:50:14.784Z</time></trkpt><trkpt lat="45.53632" lon="11.0518233"><ele>623.5</ele><time>2026-04-08T10:50:15.784Z</time></trkpt><trkpt lat="45.536205" lon="11.0517983"><ele>621.0</ele><time>2026-04-08T10:50:16.783Z</time></trkpt><trkpt lat="45.5360783" lon="11.05179"><ele>618.5</ele><time>2026-04-08T10:50:17.784Z</time></trkpt><trkpt lat="45.5359467" lon="11.0517733"><ele>616.0</ele><time>2026-04-08T10:50:18.784Z</time></trkpt><trkpt lat="45.5358233" lon="11.051745"><ele>616.0</ele><time>2026-04-08T10:50:19.784Z</time></trkpt><trkpt lat="45.5357067" lon="11.0516917"><ele>616.0</ele><time>2026-04-08T10:50:20.783Z</time></trkpt><trkpt lat="45.5355933" lon="11.0516033"><ele>616.0</ele><time>2026-04-08T10:50:21.784Z</time></trkpt><trkpt lat="45.5354817" lon="11.0515067"><ele>616.0</ele><time>2026-04-08T10:50:22.784Z</time></trkpt><trkpt lat="45.5353767" lon="11.0514"><ele>613.0</ele><time>2026-04-08T10:50:23.783Z</time></trkpt><trkpt lat="45.5352617" lon="11.05129"><ele>610.0</ele><time>2026-04-08T10:50:24.783Z</time></trkpt><trkpt lat="45.5351483" lon="11.0511933"><ele>607.0</ele><time>2026-04-08T10:50:25.783Z</time></trkpt><trkpt lat="45.5350317" lon="11.0510917"><ele>604.0</ele><time>2026-04-08T10:50:26.784Z</time></trkpt><trkpt lat="45.5349033" lon="11.0510033"><ele>604.0</ele><time>2026-04-08T10:50:27.784Z</time></trkpt><trkpt lat="45.5347667" lon="11.0509333"><ele>604.0</ele><time>2026-04-08T10:50:28.783Z</time></trkpt><trkpt lat="45.5346283" lon="11.05088"><ele>604.0</ele><time>2026-04-08T10:50:29.784Z</time></trkpt><trkpt lat="45.534495" lon="11.0508333"><ele>604.0</ele><time>2026-04-08T10:50:30.784Z</time></trkpt><trkpt lat="45.5343617" lon="11.05078"><ele>599.75</ele><time>2026-04-08T10:50:31.784Z</time></trkpt><trkpt lat="45.5342333" lon="11.0507233"><ele>595.5</ele><time>2026-04-08T10:50:32.783Z</time></trkpt><trkpt lat="45.534105" lon="11.0506583"><ele>591.25</ele><time>2026-04-08T10:50:33.783Z</time></trkpt><trkpt lat="45.5339717" lon="11.0505833"><ele>587.0</ele><time>2026-04-08T10:50:34.784Z</time></trkpt><trkpt lat="45.5338433" lon="11.050505"><ele>586.5</ele><time>2026-04-08T10:50:35.783Z</time></trkpt><trkpt lat="45.5337167" lon="11.050415"><ele>586.0</ele><time>2026-04-08T10:50:36.784Z</time></trkpt><trkpt lat="45.5336067" lon="11.0503383"><ele>585.5</ele><time>2026-04-08T10:50:37.784Z</time></trkpt><trkpt lat="45.5335033" lon="11.0502933"><ele>585.0</ele><time>2026-04-08T10:50:38.784Z</time></trkpt><trkpt lat="45.5334067" lon="11.0502617"><ele>585.0</ele><time>2026-04-08T10:50:39.784Z</time></trkpt><trkpt lat="45.53332" lon="11.0502467"><ele>585.0</ele><time>2026-04-08T10:50:40.784Z</time></trkpt><trkpt lat="45.5332433" lon="11.0502417"><ele>585.0</ele><time>2026-04-08T10:50:41.783Z</time></trkpt><trkpt lat="45.53317" lon="11.0502267"><ele>585.0</ele><time>2026-04-08T10:50:42.784Z</time></trkpt><trkpt lat="45.53306" lon="11.0501633"><ele>585.0</ele><time>2026-04-08T10:50:44.783Z</time></trkpt><trkpt lat="45.5330017" lon="11.0501033"><ele>585.0</ele><time>2026-04-08T10:50:45.783Z</time></trkpt><trkpt lat="45.5329383" lon="11.0500217"><ele>581.8333333333334</ele><time>2026-04-08T10:50:46.784Z</time></trkpt><trkpt lat="45.5328883" lon="11.0499183"><ele>578.6666666666666</ele><time>2026-04-08T10:50:47.784Z</time></trkpt><trkpt lat="45.532855" lon="11.0498117"><ele>575.5</ele><time>2026-04-08T10:50:48.784Z</time></trkpt><trkpt lat="45.53282" lon="11.0497133"><ele>572.3333333333333</ele><time>2026-04-08T10:50:49.783Z</time></trkpt><trkpt lat="45.5327633" lon="11.0496083"><ele>569.1666666666666</ele><time>2026-04-08T10:50:51.784Z</time></trkpt><trkpt lat="45.53269" lon="11.0495817"><ele>566.0</ele><time>2026-04-08T10:50:53.784Z</time></trkpt><trkpt lat="45.5326017" lon="11.049605"><ele>566.0</ele><time>2026-04-08T10:51:02.783Z</time></trkpt><trkpt lat="45.53249" lon="11.0496033"><ele>566.0</ele><time>2026-04-08T10:51:04.784Z</time></trkpt><trkpt lat="45.53241" lon="11.0496033"><ele>566.0</ele><time>2026-04-08T10:51:05.784Z</time></trkpt><trkpt lat="45.53232" lon="11.0495983"><ele>566.0</ele><time>2026-04-08T10:51:06.784Z</time></trkpt><trkpt lat="45.5322217" lon="11.0495967"><ele>566.0</ele><time>2026-04-08T10:51:07.784Z</time></trkpt><trkpt lat="45.532105" lon="11.049595"><ele>565.25</ele><time>2026-04-08T10:51:08.784Z</time></trkpt><trkpt lat="45.53198" lon="11.0495817"><ele>564.5</ele><time>2026-04-08T10:51:09.784Z</time></trkpt><trkpt lat="45.5318567" lon="11.049575"><ele>563.75</ele><time>2026-04-08T10:51:10.784Z</time></trkpt><trkpt lat="45.5317433" lon="11.0495683"><ele>563.0</ele><time>2026-04-08T10:51:11.783Z</time></trkpt><trkpt lat="45.5316283" lon="11.04956"><ele>563.0</ele><time>2026-04-08T10:51:12.784Z</time></trkpt><trkpt lat="45.53152" lon="11.04954"><ele>563.0</ele><time>2026-04-08T10:51:13.784Z</time></trkpt><trkpt lat="45.5314083" lon="11.049525"><ele>563.0</ele><time>2026-04-08T10:51:14.782Z</time></trkpt><trkpt lat="45.5312883" lon="11.0494933"><ele>563.0</ele><time>2026-04-08T10:51:15.783Z</time></trkpt><trkpt lat="45.5311767" lon="11.0494633"><ele>562.8</ele><time>2026-04-08T10:51:16.782Z</time></trkpt><trkpt lat="45.5310683" lon="11.0494433"><ele>562.5999999999999</ele><time>2026-04-08T10:51:17.782Z</time></trkpt><trkpt lat="45.5309583" lon="11.0494167"><ele>562.4000000000001</ele><time>2026-04-08T10:51:18.782Z</time></trkpt><trkpt lat="45.530855" lon="11.049385"><ele>562.2</ele><time>2026-04-08T10:51:19.782Z</time></trkpt><trkpt lat="45.53075" lon="11.0493517"><ele>562.0</ele><time>2026-04-08T10:51:20.782Z</time></trkpt><trkpt lat="45.5306317" lon="11.0493017"><ele>562.0</ele><time>2026-04-08T10:51:21.782Z</time></trkpt><trkpt lat="45.5305017" lon="11.049255"><ele>562.0</ele><time>2026-04-08T10:51:22.783Z</time></trkpt><trkpt lat="45.5303767" lon="11.0492417"><ele>562.0</ele><time>2026-04-08T10:51:23.782Z</time></trkpt><trkpt lat="45.5302433" lon="11.0492367"><ele>562.0</ele><time>2026-04-08T10:51:24.783Z</time></trkpt><trkpt lat="45.53011" lon="11.0492417"><ele>560.5</ele><time>2026-04-08T10:51:25.783Z</time></trkpt><trkpt lat="45.52998" lon="11.04926"><ele>559.0</ele><time>2026-04-08T10:51:26.783Z</time></trkpt><trkpt lat="45.52985" lon="11.049285"><ele>557.5</ele><time>2026-04-08T10:51:27.783Z</time></trkpt><trkpt lat="45.529715" lon="11.04931"><ele>556.0</ele><time>2026-04-08T10:51:28.783Z</time></trkpt><trkpt lat="45.52958" lon="11.049325"><ele>553.0</ele><time>2026-04-08T10:51:29.783Z</time></trkpt><trkpt lat="45.5294483" lon="11.0493417"><ele>550.0</ele><time>2026-04-08T10:51:30.783Z</time></trkpt><trkpt lat="45.529315" lon="11.04936"><ele>547.0</ele><time>2026-04-08T10:51:31.783Z</time></trkpt><trkpt lat="45.5291817" lon="11.0493683"><ele>544.0</ele><time>2026-04-08T10:51:32.783Z</time></trkpt><trkpt lat="45.5290433" lon="11.049385"><ele>544.0</ele><time>2026-04-08T10:51:33.783Z</time></trkpt><trkpt lat="45.5289033" lon="11.0493967"><ele>544.0</ele><time>2026-04-08T10:51:34.782Z</time></trkpt><trkpt lat="45.5287583" lon="11.0494183"><ele>544.0</ele><time>2026-04-08T10:51:35.783Z</time></trkpt><trkpt lat="45.52862" lon="11.04944"><ele>544.0</ele><time>2026-04-08T10:51:36.782Z</time></trkpt><trkpt lat="45.5284867" lon="11.0494583"><ele>541.25</ele><time>2026-04-08T10:51:37.782Z</time></trkpt><trkpt lat="45.5283583" lon="11.0494717"><ele>538.5</ele><time>2026-04-08T10:51:38.783Z</time></trkpt><trkpt lat="45.5282417" lon="11.0494783"><ele>535.75</ele><time>2026-04-08T10:51:39.782Z</time></trkpt><trkpt lat="45.5281317" lon="11.0494633"><ele>533.0</ele><time>2026-04-08T10:51:40.782Z</time></trkpt><trkpt lat="45.52803" lon="11.0494367"><ele>533.0</ele><time>2026-04-08T10:51:41.783Z</time></trkpt><trkpt lat="45.5279167" lon="11.0494067"><ele>533.0</ele><time>2026-04-08T10:51:42.782Z</time></trkpt><trkpt lat="45.5277817" lon="11.0493967"><ele>533.0</ele><time>2026-04-08T10:51:43.782Z</time></trkpt><trkpt lat="45.5276317" lon="11.04941"><ele>533.0</ele><time>2026-04-08T10:51:44.783Z</time></trkpt><trkpt lat="45.52748" lon="11.0494417"><ele>529.5</ele><time>2026-04-08T10:51:45.783Z</time></trkpt><trkpt lat="45.5273383" lon="11.04948"><ele>526.0</ele><time>2026-04-08T10:51:46.783Z</time></trkpt><trkpt lat="45.5271917" lon="11.0495233"><ele>522.5</ele><time>2026-04-08T10:51:47.783Z</time></trkpt><trkpt lat="45.5270483" lon="11.0495767"><ele>519.0</ele><time>2026-04-08T10:51:48.783Z</time></trkpt><trkpt lat="45.526905" lon="11.0496367"><ele>515.3333333333334</ele><time>2026-04-08T10:51:49.783Z</time></trkpt><trkpt lat="45.526755" lon="11.0497"><ele>511.6666666666667</ele><time>2026-04-08T10:51:50.782Z</time></trkpt><trkpt lat="45.5266033" lon="11.049765"><ele>508.0</ele><time>2026-04-08T10:51:51.782Z</time></trkpt><trkpt lat="45.5264583" lon="11.0498233"><ele>508.0</ele><time>2026-04-08T10:51:52.782Z</time></trkpt><trkpt lat="45.5263" lon="11.04989"><ele>508.0</ele><time>2026-04-08T10:51:53.783Z</time></trkpt><trkpt lat="45.5261467" lon="11.04994"><ele>508.0</ele><time>2026-04-08T10:51:54.783Z</time></trkpt><trkpt lat="45.526" lon="11.0499967"><ele>502.0</ele><time>2026-04-08T10:51:55.782Z</time></trkpt><trkpt lat="45.5258667" lon="11.0500367"><ele>496.0</ele><time>2026-04-08T10:51:56.782Z</time></trkpt><trkpt lat="45.5257433" lon="11.0500633"><ele>490.0</ele><time>2026-04-08T10:51:57.783Z</time></trkpt><trkpt lat="45.5256283" lon="11.050085"><ele>484.0</ele><time>2026-04-08T10:51:58.783Z</time></trkpt><trkpt lat="45.5255117" lon="11.0500783"><ele>481.5</ele><time>2026-04-08T10:51:59.782Z</time></trkpt><trkpt lat="45.5253867" lon="11.0500717"><ele>479.0</ele><time>2026-04-08T10:52:00.782Z</time></trkpt><trkpt lat="45.525235" lon="11.0500633"><ele>476.5</ele><time>2026-04-08T10:52:01.782Z</time></trkpt><trkpt lat="45.525085" lon="11.0500617"><ele>474.0</ele><time>2026-04-08T10:52:02.783Z</time></trkpt><trkpt lat="45.5249417" lon="11.0500533"><ele>474.0</ele><time>2026-04-08T10:52:03.782Z</time></trkpt><trkpt lat="45.5247983" lon="11.0500533"><ele>474.0</ele><time>2026-04-08T10:52:04.782Z</time></trkpt><trkpt lat="45.52466" lon="11.050045"><ele>474.0</ele><time>2026-04-08T10:52:05.783Z</time></trkpt><trkpt lat="45.5245367" lon="11.0500333"><ele>474.0</ele><time>2026-04-08T10:52:06.782Z</time></trkpt><trkpt lat="45.524425" lon="11.050025"><ele>472.6666666666667</ele><time>2026-04-08T10:52:07.783Z</time></trkpt><trkpt lat="45.52434" lon="11.0500333"><ele>471.33333333333337</ele><time>2026-04-08T10:52:08.782Z</time></trkpt><trkpt lat="45.52426" lon="11.0500833"><ele>470.0</ele><time>2026-04-08T10:52:09.782Z</time></trkpt><trkpt lat="45.5241983" lon="11.0501617"><ele>468.6666666666667</ele><time>2026-04-08T10:52:10.783Z</time></trkpt><trkpt lat="45.5241533" lon="11.050235"><ele>467.33333333333337</ele><time>2026-04-08T10:52:11.782Z</time></trkpt><trkpt lat="45.52409" lon="11.050335"><ele>466.0</ele><time>2026-04-08T10:52:13.782Z</time></trkpt><trkpt lat="45.5240517" lon="11.05042"><ele>466.0</ele><time>2026-04-08T10:52:16.782Z</time></trkpt><trkpt lat="45.5240517" lon="11.05052"><ele>466.0</ele><time>2026-04-08T10:52:18.782Z</time></trkpt><trkpt lat="45.5240967" lon="11.0506867"><ele>466.0</ele><time>2026-04-08T10:52:20.782Z</time></trkpt><trkpt lat="45.5241467" lon="11.0507817"><ele>466.0</ele><time>2026-04-08T10:52:21.783Z</time></trkpt><trkpt lat="45.5242167" lon="11.0508783"><ele>466.0</ele><time>2026-04-08T10:52:22.783Z</time></trkpt><trkpt lat="45.5243017" lon="11.0509733"><ele>465.75</ele><time>2026-04-08T10:52:23.783Z</time></trkpt><trkpt lat="45.52441" lon="11.05106"><ele>465.5</ele><time>2026-04-08T10:52:24.782Z</time></trkpt><trkpt lat="45.52452" lon="11.05114"><ele>465.25</ele><time>2026-04-08T10:52:25.782Z</time></trkpt><trkpt lat="45.5246367" lon="11.051215"><ele>465.0</ele><time>2026-04-08T10:52:26.783Z</time></trkpt><trkpt lat="45.524755" lon="11.0512967"><ele>465.75</ele><time>2026-04-08T10:52:27.783Z</time></trkpt><trkpt lat="45.5248683" lon="11.051375"><ele>466.5</ele><time>2026-04-08T10:52:28.782Z</time></trkpt><trkpt lat="45.52499" lon="11.0514483"><ele>467.25</ele><time>2026-04-08T10:52:29.782Z</time></trkpt><trkpt lat="45.5251117" lon="11.0515183"><ele>468.0</ele><time>2026-04-08T10:52:30.782Z</time></trkpt><trkpt lat="45.525235" lon="11.0515917"><ele>465.75</ele><time>2026-04-08T10:52:31.782Z</time></trkpt><trkpt lat="45.5253683" lon="11.0516667"><ele>463.5</ele><time>2026-04-08T10:52:32.783Z</time></trkpt><trkpt lat="45.5255" lon="11.0517417"><ele>461.25</ele><time>2026-04-08T10:52:33.783Z</time></trkpt><trkpt lat="45.5256383" lon="11.05182"><ele>459.0</ele><time>2026-04-08T10:52:34.783Z</time></trkpt><trkpt lat="45.5257733" lon="11.0518917"><ele>459.0</ele><time>2026-04-08T10:52:35.782Z</time></trkpt><trkpt lat="45.52591" lon="11.05196"><ele>459.0</ele><time>2026-04-08T10:52:36.782Z</time></trkpt><trkpt lat="45.5260533" lon="11.0520267"><ele>459.0</ele><time>2026-04-08T10:52:37.783Z</time></trkpt><trkpt lat="45.5262033" lon="11.0521"><ele>460.66666666666663</ele><time>2026-04-08T10:52:38.783Z</time></trkpt><trkpt lat="45.5263517" lon="11.0521783"><ele>462.3333333333333</ele><time>2026-04-08T10:52:39.782Z</time></trkpt><trkpt lat="45.5264967" lon="11.0522667"><ele>464.0</ele><time>2026-04-08T10:52:40.782Z</time></trkpt><trkpt lat="45.5266283" lon="11.0523667"><ele>458.5</ele><time>2026-04-08T10:52:41.783Z</time></trkpt><trkpt lat="45.5267583" lon="11.0524717"><ele>453.0</ele><time>2026-04-08T10:52:42.782Z</time></trkpt><trkpt lat="45.52688" lon="11.05259"><ele>447.5</ele><time>2026-04-08T10:52:43.783Z</time></trkpt><trkpt lat="45.5269667" lon="11.0527167"><ele>442.0</ele><time>2026-04-08T10:52:44.782Z</time></trkpt><trkpt lat="45.5270383" lon="11.0528617"><ele>441.6666666666667</ele><time>2026-04-08T10:52:45.783Z</time></trkpt><trkpt lat="45.5270867" lon="11.052995"><ele>441.33333333333337</ele><time>2026-04-08T10:52:46.782Z</time></trkpt><trkpt lat="45.5271167" lon="11.0531217"><ele>441.0</ele><time>2026-04-08T10:52:47.783Z</time></trkpt><trkpt lat="45.5271217" lon="11.0532367"><ele>440.66666666666663</ele><time>2026-04-08T10:52:48.783Z</time></trkpt><trkpt lat="45.5271" lon="11.053335"><ele>440.3333333333333</ele><time>2026-04-08T10:52:49.783Z</time></trkpt><trkpt lat="45.5270383" lon="11.0534"><ele>440.0</ele><time>2026-04-08T10:52:50.783Z</time></trkpt><trkpt lat="45.5269583" lon="11.05345"><ele>438.25</ele><time>2026-04-08T10:52:51.782Z</time></trkpt><trkpt lat="45.5268533" lon="11.0534983"><ele>436.5</ele><time>2026-04-08T10:52:52.782Z</time></trkpt><trkpt lat="45.52673" lon="11.0535567"><ele>434.75</ele><time>2026-04-08T10:52:53.783Z</time></trkpt><trkpt lat="45.52661" lon="11.05363"><ele>433.0</ele><time>2026-04-08T10:52:54.782Z</time></trkpt><trkpt lat="45.52649" lon="11.0537133"><ele>433.0</ele><time>2026-04-08T10:52:55.782Z</time></trkpt><trkpt lat="45.52637" lon="11.0538033"><ele>433.0</ele><time>2026-04-08T10:52:56.783Z</time></trkpt><trkpt lat="45.5262583" lon="11.053895"><ele>433.0</ele><time>2026-04-08T10:52:57.782Z</time></trkpt><trkpt lat="45.5261467" lon="11.0539967"><ele>433.0</ele><time>2026-04-08T10:52:58.783Z</time></trkpt><trkpt lat="45.5260317" lon="11.0540967"><ele>434.2</ele><time>2026-04-08T10:52:59.782Z</time></trkpt><trkpt lat="45.525925" lon="11.054175"><ele>435.4</ele><time>2026-04-08T10:53:00.782Z</time></trkpt><trkpt lat="45.525835" lon="11.0542367"><ele>436.59999999999997</ele><time>2026-04-08T10:53:01.783Z</time></trkpt><trkpt lat="45.5257767" lon="11.054295"><ele>437.79999999999995</ele><time>2026-04-08T10:53:02.783Z</time></trkpt><trkpt lat="45.5257517" lon="11.054455"><ele>439.0</ele><time>2026-04-08T10:53:04.782Z</time></trkpt><trkpt lat="45.525775" lon="11.0545433"><ele>439.0</ele><time>2026-04-08T10:53:05.782Z</time></trkpt><trkpt lat="45.525815" lon="11.0546517"><ele>439.0</ele><time>2026-04-08T10:53:06.783Z</time></trkpt><trkpt lat="45.5258633" lon="11.0547633"><ele>439.0</ele><time>2026-04-08T10:53:07.783Z</time></trkpt><trkpt lat="45.525925" lon="11.0548567"><ele>439.0</ele><time>2026-04-08T10:53:08.783Z</time></trkpt><trkpt lat="45.5260017" lon="11.054935"><ele>439.0</ele><time>2026-04-08T10:53:09.783Z</time></trkpt><trkpt lat="45.526085" lon="11.0550283"><ele>440.0</ele><time>2026-04-08T10:53:10.783Z</time></trkpt><trkpt lat="45.5261667" lon="11.05513"><ele>441.0</ele><time>2026-04-08T10:53:11.783Z</time></trkpt><trkpt lat="45.5262283" lon="11.0552433"><ele>442.0</ele><time>2026-04-08T10:53:12.782Z</time></trkpt><trkpt lat="45.52627" lon="11.0553633"><ele>443.0</ele><time>2026-04-08T10:53:13.782Z</time></trkpt><trkpt lat="45.5262983" lon="11.055485"><ele>444.0</ele><time>2026-04-08T10:53:14.783Z</time></trkpt><trkpt lat="45.5263183" lon="11.0556"><ele>446.2</ele><time>2026-04-08T10:53:15.783Z</time></trkpt><trkpt lat="45.5263183" lon="11.0557017"><ele>448.4</ele><time>2026-04-08T10:53:16.783Z</time></trkpt><trkpt lat="45.5263" lon="11.0557933"><ele>450.6</ele><time>2026-04-08T10:53:17.782Z</time></trkpt><trkpt lat="45.526175" lon="11.05585"><ele>452.8</ele><time>2026-04-08T10:53:19.782Z</time></trkpt><trkpt lat="45.5260917" lon="11.055865"><ele>455.0</ele><time>2026-04-08T10:53:20.783Z</time></trkpt><trkpt lat="45.525995" lon="11.0558883"><ele>455.0</ele><time>2026-04-08T10:53:21.783Z</time></trkpt><trkpt lat="45.5258917" lon="11.0559067"><ele>455.0</ele><time>2026-04-08T10:53:22.783Z</time></trkpt><trkpt lat="45.5257917" lon="11.0559317"><ele>455.0</ele><time>2026-04-08T10:53:23.783Z</time></trkpt><trkpt lat="45.5256983" lon="11.0559267"><ele>455.0</ele><time>2026-04-08T10:53:24.783Z</time></trkpt><trkpt lat="45.5256033" lon="11.0558983"><ele>455.0</ele><time>2026-04-08T10:53:25.783Z</time></trkpt><trkpt lat="45.5255083" lon="11.0558717"><ele>455.0</ele><time>2026-04-08T10:53:26.782Z</time></trkpt><trkpt lat="45.52541" lon="11.0558533"><ele>455.0</ele><time>2026-04-08T10:53:27.783Z</time></trkpt><trkpt lat="45.5253133" lon="11.05586"><ele>455.0</ele><time>2026-04-08T10:53:28.782Z</time></trkpt><trkpt lat="45.5252133" lon="11.0558717"><ele>455.0</ele><time>2026-04-08T10:53:29.783Z</time></trkpt><trkpt lat="45.525115" lon="11.055875"><ele>455.0</ele><time>2026-04-08T10:53:30.782Z</time></trkpt><trkpt lat="45.5250267" lon="11.0558567"><ele>455.66666666666663</ele><time>2026-04-08T10:53:31.782Z</time></trkpt><trkpt lat="45.5249433" lon="11.0558167"><ele>456.3333333333333</ele><time>2026-04-08T10:53:32.783Z</time></trkpt><trkpt lat="45.5248617" lon="11.05577"><ele>457.0</ele><time>2026-04-08T10:53:33.783Z</time></trkpt><trkpt lat="45.5247817" lon="11.0557367"><ele>457.66666666666663</ele><time>2026-04-08T10:53:34.782Z</time></trkpt><trkpt lat="45.5246983" lon="11.0557183"><ele>458.3333333333333</ele><time>2026-04-08T10:53:35.782Z</time></trkpt><trkpt lat="45.524625" lon="11.05574"><ele>459.0</ele><time>2026-04-08T10:53:36.782Z</time></trkpt><trkpt lat="45.5245483" lon="11.0557767"><ele>458.2</ele><time>2026-04-08T10:53:37.783Z</time></trkpt><trkpt lat="45.5244733" lon="11.0558283"><ele>457.4</ele><time>2026-04-08T10:53:38.782Z</time></trkpt><trkpt lat="45.5244017" lon="11.0558833"><ele>456.6</ele><time>2026-04-08T10:53:39.783Z</time></trkpt><trkpt lat="45.52433" lon="11.0559517"><ele>455.8</ele><time>2026-04-08T10:53:40.783Z</time></trkpt><trkpt lat="45.5242483" lon="11.0560383"><ele>455.0</ele><time>2026-04-08T10:53:41.782Z</time></trkpt><trkpt lat="45.524165" lon="11.0561267"><ele>455.0</ele><time>2026-04-08T10:53:42.783Z</time></trkpt><trkpt lat="45.52408" lon="11.0562233"><ele>455.0</ele><time>2026-04-08T10:53:43.782Z</time></trkpt><trkpt lat="45.52399" lon="11.05631"><ele>455.0</ele><time>2026-04-08T10:53:44.782Z</time></trkpt><trkpt lat="45.523905" lon="11.056395"><ele>455.0</ele><time>2026-04-08T10:53:45.783Z</time></trkpt><trkpt lat="45.52381" lon="11.0564767"><ele>455.0</ele><time>2026-04-08T10:53:46.782Z</time></trkpt><trkpt lat="45.5237233" lon="11.0565617"><ele>453.8</ele><time>2026-04-08T10:53:47.783Z</time></trkpt><trkpt lat="45.5236533" lon="11.0566517"><ele>452.6</ele><time>2026-04-08T10:53:48.783Z</time></trkpt><trkpt lat="45.52359" lon="11.056755"><ele>451.4</ele><time>2026-04-08T10:53:49.783Z</time></trkpt><trkpt lat="45.523535" lon="11.0568683"><ele>450.2</ele><time>2026-04-08T10:53:50.782Z</time></trkpt><trkpt lat="45.52349" lon="11.05699"><ele>449.0</ele><time>2026-04-08T10:53:51.783Z</time></trkpt><trkpt lat="45.52347" lon="11.0571183"><ele>449.0</ele><time>2026-04-08T10:53:52.782Z</time></trkpt><trkpt lat="45.523455" lon="11.057255"><ele>449.0</ele><time>2026-04-08T10:53:53.783Z</time></trkpt><trkpt lat="45.52345" lon="11.0574067"><ele>449.0</ele><time>2026-04-08T10:53:54.782Z</time></trkpt><trkpt lat="45.52344" lon="11.0575717"><ele>449.0</ele><time>2026-04-08T10:53:55.783Z</time></trkpt><trkpt lat="45.5234267" lon="11.0577233"><ele>449.0</ele><time>2026-04-08T10:53:56.782Z</time></trkpt><trkpt lat="45.523425" lon="11.0578667"><ele>449.4</ele><time>2026-04-08T10:53:57.782Z</time></trkpt><trkpt lat="45.5234217" lon="11.0580083"><ele>449.79999999999995</ele><time>2026-04-08T10:53:58.782Z</time></trkpt><trkpt lat="45.52344" lon="11.058155"><ele>450.20000000000005</ele><time>2026-04-08T10:53:59.783Z</time></trkpt><trkpt lat="45.5234567" lon="11.0583133"><ele>450.6</ele><time>2026-04-08T10:54:00.782Z</time></trkpt><trkpt lat="45.5234817" lon="11.0584683"><ele>451.0</ele><time>2026-04-08T10:54:01.782Z</time></trkpt><trkpt lat="45.5235217" lon="11.0586"><ele>451.00000000000006</ele><time>2026-04-08T10:54:02.783Z</time></trkpt><trkpt lat="45.52357" lon="11.0587283"><ele>451.0</ele><time>2026-04-08T10:54:03.783Z</time></trkpt><trkpt lat="45.5236217" lon="11.0588517"><ele>451.0</ele><time>2026-04-08T10:54:04.782Z</time></trkpt><trkpt lat="45.5236667" lon="11.0589467"><ele>451.0</ele><time>2026-04-08T10:54:05.783Z</time></trkpt><trkpt lat="45.523705" lon="11.05903"><ele>451.00000000000006</ele><time>2026-04-08T10:54:06.783Z</time></trkpt><trkpt lat="45.5237367" lon="11.0591183"><ele>451.0</ele><time>2026-04-08T10:54:07.782Z</time></trkpt><trkpt lat="45.5237383" lon="11.0592133"><ele>451.6</ele><time>2026-04-08T10:54:09.782Z</time></trkpt><trkpt lat="45.523645" lon="11.059305"><ele>452.20000000000005</ele><time>2026-04-08T10:54:11.783Z</time></trkpt><trkpt lat="45.5235883" lon="11.0593617"><ele>452.79999999999995</ele><time>2026-04-08T10:54:12.783Z</time></trkpt><trkpt lat="45.5235117" lon="11.059445"><ele>453.4</ele><time>2026-04-08T10:54:13.782Z</time></trkpt><trkpt lat="45.5234" lon="11.0595517"><ele>454.0</ele><time>2026-04-08T10:54:14.782Z</time></trkpt><trkpt lat="45.523295" lon="11.05965"><ele>454.0</ele><time>2026-04-08T10:54:15.782Z</time></trkpt><trkpt lat="45.5232167" lon="11.059765"><ele>454.0</ele><time>2026-04-08T10:54:16.783Z</time></trkpt><trkpt lat="45.5231383" lon="11.0598783"><ele>454.0</ele><time>2026-04-08T10:54:17.782Z</time></trkpt><trkpt lat="45.5230717" lon="11.060005"><ele>454.0</ele><time>2026-04-08T10:54:18.782Z</time></trkpt><trkpt lat="45.522985" lon="11.06013"><ele>451.75</ele><time>2026-04-08T10:54:19.783Z</time></trkpt><trkpt lat="45.5229217" lon="11.0602583"><ele>449.5</ele><time>2026-04-08T10:54:20.782Z</time></trkpt><trkpt lat="45.5228567" lon="11.06039"><ele>447.25</ele><time>2026-04-08T10:54:21.782Z</time></trkpt><trkpt lat="45.5227917" lon="11.0605183"><ele>445.0</ele><time>2026-04-08T10:54:22.782Z</time></trkpt><trkpt lat="45.52273" lon="11.0606583"><ele>447.5</ele><time>2026-04-08T10:54:23.782Z</time></trkpt><trkpt lat="45.522665" lon="11.0607983"><ele>450.0</ele><time>2026-04-08T10:54:24.782Z</time></trkpt><trkpt lat="45.5225767" lon="11.0609217"><ele>452.5</ele><time>2026-04-08T10:54:25.782Z</time></trkpt><trkpt lat="45.522485" lon="11.061035"><ele>455.0</ele><time>2026-04-08T10:54:26.783Z</time></trkpt><trkpt lat="45.5224" lon="11.0611317"><ele>454.99999999999994</ele><time>2026-04-08T10:54:27.783Z</time></trkpt><trkpt lat="45.5223283" lon="11.061215"><ele>455.0</ele><time>2026-04-08T10:54:28.782Z</time></trkpt><trkpt lat="45.522265" lon="11.0612917"><ele>455.0</ele><time>2026-04-08T10:54:29.781Z</time></trkpt><trkpt lat="45.5222" lon="11.0613783"><ele>455.0</ele><time>2026-04-08T10:54:30.782Z</time></trkpt><trkpt lat="45.52215" lon="11.0614667"><ele>454.99999999999994</ele><time>2026-04-08T10:54:31.781Z</time></trkpt><trkpt lat="45.5220883" lon="11.06152"><ele>455.0</ele><time>2026-04-08T10:54:32.781Z</time></trkpt><trkpt lat="45.5220383" lon="11.0616"><ele>452.8333333333333</ele><time>2026-04-08T10:54:33.781Z</time></trkpt><trkpt lat="45.5219867" lon="11.0616783"><ele>450.66666666666663</ele><time>2026-04-08T10:54:34.782Z</time></trkpt><trkpt lat="45.52192" lon="11.06171"><ele>448.5</ele><time>2026-04-08T10:54:36.782Z</time></trkpt><trkpt lat="45.5218383" lon="11.0617433"><ele>446.33333333333337</ele><time>2026-04-08T10:54:39.781Z</time></trkpt><trkpt lat="45.52176" lon="11.0618133"><ele>444.1666666666667</ele><time>2026-04-08T10:54:41.782Z</time></trkpt><trkpt lat="45.5216667" lon="11.0619083"><ele>442.0</ele><time>2026-04-08T10:54:43.782Z</time></trkpt><trkpt lat="45.5215967" lon="11.0619483"><ele>442.0</ele><time>2026-04-08T10:54:45.782Z</time></trkpt><trkpt lat="45.5215817" lon="11.061795"><ele>442.00000000000006</ele><time>2026-04-08T10:54:51.781Z</time></trkpt><trkpt lat="45.52159" lon="11.0616517"><ele>442.00000000000006</ele><time>2026-04-08T10:54:53.782Z</time></trkpt><trkpt lat="45.521605" lon="11.0614817"><ele>442.0</ele><time>2026-04-08T10:54:55.781Z</time></trkpt><trkpt lat="45.5216233" lon="11.06138"><ele>442.0</ele><time>2026-04-08T10:54:56.781Z</time></trkpt><trkpt lat="45.5216433" lon="11.06127"><ele>440.50000000000006</ele><time>2026-04-08T10:54:57.782Z</time></trkpt><trkpt lat="45.5216617" lon="11.0611767"><ele>439.0</ele><time>2026-04-08T10:54:58.781Z</time></trkpt><trkpt lat="45.5216833" lon="11.06109"><ele>437.5</ele><time>2026-04-08T10:54:59.781Z</time></trkpt><trkpt lat="45.52173" lon="11.060955"><ele>436.0</ele><time>2026-04-08T10:55:01.781Z</time></trkpt><trkpt lat="45.521775" lon="11.0608233"><ele>434.50000000000006</ele><time>2026-04-08T10:55:03.781Z</time></trkpt><trkpt lat="45.5217567" lon="11.0607183"><ele>433.0</ele><time>2026-04-08T10:55:06.781Z</time></trkpt><trkpt lat="45.5217533" lon="11.06058"><ele>431.0</ele><time>2026-04-08T10:55:10.781Z</time></trkpt><trkpt lat="45.52175" lon="11.0603967"><ele>428.99999999999994</ele><time>2026-04-08T10:55:12.781Z</time></trkpt><trkpt lat="45.5217583" lon="11.0603067"><ele>427.0</ele><time>2026-04-08T10:55:13.781Z</time></trkpt><trkpt lat="45.52176" lon="11.06015"><ele>425.0</ele><time>2026-04-08T10:55:14.781Z</time></trkpt><trkpt lat="45.5217767" lon="11.0600417"><ele>423.0</ele><time>2026-04-08T10:55:15.781Z</time></trkpt><trkpt lat="45.5217917" lon="11.059915"><ele>421.6666666666667</ele><time>2026-04-08T10:55:16.782Z</time></trkpt><trkpt lat="45.5218017" lon="11.0598167"><ele>420.33333333333337</ele><time>2026-04-08T10:55:17.782Z</time></trkpt><trkpt lat="45.521835" lon="11.059695"><ele>419.0</ele><time>2026-04-08T10:55:18.782Z</time></trkpt><trkpt lat="45.52185" lon="11.0595833"><ele>417.6666666666667</ele><time>2026-04-08T10:55:19.782Z</time></trkpt><trkpt lat="45.5218717" lon="11.0594833"><ele>416.33333333333337</ele><time>2026-04-08T10:55:20.782Z</time></trkpt><trkpt lat="45.5218883" lon="11.05939"><ele>415.0</ele><time>2026-04-08T10:55:21.781Z</time></trkpt><trkpt lat="45.5219233" lon="11.05923"><ele>413.2</ele><time>2026-04-08T10:55:23.782Z</time></trkpt><trkpt lat="45.5219917" lon="11.05911"><ele>411.4</ele><time>2026-04-08T10:55:25.781Z</time></trkpt><trkpt lat="45.522045" lon="11.05897"><ele>409.6</ele><time>2026-04-08T10:55:27.781Z</time></trkpt><trkpt lat="45.5220917" lon="11.0587933"><ele>407.8</ele><time>2026-04-08T10:55:29.781Z</time></trkpt><trkpt lat="45.522125" lon="11.0586817"><ele>406.0</ele><time>2026-04-08T10:55:31.782Z</time></trkpt><trkpt lat="45.522005" lon="11.0586883"><ele>406.0</ele><time>2026-04-08T10:55:41.781Z</time></trkpt><trkpt lat="45.5218917" lon="11.0586783"><ele>406.0</ele><time>2026-04-08T10:55:44.782Z</time></trkpt><trkpt lat="45.5218083" lon="11.0587117"><ele>406.0</ele><time>2026-04-08T10:55:45.782Z</time></trkpt><trkpt lat="45.52172" lon="11.0587967"><ele>406.0</ele><time>2026-04-08T10:55:47.781Z</time></trkpt><trkpt lat="45.52166" lon="11.0588383"><ele>406.0</ele><time>2026-04-08T10:55:48.782Z</time></trkpt><trkpt lat="45.5215867" lon="11.058885"><ele>406.0</ele><time>2026-04-08T10:55:49.781Z</time></trkpt><trkpt lat="45.5215317" lon="11.0589467"><ele>406.0</ele><time>2026-04-08T10:55:50.781Z</time></trkpt><trkpt lat="45.5214367" lon="11.0590417"><ele>406.0</ele><time>2026-04-08T10:55:52.782Z</time></trkpt><trkpt lat="45.5213333" lon="11.0590917"><ele>406.0</ele><time>2026-04-08T10:55:54.782Z</time></trkpt><trkpt lat="45.52126" lon="11.0591567"><ele>406.0</ele><time>2026-04-08T10:55:56.782Z</time></trkpt><trkpt lat="45.521175" lon="11.05927"><ele>403.33333333333337</ele><time>2026-04-08T10:55:58.782Z</time></trkpt><trkpt lat="45.5211317" lon="11.05939"><ele>400.6666666666667</ele><time>2026-04-08T10:56:00.782Z</time></trkpt><trkpt lat="45.5210583" lon="11.0595083"><ele>398.0</ele><time>2026-04-08T10:56:02.781Z</time></trkpt><trkpt lat="45.520995" lon="11.059605"><ele>395.33333333333337</ele><time>2026-04-08T10:56:04.781Z</time></trkpt><trkpt lat="45.520925" lon="11.0596333"><ele>392.6666666666667</ele><time>2026-04-08T10:56:06.781Z</time></trkpt><trkpt lat="45.520865" lon="11.0595767"><ele>390.0</ele><time>2026-04-08T10:56:08.782Z</time></trkpt><trkpt lat="45.5208183" lon="11.0595133"><ele>390.0</ele><time>2026-04-08T10:56:11.782Z</time></trkpt><trkpt lat="45.520765" lon="11.0596017"><ele>390.0</ele><time>2026-04-08T10:56:14.781Z</time></trkpt><trkpt lat="45.5207317" lon="11.0596917"><ele>390.0</ele><time>2026-04-08T10:56:16.781Z</time></trkpt><trkpt lat="45.5207017" lon="11.0598067"><ele>390.0</ele><time>2026-04-08T10:56:18.781Z</time></trkpt><trkpt lat="45.5206167" lon="11.0599017"><ele>390.0</ele><time>2026-04-08T10:56:20.781Z</time></trkpt><trkpt lat="45.5205567" lon="11.0600467"><ele>390.5</ele><time>2026-04-08T10:56:22.781Z</time></trkpt><trkpt lat="45.520515" lon="11.0601267"><ele>391.0</ele><time>2026-04-08T10:56:23.782Z</time></trkpt><trkpt lat="45.520435" lon="11.0601683"><ele>391.5</ele><time>2026-04-08T10:56:24.781Z</time></trkpt><trkpt lat="45.5203633" lon="11.0602567"><ele>392.0</ele><time>2026-04-08T10:56:26.781Z</time></trkpt><trkpt lat="45.5203333" lon="11.0603367"><ele>392.5</ele><time>2026-04-08T10:56:28.782Z</time></trkpt><trkpt lat="45.5202867" lon="11.06046"><ele>393.0</ele><time>2026-04-08T10:56:31.781Z</time></trkpt><trkpt lat="45.52029" lon="11.06059"><ele>390.3333333333333</ele><time>2026-04-08T10:56:32.781Z</time></trkpt><trkpt lat="45.520265" lon="11.0607017"><ele>387.6666666666667</ele><time>2026-04-08T10:56:33.781Z</time></trkpt><trkpt lat="45.520235" lon="11.0607967"><ele>385.0</ele><time>2026-04-08T10:56:34.781Z</time></trkpt><trkpt lat="45.520185" lon="11.0609567"><ele>382.33333333333337</ele><time>2026-04-08T10:56:36.781Z</time></trkpt><trkpt lat="45.52015" lon="11.0610517"><ele>379.6666666666667</ele><time>2026-04-08T10:56:37.782Z</time></trkpt><trkpt lat="45.5201183" lon="11.0611367"><ele>377.0</ele><time>2026-04-08T10:56:38.782Z</time></trkpt><trkpt lat="45.5200967" lon="11.061225"><ele>375.1666666666667</ele><time>2026-04-08T10:56:39.781Z</time></trkpt><trkpt lat="45.5200317" lon="11.0612467"><ele>373.33333333333337</ele><time>2026-04-08T10:56:40.782Z</time></trkpt><trkpt lat="45.5199667" lon="11.061255"><ele>371.5</ele><time>2026-04-08T10:56:41.782Z</time></trkpt><trkpt lat="45.5198917" lon="11.06133"><ele>369.6666666666667</ele><time>2026-04-08T10:56:43.781Z</time></trkpt><trkpt lat="45.519815" lon="11.0613867"><ele>367.8333333333333</ele><time>2026-04-08T10:56:46.781Z</time></trkpt><trkpt lat="45.5197733" lon="11.0614767"><ele>366.0</ele><time>2026-04-08T10:56:48.782Z</time></trkpt><trkpt lat="45.5197283" lon="11.0615683"><ele>366.6666666666667</ele><time>2026-04-08T10:56:51.782Z</time></trkpt><trkpt lat="45.519705" lon="11.0616733"><ele>367.3333333333333</ele><time>2026-04-08T10:56:54.782Z</time></trkpt><trkpt lat="45.5196367" lon="11.0617367"><ele>368.0</ele><time>2026-04-08T10:57:06.781Z</time></trkpt><trkpt lat="45.5196217" lon="11.0618617"><ele>368.66666666666663</ele><time>2026-04-08T10:57:19.78Z</time></trkpt><trkpt lat="45.5196" lon="11.0620083"><ele>369.3333333333333</ele><time>2026-04-08T10:57:28.78Z</time></trkpt><trkpt lat="45.519525" lon="11.0619983"><ele>370.0</ele><time>2026-04-08T10:57:35.781Z</time></trkpt><trkpt lat="45.519455" lon="11.0620283"><ele>365.5</ele><time>2026-04-08T10:58:24.781Z</time></trkpt><trkpt lat="45.5194117" lon="11.0621283"><ele>361.0</ele><time>2026-04-08T10:58:29.781Z</time></trkpt><trkpt lat="45.51932" lon="11.06218"><ele>356.5</ele><time>2026-04-08T10:58:32.78Z</time></trkpt><trkpt lat="45.5192567" lon="11.06223"><ele>352.0</ele><time>2026-04-08T10:58:34.781Z</time></trkpt><trkpt lat="45.5191883" lon="11.0622433"><ele>347.5</ele><time>2026-04-08T10:58:36.78Z</time></trkpt><trkpt lat="45.519125" lon="11.0622183"><ele>343.0</ele><time>2026-04-08T10:58:38.78Z</time></trkpt><trkpt lat="45.51907" lon="11.0623217"><ele>343.0</ele><time>2026-04-08T10:58:53.78Z</time></trkpt><trkpt lat="45.5190133" lon="11.0623933"><ele>343.0</ele><time>2026-04-08T10:58:56.781Z</time></trkpt><trkpt lat="45.5189283" lon="11.062485"><ele>343.0</ele><time>2026-04-08T10:58:59.781Z</time></trkpt><trkpt lat="45.5188667" lon="11.0625633"><ele>343.0</ele><time>2026-04-08T10:59:01.78Z</time></trkpt><trkpt lat="45.518795" lon="11.062595"><ele>343.0</ele><time>2026-04-08T10:59:03.781Z</time></trkpt><trkpt lat="45.518735" lon="11.0626717"><ele>343.0</ele><time>2026-04-08T10:59:06.781Z</time></trkpt><trkpt lat="45.51867" lon="11.0627333"><ele>337.8333333333333</ele><time>2026-04-08T10:59:09.78Z</time></trkpt><trkpt lat="45.518615" lon="11.0627933"><ele>332.66666666666663</ele><time>2026-04-08T10:59:12.781Z</time></trkpt><trkpt lat="45.5185317" lon="11.0628633"><ele>327.5</ele><time>2026-04-08T10:59:15.78Z</time></trkpt><trkpt lat="45.5184617" lon="11.062945"><ele>322.3333333333333</ele><time>2026-04-08T10:59:18.78Z</time></trkpt><trkpt lat="45.5183983" lon="11.06305"><ele>317.1666666666667</ele><time>2026-04-08T10:59:21.781Z</time></trkpt><trkpt lat="45.5183417" lon="11.0631183"><ele>312.0</ele><time>2026-04-08T10:59:23.78Z</time></trkpt><trkpt lat="45.5182833" lon="11.06321"><ele>312.0</ele><time>2026-04-08T10:59:27.78Z</time></trkpt><trkpt lat="45.5181833" lon="11.0632567"><ele>312.0</ele><time>2026-04-08T10:59:29.78Z</time></trkpt><trkpt lat="45.5181133" lon="11.06327"><ele>312.0</ele><time>2026-04-08T10:59:32.78Z</time></trkpt><trkpt lat="45.518035" lon="11.0633033"><ele>312.0</ele><time>2026-04-08T10:59:35.78Z</time></trkpt><trkpt lat="45.51797" lon="11.0633567"><ele>312.0</ele><time>2026-04-08T11:00:04.78Z</time></trkpt><trkpt lat="45.517905" lon="11.063445"><ele>312.0</ele><time>2026-04-08T11:00:07.779Z</time></trkpt><trkpt lat="45.517845" lon="11.0634967"><ele>306.4</ele><time>2026-04-08T11:00:10.779Z</time></trkpt><trkpt lat="45.5177367" lon="11.0635267"><ele>300.79999999999995</ele><time>2026-04-08T11:00:13.78Z</time></trkpt><trkpt lat="45.5176533" lon="11.0636083"><ele>295.2</ele><time>2026-04-08T11:00:15.779Z</time></trkpt><trkpt lat="45.517555" lon="11.0636767"><ele>289.59999999999997</ele><time>2026-04-08T11:00:17.78Z</time></trkpt><trkpt lat="45.5174667" lon="11.0637333"><ele>284.0</ele><time>2026-04-08T11:00:19.78Z</time></trkpt><trkpt lat="45.517375" lon="11.0637633"><ele>284.0</ele><time>2026-04-08T11:00:21.779Z</time></trkpt><trkpt lat="45.5172667" lon="11.0638117"><ele>284.0</ele><time>2026-04-08T11:00:23.779Z</time></trkpt><trkpt lat="45.5171683" lon="11.0638883"><ele>284.0</ele><time>2026-04-08T11:00:25.78Z</time></trkpt><trkpt lat="45.5171" lon="11.0639167"><ele>284.0</ele><time>2026-04-08T11:00:26.779Z</time></trkpt><trkpt lat="45.5170383" lon="11.0640033"><ele>284.0</ele><time>2026-04-08T11:00:28.779Z</time></trkpt><trkpt lat="45.5169667" lon="11.0640633"><ele>282.1428571428571</ele><time>2026-04-08T11:00:31.78Z</time></trkpt><trkpt lat="45.5168983" lon="11.0641283"><ele>280.2857142857143</ele><time>2026-04-08T11:00:34.779Z</time></trkpt><trkpt lat="45.5168367" lon="11.0640967"><ele>278.42857142857144</ele><time>2026-04-08T11:00:38.779Z</time></trkpt><trkpt lat="45.5167667" lon="11.06413"><ele>276.57142857142856</ele><time>2026-04-08T11:00:43.78Z</time></trkpt><trkpt lat="45.5167417" lon="11.0642167"><ele>274.7142857142857</ele><time>2026-04-08T11:01:07.78Z</time></trkpt><trkpt lat="45.5166717" lon="11.064245"><ele>272.85714285714283</ele><time>2026-04-08T11:01:10.779Z</time></trkpt><trkpt lat="45.5165967" lon="11.0641817"><ele>271.0</ele><time>2026-04-08T11:01:19.779Z</time></trkpt><trkpt lat="45.5165117" lon="11.0640567"><ele>271.0</ele><time>2026-04-08T11:01:20.779Z</time></trkpt><trkpt lat="45.51646" lon="11.0639983"><ele>271.0</ele><time>2026-04-08T11:01:21.779Z</time></trkpt><trkpt lat="45.51639" lon="11.0640067"><ele>271.0</ele><time>2026-04-08T11:01:32.78Z</time></trkpt><trkpt lat="45.5163033" lon="11.0639917"><ele>271.0</ele><time>2026-04-08T11:01:34.78Z</time></trkpt><trkpt lat="45.5162333" lon="11.0639967"><ele>271.0</ele><time>2026-04-08T11:01:37.779Z</time></trkpt><trkpt lat="45.5161633" lon="11.06405"><ele>271.0</ele><time>2026-04-08T11:01:40.78Z</time></trkpt><trkpt lat="45.5160867" lon="11.064075"><ele>269.0</ele><time>2026-04-08T11:01:42.779Z</time></trkpt><trkpt lat="45.5159983" lon="11.06407"><ele>267.0</ele><time>2026-04-08T11:01:44.78Z</time></trkpt><trkpt lat="45.515925" lon="11.0640683"><ele>265.0</ele><time>2026-04-08T11:01:48.78Z</time></trkpt><trkpt lat="45.515865" lon="11.0641883"><ele>263.0</ele><time>2026-04-08T11:01:56.78Z</time></trkpt><trkpt lat="45.5158067" lon="11.0642317"><ele>261.0</ele><time>2026-04-08T11:01:59.779Z</time></trkpt><trkpt lat="45.5157283" lon="11.06425"><ele>259.0</ele><time>2026-04-08T11:02:27.779Z</time></trkpt><trkpt lat="45.5156583" lon="11.064255"><ele>255.66666666666666</ele><time>2026-04-08T11:02:32.779Z</time></trkpt><trkpt lat="45.5155733" lon="11.064235"><ele>252.33333333333331</ele><time>2026-04-08T11:02:35.779Z</time></trkpt><trkpt lat="45.5154983" lon="11.0642483"><ele>249.0</ele><time>2026-04-08T11:02:37.778Z</time></trkpt><trkpt lat="45.5154367" lon="11.064285"><ele>245.66666666666669</ele><time>2026-04-08T11:02:41.778Z</time></trkpt><trkpt lat="45.51537" lon="11.064305"><ele>242.33333333333334</ele><time>2026-04-08T11:02:45.779Z</time></trkpt><trkpt lat="45.5153033" lon="11.0643517"><ele>239.0</ele><time>2026-04-08T11:02:48.779Z</time></trkpt><trkpt lat="45.5152633" lon="11.064465"><ele>235.79999999999998</ele><time>2026-04-08T11:02:51.779Z</time></trkpt><trkpt lat="45.5152267" lon="11.0645467"><ele>232.59999999999997</ele><time>2026-04-08T11:02:54.778Z</time></trkpt><trkpt lat="45.5152167" lon="11.0646617"><ele>229.4</ele><time>2026-04-08T11:04:01.778Z</time></trkpt><trkpt lat="45.515225" lon="11.0647867"><ele>226.2</ele><time>2026-04-08T11:04:03.779Z</time></trkpt><trkpt lat="45.5152333" lon="11.0649483"><ele>223.0</ele><time>2026-04-08T11:04:05.779Z</time></trkpt><trkpt lat="45.5152333" lon="11.0651467"><ele>221.33333333333331</ele><time>2026-04-08T11:04:07.779Z</time></trkpt><trkpt lat="45.5152283" lon="11.0652817"><ele>219.66666666666666</ele><time>2026-04-08T11:04:08.779Z</time></trkpt><trkpt lat="45.5152217" lon="11.06538"><ele>218.0</ele><time>2026-04-08T11:04:09.778Z</time></trkpt><trkpt lat="45.51522" lon="11.0654833"><ele>216.33333333333331</ele><time>2026-04-08T11:04:10.778Z</time></trkpt><trkpt lat="45.5152283" lon="11.0655817"><ele>214.66666666666666</ele><time>2026-04-08T11:04:11.779Z</time></trkpt><trkpt lat="45.5152383" lon="11.0656733"><ele>213.0</ele><time>2026-04-08T11:04:12.778Z</time></trkpt><trkpt lat="45.51526" lon="11.0657817"><ele>213.33333333333334</ele><time>2026-04-08T11:04:13.779Z</time></trkpt><trkpt lat="45.5152917" lon="11.06592"><ele>213.66666666666669</ele><time>2026-04-08T11:04:14.778Z</time></trkpt><trkpt lat="45.5153417" lon="11.0660417"><ele>214.0</ele><time>2026-04-08T11:04:15.779Z</time></trkpt><trkpt lat="45.515395" lon="11.0661267"><ele>214.33333333333334</ele><time>2026-04-08T11:04:16.778Z</time></trkpt><trkpt lat="45.5154417" lon="11.0662117"><ele>214.66666666666669</ele><time>2026-04-08T11:04:17.778Z</time></trkpt><trkpt lat="45.515485" lon="11.0662967"><ele>215.0</ele><time>2026-04-08T11:04:18.778Z</time></trkpt><trkpt lat="45.515515" lon="11.0663883"><ele>215.00000000000003</ele><time>2026-04-08T11:04:19.778Z</time></trkpt><trkpt lat="45.5155417" lon="11.0665633"><ele>215.0</ele><time>2026-04-08T11:04:21.778Z</time></trkpt><trkpt lat="45.5154767" lon="11.0666233"><ele>215.0</ele><time>2026-04-08T11:04:23.778Z</time></trkpt><trkpt lat="45.5153967" lon="11.0666017"><ele>215.0</ele><time>2026-04-08T11:04:27.779Z</time></trkpt><trkpt lat="45.5153267" lon="11.0665533"><ele>215.00000000000003</ele><time>2026-04-08T11:04:29.778Z</time></trkpt><trkpt lat="45.5152583" lon="11.06652"><ele>215.0</ele><time>2026-04-08T11:04:32.779Z</time></trkpt><trkpt lat="45.515185" lon="11.0664717"><ele>212.66666666666669</ele><time>2026-04-08T11:04:36.778Z</time></trkpt><trkpt lat="45.515095" lon="11.0664717"><ele>210.33333333333334</ele><time>2026-04-08T11:04:41.778Z</time></trkpt><trkpt lat="45.515035" lon="11.0665533"><ele>208.0</ele><time>2026-04-08T11:05:11.778Z</time></trkpt><trkpt lat="45.5150783" lon="11.0666383"><ele>205.66666666666669</ele><time>2026-04-08T11:05:47.777Z</time></trkpt><trkpt lat="45.5150217" lon="11.0667667"><ele>203.33333333333334</ele><time>2026-04-08T11:06:20.778Z</time></trkpt><trkpt lat="45.5149417" lon="11.0668333"><ele>201.0</ele><time>2026-04-08T11:07:21.776Z</time></trkpt><trkpt lat="45.5147933" lon="11.0669133"><ele>197.5</ele><time>2026-04-08T11:07:23.777Z</time></trkpt><trkpt lat="45.51471" lon="11.06694"><ele>194.0</ele><time>2026-04-08T11:07:24.776Z</time></trkpt><trkpt lat="45.5146167" lon="11.0669767"><ele>190.5</ele><time>2026-04-08T11:07:25.776Z</time></trkpt><trkpt lat="45.514445" lon="11.067015"><ele>187.0</ele><time>2026-04-08T11:07:26.776Z</time></trkpt><trkpt lat="45.5143117" lon="11.067045"><ele>184.75</ele><time>2026-04-08T11:07:27.777Z</time></trkpt><trkpt lat="45.5142" lon="11.0670617"><ele>182.5</ele><time>2026-04-08T11:07:28.776Z</time></trkpt><trkpt lat="45.514085" lon="11.067085"><ele>180.25</ele><time>2026-04-08T11:07:29.777Z</time></trkpt><trkpt lat="45.5139583" lon="11.0671117"><ele>178.0</ele><time>2026-04-08T11:07:30.776Z</time></trkpt><trkpt lat="45.51381" lon="11.0671283"><ele>176.66666666666669</ele><time>2026-04-08T11:07:31.777Z</time></trkpt><trkpt lat="45.5136583" lon="11.06714"><ele>175.33333333333334</ele><time>2026-04-08T11:07:32.777Z</time></trkpt><trkpt lat="45.513505" lon="11.06711"><ele>174.0</ele><time>2026-04-08T11:07:33.776Z</time></trkpt><trkpt lat="45.5133467" lon="11.0670633"><ele>174.0</ele><time>2026-04-08T11:07:34.776Z</time></trkpt><trkpt lat="45.5132033" lon="11.0670067"><ele>174.0</ele><time>2026-04-08T11:07:35.776Z</time></trkpt><trkpt lat="45.5130717" lon="11.0669367"><ele>174.0</ele><time>2026-04-08T11:07:36.776Z</time></trkpt><trkpt lat="45.5129583" lon="11.0668767"><ele>174.0</ele><time>2026-04-08T11:07:37.776Z</time></trkpt><trkpt lat="45.512845" lon="11.0667933"><ele>173.25</ele><time>2026-04-08T11:07:38.776Z</time></trkpt><trkpt lat="45.5127317" lon="11.0666883"><ele>172.5</ele><time>2026-04-08T11:07:39.776Z</time></trkpt><trkpt lat="45.512615" lon="11.0665533"><ele>171.75</ele><time>2026-04-08T11:07:40.777Z</time></trkpt><trkpt lat="45.5124933" lon="11.06642"><ele>171.0</ele><time>2026-04-08T11:07:41.776Z</time></trkpt><trkpt lat="45.5123833" lon="11.0662783"><ele>172.5</ele><time>2026-04-08T11:07:42.777Z</time></trkpt><trkpt lat="45.5122883" lon="11.0661183"><ele>174.0</ele><time>2026-04-08T11:07:43.777Z</time></trkpt><trkpt lat="45.5122067" lon="11.0659283"><ele>175.5</ele><time>2026-04-08T11:07:44.776Z</time></trkpt><trkpt lat="45.5121367" lon="11.06575"><ele>177.0</ele><time>2026-04-08T11:07:45.777Z</time></trkpt><trkpt lat="45.5120733" lon="11.0655783"><ele>180.0</ele><time>2026-04-08T11:07:46.776Z</time></trkpt><trkpt lat="45.5120133" lon="11.065425"><ele>183.0</ele><time>2026-04-08T11:07:47.777Z</time></trkpt><trkpt lat="45.5119567" lon="11.0652783"><ele>186.0</ele><time>2026-04-08T11:07:48.777Z</time></trkpt><trkpt lat="45.511885" lon="11.0651517"><ele>189.0</ele><time>2026-04-08T11:07:49.777Z</time></trkpt><trkpt lat="45.5118033" lon="11.0650317"><ele>189.0</ele><time>2026-04-08T11:07:50.776Z</time></trkpt><trkpt lat="45.51169" lon="11.0649567"><ele>189.0</ele><time>2026-04-08T11:07:51.777Z</time></trkpt><trkpt lat="45.5114883" lon="11.065015"><ele>189.0</ele><time>2026-04-08T11:07:52.777Z</time></trkpt><trkpt lat="45.5112867" lon="11.0650917"><ele>185.66666666666666</ele><time>2026-04-08T11:07:53.776Z</time></trkpt><trkpt lat="45.511125" lon="11.06509"><ele>182.33333333333331</ele><time>2026-04-08T11:07:54.776Z</time></trkpt><trkpt lat="45.5109633" lon="11.0651183"><ele>179.0</ele><time>2026-04-08T11:07:55.777Z</time></trkpt><trkpt lat="45.5108067" lon="11.0651267"><ele>179.0</ele><time>2026-04-08T11:07:56.776Z</time></trkpt><trkpt lat="45.5106667" lon="11.0651067"><ele>179.0</ele><time>2026-04-08T11:07:57.777Z</time></trkpt><trkpt lat="45.5105433" lon="11.065065"><ele>179.0</ele><time>2026-04-08T11:07:58.777Z</time></trkpt><trkpt lat="45.5104067" lon="11.065"><ele>179.0</ele><time>2026-04-08T11:07:59.777Z</time></trkpt><trkpt lat="45.5102767" lon="11.0649367"><ele>183.25</ele><time>2026-04-08T11:08:00.777Z</time></trkpt><trkpt lat="45.5101417" lon="11.064885"><ele>187.5</ele><time>2026-04-08T11:08:01.777Z</time></trkpt><trkpt lat="45.5099917" lon="11.0648133"><ele>191.75</ele><time>2026-04-08T11:08:02.777Z</time></trkpt><trkpt lat="45.5098467" lon="11.0647517"><ele>196.0</ele><time>2026-04-08T11:08:03.777Z</time></trkpt><trkpt lat="45.5096983" lon="11.0647"><ele>191.0</ele><time>2026-04-08T11:08:04.777Z</time></trkpt><trkpt lat="45.5095533" lon="11.0646567"><ele>186.0</ele><time>2026-04-08T11:08:05.777Z</time></trkpt><trkpt lat="45.50938" lon="11.0646533"><ele>181.0</ele><time>2026-04-08T11:08:06.776Z</time></trkpt><trkpt lat="45.5092217" lon="11.064625"><ele>181.0</ele><time>2026-04-08T11:08:07.776Z</time></trkpt><trkpt lat="45.5090783" lon="11.0645967"><ele>181.0</ele><time>2026-04-08T11:08:08.776Z</time></trkpt><trkpt lat="45.5089433" lon="11.0645583"><ele>181.0</ele><time>2026-04-08T11:08:09.777Z</time></trkpt><trkpt lat="45.5088033" lon="11.0645217"><ele>181.0</ele><time>2026-04-08T11:08:10.776Z</time></trkpt><trkpt lat="45.50866" lon="11.0644867"><ele>177.5</ele><time>2026-04-08T11:08:11.777Z</time></trkpt><trkpt lat="45.508515" lon="11.0644517"><ele>174.0</ele><time>2026-04-08T11:08:12.777Z</time></trkpt><trkpt lat="45.5083817" lon="11.0644117"><ele>170.5</ele><time>2026-04-08T11:08:13.776Z</time></trkpt><trkpt lat="45.50825" lon="11.0643667"><ele>167.0</ele><time>2026-04-08T11:08:14.776Z</time></trkpt><trkpt lat="45.5081217" lon="11.0643233"><ele>167.0</ele><time>2026-04-08T11:08:15.777Z</time></trkpt><trkpt lat="45.508005" lon="11.064265"><ele>167.0</ele><time>2026-04-08T11:08:16.776Z</time></trkpt><trkpt lat="45.5078833" lon="11.0641883"><ele>167.0</ele><time>2026-04-08T11:08:17.777Z</time></trkpt><trkpt lat="45.5077717" lon="11.0641033"><ele>167.0</ele><time>2026-04-08T11:08:18.777Z</time></trkpt><trkpt lat="45.5076417" lon="11.0640183"><ele>167.5</ele><time>2026-04-08T11:08:19.776Z</time></trkpt><trkpt lat="45.5075083" lon="11.06394"><ele>168.0</ele><time>2026-04-08T11:08:20.777Z</time></trkpt><trkpt lat="45.50737" lon="11.0638533"><ele>168.5</ele><time>2026-04-08T11:08:21.777Z</time></trkpt><trkpt lat="45.507225" lon="11.0637883"><ele>169.0</ele><time>2026-04-08T11:08:22.776Z</time></trkpt><trkpt lat="45.5070833" lon="11.0637117"><ele>164.0</ele><time>2026-04-08T11:08:23.776Z</time></trkpt><trkpt lat="45.5069383" lon="11.0636433"><ele>159.0</ele><time>2026-04-08T11:08:24.776Z</time></trkpt><trkpt lat="45.5068433" lon="11.06345"><ele>154.0</ele><time>2026-04-08T11:08:25.777Z</time></trkpt><trkpt lat="45.5067233" lon="11.06333"><ele>160.33333333333334</ele><time>2026-04-08T11:08:26.776Z</time></trkpt><trkpt lat="45.506575" lon="11.0632383"><ele>166.66666666666666</ele><time>2026-04-08T11:08:27.776Z</time></trkpt><trkpt lat="45.5064433" lon="11.0631517"><ele>173.0</ele><time>2026-04-08T11:08:28.776Z</time></trkpt><trkpt lat="45.506295" lon="11.06307"><ele>166.33333333333331</ele><time>2026-04-08T11:08:29.777Z</time></trkpt><trkpt lat="45.506145" lon="11.06298"><ele>159.66666666666666</ele><time>2026-04-08T11:08:30.777Z</time></trkpt><trkpt lat="45.5060033" lon="11.06288"><ele>153.0</ele><time>2026-04-08T11:08:31.776Z</time></trkpt><trkpt lat="45.5058633" lon="11.0627783"><ele>153.0</ele><time>2026-04-08T11:08:32.777Z</time></trkpt><trkpt lat="45.5057167" lon="11.0627083"><ele>153.0</ele><time>2026-04-08T11:08:33.777Z</time></trkpt><trkpt lat="45.505575" lon="11.06264"><ele>153.0</ele><time>2026-04-08T11:08:34.776Z</time></trkpt><trkpt lat="45.5054433" lon="11.06258"><ele>153.0</ele><time>2026-04-08T11:08:35.776Z</time></trkpt><trkpt lat="45.505285" lon="11.0624883"><ele>152.0</ele><time>2026-04-08T11:08:36.776Z</time></trkpt><trkpt lat="45.5051467" lon="11.0624183"><ele>151.0</ele><time>2026-04-08T11:08:37.776Z</time></trkpt><trkpt lat="45.5050133" lon="11.0623483"><ele>150.0</ele><time>2026-04-08T11:08:38.777Z</time></trkpt><trkpt lat="45.5048717" lon="11.062285"><ele>149.0</ele><time>2026-04-08T11:08:39.776Z</time></trkpt><trkpt lat="45.504725" lon="11.0622183"><ele>147.66666666666666</ele><time>2026-04-08T11:08:40.776Z</time></trkpt><trkpt lat="45.50457" lon="11.06216"><ele>146.33333333333334</ele><time>2026-04-08T11:08:41.777Z</time></trkpt><trkpt lat="45.5044167" lon="11.0621017"><ele>145.0</ele><time>2026-04-08T11:08:42.776Z</time></trkpt><trkpt lat="45.5042717" lon="11.0620517"><ele>145.0</ele><time>2026-04-08T11:08:43.776Z</time></trkpt><trkpt lat="45.50414" lon="11.06199"><ele>145.0</ele><time>2026-04-08T11:08:44.776Z</time></trkpt><trkpt lat="45.5040017" lon="11.0619533"><ele>145.0</ele><time>2026-04-08T11:08:45.777Z</time></trkpt><trkpt lat="45.503865" lon="11.0619017"><ele>145.0</ele><time>2026-04-08T11:08:46.776Z</time></trkpt><trkpt lat="45.5037283" lon="11.0618417"><ele>144.0</ele><time>2026-04-08T11:08:47.777Z</time></trkpt><trkpt lat="45.50358" lon="11.061785"><ele>143.0</ele><time>2026-04-08T11:08:48.776Z</time></trkpt><trkpt lat="45.5034217" lon="11.0617217"><ele>142.0</ele><time>2026-04-08T11:08:49.777Z</time></trkpt><trkpt lat="45.503265" lon="11.0616517"><ele>141.75</ele><time>2026-04-08T11:08:50.777Z</time></trkpt><trkpt lat="45.5031233" lon="11.0615867"><ele>141.5</ele><time>2026-04-08T11:08:51.776Z</time></trkpt><trkpt lat="45.5030033" lon="11.061535"><ele>141.25</ele><time>2026-04-08T11:08:52.776Z</time></trkpt><trkpt lat="45.5029133" lon="11.061485"><ele>141.0</ele><time>2026-04-08T11:08:53.776Z</time></trkpt><trkpt lat="45.50284" lon="11.061415"><ele>141.0</ele><time>2026-04-08T11:08:54.776Z</time></trkpt><trkpt lat="45.5027983" lon="11.061335"><ele>141.0</ele><time>2026-04-08T11:08:55.776Z</time></trkpt><trkpt lat="45.50277" lon="11.0612317"><ele>141.0</ele><time>2026-04-08T11:08:56.777Z</time></trkpt><trkpt lat="45.5027517" lon="11.0611183"><ele>141.0</ele><time>2026-04-08T11:08:57.776Z</time></trkpt><trkpt lat="45.5027517" lon="11.06096"><ele>141.0</ele><time>2026-04-08T11:08:58.776Z</time></trkpt><trkpt lat="45.502735" lon="11.06082"><ele>141.0</ele><time>2026-04-08T11:08:59.777Z</time></trkpt><trkpt lat="45.5026933" lon="11.0607033"><ele>141.75</ele><time>2026-04-08T11:09:00.776Z</time></trkpt><trkpt lat="45.5026367" lon="11.060595"><ele>142.5</ele><time>2026-04-08T11:09:01.776Z</time></trkpt><trkpt lat="45.5025667" lon="11.0604917"><ele>143.25</ele><time>2026-04-08T11:09:02.777Z</time></trkpt><trkpt lat="45.50245" lon="11.0604083"><ele>144.0</ele><time>2026-04-08T11:09:03.777Z</time></trkpt><trkpt lat="45.502335" lon="11.060335"><ele>144.0</ele><time>2026-04-08T11:09:04.776Z</time></trkpt><trkpt lat="45.5021983" lon="11.060265"><ele>144.0</ele><time>2026-04-08T11:09:05.776Z</time></trkpt><trkpt lat="45.5020617" lon="11.0602033"><ele>144.0</ele><time>2026-04-08T11:09:06.777Z</time></trkpt><trkpt lat="45.5019233" lon="11.06014"><ele>144.0</ele><time>2026-04-08T11:09:07.777Z</time></trkpt><trkpt lat="45.5017783" lon="11.0600783"><ele>144.0</ele><time>2026-04-08T11:09:08.777Z</time></trkpt><trkpt lat="45.5016433" lon="11.06002"><ele>144.0</ele><time>2026-04-08T11:09:09.777Z</time></trkpt><trkpt lat="45.5015133" lon="11.0599633"><ele>144.0</ele><time>2026-04-08T11:09:10.777Z</time></trkpt><trkpt lat="45.5013833" lon="11.0599117"><ele>144.0</ele><time>2026-04-08T11:09:11.777Z</time></trkpt><trkpt lat="45.5012583" lon="11.05987"><ele>142.5</ele><time>2026-04-08T11:09:12.777Z</time></trkpt><trkpt lat="45.501135" lon="11.05983"><ele>141.0</ele><time>2026-04-08T11:09:13.777Z</time></trkpt><trkpt lat="45.5010117" lon="11.0597883"><ele>139.5</ele><time>2026-04-08T11:09:14.777Z</time></trkpt><trkpt lat="45.5008833" lon="11.059755"><ele>138.0</ele><time>2026-04-08T11:09:15.777Z</time></trkpt><trkpt lat="45.5007467" lon="11.0597317"><ele>138.0</ele><time>2026-04-08T11:09:16.777Z</time></trkpt><trkpt lat="45.5006017" lon="11.059715"><ele>138.0</ele><time>2026-04-08T11:09:17.777Z</time></trkpt><trkpt lat="45.5004583" lon="11.059695"><ele>138.0</ele><time>2026-04-08T11:09:18.777Z</time></trkpt><trkpt lat="45.5003167" lon="11.05967"><ele>138.0</ele><time>2026-04-08T11:09:19.776Z</time></trkpt><trkpt lat="45.50017" lon="11.0596417"><ele>136.33333333333334</ele><time>2026-04-08T11:09:20.777Z</time></trkpt><trkpt lat="45.5000167" lon="11.0596"><ele>134.66666666666669</ele><time>2026-04-08T11:09:21.776Z</time></trkpt><trkpt lat="45.4998583" lon="11.05955"><ele>133.0</ele><time>2026-04-08T11:09:22.776Z</time></trkpt><trkpt lat="45.4996983" lon="11.059525"><ele>133.33333333333334</ele><time>2026-04-08T11:09:23.777Z</time></trkpt><trkpt lat="45.4995417" lon="11.0595"><ele>133.66666666666666</ele><time>2026-04-08T11:09:24.777Z</time></trkpt><trkpt lat="45.4993883" lon="11.0594667"><ele>134.0</ele><time>2026-04-08T11:09:25.776Z</time></trkpt><trkpt lat="45.4992383" lon="11.05943"><ele>134.0</ele><time>2026-04-08T11:09:26.776Z</time></trkpt><trkpt lat="45.499085" lon="11.059405"><ele>134.0</ele><time>2026-04-08T11:09:27.776Z</time></trkpt><trkpt lat="45.4989317" lon="11.059385"><ele>134.0</ele><time>2026-04-08T11:09:28.777Z</time></trkpt><trkpt lat="45.4987733" lon="11.0593717"><ele>133.0</ele><time>2026-04-08T11:09:29.777Z</time></trkpt><trkpt lat="45.498605" lon="11.0593583"><ele>132.0</ele><time>2026-04-08T11:09:30.776Z</time></trkpt><trkpt lat="45.4984417" lon="11.0593383"><ele>131.0</ele><time>2026-04-08T11:09:31.776Z</time></trkpt><trkpt lat="45.498275" lon="11.0593233"><ele>131.0</ele><time>2026-04-08T11:09:32.777Z</time></trkpt><trkpt lat="45.4981217" lon="11.059315"><ele>131.0</ele><time>2026-04-08T11:09:33.777Z</time></trkpt><trkpt lat="45.49796" lon="11.0592867"><ele>131.0</ele><time>2026-04-08T11:09:34.776Z</time></trkpt><trkpt lat="45.49779" lon="11.0592733"><ele>129.66666666666666</ele><time>2026-04-08T11:09:35.776Z</time></trkpt><trkpt lat="45.4976167" lon="11.059265"><ele>128.33333333333334</ele><time>2026-04-08T11:09:36.777Z</time></trkpt><trkpt lat="45.4974483" lon="11.0592517"><ele>127.0</ele><time>2026-04-08T11:09:37.777Z</time></trkpt><trkpt lat="45.497285" lon="11.0592433"><ele>127.0</ele><time>2026-04-08T11:09:38.777Z</time></trkpt><trkpt lat="45.4971533" lon="11.0592517"><ele>127.0</ele><time>2026-04-08T11:09:39.776Z</time></trkpt><trkpt lat="45.49704" lon="11.0592583"><ele>127.0</ele><time>2026-04-08T11:09:40.776Z</time></trkpt><trkpt lat="45.49693" lon="11.0592717"><ele>127.0</ele><time>2026-04-08T11:09:41.777Z</time></trkpt><trkpt lat="45.496825" lon="11.05923"><ele>126.75</ele><time>2026-04-08T11:09:42.776Z</time></trkpt><trkpt lat="45.49674" lon="11.0591483"><ele>126.5</ele><time>2026-04-08T11:09:43.776Z</time></trkpt><trkpt lat="45.4966383" lon="11.0590717"><ele>126.25</ele><time>2026-04-08T11:09:44.777Z</time></trkpt><trkpt lat="45.49651" lon="11.0590267"><ele>126.0</ele><time>2026-04-08T11:09:45.776Z</time></trkpt><trkpt lat="45.4963667" lon="11.0590233"><ele>126.25</ele><time>2026-04-08T11:09:46.775Z</time></trkpt><trkpt lat="45.4962317" lon="11.0590367"><ele>126.5</ele><time>2026-04-08T11:09:47.776Z</time></trkpt><trkpt lat="45.4960933" lon="11.0590783"><ele>126.75</ele><time>2026-04-08T11:09:48.776Z</time></trkpt><trkpt lat="45.495955" lon="11.05914"><ele>127.0</ele><time>2026-04-08T11:09:49.776Z</time></trkpt><trkpt lat="45.4958133" lon="11.05918"><ele>125.75</ele><time>2026-04-08T11:09:50.776Z</time></trkpt><trkpt lat="45.4956717" lon="11.0592117"><ele>124.5</ele><time>2026-04-08T11:09:51.775Z</time></trkpt><trkpt lat="45.4955267" lon="11.059235"><ele>123.25</ele><time>2026-04-08T11:09:52.776Z</time></trkpt><trkpt lat="45.49539" lon="11.0592467"><ele>122.0</ele><time>2026-04-08T11:09:53.776Z</time></trkpt><trkpt lat="45.4952533" lon="11.0592517"><ele>121.75</ele><time>2026-04-08T11:09:54.776Z</time></trkpt><trkpt lat="45.4951167" lon="11.059255"><ele>121.5</ele><time>2026-04-08T11:09:55.775Z</time></trkpt><trkpt lat="45.4949733" lon="11.059275"><ele>121.25</ele><time>2026-04-08T11:09:56.775Z</time></trkpt><trkpt lat="45.4948367" lon="11.059285"><ele>121.0</ele><time>2026-04-08T11:09:57.775Z</time></trkpt><trkpt lat="45.4947067" lon="11.0592983"><ele>121.0</ele><time>2026-04-08T11:09:58.775Z</time></trkpt><trkpt lat="45.494595" lon="11.0593017"><ele>121.0</ele><time>2026-04-08T11:09:59.775Z</time></trkpt><trkpt lat="45.49451" lon="11.0593"><ele>121.0</ele><time>2026-04-08T11:10:00.776Z</time></trkpt><trkpt lat="45.494405" lon="11.05933"><ele>121.0</ele><time>2026-04-08T11:10:02.776Z</time></trkpt><trkpt lat="45.4944133" lon="11.059435"><ele>121.0</ele><time>2026-04-08T11:10:04.775Z</time></trkpt><trkpt lat="45.4945083" lon="11.0595333"><ele>121.0</ele><time>2026-04-08T11:10:06.775Z</time></trkpt><trkpt lat="45.494595" lon="11.059575"><ele>121.0</ele><time>2026-04-08T11:10:07.776Z</time></trkpt><trkpt lat="45.4946617" lon="11.0596117"><ele>121.0</ele><time>2026-04-08T11:10:08.776Z</time></trkpt><trkpt lat="45.4947183" lon="11.0597917"><ele>121.0</ele><time>2026-04-08T11:10:10.775Z</time></trkpt><trkpt lat="45.4947333" lon="11.0598967"><ele>121.0</ele><time>2026-04-08T11:10:11.775Z</time></trkpt><trkpt lat="45.49475" lon="11.060005"><ele>121.33333333333334</ele><time>2026-04-08T11:10:12.776Z</time></trkpt><trkpt lat="45.4947783" lon="11.0601183"><ele>121.66666666666667</ele><time>2026-04-08T11:10:13.776Z</time></trkpt><trkpt lat="45.49481" lon="11.0602317"><ele>122.0</ele><time>2026-04-08T11:10:14.775Z</time></trkpt><trkpt lat="45.4948367" lon="11.060345"><ele>122.33333333333334</ele><time>2026-04-08T11:10:15.776Z</time></trkpt><trkpt lat="45.4948567" lon="11.0604417"><ele>122.66666666666667</ele><time>2026-04-08T11:10:16.776Z</time></trkpt><trkpt lat="45.4948783" lon="11.0605333"><ele>123.0</ele><time>2026-04-08T11:10:17.775Z</time></trkpt><trkpt lat="45.4949" lon="11.0606267"><ele>123.0</ele><time>2026-04-08T11:10:18.776Z</time></trkpt><trkpt lat="45.4948517" lon="11.0607067"><ele>123.0</ele><time>2026-04-08T11:10:19.776Z</time></trkpt><trkpt lat="45.49479" lon="11.0608517"><ele>123.0</ele><time>2026-04-08T11:10:20.776Z</time></trkpt><trkpt lat="45.494765" lon="11.0609717"><ele>123.0</ele><time>2026-04-08T11:10:21.775Z</time></trkpt><trkpt lat="45.4947367" lon="11.0610783"><ele>123.0</ele><time>2026-04-08T11:10:22.776Z</time></trkpt><trkpt lat="45.4947333" lon="11.0611867"><ele>123.0</ele><time>2026-04-08T11:10:23.776Z</time></trkpt><trkpt lat="45.4947367" lon="11.0612933"><ele>123.4</ele><time>2026-04-08T11:10:24.775Z</time></trkpt><trkpt lat="45.49475" lon="11.0613917"><ele>123.80000000000001</ele><time>2026-04-08T11:10:25.775Z</time></trkpt><trkpt lat="45.4947767" lon="11.06152"><ele>124.2</ele><time>2026-04-08T11:10:26.775Z</time></trkpt><trkpt lat="45.4948167" lon="11.0616517"><ele>124.6</ele><time>2026-04-08T11:10:27.776Z</time></trkpt><trkpt lat="45.494855" lon="11.0617967"><ele>125.0</ele><time>2026-04-08T11:10:28.775Z</time></trkpt><trkpt lat="45.494895" lon="11.0619117"><ele>125.57142857142857</ele><time>2026-04-08T11:10:29.776Z</time></trkpt><trkpt lat="45.4949217" lon="11.0620033"><ele>126.14285714285714</ele><time>2026-04-08T11:10:30.775Z</time></trkpt><trkpt lat="45.494955" lon="11.0620917"><ele>126.71428571428571</ele><time>2026-04-08T11:10:31.775Z</time></trkpt><trkpt lat="45.4949883" lon="11.0621717"><ele>127.28571428571428</ele><time>2026-04-08T11:10:32.776Z</time></trkpt><trkpt lat="45.495045" lon="11.0622267"><ele>127.85714285714286</ele><time>2026-04-08T11:10:33.775Z</time></trkpt><trkpt lat="45.4951083" lon="11.0623"><ele>128.42857142857142</ele><time>2026-04-08T11:10:34.775Z</time></trkpt><trkpt lat="45.4951717" lon="11.0623833"><ele>129.0</ele><time>2026-04-08T11:10:35.775Z</time></trkpt><trkpt lat="45.495235" lon="11.0624817"><ele>130.0</ele><time>2026-04-08T11:10:36.775Z</time></trkpt><trkpt lat="45.4953033" lon="11.0625817"><ele>131.0</ele><time>2026-04-08T11:10:37.776Z</time></trkpt><trkpt lat="45.4953817" lon="11.0626817"><ele>132.0</ele><time>2026-04-08T11:10:38.776Z</time></trkpt><trkpt lat="45.495455" lon="11.062775"><ele>133.0</ele><time>2026-04-08T11:10:39.776Z</time></trkpt><trkpt lat="45.4956033" lon="11.06288"><ele>133.0</ele><time>2026-04-08T11:10:40.776Z</time></trkpt><trkpt lat="45.495695" lon="11.06299"><ele>133.0</ele><time>2026-04-08T11:10:41.775Z</time></trkpt><trkpt lat="45.4957533" lon="11.06309"><ele>133.0</ele><time>2026-04-08T11:10:42.776Z</time></trkpt><trkpt lat="45.4958033" lon="11.063195"><ele>133.0</ele><time>2026-04-08T11:10:43.775Z</time></trkpt><trkpt lat="45.4958483" lon="11.0633033"><ele>133.0</ele><time>2026-04-08T11:10:44.776Z</time></trkpt><trkpt lat="45.495885" lon="11.0633883"><ele>136.5</ele><time>2026-04-08T11:10:45.775Z</time></trkpt><trkpt lat="45.49593" lon="11.0634733"><ele>140.0</ele><time>2026-04-08T11:10:46.775Z</time></trkpt><trkpt lat="45.4959933" lon="11.0635433"><ele>143.5</ele><time>2026-04-08T11:10:48.776Z</time></trkpt><trkpt lat="45.4961" lon="11.0635967"><ele>147.0</ele><time>2026-04-08T11:10:50.775Z</time></trkpt><trkpt lat="45.4961917" lon="11.06358"><ele>150.5</ele><time>2026-04-08T11:10:52.776Z</time></trkpt><trkpt lat="45.4962533" lon="11.0635567"><ele>154.0</ele><time>2026-04-08T11:10:54.776Z</time></trkpt><trkpt lat="45.4963233" lon="11.063575"><ele>155.33333333333334</ele><time>2026-04-08T11:10:56.776Z</time></trkpt><trkpt lat="45.49639" lon="11.0635967"><ele>156.66666666666669</ele><time>2026-04-08T11:10:58.775Z</time></trkpt><trkpt lat="45.4964717" lon="11.0635967"><ele>158.0</ele><time>2026-04-08T11:11:00.775Z</time></trkpt><trkpt lat="45.49654" lon="11.06358"><ele>159.33333333333334</ele><time>2026-04-08T11:11:02.776Z</time></trkpt><trkpt lat="45.4966233" lon="11.0635533"><ele>160.66666666666666</ele><time>2026-04-08T11:11:05.775Z</time></trkpt><trkpt lat="45.4966883" lon="11.0635433"><ele>162.0</ele><time>2026-04-08T11:11:07.776Z</time></trkpt><trkpt lat="45.49679" lon="11.0635633"><ele>162.0</ele><time>2026-04-08T11:11:09.775Z</time></trkpt><trkpt lat="45.4968633" lon="11.0635917"><ele>162.0</ele><time>2026-04-08T11:11:11.775Z</time></trkpt><trkpt lat="45.4969533" lon="11.0636333"><ele>162.0</ele><time>2026-04-08T11:11:13.775Z</time></trkpt><trkpt lat="45.49704" lon="11.0636417"><ele>162.0</ele><time>2026-04-08T11:11:15.775Z</time></trkpt><trkpt lat="45.4971567" lon="11.063645"><ele>162.0</ele><time>2026-04-08T11:11:17.776Z</time></trkpt><trkpt lat="45.4972683" lon="11.06367"><ele>165.0</ele><time>2026-04-08T11:11:19.775Z</time></trkpt><trkpt lat="45.4973717" lon="11.063675"><ele>168.0</ele><time>2026-04-08T11:11:21.776Z</time></trkpt><trkpt lat="45.4974633" lon="11.0636817"><ele>171.0</ele><time>2026-04-08T11:11:23.776Z</time></trkpt><trkpt lat="45.4975617" lon="11.0636983"><ele>174.0</ele><time>2026-04-08T11:11:25.775Z</time></trkpt><trkpt lat="45.497655" lon="11.0637383"><ele>177.0</ele><time>2026-04-08T11:11:27.776Z</time></trkpt><trkpt lat="45.4977633" lon="11.0637383"><ele>177.0</ele><time>2026-04-08T11:11:29.776Z</time></trkpt><trkpt lat="45.4978733" lon="11.063755"><ele>177.0</ele><time>2026-04-08T11:11:31.776Z</time></trkpt><trkpt lat="45.497985" lon="11.0637517"><ele>177.0</ele><time>2026-04-08T11:11:33.776Z</time></trkpt><trkpt lat="45.4981117" lon="11.0637917"><ele>177.0</ele><time>2026-04-08T11:11:35.776Z</time></trkpt><trkpt lat="45.4981717" lon="11.0638267"><ele>177.0</ele><time>2026-04-08T11:11:36.775Z</time></trkpt><trkpt lat="45.4982333" lon="11.063855"><ele>177.83333333333334</ele><time>2026-04-08T11:11:37.776Z</time></trkpt><trkpt lat="45.4983" lon="11.0638933"><ele>178.66666666666666</ele><time>2026-04-08T11:11:38.776Z</time></trkpt><trkpt lat="45.498365" lon="11.06394"><ele>179.5</ele><time>2026-04-08T11:11:39.776Z</time></trkpt><trkpt lat="45.4984283" lon="11.06397"><ele>180.33333333333331</ele><time>2026-04-08T11:11:40.775Z</time></trkpt><trkpt lat="45.4985367" lon="11.0640233"><ele>181.16666666666666</ele><time>2026-04-08T11:11:42.775Z</time></trkpt><trkpt lat="45.4986383" lon="11.0640567"><ele>182.0</ele><time>2026-04-08T11:11:44.775Z</time></trkpt><trkpt lat="45.4987233" lon="11.0640367"><ele>184.66666666666666</ele><time>2026-04-08T11:11:46.775Z</time></trkpt><trkpt lat="45.4987867" lon="11.0640267"><ele>187.33333333333331</ele><time>2026-04-08T11:11:49.775Z</time></trkpt><trkpt lat="45.498905" lon="11.06403"><ele>190.0</ele><time>2026-04-08T11:12:21.774Z</time></trkpt><trkpt lat="45.498985" lon="11.0640633"><ele>192.66666666666666</ele><time>2026-04-08T11:12:25.774Z</time></trkpt><trkpt lat="45.499055" lon="11.0640667"><ele>195.33333333333334</ele><time>2026-04-08T11:12:28.774Z</time></trkpt><trkpt lat="45.4991233" lon="11.0640883"><ele>198.0</ele><time>2026-04-08T11:12:30.775Z</time></trkpt><trkpt lat="45.49919" lon="11.064115"><ele>202.57142857142858</ele><time>2026-04-08T11:12:32.774Z</time></trkpt><trkpt lat="45.49925" lon="11.064145"><ele>207.1428571428571</ele><time>2026-04-08T11:12:34.775Z</time></trkpt><trkpt lat="45.49932" lon="11.0642067"><ele>211.7142857142857</ele><time>2026-04-08T11:12:36.775Z</time></trkpt><trkpt lat="45.4993733" lon="11.06428"><ele>216.28571428571428</ele><time>2026-04-08T11:12:39.775Z</time></trkpt><trkpt lat="45.4994283" lon="11.0643333"><ele>220.85714285714283</ele><time>2026-04-08T11:12:42.775Z</time></trkpt><trkpt lat="45.4995167" lon="11.0643233"><ele>225.4285714285714</ele><time>2026-04-08T11:12:46.774Z</time></trkpt><trkpt lat="45.4995867" lon="11.0643433"><ele>229.99999999999997</ele><time>2026-04-08T11:12:49.774Z</time></trkpt><trkpt lat="45.4996117" lon="11.0644333"><ele>232.33333333333334</ele><time>2026-04-08T11:12:53.775Z</time></trkpt><trkpt lat="45.4996633" lon="11.0645383"><ele>234.66666666666669</ele><time>2026-04-08T11:12:56.775Z</time></trkpt><trkpt lat="45.4997233" lon="11.0646417"><ele>237.0</ele><time>2026-04-08T11:12:59.775Z</time></trkpt><trkpt lat="45.4997767" lon="11.06471"><ele>239.33333333333331</ele><time>2026-04-08T11:13:01.775Z</time></trkpt><trkpt lat="45.4998117" lon="11.0648167"><ele>241.66666666666666</ele><time>2026-04-08T11:13:04.775Z</time></trkpt><trkpt lat="45.4998317" lon="11.0649133"><ele>244.0</ele><time>2026-04-08T11:13:06.775Z</time></trkpt><trkpt lat="45.4998583" lon="11.0650483"><ele>247.0</ele><time>2026-04-08T11:13:08.775Z</time></trkpt><trkpt lat="45.49988" lon="11.06519"><ele>249.99999999999997</ele><time>2026-04-08T11:13:10.774Z</time></trkpt><trkpt lat="45.49989" lon="11.0653"><ele>252.99999999999997</ele><time>2026-04-08T11:13:12.775Z</time></trkpt><trkpt lat="45.499875" lon="11.0654067"><ele>256.0</ele><time>2026-04-08T11:13:14.775Z</time></trkpt><trkpt lat="45.4998467" lon="11.0655167"><ele>259.0</ele><time>2026-04-08T11:13:16.774Z</time></trkpt><trkpt lat="45.4998" lon="11.065685"><ele>260.0</ele><time>2026-04-08T11:13:18.775Z</time></trkpt><trkpt lat="45.4997583" lon="11.0658233"><ele>261.0</ele><time>2026-04-08T11:13:20.774Z</time></trkpt><trkpt lat="45.499755" lon="11.06593"><ele>262.0</ele><time>2026-04-08T11:13:22.775Z</time></trkpt><trkpt lat="45.49975" lon="11.0660617"><ele>263.0</ele><time>2026-04-08T11:13:25.775Z</time></trkpt><trkpt lat="45.4997617" lon="11.066165"><ele>264.0</ele><time>2026-04-08T11:13:27.775Z</time></trkpt><trkpt lat="45.4997817" lon="11.066255"><ele>265.0</ele><time>2026-04-08T11:13:29.775Z</time></trkpt><trkpt lat="45.4997833" lon="11.06637"><ele>265.0</ele><time>2026-04-08T11:13:32.774Z</time></trkpt><trkpt lat="45.499775" lon="11.0664967"><ele>265.0</ele><time>2026-04-08T11:13:35.775Z</time></trkpt><trkpt lat="45.4997567" lon="11.0665983"><ele>265.0</ele><time>2026-04-08T11:13:37.774Z</time></trkpt><trkpt lat="45.4997333" lon="11.0666967"><ele>265.0</ele><time>2026-04-08T11:13:39.774Z</time></trkpt><trkpt lat="45.4997117" lon="11.0667867"><ele>265.0</ele><time>2026-04-08T11:13:41.775Z</time></trkpt><trkpt lat="45.49969" lon="11.0669017"><ele>265.0</ele><time>2026-04-08T11:13:43.775Z</time></trkpt><trkpt lat="45.49965" lon="11.0669767"><ele>266.16666666666663</ele><time>2026-04-08T11:13:46.774Z</time></trkpt><trkpt lat="45.49957" lon="11.067005"><ele>267.3333333333333</ele><time>2026-04-08T11:13:49.775Z</time></trkpt><trkpt lat="45.49954" lon="11.0671217"><ele>268.5</ele><time>2026-04-08T11:13:52.774Z</time></trkpt><trkpt lat="45.4995117" lon="11.067205"><ele>269.6666666666667</ele><time>2026-04-08T11:13:55.775Z</time></trkpt><trkpt lat="45.4995533" lon="11.0673"><ele>270.83333333333337</ele><time>2026-04-08T11:13:59.774Z</time></trkpt><trkpt lat="45.4995967" lon="11.0673933"><ele>272.0</ele><time>2026-04-08T11:14:01.775Z</time></trkpt><trkpt lat="45.499645" lon="11.067475"><ele>273.6666666666667</ele><time>2026-04-08T11:14:02.775Z</time></trkpt><trkpt lat="45.4997133" lon="11.0675733"><ele>275.33333333333337</ele><time>2026-04-08T11:14:04.774Z</time></trkpt><trkpt lat="45.49973" lon="11.06767"><ele>277.0</ele><time>2026-04-08T11:14:06.774Z</time></trkpt><trkpt lat="45.4996867" lon="11.06774"><ele>278.6666666666667</ele><time>2026-04-08T11:14:08.775Z</time></trkpt><trkpt lat="45.4996067" lon="11.0677733"><ele>280.3333333333333</ele><time>2026-04-08T11:14:10.774Z</time></trkpt><trkpt lat="45.49955" lon="11.0678483"><ele>282.0</ele><time>2026-04-08T11:14:12.775Z</time></trkpt><trkpt lat="45.499515" lon="11.0679417"><ele>283.7142857142857</ele><time>2026-04-08T11:14:14.775Z</time></trkpt><trkpt lat="45.4994467" lon="11.0680133"><ele>285.42857142857144</ele><time>2026-04-08T11:14:17.774Z</time></trkpt><trkpt lat="45.4993917" lon="11.0681067"><ele>287.1428571428571</ele><time>2026-04-08T11:14:20.775Z</time></trkpt><trkpt lat="45.4993617" lon="11.068205"><ele>288.8571428571429</ele><time>2026-04-08T11:14:22.774Z</time></trkpt><trkpt lat="45.4993267" lon="11.0682917"><ele>290.57142857142856</ele><time>2026-04-08T11:14:25.775Z</time></trkpt><trkpt lat="45.49929" lon="11.0683667"><ele>292.2857142857143</ele><time>2026-04-08T11:14:27.775Z</time></trkpt><trkpt lat="45.4992667" lon="11.068455"><ele>294.0</ele><time>2026-04-08T11:14:29.774Z</time></trkpt><trkpt lat="45.4992533" lon="11.0685683"><ele>295.3333333333333</ele><time>2026-04-08T11:14:32.775Z</time></trkpt><trkpt lat="45.4992533" lon="11.06866"><ele>296.6666666666667</ele><time>2026-04-08T11:14:34.774Z</time></trkpt><trkpt lat="45.4992583" lon="11.068805"><ele>298.0</ele><time>2026-04-08T11:14:36.774Z</time></trkpt><trkpt lat="45.49926" lon="11.068955"><ele>299.33333333333337</ele><time>2026-04-08T11:14:38.775Z</time></trkpt><trkpt lat="45.49927" lon="11.069075"><ele>300.6666666666667</ele><time>2026-04-08T11:14:40.775Z</time></trkpt><trkpt lat="45.499275" lon="11.0691733"><ele>302.0</ele><time>2026-04-08T11:14:42.775Z</time></trkpt><trkpt lat="45.4993217" lon="11.06926"><ele>302.42857142857144</ele><time>2026-04-08T11:14:45.774Z</time></trkpt><trkpt lat="45.4993483" lon="11.0693483"><ele>302.8571428571429</ele><time>2026-04-08T11:14:47.775Z</time></trkpt><trkpt lat="45.49929" lon="11.0693933"><ele>303.28571428571433</ele><time>2026-04-08T11:15:23.774Z</time></trkpt><trkpt lat="45.4993083" lon="11.069495"><ele>303.7142857142857</ele><time>2026-04-08T11:15:41.774Z</time></trkpt><trkpt lat="45.4992633" lon="11.069605"><ele>304.1428571428571</ele><time>2026-04-08T11:15:42.773Z</time></trkpt><trkpt lat="45.4992233" lon="11.0696933"><ele>304.5714285714286</ele><time>2026-04-08T11:15:43.773Z</time></trkpt><trkpt lat="45.4992033" lon="11.069795"><ele>305.0</ele><time>2026-04-08T11:15:44.774Z</time></trkpt><trkpt lat="45.4991883" lon="11.069905"><ele>306.0</ele><time>2026-04-08T11:15:45.774Z</time></trkpt><trkpt lat="45.49919" lon="11.0700583"><ele>307.0</ele><time>2026-04-08T11:15:46.774Z</time></trkpt><trkpt lat="45.4992067" lon="11.0702083"><ele>308.0</ele><time>2026-04-08T11:15:47.773Z</time></trkpt><trkpt lat="45.4992233" lon="11.07035"><ele>309.0</ele><time>2026-04-08T11:15:48.774Z</time></trkpt><trkpt lat="45.4992617" lon="11.070505"><ele>310.0</ele><time>2026-04-08T11:15:49.774Z</time></trkpt><trkpt lat="45.49928" lon="11.070625"><ele>310.0</ele><time>2026-04-08T11:15:50.774Z</time></trkpt><trkpt lat="45.49931" lon="11.0707683"><ele>310.0</ele><time>2026-04-08T11:15:51.774Z</time></trkpt><trkpt lat="45.4993483" lon="11.0709017"><ele>310.0</ele><time>2026-04-08T11:15:52.773Z</time></trkpt><trkpt lat="45.499385" lon="11.0710317"><ele>310.0</ele><time>2026-04-08T11:15:53.773Z</time></trkpt><trkpt lat="45.4994233" lon="11.0711733"><ele>310.0</ele><time>2026-04-08T11:15:54.774Z</time></trkpt><trkpt lat="45.49946" lon="11.071305"><ele>311.6</ele><time>2026-04-08T11:15:55.773Z</time></trkpt><trkpt lat="45.499495" lon="11.07143"><ele>313.2</ele><time>2026-04-08T11:15:56.774Z</time></trkpt><trkpt lat="45.49952" lon="11.0715733"><ele>314.8</ele><time>2026-04-08T11:15:57.773Z</time></trkpt><trkpt lat="45.4995633" lon="11.0716967"><ele>316.4</ele><time>2026-04-08T11:15:58.774Z</time></trkpt><trkpt lat="45.4996017" lon="11.0718267"><ele>318.0</ele><time>2026-04-08T11:15:59.773Z</time></trkpt><trkpt lat="45.4996483" lon="11.0719567"><ele>318.5</ele><time>2026-04-08T11:16:00.774Z</time></trkpt><trkpt lat="45.4996967" lon="11.0720867"><ele>319.0</ele><time>2026-04-08T11:16:01.773Z</time></trkpt><trkpt lat="45.4997467" lon="11.072225"><ele>319.5</ele><time>2026-04-08T11:16:02.774Z</time></trkpt><trkpt lat="45.499795" lon="11.0723617"><ele>320.0</ele><time>2026-04-08T11:16:03.774Z</time></trkpt><trkpt lat="45.499895" lon="11.072545"><ele>321.2</ele><time>2026-04-08T11:16:04.774Z</time></trkpt><trkpt lat="45.49995" lon="11.0727"><ele>322.4</ele><time>2026-04-08T11:16:05.774Z</time></trkpt><trkpt lat="45.5000067" lon="11.0728467"><ele>323.6</ele><time>2026-04-08T11:16:06.774Z</time></trkpt><trkpt lat="45.500065" lon="11.0729967"><ele>324.8</ele><time>2026-04-08T11:16:07.774Z</time></trkpt><trkpt lat="45.5000417" lon="11.07309"><ele>326.0</ele><time>2026-04-08T11:16:08.773Z</time></trkpt><trkpt lat="45.5000767" lon="11.073195"><ele>327.0</ele><time>2026-04-08T11:16:09.773Z</time></trkpt><trkpt lat="45.5001033" lon="11.0732967"><ele>328.0</ele><time>2026-04-08T11:16:10.773Z</time></trkpt><trkpt lat="45.500145" lon="11.0734167"><ele>329.0</ele><time>2026-04-08T11:16:11.773Z</time></trkpt><trkpt lat="45.5001867" lon="11.0735267"><ele>330.0</ele><time>2026-04-08T11:16:12.773Z</time></trkpt><trkpt lat="45.50027" lon="11.0734767"><ele>331.0</ele><time>2026-04-08T11:16:14.773Z</time></trkpt><trkpt lat="45.5003583" lon="11.0735317"><ele>332.0</ele><time>2026-04-08T11:16:17.773Z</time></trkpt><trkpt lat="45.500385" lon="11.0736183"><ele>332.0</ele><time>2026-04-08T11:16:20.773Z</time></trkpt><trkpt lat="45.500375" lon="11.073725"><ele>332.0</ele><time>2026-04-08T11:16:24.773Z</time></trkpt><trkpt lat="45.5003533" lon="11.0738267"><ele>332.0</ele><time>2026-04-08T11:16:27.773Z</time></trkpt><trkpt lat="45.500355" lon="11.073955"><ele>332.0</ele><time>2026-04-08T11:16:33.773Z</time></trkpt><trkpt lat="45.50031" lon="11.0740433"><ele>332.0</ele><time>2026-04-08T11:16:57.773Z</time></trkpt><trkpt lat="45.50044" lon="11.07409"><ele>332.6666666666667</ele><time>2026-04-08T11:17:13.773Z</time></trkpt><trkpt lat="45.5005017" lon="11.0741533"><ele>333.33333333333337</ele><time>2026-04-08T11:17:22.772Z</time></trkpt><trkpt lat="45.5004933" lon="11.0742833"><ele>334.0</ele><time>2026-04-08T11:17:36.772Z</time></trkpt><trkpt lat="45.5005083" lon="11.0744567"><ele>334.6666666666667</ele><time>2026-04-08T11:17:38.773Z</time></trkpt><trkpt lat="45.50052" lon="11.0745567"><ele>335.3333333333333</ele><time>2026-04-08T11:17:39.772Z</time></trkpt><trkpt lat="45.50054" lon="11.074655"><ele>336.0</ele><time>2026-04-08T11:17:40.772Z</time></trkpt><trkpt lat="45.5005533" lon="11.074745"><ele>336.0</ele><time>2026-04-08T11:17:41.772Z</time></trkpt><trkpt lat="45.5005733" lon="11.0748367"><ele>336.0</ele><time>2026-04-08T11:17:42.773Z</time></trkpt><trkpt lat="45.5005983" lon="11.0749367"><ele>336.0</ele><time>2026-04-08T11:17:43.773Z</time></trkpt><trkpt lat="45.5006233" lon="11.075035"><ele>336.0</ele><time>2026-04-08T11:17:44.772Z</time></trkpt><trkpt lat="45.500655" lon="11.07514"><ele>336.0</ele><time>2026-04-08T11:17:45.772Z</time></trkpt><trkpt lat="45.5006767" lon="11.0752417"><ele>336.0</ele><time>2026-04-08T11:17:46.772Z</time></trkpt><trkpt lat="45.5007083" lon="11.0753433"><ele>336.0</ele><time>2026-04-08T11:17:47.773Z</time></trkpt><trkpt lat="45.5007383" lon="11.075445"><ele>336.1666666666667</ele><time>2026-04-08T11:17:48.772Z</time></trkpt><trkpt lat="45.5007633" lon="11.0755433"><ele>336.3333333333333</ele><time>2026-04-08T11:17:49.773Z</time></trkpt><trkpt lat="45.5007733" lon="11.0756433"><ele>336.5</ele><time>2026-04-08T11:17:50.772Z</time></trkpt><trkpt lat="45.5007817" lon="11.075755"><ele>336.66666666666663</ele><time>2026-04-08T11:17:51.773Z</time></trkpt><trkpt lat="45.5007833" lon="11.075875"><ele>336.8333333333333</ele><time>2026-04-08T11:17:52.773Z</time></trkpt><trkpt lat="45.50078" lon="11.0759833"><ele>337.0</ele><time>2026-04-08T11:17:53.772Z</time></trkpt><trkpt lat="45.5007767" lon="11.0760917"><ele>336.66666666666663</ele><time>2026-04-08T11:17:54.773Z</time></trkpt><trkpt lat="45.500755" lon="11.0761967"><ele>336.3333333333333</ele><time>2026-04-08T11:17:55.772Z</time></trkpt><trkpt lat="45.500755" lon="11.0762917"><ele>336.0</ele><time>2026-04-08T11:17:56.773Z</time></trkpt><trkpt lat="45.5007717" lon="11.0763817"><ele>335.6666666666667</ele><time>2026-04-08T11:17:57.772Z</time></trkpt><trkpt lat="45.50084" lon="11.07633"><ele>335.33333333333337</ele><time>2026-04-08T11:18:02.772Z</time></trkpt><trkpt lat="45.5009483" lon="11.0761883"><ele>335.0</ele><time>2026-04-08T11:18:03.773Z</time></trkpt><trkpt lat="45.5010417" lon="11.076095"><ele>335.0</ele><time>2026-04-08T11:18:04.773Z</time></trkpt><trkpt lat="45.50111" lon="11.07602"><ele>335.0</ele><time>2026-04-08T11:18:05.772Z</time></trkpt><trkpt lat="45.50119" lon="11.0759867"><ele>335.0</ele><time>2026-04-08T11:18:06.772Z</time></trkpt><trkpt lat="45.5012733" lon="11.0759617"><ele>335.0</ele><time>2026-04-08T11:18:07.772Z</time></trkpt><trkpt lat="45.50137" lon="11.0759567"><ele>335.0</ele><time>2026-04-08T11:18:08.773Z</time></trkpt><trkpt lat="45.5014833" lon="11.0759767"><ele>336.83333333333337</ele><time>2026-04-08T11:18:09.772Z</time></trkpt><trkpt lat="45.5016033" lon="11.0760067"><ele>338.6666666666667</ele><time>2026-04-08T11:18:10.772Z</time></trkpt><trkpt lat="45.5016917" lon="11.0760233"><ele>340.5</ele><time>2026-04-08T11:18:11.773Z</time></trkpt><trkpt lat="45.50176" lon="11.0760283"><ele>342.3333333333333</ele><time>2026-04-08T11:18:12.773Z</time></trkpt><trkpt lat="45.5018133" lon="11.07595"><ele>344.16666666666663</ele><time>2026-04-08T11:18:14.773Z</time></trkpt><trkpt lat="45.5017867" lon="11.0758467"><ele>346.0</ele><time>2026-04-08T11:18:16.772Z</time></trkpt><trkpt lat="45.5016683" lon="11.075745"><ele>347.4</ele><time>2026-04-08T11:18:18.772Z</time></trkpt><trkpt lat="45.5016017" lon="11.07567"><ele>348.8</ele><time>2026-04-08T11:18:19.772Z</time></trkpt><trkpt lat="45.5015517" lon="11.0755633"><ele>350.2</ele><time>2026-04-08T11:18:20.773Z</time></trkpt><trkpt lat="45.5014983" lon="11.075455"><ele>351.59999999999997</ele><time>2026-04-08T11:18:21.772Z</time></trkpt><trkpt lat="45.50144" lon="11.0753533"><ele>353.0</ele><time>2026-04-08T11:18:22.773Z</time></trkpt><trkpt lat="45.5013933" lon="11.075235"><ele>353.0</ele><time>2026-04-08T11:18:23.773Z</time></trkpt><trkpt lat="45.5013433" lon="11.0751133"><ele>353.0</ele><time>2026-04-08T11:18:24.772Z</time></trkpt><trkpt lat="45.5013117" lon="11.0750167"><ele>353.0</ele><time>2026-04-08T11:18:25.772Z</time></trkpt><trkpt lat="45.5012833" lon="11.0749233"><ele>353.0</ele><time>2026-04-08T11:18:26.773Z</time></trkpt><trkpt lat="45.50123" lon="11.0747967"><ele>353.0</ele><time>2026-04-08T11:18:28.772Z</time></trkpt><trkpt lat="45.5012367" lon="11.07469"><ele>353.0</ele><time>2026-04-08T11:18:30.773Z</time></trkpt><trkpt lat="45.50129" lon="11.0746233"><ele>353.6666666666667</ele><time>2026-04-08T11:18:32.773Z</time></trkpt><trkpt lat="45.50136" lon="11.074605"><ele>354.33333333333337</ele><time>2026-04-08T11:18:33.772Z</time></trkpt><trkpt lat="45.50143" lon="11.07461"><ele>355.0</ele><time>2026-04-08T11:18:34.773Z</time></trkpt><trkpt lat="45.5015117" lon="11.0746283"><ele>355.6666666666667</ele><time>2026-04-08T11:18:35.773Z</time></trkpt><trkpt lat="45.5016083" lon="11.07464"><ele>356.3333333333333</ele><time>2026-04-08T11:18:36.772Z</time></trkpt><trkpt lat="45.5017" lon="11.0746417"><ele>357.0</ele><time>2026-04-08T11:18:37.773Z</time></trkpt><trkpt lat="45.5017867" lon="11.0746533"><ele>357.0</ele><time>2026-04-08T11:18:38.773Z</time></trkpt><trkpt lat="45.501905" lon="11.0747117"><ele>357.0</ele><time>2026-04-08T11:18:40.773Z</time></trkpt><trkpt lat="45.5019617" lon="11.0747567"><ele>357.0</ele><time>2026-04-08T11:18:41.773Z</time></trkpt><trkpt lat="45.5020283" lon="11.07479"><ele>357.0</ele><time>2026-04-08T11:18:42.773Z</time></trkpt><trkpt lat="45.502085" lon="11.074855"><ele>357.0</ele><time>2026-04-08T11:18:43.772Z</time></trkpt><trkpt lat="45.5021583" lon="11.0748833"><ele>357.0</ele><time>2026-04-08T11:18:44.772Z</time></trkpt><trkpt lat="45.5022233" lon="11.0749233"><ele>359.3333333333333</ele><time>2026-04-08T11:18:45.773Z</time></trkpt><trkpt lat="45.5023067" lon="11.0749467"><ele>361.6666666666667</ele><time>2026-04-08T11:18:46.773Z</time></trkpt><trkpt lat="45.5023933" lon="11.0749867"><ele>364.0</ele><time>2026-04-08T11:18:47.772Z</time></trkpt><trkpt lat="45.50248" lon="11.0750367"><ele>366.33333333333337</ele><time>2026-04-08T11:18:48.773Z</time></trkpt><trkpt lat="45.502555" lon="11.075075"><ele>368.6666666666667</ele><time>2026-04-08T11:18:49.772Z</time></trkpt><trkpt lat="45.5026133" lon="11.0751167"><ele>371.0</ele><time>2026-04-08T11:18:50.772Z</time></trkpt><trkpt lat="45.5026667" lon="11.0749967"><ele>371.6666666666667</ele><time>2026-04-08T11:18:53.772Z</time></trkpt><trkpt lat="45.50266" lon="11.0749067"><ele>372.33333333333337</ele><time>2026-04-08T11:18:54.772Z</time></trkpt><trkpt lat="45.5026433" lon="11.0748133"><ele>373.0</ele><time>2026-04-08T11:18:55.772Z</time></trkpt><trkpt lat="45.50262" lon="11.0747033"><ele>373.6666666666667</ele><time>2026-04-08T11:18:56.773Z</time></trkpt><trkpt lat="45.5025883" lon="11.0745983"><ele>374.3333333333333</ele><time>2026-04-08T11:18:57.772Z</time></trkpt><trkpt lat="45.5025583" lon="11.0744917"><ele>375.0</ele><time>2026-04-08T11:18:58.773Z</time></trkpt><trkpt lat="45.5025317" lon="11.0743867"><ele>375.0</ele><time>2026-04-08T11:18:59.773Z</time></trkpt><trkpt lat="45.5025133" lon="11.0742967"><ele>375.0</ele><time>2026-04-08T11:19:00.772Z</time></trkpt><trkpt lat="45.50251" lon="11.074205"><ele>375.0</ele><time>2026-04-08T11:19:01.772Z</time></trkpt><trkpt lat="45.5025083" lon="11.074095"><ele>375.0</ele><time>2026-04-08T11:19:02.773Z</time></trkpt><trkpt lat="45.5025183" lon="11.0739933"><ele>375.0</ele><time>2026-04-08T11:19:03.772Z</time></trkpt><trkpt lat="45.5025467" lon="11.0738683"><ele>375.0</ele><time>2026-04-08T11:19:05.772Z</time></trkpt><trkpt lat="45.5026217" lon="11.0738417"><ele>375.0</ele><time>2026-04-08T11:19:08.772Z</time></trkpt><trkpt lat="45.5027283" lon="11.0739067"><ele>375.8</ele><time>2026-04-08T11:19:10.772Z</time></trkpt><trkpt lat="45.5028" lon="11.07396"><ele>376.6</ele><time>2026-04-08T11:19:11.772Z</time></trkpt><trkpt lat="45.5028833" lon="11.074015"><ele>377.4</ele><time>2026-04-08T11:19:12.772Z</time></trkpt><trkpt lat="45.502975" lon="11.0740833"><ele>378.2</ele><time>2026-04-08T11:19:13.772Z</time></trkpt><trkpt lat="45.5030717" lon="11.07415"><ele>379.0</ele><time>2026-04-08T11:19:14.773Z</time></trkpt><trkpt lat="45.50317" lon="11.0742083"><ele>380.79999999999995</ele><time>2026-04-08T11:19:15.773Z</time></trkpt><trkpt lat="45.5032667" lon="11.0742517"><ele>382.59999999999997</ele><time>2026-04-08T11:19:16.773Z</time></trkpt><trkpt lat="45.503355" lon="11.0742833"><ele>384.4</ele><time>2026-04-08T11:19:17.772Z</time></trkpt><trkpt lat="45.503445" lon="11.0743067"><ele>386.2</ele><time>2026-04-08T11:19:18.773Z</time></trkpt><trkpt lat="45.503545" lon="11.0743133"><ele>388.0</ele><time>2026-04-08T11:19:19.773Z</time></trkpt><trkpt lat="45.5036383" lon="11.0743167"><ele>388.00000000000006</ele><time>2026-04-08T11:19:20.773Z</time></trkpt><trkpt lat="45.503725" lon="11.074325"><ele>388.0</ele><time>2026-04-08T11:19:21.772Z</time></trkpt><trkpt lat="45.5038033" lon="11.074335"><ele>388.0</ele><time>2026-04-08T11:19:22.773Z</time></trkpt><trkpt lat="45.5039033" lon="11.0744083"><ele>388.0</ele><time>2026-04-08T11:19:24.773Z</time></trkpt><trkpt lat="45.5039333" lon="11.0745017"><ele>388.00000000000006</ele><time>2026-04-08T11:19:25.773Z</time></trkpt><trkpt lat="45.5039667" lon="11.074585"><ele>388.0</ele><time>2026-04-08T11:19:26.773Z</time></trkpt><trkpt lat="45.5040067" lon="11.0747367"><ele>388.00000000000006</ele><time>2026-04-08T11:19:28.772Z</time></trkpt><trkpt lat="45.5040017" lon="11.07492"><ele>388.0</ele><time>2026-04-08T11:19:30.773Z</time></trkpt><trkpt lat="45.504005" lon="11.0750233"><ele>388.0</ele><time>2026-04-08T11:19:31.772Z</time></trkpt><trkpt lat="45.5040133" lon="11.0751367"><ele>388.0</ele><time>2026-04-08T11:19:32.772Z</time></trkpt><trkpt lat="45.5040333" lon="11.0752467"><ele>388.00000000000006</ele><time>2026-04-08T11:19:33.772Z</time></trkpt><trkpt lat="45.5040617" lon="11.07536"><ele>388.0</ele><time>2026-04-08T11:19:34.773Z</time></trkpt><trkpt lat="45.5040833" lon="11.075465"><ele>389.33333333333337</ele><time>2026-04-08T11:19:35.772Z</time></trkpt><trkpt lat="45.5041" lon="11.0755833"><ele>390.6666666666667</ele><time>2026-04-08T11:19:36.773Z</time></trkpt><trkpt lat="45.5041217" lon="11.0757067"><ele>392.0</ele><time>2026-04-08T11:19:37.773Z</time></trkpt><trkpt lat="45.5041433" lon="11.07582"><ele>393.33333333333337</ele><time>2026-04-08T11:19:38.773Z</time></trkpt><trkpt lat="45.504165" lon="11.0759483"><ele>394.6666666666667</ele><time>2026-04-08T11:19:39.773Z</time></trkpt><trkpt lat="45.5041833" lon="11.076085"><ele>396.0</ele><time>2026-04-08T11:19:40.772Z</time></trkpt><trkpt lat="45.5041933" lon="11.0762033"><ele>396.6</ele><time>2026-04-08T11:19:41.772Z</time></trkpt><trkpt lat="45.5042067" lon="11.0763183"><ele>397.20000000000005</ele><time>2026-04-08T11:19:42.773Z</time></trkpt><trkpt lat="45.5042217" lon="11.07643"><ele>397.79999999999995</ele><time>2026-04-08T11:19:43.772Z</time></trkpt><trkpt lat="45.5042333" lon="11.0765583"><ele>398.4</ele><time>2026-04-08T11:19:44.771Z</time></trkpt><trkpt lat="45.504255" lon="11.0766917"><ele>399.0</ele><time>2026-04-08T11:19:45.771Z</time></trkpt><trkpt lat="45.5042717" lon="11.076835"><ele>399.0</ele><time>2026-04-08T11:19:46.771Z</time></trkpt><trkpt lat="45.5042817" lon="11.07698"><ele>399.0</ele><time>2026-04-08T11:19:47.772Z</time></trkpt><trkpt lat="45.5042883" lon="11.077125"><ele>399.0</ele><time>2026-04-08T11:19:48.771Z</time></trkpt><trkpt lat="45.5042783" lon="11.077285"><ele>399.0</ele><time>2026-04-08T11:19:49.771Z</time></trkpt><trkpt lat="45.5042517" lon="11.0774583"><ele>399.0</ele><time>2026-04-08T11:19:50.772Z</time></trkpt><trkpt lat="45.5042233" lon="11.0776217"><ele>399.3333333333333</ele><time>2026-04-08T11:19:51.771Z</time></trkpt><trkpt lat="45.5042" lon="11.07776"><ele>399.66666666666663</ele><time>2026-04-08T11:19:52.772Z</time></trkpt><trkpt lat="45.5041867" lon="11.07788"><ele>400.0</ele><time>2026-04-08T11:19:53.772Z</time></trkpt><trkpt lat="45.5041933" lon="11.0779933"><ele>400.3333333333333</ele><time>2026-04-08T11:19:54.772Z</time></trkpt><trkpt lat="45.5042033" lon="11.0781167"><ele>400.66666666666663</ele><time>2026-04-08T11:19:55.771Z</time></trkpt><trkpt lat="45.5042283" lon="11.0782417"><ele>401.0</ele><time>2026-04-08T11:19:56.772Z</time></trkpt><trkpt lat="45.5042567" lon="11.0783467"><ele>401.3333333333333</ele><time>2026-04-08T11:19:57.771Z</time></trkpt><trkpt lat="45.504285" lon="11.07844"><ele>401.66666666666663</ele><time>2026-04-08T11:19:58.772Z</time></trkpt><trkpt lat="45.504305" lon="11.0785333"><ele>402.0</ele><time>2026-04-08T11:19:59.771Z</time></trkpt><trkpt lat="45.5043133" lon="11.078635"><ele>402.33333333333337</ele><time>2026-04-08T11:20:00.771Z</time></trkpt><trkpt lat="45.5042917" lon="11.0787383"><ele>402.6666666666667</ele><time>2026-04-08T11:20:01.772Z</time></trkpt><trkpt lat="45.5042383" lon="11.0788883"><ele>403.0</ele><time>2026-04-08T11:20:02.772Z</time></trkpt><trkpt lat="45.5041867" lon="11.0790083"><ele>404.1666666666667</ele><time>2026-04-08T11:20:03.772Z</time></trkpt><trkpt lat="45.504155" lon="11.07911"><ele>405.33333333333337</ele><time>2026-04-08T11:20:04.771Z</time></trkpt><trkpt lat="45.5040933" lon="11.079205"><ele>406.5</ele><time>2026-04-08T11:20:06.772Z</time></trkpt><trkpt lat="45.5041317" lon="11.0793183"><ele>407.66666666666663</ele><time>2026-04-08T11:20:22.772Z</time></trkpt><trkpt lat="45.5041717" lon="11.0794133"><ele>408.8333333333333</ele><time>2026-04-08T11:20:23.771Z</time></trkpt><trkpt lat="45.50422" lon="11.079505"><ele>410.0</ele><time>2026-04-08T11:20:24.772Z</time></trkpt><trkpt lat="45.5042667" lon="11.0795917"><ele>410.0</ele><time>2026-04-08T11:20:25.771Z</time></trkpt><trkpt lat="45.5043067" lon="11.0796817"><ele>410.0</ele><time>2026-04-08T11:20:26.772Z</time></trkpt><trkpt lat="45.5043433" lon="11.0797583"><ele>410.0</ele><time>2026-04-08T11:20:27.771Z</time></trkpt><trkpt lat="45.504355" lon="11.07994"><ele>410.0</ele><time>2026-04-08T11:20:29.771Z</time></trkpt><trkpt lat="45.5043417" lon="11.08007"><ele>410.0</ele><time>2026-04-08T11:20:30.771Z</time></trkpt><trkpt lat="45.5043283" lon="11.0802117"><ele>411.75</ele><time>2026-04-08T11:20:31.772Z</time></trkpt><trkpt lat="45.5043083" lon="11.080365"><ele>413.5</ele><time>2026-04-08T11:20:32.772Z</time></trkpt><trkpt lat="45.5042917" lon="11.080525"><ele>415.25</ele><time>2026-04-08T11:20:33.771Z</time></trkpt><trkpt lat="45.50427" lon="11.080685"><ele>417.0</ele><time>2026-04-08T11:20:34.772Z</time></trkpt><trkpt lat="45.5042433" lon="11.08085"><ele>417.8</ele><time>2026-04-08T11:20:35.771Z</time></trkpt><trkpt lat="45.50423" lon="11.0810033"><ele>418.6</ele><time>2026-04-08T11:20:36.771Z</time></trkpt><trkpt lat="45.5042233" lon="11.0811533"><ele>419.40000000000003</ele><time>2026-04-08T11:20:37.772Z</time></trkpt><trkpt lat="45.50422" lon="11.081315"><ele>420.20000000000005</ele><time>2026-04-08T11:20:38.771Z</time></trkpt><trkpt lat="45.504215" lon="11.0814767"><ele>421.0</ele><time>2026-04-08T11:20:39.771Z</time></trkpt><trkpt lat="45.50421" lon="11.0816433"><ele>422.6</ele><time>2026-04-08T11:20:40.771Z</time></trkpt><trkpt lat="45.50421" lon="11.0817883"><ele>424.20000000000005</ele><time>2026-04-08T11:20:41.772Z</time></trkpt><trkpt lat="45.504235" lon="11.0819117"><ele>425.79999999999995</ele><time>2026-04-08T11:20:42.771Z</time></trkpt><trkpt lat="45.5042717" lon="11.0820133"><ele>427.4</ele><time>2026-04-08T11:20:43.771Z</time></trkpt><trkpt lat="45.50433" lon="11.082105"><ele>429.0</ele><time>2026-04-08T11:20:44.771Z</time></trkpt><trkpt lat="45.5044017" lon="11.0821967"><ele>429.0</ele><time>2026-04-08T11:20:45.772Z</time></trkpt><trkpt lat="45.5044833" lon="11.08229"><ele>429.0</ele><time>2026-04-08T11:20:46.771Z</time></trkpt><trkpt lat="45.5045583" lon="11.0824033"><ele>429.0</ele><time>2026-04-08T11:20:47.771Z</time></trkpt><trkpt lat="45.50463" lon="11.0825217"><ele>429.0</ele><time>2026-04-08T11:20:48.772Z</time></trkpt><trkpt lat="45.5047117" lon="11.0826383"><ele>429.0</ele><time>2026-04-08T11:20:49.772Z</time></trkpt><trkpt lat="45.50479" lon="11.082735"><ele>429.5</ele><time>2026-04-08T11:20:50.772Z</time></trkpt><trkpt lat="45.504865" lon="11.082815"><ele>430.0</ele><time>2026-04-08T11:20:51.771Z</time></trkpt><trkpt lat="45.5049383" lon="11.0829017"><ele>430.5</ele><time>2026-04-08T11:20:52.772Z</time></trkpt><trkpt lat="45.5049967" lon="11.0829933"><ele>431.0</ele><time>2026-04-08T11:20:53.771Z</time></trkpt><trkpt lat="45.5050383" lon="11.0830917"><ele>431.5</ele><time>2026-04-08T11:20:54.772Z</time></trkpt><trkpt lat="45.5050583" lon="11.0831917"><ele>432.0</ele><time>2026-04-08T11:20:55.771Z</time></trkpt><trkpt lat="45.5050633" lon="11.0832917"><ele>433.5</ele><time>2026-04-08T11:20:56.772Z</time></trkpt><trkpt lat="45.5050283" lon="11.0833767"><ele>435.0</ele><time>2026-04-08T11:20:57.772Z</time></trkpt><trkpt lat="45.50495" lon="11.08344"><ele>436.5</ele><time>2026-04-08T11:20:58.771Z</time></trkpt><trkpt lat="45.5048967" lon="11.0835217"><ele>438.0</ele><time>2026-04-08T11:20:59.772Z</time></trkpt><trkpt lat="45.504845" lon="11.0836067"><ele>439.5</ele><time>2026-04-08T11:21:00.771Z</time></trkpt><trkpt lat="45.5047933" lon="11.0837083"><ele>441.0</ele><time>2026-04-08T11:21:01.771Z</time></trkpt><trkpt lat="45.50474" lon="11.0838567"><ele>441.0</ele><time>2026-04-08T11:21:02.772Z</time></trkpt><trkpt lat="45.5047083" lon="11.0839817"><ele>441.0</ele><time>2026-04-08T11:21:03.771Z</time></trkpt><trkpt lat="45.504695" lon="11.084115"><ele>441.0</ele><time>2026-04-08T11:21:04.771Z</time></trkpt><trkpt lat="45.5046917" lon="11.0842433"><ele>441.0</ele><time>2026-04-08T11:21:05.771Z</time></trkpt><trkpt lat="45.5046967" lon="11.08439"><ele>441.0</ele><time>2026-04-08T11:21:06.771Z</time></trkpt><trkpt lat="45.5047083" lon="11.0845467"><ele>442.0</ele><time>2026-04-08T11:21:07.771Z</time></trkpt><trkpt lat="45.5047233" lon="11.0847283"><ele>443.0</ele><time>2026-04-08T11:21:08.771Z</time></trkpt><trkpt lat="45.5047367" lon="11.0849117"><ele>444.0</ele><time>2026-04-08T11:21:09.772Z</time></trkpt><trkpt lat="45.50475" lon="11.08508"><ele>445.0</ele><time>2026-04-08T11:21:10.771Z</time></trkpt><trkpt lat="45.5047417" lon="11.0852417"><ele>447.0</ele><time>2026-04-08T11:21:11.771Z</time></trkpt><trkpt lat="45.5047217" lon="11.0853617"><ele>449.0</ele><time>2026-04-08T11:21:12.772Z</time></trkpt><trkpt lat="45.5046983" lon="11.0855"><ele>451.0</ele><time>2026-04-08T11:21:13.771Z</time></trkpt><trkpt lat="45.50466" lon="11.0856333"><ele>453.0</ele><time>2026-04-08T11:21:14.771Z</time></trkpt><trkpt lat="45.5045967" lon="11.0857583"><ele>455.0</ele><time>2026-04-08T11:21:15.771Z</time></trkpt><trkpt lat="45.50455" lon="11.085885"><ele>457.25</ele><time>2026-04-08T11:21:16.771Z</time></trkpt><trkpt lat="45.504505" lon="11.0860383"><ele>459.5</ele><time>2026-04-08T11:21:17.772Z</time></trkpt><trkpt lat="45.5044683" lon="11.0862133"><ele>461.75</ele><time>2026-04-08T11:21:18.772Z</time></trkpt><trkpt lat="45.5044367" lon="11.086405"><ele>464.0</ele><time>2026-04-08T11:21:19.772Z</time></trkpt><trkpt lat="45.5043933" lon="11.0866083"><ele>466.25</ele><time>2026-04-08T11:21:20.771Z</time></trkpt><trkpt lat="45.5043583" lon="11.08681"><ele>468.5</ele><time>2026-04-08T11:21:21.772Z</time></trkpt><trkpt lat="45.504335" lon="11.087005"><ele>470.75</ele><time>2026-04-08T11:21:22.772Z</time></trkpt><trkpt lat="45.5043383" lon="11.0871867"><ele>473.0</ele><time>2026-04-08T11:21:23.771Z</time></trkpt><trkpt lat="45.5043517" lon="11.0873583"><ele>477.25</ele><time>2026-04-08T11:21:24.772Z</time></trkpt><trkpt lat="45.5043817" lon="11.08751"><ele>481.5</ele><time>2026-04-08T11:21:25.772Z</time></trkpt><trkpt lat="45.504415" lon="11.0876633"><ele>485.75</ele><time>2026-04-08T11:21:26.772Z</time></trkpt><trkpt lat="45.5044617" lon="11.0878083"><ele>490.0</ele><time>2026-04-08T11:21:27.772Z</time></trkpt><trkpt lat="45.5045233" lon="11.08795"><ele>488.75</ele><time>2026-04-08T11:21:28.771Z</time></trkpt><trkpt lat="45.5045933" lon="11.0880983"><ele>487.5</ele><time>2026-04-08T11:21:29.771Z</time></trkpt><trkpt lat="45.5046633" lon="11.0882483"><ele>486.25</ele><time>2026-04-08T11:21:30.771Z</time></trkpt><trkpt lat="45.5047367" lon="11.0883967"><ele>485.0</ele><time>2026-04-08T11:21:31.771Z</time></trkpt><trkpt lat="45.5047967" lon="11.0885133"><ele>487.49999999999994</ele><time>2026-04-08T11:21:32.772Z</time></trkpt><trkpt lat="45.50484" lon="11.088605"><ele>490.0</ele><time>2026-04-08T11:21:33.771Z</time></trkpt><trkpt lat="45.504885" lon="11.0886933"><ele>492.5</ele><time>2026-04-08T11:21:34.772Z</time></trkpt><trkpt lat="45.5047933" lon="11.0887333"><ele>495.0</ele><time>2026-04-08T11:21:38.771Z</time></trkpt><trkpt lat="45.5046883" lon="11.0887733"><ele>497.49999999999994</ele><time>2026-04-08T11:21:40.771Z</time></trkpt><trkpt lat="45.5046333" lon="11.0888183"><ele>500.0</ele><time>2026-04-08T11:21:41.772Z</time></trkpt><trkpt lat="45.5045867" lon="11.08888"><ele>500.2857142857143</ele><time>2026-04-08T11:21:42.772Z</time></trkpt><trkpt lat="45.50455" lon="11.0889667"><ele>500.57142857142856</ele><time>2026-04-08T11:21:43.772Z</time></trkpt><trkpt lat="45.5045233" lon="11.08907"><ele>500.85714285714283</ele><time>2026-04-08T11:21:44.771Z</time></trkpt><trkpt lat="45.504495" lon="11.0891733"><ele>501.1428571428571</ele><time>2026-04-08T11:21:45.771Z</time></trkpt><trkpt lat="45.5044767" lon="11.0892817"><ele>501.42857142857144</ele><time>2026-04-08T11:21:46.772Z</time></trkpt><trkpt lat="45.50447" lon="11.0893883"><ele>501.71428571428567</ele><time>2026-04-08T11:21:47.772Z</time></trkpt><trkpt lat="45.50447" lon="11.0894817"><ele>501.99999999999994</ele><time>2026-04-08T11:21:48.772Z</time></trkpt><trkpt lat="45.5044833" lon="11.089575"><ele>505.20000000000005</ele><time>2026-04-08T11:21:49.772Z</time></trkpt><trkpt lat="45.5045933" lon="11.089695"><ele>508.40000000000003</ele><time>2026-04-08T11:21:51.772Z</time></trkpt><trkpt lat="45.5046967" lon="11.0897583"><ele>511.59999999999997</ele><time>2026-04-08T11:21:52.772Z</time></trkpt><trkpt lat="45.5047883" lon="11.0898267"><ele>514.8</ele><time>2026-04-08T11:21:53.771Z</time></trkpt><trkpt lat="45.5048517" lon="11.089895"><ele>518.0</ele><time>2026-04-08T11:21:54.772Z</time></trkpt><trkpt lat="45.5049183" lon="11.0899933"><ele>520.1999999999999</ele><time>2026-04-08T11:21:55.772Z</time></trkpt><trkpt lat="45.50496" lon="11.090095"><ele>522.4</ele><time>2026-04-08T11:21:56.772Z</time></trkpt><trkpt lat="45.5049717" lon="11.0902417"><ele>524.5999999999999</ele><time>2026-04-08T11:21:57.771Z</time></trkpt><trkpt lat="45.5049767" lon="11.0903683"><ele>526.8</ele><time>2026-04-08T11:21:58.771Z</time></trkpt><trkpt lat="45.5049783" lon="11.0905017"><ele>529.0</ele><time>2026-04-08T11:21:59.771Z</time></trkpt><trkpt lat="45.5049467" lon="11.090665"><ele>530.75</ele><time>2026-04-08T11:22:00.772Z</time></trkpt><trkpt lat="45.5048883" lon="11.0908383"><ele>532.5</ele><time>2026-04-08T11:22:01.772Z</time></trkpt><trkpt lat="45.50483" lon="11.0909967"><ele>534.25</ele><time>2026-04-08T11:22:02.771Z</time></trkpt><trkpt lat="45.5047667" lon="11.0911517"><ele>536.0</ele><time>2026-04-08T11:22:03.772Z</time></trkpt><trkpt lat="45.5047" lon="11.091315"><ele>536.0</ele><time>2026-04-08T11:22:04.772Z</time></trkpt><trkpt lat="45.504655" lon="11.09148"><ele>536.0</ele><time>2026-04-08T11:22:05.771Z</time></trkpt><trkpt lat="45.5046133" lon="11.0916267"><ele>536.0</ele><time>2026-04-08T11:22:06.77Z</time></trkpt><trkpt lat="45.5045717" lon="11.0917833"><ele>536.0</ele><time>2026-04-08T11:22:07.77Z</time></trkpt><trkpt lat="45.5045333" lon="11.0919417"><ele>537.0</ele><time>2026-04-08T11:22:08.77Z</time></trkpt><trkpt lat="45.504495" lon="11.0921167"><ele>538.0</ele><time>2026-04-08T11:22:09.77Z</time></trkpt><trkpt lat="45.5044517" lon="11.0922917"><ele>539.0</ele><time>2026-04-08T11:22:10.771Z</time></trkpt><trkpt lat="45.5044133" lon="11.092465"><ele>540.0</ele><time>2026-04-08T11:22:11.771Z</time></trkpt><trkpt lat="45.50439" lon="11.0926367"><ele>541.25</ele><time>2026-04-08T11:22:12.771Z</time></trkpt><trkpt lat="45.5043883" lon="11.0928"><ele>542.5</ele><time>2026-04-08T11:22:13.77Z</time></trkpt><trkpt lat="45.5043883" lon="11.09299"><ele>543.75</ele><time>2026-04-08T11:22:14.771Z</time></trkpt><trkpt lat="45.504405" lon="11.0931567"><ele>545.0</ele><time>2026-04-08T11:22:15.77Z</time></trkpt><trkpt lat="45.5044067" lon="11.093325"><ele>546.2</ele><time>2026-04-08T11:22:16.77Z</time></trkpt><trkpt lat="45.5044167" lon="11.0934867"><ele>547.4</ele><time>2026-04-08T11:22:17.77Z</time></trkpt><trkpt lat="45.504435" lon="11.0936383"><ele>548.6</ele><time>2026-04-08T11:22:18.77Z</time></trkpt><trkpt lat="45.5044567" lon="11.0937817"><ele>549.8</ele><time>2026-04-08T11:22:19.771Z</time></trkpt><trkpt lat="45.5044817" lon="11.0939033"><ele>551.0</ele><time>2026-04-08T11:22:20.771Z</time></trkpt><trkpt lat="45.5044917" lon="11.0939933"><ele>550.75</ele><time>2026-04-08T11:22:21.771Z</time></trkpt><trkpt lat="45.5044917" lon="11.0941033"><ele>550.5</ele><time>2026-04-08T11:22:23.77Z</time></trkpt><trkpt lat="45.504655" lon="11.09414"><ele>550.25</ele><time>2026-04-08T11:22:56.771Z</time></trkpt><trkpt lat="45.5047933" lon="11.0941367"><ele>550.0</ele><time>2026-04-08T11:22:57.77Z</time></trkpt><trkpt lat="45.5049333" lon="11.0941233"><ele>551.6666666666667</ele><time>2026-04-08T11:22:58.77Z</time></trkpt><trkpt lat="45.5050967" lon="11.0941283"><ele>553.3333333333334</ele><time>2026-04-08T11:22:59.77Z</time></trkpt><trkpt lat="45.5052583" lon="11.0941333"><ele>555.0</ele><time>2026-04-08T11:23:00.771Z</time></trkpt><trkpt lat="45.5054017" lon="11.094165"><ele>555.3333333333334</ele><time>2026-04-08T11:23:01.771Z</time></trkpt><trkpt lat="45.5055667" lon="11.0941983"><ele>555.6666666666667</ele><time>2026-04-08T11:23:02.771Z</time></trkpt><trkpt lat="45.505715" lon="11.094225"><ele>556.0</ele><time>2026-04-08T11:23:03.77Z</time></trkpt><trkpt lat="45.5058583" lon="11.0942283"><ele>556.0</ele><time>2026-04-08T11:23:04.77Z</time></trkpt><trkpt lat="45.5059917" lon="11.09421"><ele>556.0</ele><time>2026-04-08T11:23:05.771Z</time></trkpt><trkpt lat="45.5061017" lon="11.0941483"><ele>556.0</ele><time>2026-04-08T11:23:06.771Z</time></trkpt><trkpt lat="45.506185" lon="11.0940567"><ele>556.0</ele><time>2026-04-08T11:23:07.77Z</time></trkpt><trkpt lat="45.50628" lon="11.0939983"><ele>555.5</ele><time>2026-04-08T11:23:08.771Z</time></trkpt><trkpt lat="45.506375" lon="11.093945"><ele>555.0</ele><time>2026-04-08T11:23:09.77Z</time></trkpt><trkpt lat="45.5064633" lon="11.09389"><ele>554.5</ele><time>2026-04-08T11:23:10.771Z</time></trkpt><trkpt lat="45.5065833" lon="11.0938733"><ele>554.0</ele><time>2026-04-08T11:23:11.771Z</time></trkpt><trkpt lat="45.5067133" lon="11.093825"><ele>554.0</ele><time>2026-04-08T11:23:12.771Z</time></trkpt><trkpt lat="45.50685" lon="11.0937433"><ele>554.0</ele><time>2026-04-08T11:23:13.77Z</time></trkpt><trkpt lat="45.5070083" lon="11.093635"><ele>554.0</ele><time>2026-04-08T11:23:14.77Z</time></trkpt><trkpt lat="45.5072067" lon="11.09344"><ele>555.6666666666666</ele><time>2026-04-08T11:23:15.771Z</time></trkpt><trkpt lat="45.5073867" lon="11.09326"><ele>557.3333333333334</ele><time>2026-04-08T11:23:16.77Z</time></trkpt><trkpt lat="45.50754" lon="11.0930817"><ele>559.0</ele><time>2026-04-08T11:23:17.77Z</time></trkpt><trkpt lat="45.5076717" lon="11.092935"><ele>559.0</ele><time>2026-04-08T11:23:18.77Z</time></trkpt><trkpt lat="45.5078" lon="11.092825"><ele>559.0</ele><time>2026-04-08T11:23:19.771Z</time></trkpt><trkpt lat="45.5078867" lon="11.0927667"><ele>559.0</ele><time>2026-04-08T11:23:20.771Z</time></trkpt><trkpt lat="45.5079433" lon="11.0926783"><ele>559.0</ele><time>2026-04-08T11:23:21.77Z</time></trkpt><trkpt lat="45.5079967" lon="11.0925883"><ele>559.0</ele><time>2026-04-08T11:23:22.77Z</time></trkpt><trkpt lat="45.5080533" lon="11.0925267"><ele>560.2</ele><time>2026-04-08T11:23:23.771Z</time></trkpt><trkpt lat="45.5081567" lon="11.09243"><ele>561.4</ele><time>2026-04-08T11:23:25.77Z</time></trkpt><trkpt lat="45.5081783" lon="11.0923033"><ele>562.6</ele><time>2026-04-08T11:23:26.77Z</time></trkpt><trkpt lat="45.508175" lon="11.092165"><ele>563.8</ele><time>2026-04-08T11:23:27.77Z</time></trkpt><trkpt lat="45.5081517" lon="11.09202"><ele>565.0</ele><time>2026-04-08T11:23:28.771Z</time></trkpt><trkpt lat="45.50813" lon="11.0918867"><ele>565.0</ele><time>2026-04-08T11:23:29.771Z</time></trkpt><trkpt lat="45.5081083" lon="11.0917733"><ele>565.0</ele><time>2026-04-08T11:23:30.771Z</time></trkpt><trkpt lat="45.50809" lon="11.091675"><ele>565.0</ele><time>2026-04-08T11:23:31.77Z</time></trkpt><trkpt lat="45.5080783" lon="11.0915383"><ele>565.0</ele><time>2026-04-08T11:23:33.771Z</time></trkpt><trkpt lat="45.5081183" lon="11.0916117"><ele>565.0</ele><time>2026-04-08T11:23:35.77Z</time></trkpt><trkpt lat="45.5081967" lon="11.091735"><ele>565.0</ele><time>2026-04-08T11:23:37.77Z</time></trkpt><trkpt lat="45.5082633" lon="11.09184"><ele>565.0</ele><time>2026-04-08T11:23:39.771Z</time></trkpt><trkpt lat="45.50819" lon="11.091705"><ele>565.0</ele><time>2026-04-08T11:25:39.77Z</time></trkpt><trkpt lat="45.50815" lon="11.0916183"><ele>565.0</ele><time>2026-04-08T11:25:40.769Z</time></trkpt><trkpt lat="45.5081317" lon="11.09152"><ele>565.0</ele><time>2026-04-08T11:25:42.77Z</time></trkpt><trkpt lat="45.50816" lon="11.0914233"><ele>565.0</ele><time>2026-04-08T11:25:44.769Z</time></trkpt><trkpt lat="45.5081383" lon="11.0913317"><ele>565.0</ele><time>2026-04-08T11:25:45.769Z</time></trkpt><trkpt lat="45.5081283" lon="11.09119"><ele>565.0</ele><time>2026-04-08T11:25:47.77Z</time></trkpt><trkpt lat="45.508105" lon="11.091095"><ele>565.0</ele><time>2026-04-08T11:25:49.769Z</time></trkpt><trkpt lat="45.508125" lon="11.091235"><ele>565.0</ele><time>2026-04-08T11:25:53.769Z</time></trkpt><trkpt lat="45.50813" lon="11.0913433"><ele>565.0</ele><time>2026-04-08T11:25:54.77Z</time></trkpt><trkpt lat="45.508115" lon="11.0914717"><ele>565.0</ele><time>2026-04-08T11:25:55.77Z</time></trkpt><trkpt lat="45.5081033" lon="11.0915917"><ele>565.0</ele><time>2026-04-08T11:25:56.769Z</time></trkpt><trkpt lat="45.5081" lon="11.091725"><ele>565.0</ele><time>2026-04-08T11:25:57.769Z</time></trkpt><trkpt lat="45.5081017" lon="11.0918417"><ele>565.0</ele><time>2026-04-08T11:25:58.77Z</time></trkpt><trkpt lat="45.5081033" lon="11.091965"><ele>565.0</ele><time>2026-04-08T11:25:59.769Z</time></trkpt><trkpt lat="45.5081133" lon="11.092075"><ele>565.0</ele><time>2026-04-08T11:26:00.769Z</time></trkpt><trkpt lat="45.5081183" lon="11.0921917"><ele>565.0</ele><time>2026-04-08T11:26:01.769Z</time></trkpt><trkpt lat="45.5081117" lon="11.0923117"><ele>565.0</ele><time>2026-04-08T11:26:02.769Z</time></trkpt><trkpt lat="45.5080883" lon="11.0924317"><ele>564.0</ele><time>2026-04-08T11:26:03.77Z</time></trkpt><trkpt lat="45.5080767" lon="11.0925317"><ele>563.0</ele><time>2026-04-08T11:26:04.77Z</time></trkpt><trkpt lat="45.5080067" lon="11.0926583"><ele>562.0</ele><time>2026-04-08T11:26:06.769Z</time></trkpt><trkpt lat="45.5079417" lon="11.0926983"><ele>561.0</ele><time>2026-04-08T11:26:07.769Z</time></trkpt><trkpt lat="45.5078817" lon="11.0927417"><ele>560.0</ele><time>2026-04-08T11:26:09.77Z</time></trkpt><trkpt lat="45.5079433" lon="11.0927133"><ele>559.0</ele><time>2026-04-08T11:26:13.769Z</time></trkpt><trkpt lat="45.5080517" lon="11.0926167"><ele>560.5</ele><time>2026-04-08T11:26:15.77Z</time></trkpt><trkpt lat="45.5081333" lon="11.0924967"><ele>562.0</ele><time>2026-04-08T11:26:16.769Z</time></trkpt><trkpt lat="45.50821" lon="11.0923333"><ele>563.5</ele><time>2026-04-08T11:26:17.769Z</time></trkpt><trkpt lat="45.5083" lon="11.0921433"><ele>565.0</ele><time>2026-04-08T11:26:18.77Z</time></trkpt><trkpt lat="45.5083783" lon="11.0919933"><ele>565.0</ele><time>2026-04-08T11:26:19.769Z</time></trkpt><trkpt lat="45.5084433" lon="11.091835"><ele>565.0</ele><time>2026-04-08T11:26:20.769Z</time></trkpt><trkpt lat="45.50851" lon="11.0917133"><ele>565.0</ele><time>2026-04-08T11:26:21.77Z</time></trkpt><trkpt lat="45.5085633" lon="11.0916117"><ele>565.0</ele><time>2026-04-08T11:26:22.769Z</time></trkpt><trkpt lat="45.5086267" lon="11.0916033"><ele>565.0</ele><time>2026-04-08T11:26:23.77Z</time></trkpt><trkpt lat="45.5086967" lon="11.0916617"><ele>565.0</ele><time>2026-04-08T11:26:25.77Z</time></trkpt><trkpt lat="45.50859" lon="11.091675"><ele>565.0</ele><time>2026-04-08T11:26:29.77Z</time></trkpt><trkpt lat="45.5085267" lon="11.0917117"><ele>565.0</ele><time>2026-04-08T11:26:30.769Z</time></trkpt><trkpt lat="45.5084533" lon="11.09175"><ele>565.0</ele><time>2026-04-08T11:26:31.77Z</time></trkpt><trkpt lat="45.50836" lon="11.09186"><ele>565.0</ele><time>2026-04-08T11:26:33.77Z</time></trkpt><trkpt lat="45.5082633" lon="11.0919267"><ele>565.0</ele><time>2026-04-08T11:26:35.77Z</time></trkpt><trkpt lat="45.5082167" lon="11.0920167"><ele>565.0</ele><time>2026-04-08T11:26:37.769Z</time></trkpt><trkpt lat="45.5082917" lon="11.091955"><ele>565.0</ele><time>2026-04-08T11:26:40.769Z</time></trkpt><trkpt lat="45.50838" lon="11.0919767"><ele>565.0</ele><time>2026-04-08T11:27:21.768Z</time></trkpt><trkpt lat="45.5083067" lon="11.092105"><ele>565.0</ele><time>2026-04-08T11:27:37.768Z</time></trkpt><trkpt lat="45.5082417" lon="11.0922233"><ele>565.0</ele><time>2026-04-08T11:27:38.769Z</time></trkpt><trkpt lat="45.5081533" lon="11.092405"><ele>565.0</ele><time>2026-04-08T11:27:39.768Z</time></trkpt><trkpt lat="45.5080583" lon="11.09254"><ele>565.0</ele><time>2026-04-08T11:27:40.769Z</time></trkpt><trkpt lat="45.5079733" lon="11.092645"><ele>565.0</ele><time>2026-04-08T11:27:41.769Z</time></trkpt><trkpt lat="45.50791" lon="11.0926367"><ele>565.0</ele><time>2026-04-08T11:27:43.769Z</time></trkpt><trkpt lat="45.508" lon="11.0925167"><ele>565.0</ele><time>2026-04-08T11:27:48.769Z</time></trkpt><trkpt lat="45.5080533" lon="11.0923967"><ele>565.0</ele><time>2026-04-08T11:27:50.768Z</time></trkpt><trkpt lat="45.5080767" lon="11.0923017"><ele>565.0</ele><time>2026-04-08T11:27:51.769Z</time></trkpt><trkpt lat="45.5080933" lon="11.09218"><ele>565.0</ele><time>2026-04-08T11:27:52.769Z</time></trkpt><trkpt lat="45.508095" lon="11.092055"><ele>565.0</ele><time>2026-04-08T11:27:53.768Z</time></trkpt><trkpt lat="45.50806" lon="11.0919167"><ele>565.0</ele><time>2026-04-08T11:27:54.768Z</time></trkpt><trkpt lat="45.508035" lon="11.09181"><ele>565.0</ele><time>2026-04-08T11:27:55.768Z</time></trkpt><trkpt lat="45.5080317" lon="11.091715"><ele>565.0</ele><time>2026-04-08T11:27:56.768Z</time></trkpt><trkpt lat="45.5080533" lon="11.091615"><ele>565.0</ele><time>2026-04-08T11:27:58.769Z</time></trkpt><trkpt lat="45.5080817" lon="11.0915067"><ele>565.0</ele><time>2026-04-08T11:28:01.769Z</time></trkpt><trkpt lat="45.5081117" lon="11.0913933"><ele>554.0</ele><time>2026-04-08T11:28:42.769Z</time></trkpt><trkpt lat="45.5080733" lon="11.0913033"><ele>554.0</ele><time>2026-04-08T11:28:43.768Z</time></trkpt></trkseg></trk></gpx>